Wetterdaten: Samstag, 23.02.2019
Datum Zeit Temp. A. Feuchte A. Luftdruck Regen Wind Richtung Richtung Sonnenschein ET UV Solar Taupunkt Windchill Windböen
23.02.2019 00:00 2,2 °C 95 % 1036,2 hPa 0,0 mm 0,0 km/h (0 Bft) O 94 ° 0 min 0,000 mm 0,0 UV-I 0 W/m² 1,5 °C 2,2 °C 0,0 km/h (0 Bft)
23.02.2019 00:01 2,2 °C 95 % 1036,2 hPa 0,0 mm 0,0 km/h (0 Bft) O 101 ° 0 min 0,000 mm 0,0 UV-I 0 W/m² 1,5 °C 2,2 °C 0,0 km/h (0 Bft)
23.02.2019 00:02 2,2 °C 95 % 1036,2 hPa 0,0 mm 0,0 km/h (0 Bft) O 101 ° 0 min 0,000 mm 0,0 UV-I 0 W/m² 1,5 °C 2,2 °C 0,0 km/h (0 Bft)
23.02.2019 00:03 2,2 °C 95 % 1036,2 hPa 0,0 mm 0,5 km/h (0 Bft) O-SO 104 ° 0 min 0,000 mm 0,0 UV-I 0 W/m² 1,5 °C 2,2 °C 3,2 km/h (1 Bft)
23.02.2019 00:04 2,2 °C 95 % 1036,2 hPa 0,0 mm 0,3 km/h (0 Bft) O-SO 104 ° 0 min 0,000 mm 0,0 UV-I 0 W/m² 1,5 °C 2,2 °C 3,2 km/h (1 Bft)
23.02.2019 00:05 2,2 °C 95 % 1036,2 hPa 0,0 mm 0,9 km/h (0 Bft) O-SO 104 ° 0 min 0,000 mm 0,0 UV-I 0 W/m² 1,5 °C 2,2 °C 3,2 km/h (1 Bft)
23.02.2019 00:06 2,2 °C 95 % 1036,2 hPa 0,0 mm 0,0 km/h (0 Bft) O-SO 104 ° 0 min 0,000 mm 0,0 UV-I 0 W/m² 1,5 °C 2,2 °C 0,0 km/h (0 Bft)
23.02.2019 00:07 2,3 °C 95 % 1036,1 hPa 0,0 mm 2,0 km/h (1 Bft) O-SO 121 ° 0 min 0,000 mm 0,0 UV-I 0 W/m² 1,6 °C 2,3 °C 4,8 km/h (1 Bft)
23.02.2019 00:08 2,3 °C 95 % 1036,1 hPa 0,0 mm 0,1 km/h (0 Bft) O-NO 69 ° 0 min 0,000 mm 0,0 UV-I 0 W/m² 1,6 °C 2,3 °C 1,6 km/h (1 Bft)
23.02.2019 00:09 2,2 °C 95 % 1036,1 hPa 0,0 mm 3,1 km/h (1 Bft) O-NO 67 ° 0 min 0,000 mm 0,0 UV-I 0 W/m² 1,5 °C 2,2 °C 6,4 km/h (2 Bft)
23.02.2019 00:10 2,3 °C 95 % 1036,1 hPa 0,0 mm 3,5 km/h (1 Bft) O-SO 113 ° 0 min 0,000 mm 0,0 UV-I 0 W/m² 1,6 °C 2,3 °C 6,4 km/h (2 Bft)
23.02.2019 00:11 2,3 °C 95 % 1036,1 hPa 0,0 mm 2,4 km/h (1 Bft) O-SO 110 ° 0 min 0,000 mm 0,0 UV-I 0 W/m² 1,6 °C 2,3 °C 6,4 km/h (2 Bft)
23.02.2019 00:12 2,3 °C 95 % 1036,1 hPa 0,0 mm 2,6 km/h (1 Bft) O 96 ° 0 min 0,000 mm 0,0 UV-I 0 W/m² 1,6 °C 2,3 °C 6,4 km/h (2 Bft)
23.02.2019 00:13 2,3 °C 95 % 1036,1 hPa 0,0 mm 1,6 km/h (1 Bft) O-SO 115 ° 0 min 0,000 mm 0,0 UV-I 0 W/m² 1,6 °C 2,3 °C 4,8 km/h (1 Bft)
23.02.2019 00:14 2,2 °C 95 % 1036,1 hPa 0,0 mm 0,0 km/h (0 Bft) O-SO 115 ° 0 min 0,000 mm 0,0 UV-I 0 W/m² 1,5 °C 2,2 °C 0,0 km/h (0 Bft)
23.02.2019 00:15 2,3 °C 95 % 1036,1 hPa 0,0 mm 0,0 km/h (0 Bft) O-SO 115 ° 0 min 0,000 mm 0,0 UV-I 0 W/m² 1,6 °C 2,3 °C 0,0 km/h (0 Bft)
23.02.2019 00:16 2,2 °C 95 % 1036,1 hPa 0,0 mm 0,0 km/h (0 Bft) O-SO 115 ° 0 min 0,000 mm 0,0 UV-I 0 W/m² 1,5 °C 2,2 °C 0,0 km/h (0 Bft)
23.02.2019 00:17 2,2 °C 95 % 1036,1 hPa 0,0 mm 0,1 km/h (0 Bft) O-SO 115 ° 0 min 0,000 mm 0,0 UV-I 0 W/m² 1,5 °C 2,2 °C 1,6 km/h (1 Bft)
23.02.2019 00:18 2,2 °C 95 % 1036,1 hPa 0,0 mm 1,5 km/h (1 Bft) SO 131 ° 0 min 0,000 mm 0,0 UV-I 0 W/m² 1,5 °C 2,2 °C 4,8 km/h (1 Bft)
23.02.2019 00:19 2,2 °C 95 % 1036,1 hPa 0,0 mm 1,3 km/h (1 Bft) O-SO 116 ° 0 min 0,000 mm 0,0 UV-I 0 W/m² 1,5 °C 2,2 °C 4,8 km/h (1 Bft)
23.02.2019 00:20 2,2 °C 95 % 1036,1 hPa 0,0 mm 1,7 km/h (1 Bft) O 101 ° 0 min 0,000 mm 0,0 UV-I 0 W/m² 1,5 °C 2,2 °C 4,8 km/h (1 Bft)
23.02.2019 00:21 2,2 °C 95 % 1036,1 hPa 0,0 mm 3,5 km/h (1 Bft) O-SO 123 ° 0 min 0,000 mm 0,0 UV-I 0 W/m² 1,5 °C 2,2 °C 4,8 km/h (1 Bft)
23.02.2019 00:22 2,1 °C 95 % 1036,1 hPa 0,0 mm 0,3 km/h (0 Bft) O-SO 123 ° 0 min 0,000 mm 0,0 UV-I 0 W/m² 1,4 °C 2,1 °C 1,6 km/h (1 Bft)
23.02.2019 00:23 2,2 °C 95 % 1036,1 hPa 0,0 mm 0,2 km/h (0 Bft) SO 136 ° 0 min 0,000 mm 0,0 UV-I 0 W/m² 1,5 °C 2,2 °C 1,6 km/h (1 Bft)
23.02.2019 00:24 2,2 °C 95 % 1036,1 hPa 0,0 mm 0,0 km/h (0 Bft) SO 136 ° 0 min 0,000 mm 0,0 UV-I 0 W/m² 1,5 °C 2,2 °C 0,0 km/h (0 Bft)
23.02.2019 00:25 2,2 °C 95 % 1036,1 hPa 0,0 mm 2,5 km/h (1 Bft) SO 125 ° 0 min 0,000 mm 0,0 UV-I 0 W/m² 1,5 °C 2,2 °C 4,8 km/h (1 Bft)
23.02.2019 00:26 2,1 °C 95 % 1036,1 hPa 0,0 mm 3,8 km/h (1 Bft) O-SO 106 ° 0 min 0,000 mm 0,0 UV-I 0 W/m² 1,4 °C 2,1 °C 6,4 km/h (2 Bft)
23.02.2019 00:27 2,1 °C 95 % 1036,1 hPa 0,0 mm 0,7 km/h (0 Bft) O-SO 106 ° 0 min 0,000 mm 0,0 UV-I 0 W/m² 1,4 °C 2,1 °C 3,2 km/h (1 Bft)
23.02.2019 00:28 2,1 °C 95 % 1036,1 hPa 0,0 mm 0,0 km/h (0 Bft) O-SO 106 ° 0 min 0,000 mm 0,0 UV-I 0 W/m² 1,4 °C 2,1 °C 0,0 km/h (0 Bft)
23.02.2019 00:29 2,1 °C 95 % 1036,1 hPa 0,0 mm 0,2 km/h (0 Bft) O-NO 71 ° 0 min 0,000 mm 0,0 UV-I 0 W/m² 1,4 °C 2,1 °C 1,6 km/h (1 Bft)
23.02.2019 00:30 2,0 °C 95 % 1036,2 hPa 0,0 mm 0,5 km/h (0 Bft) O-NO 71 ° 0 min 0,000 mm 0,0 UV-I 0 W/m² 1,3 °C 2,0 °C 1,6 km/h (1 Bft)
23.02.2019 00:31 2,0 °C 95 % 1036,2 hPa 0,0 mm 0,0 km/h (0 Bft) O-NO 71 ° 0 min 0,000 mm 0,0 UV-I 0 W/m² 1,3 °C 2,0 °C 0,0 km/h (0 Bft)
23.02.2019 00:32 2,0 °C 95 % 1036,2 hPa 0,0 mm 0,0 km/h (0 Bft) O-NO 71 ° 0 min 0,000 mm 0,0 UV-I 0 W/m² 1,3 °C 2,0 °C 0,0 km/h (0 Bft)
23.02.2019 00:33 2,0 °C 95 % 1036,2 hPa 0,0 mm 0,7 km/h (0 Bft) O-NO 71 ° 0 min 0,000 mm 0,0 UV-I 0 W/m² 1,3 °C 2,0 °C 1,6 km/h (1 Bft)
23.02.2019 00:34 2,0 °C 95 % 1036,2 hPa 0,0 mm 0,4 km/h (0 Bft) O-NO 71 ° 0 min 0,000 mm 0,0 UV-I 0 W/m² 1,3 °C 2,0 °C 3,2 km/h (1 Bft)
23.02.2019 00:35 1,9 °C 95 % 1036,2 hPa 0,0 mm 0,5 km/h (0 Bft) O-NO 71 ° 0 min 0,000 mm 0,0 UV-I 0 W/m² 1,2 °C 1,9 °C 3,2 km/h (1 Bft)
23.02.2019 00:36 1,9 °C 95 % 1036,2 hPa 0,0 mm 0,0 km/h (0 Bft) O-NO 71 ° 0 min 0,000 mm 0,0 UV-I 0 W/m² 1,2 °C 1,9 °C 0,0 km/h (0 Bft)
23.02.2019 00:37 1,9 °C 95 % 1036,2 hPa 0,0 mm 0,0 km/h (0 Bft) O-NO 71 ° 0 min 0,000 mm 0,0 UV-I 0 W/m² 1,2 °C 1,9 °C 0,0 km/h (0 Bft)
23.02.2019 00:38 1,9 °C 95 % 1036,2 hPa 0,0 mm 0,0 km/h (0 Bft) O-NO 71 ° 0 min 0,000 mm 0,0 UV-I 0 W/m² 1,2 °C 1,9 °C 0,0 km/h (0 Bft)
23.02.2019 00:39 1,9 °C 95 % 1036,2 hPa 0,0 mm 0,0 km/h (0 Bft) O-NO 71 ° 0 min 0,000 mm 0,0 UV-I 0 W/m² 1,2 °C 1,9 °C 0,0 km/h (0 Bft)
23.02.2019 00:40 1,9 °C 95 % 1036,2 hPa 0,0 mm 0,6 km/h (0 Bft) O 80 ° 0 min 0,000 mm 0,0 UV-I 0 W/m² 1,2 °C 1,9 °C 3,2 km/h (1 Bft)
23.02.2019 00:41 1,9 °C 95 % 1036,2 hPa 0,0 mm 0,1 km/h (0 Bft) O 80 ° 0 min 0,000 mm 0,0 UV-I 0 W/m² 1,2 °C 1,9 °C 1,6 km/h (1 Bft)
23.02.2019 00:42 1,9 °C 95 % 1036,2 hPa 0,0 mm 0,0 km/h (0 Bft) O 80 ° 0 min 0,000 mm 0,0 UV-I 0 W/m² 1,2 °C 1,9 °C 0,0 km/h (0 Bft)
23.02.2019 00:43 1,9 °C 95 % 1036,2 hPa 0,0 mm 0,6 km/h (0 Bft) O 80 ° 0 min 0,000 mm 0,0 UV-I 0 W/m² 1,2 °C 1,9 °C 3,2 km/h (1 Bft)
23.02.2019 00:44 1,9 °C 95 % 1036,2 hPa 0,0 mm 0,0 km/h (0 Bft) O 80 ° 0 min 0,000 mm 0,0 UV-I 0 W/m² 1,2 °C 1,9 °C 0,0 km/h (0 Bft)
23.02.2019 00:45 1,9 °C 95 % 1036,2 hPa 0,0 mm 0,0 km/h (0 Bft) O 80 ° 0 min 0,000 mm 0,0 UV-I 0 W/m² 1,2 °C 1,9 °C 0,0 km/h (0 Bft)
23.02.2019 00:46 1,9 °C 95 % 1036,2 hPa 0,0 mm 0,0 km/h (0 Bft) O 80 ° 0 min 0,000 mm 0,0 UV-I 0 W/m² 1,2 °C 1,9 °C 0,0 km/h (0 Bft)
23.02.2019 00:47 1,9 °C 95 % 1036,2 hPa 0,0 mm 0,0 km/h (0 Bft) O 80 ° 0 min 0,000 mm 0,0 UV-I 0 W/m² 1,2 °C 1,9 °C 0,0 km/h (0 Bft)
23.02.2019 00:48 1,9 °C 95 % 1036,1 hPa 0,0 mm 0,0 km/h (0 Bft) O 80 ° 0 min 0,000 mm 0,0 UV-I 0 W/m² 1,2 °C 1,9 °C 0,0 km/h (0 Bft)
23.02.2019 00:49 1,9 °C 95 % 1036,1 hPa 0,0 mm 0,0 km/h (0 Bft) O 80 ° 0 min 0,000 mm 0,0 UV-I 0 W/m² 1,2 °C 1,9 °C 0,0 km/h (0 Bft)
23.02.2019 00:50 1,9 °C 95 % 1036,1 hPa 0,0 mm 0,0 km/h (0 Bft) O 80 ° 0 min 0,000 mm 0,0 UV-I 0 W/m² 1,2 °C 1,9 °C 0,0 km/h (0 Bft)
23.02.2019 00:51 1,9 °C 95 % 1036,0 hPa 0,0 mm 0,0 km/h (0 Bft) O 80 ° 0 min 0,000 mm 0,0 UV-I 0 W/m² 1,2 °C 1,9 °C 0,0 km/h (0 Bft)
23.02.2019 00:52 1,9 °C 95 % 1036,0 hPa 0,0 mm 0,0 km/h (0 Bft) O 80 ° 0 min 0,000 mm 0,0 UV-I 0 W/m² 1,2 °C 1,9 °C 0,0 km/h (0 Bft)
23.02.2019 00:53 1,9 °C 95 % 1036,0 hPa 0,0 mm 0,0 km/h (0 Bft) O 80 ° 0 min 0,000 mm 0,0 UV-I 0 W/m² 1,2 °C 1,9 °C 0,0 km/h (0 Bft)
23.02.2019 00:54 1,9 °C 95 % 1036,0 hPa 0,0 mm 0,0 km/h (0 Bft) O 80 ° 0 min 0,000 mm 0,0 UV-I 0 W/m² 1,2 °C 1,9 °C 0,0 km/h (0 Bft)
23.02.2019 00:55 1,9 °C 95 % 1036,0 hPa 0,0 mm 2,1 km/h (1 Bft) O-NO 74 ° 0 min 0,000 mm 0,0 UV-I 0 W/m² 1,2 °C 1,9 °C 8,0 km/h (2 Bft)
23.02.2019 00:56 1,9 °C 95 % 1036,1 hPa 0,0 mm 2,5 km/h (1 Bft) O-SO 103 ° 0 min 0,000 mm 0,0 UV-I 0 W/m² 1,2 °C 1,9 °C 4,8 km/h (1 Bft)
23.02.2019 00:57 1,9 °C 95 % 1036,1 hPa 0,0 mm 0,0 km/h (0 Bft) O-SO 103 ° 0 min 0,000 mm 0,0 UV-I 0 W/m² 1,2 °C 1,9 °C 0,0 km/h (0 Bft)
23.02.2019 00:58 1,9 °C 95 % 1036,0 hPa 0,0 mm 0,0 km/h (0 Bft) O-SO 103 ° 0 min 0,000 mm 0,0 UV-I 0 W/m² 1,2 °C 1,9 °C 0,0 km/h (0 Bft)
23.02.2019 00:59 1,9 °C 95 % 1036,1 hPa 0,0 mm 0,0 km/h (0 Bft) O-SO 103 ° 0 min 0,000 mm 0,0 UV-I 0 W/m² 1,2 °C 1,9 °C 0,0 km/h (0 Bft)
23.02.2019 01:00 1,9 °C 95 % 1036,0 hPa 0,0 mm 0,0 km/h (0 Bft) O-SO 103 ° 0 min 0,000 mm 0,0 UV-I 0 W/m² 1,2 °C 1,9 °C 0,0 km/h (0 Bft)
23.02.2019 01:01 1,9 °C 95 % 1036,1 hPa 0,0 mm 0,0 km/h (0 Bft) O-SO 103 ° 0 min 0,000 mm 0,0 UV-I 0 W/m² 1,2 °C 1,9 °C 0,0 km/h (0 Bft)
23.02.2019 01:02 1,9 °C 95 % 1036,1 hPa 0,0 mm 0,9 km/h (0 Bft) O-SO 103 ° 0 min 0,000 mm 0,0 UV-I 0 W/m² 1,2 °C 1,9 °C 3,2 km/h (1 Bft)
23.02.2019 01:03 1,8 °C 95 % 1036,0 hPa 0,0 mm 0,0 km/h (0 Bft) O-SO 103 ° 0 min 0,000 mm 0,0 UV-I 0 W/m² 1,1 °C 1,8 °C 0,0 km/h (0 Bft)
23.02.2019 01:04 1,8 °C 95 % 1036,0 hPa 0,0 mm 0,0 km/h (0 Bft) O-SO 103 ° 0 min 0,000 mm 0,0 UV-I 0 W/m² 1,1 °C 1,8 °C 0,0 km/h (0 Bft)
23.02.2019 01:05 1,8 °C 95 % 1036,1 hPa 0,0 mm 3,3 km/h (1 Bft) O-SO 119 ° 0 min 0,000 mm 0,0 UV-I 0 W/m² 1,1 °C 1,8 °C 9,7 km/h (2 Bft)
23.02.2019 01:06 1,8 °C 95 % 1036,0 hPa 0,0 mm 0,8 km/h (0 Bft) O 101 ° 0 min 0,000 mm 0,0 UV-I 0 W/m² 1,1 °C 1,8 °C 3,2 km/h (1 Bft)
23.02.2019 01:07 1,9 °C 95 % 1036,1 hPa 0,0 mm 0,1 km/h (0 Bft) O 86 ° 0 min 0,000 mm 0,0 UV-I 0 W/m² 1,2 °C 1,9 °C 1,6 km/h (1 Bft)
23.02.2019 01:08 1,9 °C 95 % 1036,1 hPa 0,0 mm 0,0 km/h (0 Bft) O 86 ° 0 min 0,000 mm 0,0 UV-I 0 W/m² 1,2 °C 1,9 °C 0,0 km/h (0 Bft)
23.02.2019 01:09 1,9 °C 95 % 1036,0 hPa 0,0 mm 0,7 km/h (0 Bft) O 86 ° 0 min 0,000 mm 0,0 UV-I 0 W/m² 1,2 °C 1,9 °C 1,6 km/h (1 Bft)
23.02.2019 01:10 1,9 °C 95 % 1036,0 hPa 0,0 mm 0,0 km/h (0 Bft) O 86 ° 0 min 0,000 mm 0,0 UV-I 0 W/m² 1,2 °C 1,9 °C 0,0 km/h (0 Bft)
23.02.2019 01:11 1,9 °C 95 % 1036,0 hPa 0,0 mm 2,3 km/h (1 Bft) O-NO 61 ° 0 min 0,000 mm 0,0 UV-I 0 W/m² 1,2 °C 1,9 °C 4,8 km/h (1 Bft)
23.02.2019 01:12 1,8 °C 95 % 1036,0 hPa 0,0 mm 0,5 km/h (0 Bft) O-NO 61 ° 0 min 0,000 mm 0,0 UV-I 0 W/m² 1,1 °C 1,8 °C 3,2 km/h (1 Bft)
23.02.2019 01:13 1,8 °C 95 % 1036,0 hPa 0,0 mm 0,0 km/h (0 Bft) O-NO 71 ° 0 min 0,000 mm 0,0 UV-I 0 W/m² 1,1 °C 1,8 °C 0,0 km/h (0 Bft)
23.02.2019 01:14 1,8 °C 95 % 1036,0 hPa 0,0 mm 0,0 km/h (0 Bft) O-NO 71 ° 0 min 0,000 mm 0,0 UV-I 0 W/m² 1,1 °C 1,8 °C 0,0 km/h (0 Bft)
23.02.2019 01:15 1,9 °C 95 % 1036,0 hPa 0,0 mm 0,0 km/h (0 Bft) O-NO 71 ° 0 min 0,000 mm 0,0 UV-I 0 W/m² 1,2 °C 1,9 °C 0,0 km/h (0 Bft)
23.02.2019 01:16 1,9 °C 95 % 1035,9 hPa 0,0 mm 4,0 km/h (1 Bft) O 96 ° 0 min 0,000 mm 0,0 UV-I 0 W/m² 1,2 °C 1,9 °C 6,4 km/h (2 Bft)
23.02.2019 01:17 1,9 °C 95 % 1035,9 hPa 0,0 mm 0,5 km/h (0 Bft) O 96 ° 0 min 0,000 mm 0,0 UV-I 0 W/m² 1,2 °C 1,9 °C 3,2 km/h (1 Bft)
23.02.2019 01:18 1,9 °C 95 % 1035,9 hPa 0,0 mm 0,0 km/h (0 Bft) O 96 ° 0 min 0,000 mm 0,0 UV-I 0 W/m² 1,2 °C 1,9 °C 0,0 km/h (0 Bft)
23.02.2019 01:19 1,9 °C 95 % 1036,0 hPa 0,0 mm 0,3 km/h (0 Bft) O-NO 75 ° 0 min 0,000 mm 0,0 UV-I 0 W/m² 1,2 °C 1,9 °C 1,6 km/h (1 Bft)
23.02.2019 01:20 1,9 °C 95 % 1036,0 hPa 0,0 mm 0,5 km/h (0 Bft) O-NO 75 ° 0 min 0,000 mm 0,0 UV-I 0 W/m² 1,2 °C 1,9 °C 3,2 km/h (1 Bft)
23.02.2019 01:21 1,9 °C 95 % 1035,9 hPa 0,0 mm 0,0 km/h (0 Bft) O-NO 75 ° 0 min 0,000 mm 0,0 UV-I 0 W/m² 1,2 °C 1,9 °C 0,0 km/h (0 Bft)
23.02.2019 01:22 1,9 °C 95 % 1035,9 hPa 0,0 mm 0,0 km/h (0 Bft) O-NO 75 ° 0 min 0,000 mm 0,0 UV-I 0 W/m² 1,2 °C 1,9 °C 0,0 km/h (0 Bft)
23.02.2019 01:23 2,0 °C 95 % 1035,9 hPa 0,0 mm 0,0 km/h (0 Bft) O-NO 75 ° 0 min 0,000 mm 0,0 UV-I 0 W/m² 1,3 °C 2,0 °C 0,0 km/h (0 Bft)
23.02.2019 01:24 1,9 °C 95 % 1036,0 hPa 0,0 mm 0,1 km/h (0 Bft) O-NO 75 ° 0 min 0,000 mm 0,0 UV-I 0 W/m² 1,2 °C 1,9 °C 1,6 km/h (1 Bft)
23.02.2019 01:25 1,9 °C 95 % 1036,0 hPa 0,0 mm 1,3 km/h (1 Bft) O-NO 75 ° 0 min 0,000 mm 0,0 UV-I 0 W/m² 1,2 °C 1,9 °C 3,2 km/h (1 Bft)
23.02.2019 01:26 1,9 °C 95 % 1036,0 hPa 0,0 mm 0,0 km/h (0 Bft) O-NO 75 ° 0 min 0,000 mm 0,0 UV-I 0 W/m² 1,2 °C 1,9 °C 0,0 km/h (0 Bft)
23.02.2019 01:27 1,9 °C 95 % 1036,0 hPa 0,0 mm 1,0 km/h (0 Bft) O 86 ° 0 min 0,000 mm 0,0 UV-I 0 W/m² 1,2 °C 1,9 °C 4,8 km/h (1 Bft)
23.02.2019 01:28 1,9 °C 95 % 1036,0 hPa 0,0 mm 0,7 km/h (0 Bft) O 86 ° 0 min 0,000 mm 0,0 UV-I 0 W/m² 1,2 °C 1,9 °C 3,2 km/h (1 Bft)
23.02.2019 01:29 1,9 °C 95 % 1035,9 hPa 0,0 mm 1,2 km/h (1 Bft) O 88 ° 0 min 0,000 mm 0,0 UV-I 0 W/m² 1,2 °C 1,9 °C 3,2 km/h (1 Bft)
23.02.2019 01:30 1,9 °C 95 % 1035,9 hPa 0,0 mm 0,0 km/h (0 Bft) O 88 ° 0 min 0,000 mm 0,0 UV-I 0 W/m² 1,2 °C 1,9 °C 0,0 km/h (0 Bft)
23.02.2019 01:31 1,9 °C 95 % 1035,9 hPa 0,0 mm 1,5 km/h (1 Bft) O 98 ° 0 min 0,000 mm 0,0 UV-I 0 W/m² 1,2 °C 1,9 °C 4,8 km/h (1 Bft)
23.02.2019 01:32 1,9 °C 95 % 1035,9 hPa 0,0 mm 0,7 km/h (0 Bft) O 98 ° 0 min 0,000 mm 0,0 UV-I 0 W/m² 1,2 °C 1,9 °C 3,2 km/h (1 Bft)
23.02.2019 01:33 1,9 °C 95 % 1035,9 hPa 0,0 mm 0,1 km/h (0 Bft) O 98 ° 0 min 0,000 mm 0,0 UV-I 0 W/m² 1,2 °C 1,9 °C 1,6 km/h (1 Bft)
23.02.2019 01:34 1,9 °C 95 % 1035,9 hPa 0,0 mm 1,0 km/h (0 Bft) O-NO 67 ° 0 min 0,000 mm 0,0 UV-I 0 W/m² 1,2 °C 1,9 °C 8,0 km/h (2 Bft)
23.02.2019 01:35 1,8 °C 95 % 1035,9 hPa 0,0 mm 3,0 km/h (1 Bft) O 82 ° 0 min 0,000 mm 0,0 UV-I 0 W/m² 1,1 °C 1,8 °C 8,0 km/h (2 Bft)
23.02.2019 01:36 1,8 °C 95 % 1035,9 hPa 0,0 mm 1,8 km/h (1 Bft) O 85 ° 0 min 0,000 mm 0,0 UV-I 0 W/m² 1,1 °C 1,8 °C 6,4 km/h (2 Bft)
23.02.2019 01:37 1,8 °C 95 % 1035,9 hPa 0,0 mm 4,8 km/h (1 Bft) O 86 ° 0 min 0,000 mm 0,0 UV-I 0 W/m² 1,1 °C 0,5 °C 9,7 km/h (2 Bft)
23.02.2019 01:38 1,8 °C 95 % 1035,9 hPa 0,0 mm 2,2 km/h (1 Bft) O-NO 66 ° 0 min 0,000 mm 0,0 UV-I 0 W/m² 1,1 °C 1,8 °C 6,4 km/h (2 Bft)
23.02.2019 01:39 1,8 °C 95 % 1035,9 hPa 0,0 mm 2,0 km/h (1 Bft) O 89 ° 0 min 0,000 mm 0,0 UV-I 0 W/m² 1,1 °C 1,8 °C 6,4 km/h (2 Bft)
23.02.2019 01:40 1,8 °C 95 % 1035,9 hPa 0,0 mm 3,2 km/h (1 Bft) O-NO 66 ° 0 min 0,000 mm 0,0 UV-I 0 W/m² 1,1 °C 1,8 °C 4,8 km/h (1 Bft)
23.02.2019 01:41 1,7 °C 95 % 1035,9 hPa 0,0 mm 5,3 km/h (1 Bft) O 96 ° 0 min 0,000 mm 0,0 UV-I 0 W/m² 1,0 °C 0,2 °C 9,7 km/h (2 Bft)
23.02.2019 01:42 1,7 °C 95 % 1035,8 hPa 0,0 mm 0,9 km/h (0 Bft) O 96 ° 0 min 0,000 mm 0,0 UV-I 0 W/m² 1,0 °C 1,7 °C 3,2 km/h (1 Bft)
23.02.2019 01:43 1,7 °C 95 % 1035,8 hPa 0,0 mm 0,2 km/h (0 Bft) O 96 ° 0 min 0,000 mm 0,0 UV-I 0 W/m² 1,0 °C 1,7 °C 3,2 km/h (1 Bft)
23.02.2019 01:44 1,7 °C 95 % 1035,9 hPa 0,0 mm 2,6 km/h (1 Bft) O-NO 65 ° 0 min 0,000 mm 0,0 UV-I 0 W/m² 1,0 °C 1,7 °C 6,4 km/h (2 Bft)
23.02.2019 01:45 1,7 °C 95 % 1035,8 hPa 0,0 mm 2,0 km/h (1 Bft) O-NO 65 ° 0 min 0,000 mm 0,0 UV-I 0 W/m² 1,0 °C 1,7 °C 4,8 km/h (1 Bft)
23.02.2019 01:46 1,7 °C 95 % 1035,8 hPa 0,0 mm 5,4 km/h (1 Bft) O 87 ° 0 min 0,000 mm 0,0 UV-I 0 W/m² 1,0 °C 0,2 °C 11,3 km/h (2 Bft)
23.02.2019 01:47 1,7 °C 95 % 1035,8 hPa 0,0 mm 6,1 km/h (2 Bft) O 85 ° 0 min 0,000 mm 0,0 UV-I 0 W/m² 1,0 °C -0,1 °C 9,7 km/h (2 Bft)
23.02.2019 01:48 1,7 °C 95 % 1035,8 hPa 0,0 mm 4,6 km/h (1 Bft) O-NO 78 ° 0 min 0,000 mm 0,0 UV-I 0 W/m² 1,0 °C 0,5 °C 6,4 km/h (2 Bft)
23.02.2019 01:49 1,7 °C 95 % 1035,8 hPa 0,0 mm 6,1 km/h (2 Bft) O-NO 77 ° 0 min 0,000 mm 0,0 UV-I 0 W/m² 1,0 °C -0,1 °C 9,7 km/h (2 Bft)
23.02.2019 01:50 1,7 °C 95 % 1035,8 hPa 0,0 mm 5,0 km/h (1 Bft) O 88 ° 0 min 0,000 mm 0,0 UV-I 0 W/m² 1,0 °C 0,3 °C 11,3 km/h (2 Bft)
23.02.2019 01:51 1,7 °C 95 % 1035,8 hPa 0,0 mm 4,9 km/h (1 Bft) O 80 ° 0 min 0,000 mm 0,0 UV-I 0 W/m² 1,0 °C 0,4 °C 8,0 km/h (2 Bft)
23.02.2019 01:52 1,7 °C 95 % 1035,8 hPa 0,0 mm 7,7 km/h (2 Bft) O-NO 66 ° 0 min 0,000 mm 0,0 UV-I 0 W/m² 1,0 °C -0,7 °C 12,9 km/h (3 Bft)
23.02.2019 01:53 1,7 °C 95 % 1035,8 hPa 0,0 mm 3,4 km/h (1 Bft) SO 144 ° 0 min 0,000 mm 0,0 UV-I 0 W/m² 1,0 °C 1,7 °C 8,0 km/h (2 Bft)
23.02.2019 01:54 1,7 °C 95 % 1035,8 hPa 0,0 mm 4,6 km/h (1 Bft) O-NO 57 ° 0 min 0,000 mm 0,0 UV-I 0 W/m² 1,0 °C 0,5 °C 9,7 km/h (2 Bft)
23.02.2019 01:55 1,7 °C 95 % 1035,8 hPa 0,0 mm 4,4 km/h (1 Bft) O-NO 61 ° 0 min 0,000 mm 0,0 UV-I 0 W/m² 1,0 °C 1,7 °C 8,0 km/h (2 Bft)
23.02.2019 01:56 1,7 °C 95 % 1035,8 hPa 0,0 mm 6,6 km/h (2 Bft) O 94 ° 0 min 0,000 mm 0,0 UV-I 0 W/m² 1,0 °C -0,3 °C 11,3 km/h (2 Bft)
23.02.2019 01:57 1,7 °C 95 % 1035,8 hPa 0,0 mm 6,2 km/h (2 Bft) O-NO 64 ° 0 min 0,000 mm 0,0 UV-I 0 W/m² 1,0 °C -0,1 °C 11,3 km/h (2 Bft)
23.02.2019 01:58 1,6 °C 95 % 1035,8 hPa 0,0 mm 4,0 km/h (1 Bft) O 84 ° 0 min 0,000 mm 0,0 UV-I 0 W/m² 0,9 °C 1,6 °C 8,0 km/h (2 Bft)
23.02.2019 01:59 1,6 °C 95 % 1035,8 hPa 0,0 mm 6,2 km/h (2 Bft) O-NO 67 ° 0 min 0,000 mm 0,0 UV-I 0 W/m² 0,9 °C -0,3 °C 9,7 km/h (2 Bft)
23.02.2019 02:00 1,6 °C 95 % 1035,8 hPa 0,0 mm 3,6 km/h (1 Bft) O-NO 71 ° 0 min 0,000 mm 0,0 UV-I 0 W/m² 0,9 °C 1,6 °C 6,4 km/h (2 Bft)
23.02.2019 02:01 1,7 °C 95 % 1035,8 hPa 0,0 mm 2,5 km/h (1 Bft) O-NO 70 ° 0 min 0,000 mm 0,0 UV-I 0 W/m² 1,0 °C 1,7 °C 4,8 km/h (1 Bft)
23.02.2019 02:02 1,7 °C 95 % 1035,8 hPa 0,0 mm 3,4 km/h (1 Bft) O-NO 77 ° 0 min 0,000 mm 0,0 UV-I 0 W/m² 1,0 °C 1,7 °C 6,4 km/h (2 Bft)
23.02.2019 02:03 1,7 °C 95 % 1035,8 hPa 0,0 mm 3,9 km/h (1 Bft) O 82 ° 0 min 0,000 mm 0,0 UV-I 0 W/m² 1,0 °C 1,7 °C 6,4 km/h (2 Bft)
23.02.2019 02:04 1,7 °C 95 % 1035,8 hPa 0,0 mm 2,3 km/h (1 Bft) O-NO 75 ° 0 min 0,000 mm 0,0 UV-I 0 W/m² 1,0 °C 1,7 °C 6,4 km/h (2 Bft)
23.02.2019 02:05 1,6 °C 95 % 1035,8 hPa 0,0 mm 5,6 km/h (1 Bft) O 80 ° 0 min 0,000 mm 0,0 UV-I 0 W/m² 0,9 °C -0,0 °C 8,0 km/h (2 Bft)
23.02.2019 02:06 1,6 °C 95 % 1035,8 hPa 0,0 mm 4,7 km/h (1 Bft) O-NO 76 ° 0 min 0,000 mm 0,0 UV-I 0 W/m² 0,9 °C 0,4 °C 8,0 km/h (2 Bft)
23.02.2019 02:07 1,6 °C 95 % 1035,7 hPa 0,0 mm 2,5 km/h (1 Bft) O-NO 77 ° 0 min 0,000 mm 0,0 UV-I 0 W/m² 0,9 °C 1,6 °C 4,8 km/h (1 Bft)
23.02.2019 02:08 1,7 °C 95 % 1035,8 hPa 0,0 mm 5,6 km/h (1 Bft) O-NO 78 ° 0 min 0,000 mm 0,0 UV-I 0 W/m² 1,0 °C 0,1 °C 8,0 km/h (2 Bft)
23.02.2019 02:09 1,6 °C 95 % 1035,7 hPa 0,0 mm 6,1 km/h (2 Bft) O-NO 76 ° 0 min 0,000 mm 0,0 UV-I 0 W/m² 0,9 °C -0,2 °C 8,0 km/h (2 Bft)
23.02.2019 02:10 1,7 °C 95 % 1035,8 hPa 0,0 mm 5,7 km/h (1 Bft) O-NO 67 ° 0 min 0,000 mm 0,0 UV-I 0 W/m² 1,0 °C 0,0 °C 8,0 km/h (2 Bft)
23.02.2019 02:11 1,6 °C 95 % 1035,8 hPa 0,0 mm 5,0 km/h (1 Bft) O-NO 76 ° 0 min 0,000 mm 0,0 UV-I 0 W/m² 0,9 °C 0,2 °C 8,0 km/h (2 Bft)
23.02.2019 02:12 1,6 °C 95 % 1035,8 hPa 0,0 mm 7,6 km/h (2 Bft) O-NO 68 ° 0 min 0,000 mm 0,0 UV-I 0 W/m² 0,9 °C -0,7 °C 11,3 km/h (2 Bft)
23.02.2019 02:13 1,6 °C 95 % 1035,8 hPa 0,0 mm 7,8 km/h (2 Bft) O-NO 74 ° 0 min 0,000 mm 0,0 UV-I 0 W/m² 0,9 °C -0,8 °C 11,3 km/h (2 Bft)
23.02.2019 02:14 1,6 °C 95 % 1035,9 hPa 0,0 mm 5,8 km/h (2 Bft) O-NO 70 ° 0 min 0,000 mm 0,0 UV-I 0 W/m² 0,9 °C -0,1 °C 8,0 km/h (2 Bft)
23.02.2019 02:15 1,6 °C 95 % 1035,9 hPa 0,0 mm 6,2 km/h (2 Bft) O 83 ° 0 min 0,000 mm 0,0 UV-I 0 W/m² 0,9 °C -0,3 °C 8,0 km/h (2 Bft)
23.02.2019 02:16 1,6 °C 95 % 1035,9 hPa 0,0 mm 2,9 km/h (1 Bft) O-NO 63 ° 0 min 0,000 mm 0,0 UV-I 0 W/m² 0,9 °C 1,6 °C 4,8 km/h (1 Bft)
23.02.2019 02:17 1,6 °C 95 % 1035,9 hPa 0,0 mm 3,4 km/h (1 Bft) NO 53 ° 0 min 0,000 mm 0,0 UV-I 0 W/m² 0,9 °C 1,6 °C 6,4 km/h (2 Bft)
23.02.2019 02:18 1,6 °C 95 % 1035,9 hPa 0,0 mm 4,8 km/h (1 Bft) O 82 ° 0 min 0,000 mm 0,0 UV-I 0 W/m² 0,9 °C 0,3 °C 8,0 km/h (2 Bft)
23.02.2019 02:19 1,6 °C 95 % 1035,9 hPa 0,0 mm 5,9 km/h (2 Bft) O-NO 76 ° 0 min 0,000 mm 0,0 UV-I 0 W/m² 0,9 °C -0,1 °C 11,3 km/h (2 Bft)
23.02.2019 02:20 1,7 °C 95 % 1035,9 hPa 0,0 mm 2,5 km/h (1 Bft) O-NO 72 ° 0 min 0,000 mm 0,0 UV-I 0 W/m² 1,0 °C 1,7 °C 4,8 km/h (1 Bft)
23.02.2019 02:21 1,6 °C 95 % 1035,9 hPa 0,0 mm 5,5 km/h (1 Bft) O 81 ° 0 min 0,000 mm 0,0 UV-I 0 W/m² 0,9 °C 0,0 °C 8,0 km/h (2 Bft)
23.02.2019 02:22 1,6 °C 95 % 1035,9 hPa 0,0 mm 4,4 km/h (1 Bft) O-NO 72 ° 0 min 0,000 mm 0,0 UV-I 0 W/m² 0,9 °C 1,6 °C 8,0 km/h (2 Bft)
23.02.2019 02:23 1,6 °C 95 % 1035,9 hPa 0,0 mm 5,3 km/h (1 Bft) O-NO 76 ° 0 min 0,000 mm 0,0 UV-I 0 W/m² 0,9 °C 0,1 °C 8,0 km/h (2 Bft)
23.02.2019 02:24 1,6 °C 95 % 1036,0 hPa 0,0 mm 6,9 km/h (2 Bft) O-NO 62 ° 0 min 0,000 mm 0,0 UV-I 0 W/m² 0,9 °C -0,5 °C 11,3 km/h (2 Bft)
23.02.2019 02:25 1,6 °C 95 % 1036,0 hPa 0,0 mm 4,5 km/h (1 Bft) O-NO 67 ° 0 min 0,000 mm 0,0 UV-I 0 W/m² 0,9 °C 1,6 °C 6,4 km/h (2 Bft)
23.02.2019 02:26 1,6 °C 95 % 1036,0 hPa 0,0 mm 5,3 km/h (1 Bft) O-NO 64 ° 0 min 0,000 mm 0,0 UV-I 0 W/m² 0,9 °C 0,1 °C 8,0 km/h (2 Bft)
23.02.2019 02:27 1,6 °C 95 % 1036,0 hPa 0,0 mm 4,8 km/h (1 Bft) O-NO 65 ° 0 min 0,000 mm 0,0 UV-I 0 W/m² 0,9 °C 0,3 °C 6,4 km/h (2 Bft)
23.02.2019 02:28 1,6 °C 95 % 1036,0 hPa 0,0 mm 3,6 km/h (1 Bft) O-NO 78 ° 0 min 0,000 mm 0,0 UV-I 0 W/m² 0,9 °C 1,6 °C 4,8 km/h (1 Bft)
23.02.2019 02:29 1,5 °C 95 % 1036,0 hPa 0,0 mm 3,9 km/h (1 Bft) O-NO 74 ° 0 min 0,000 mm 0,0 UV-I 0 W/m² 0,8 °C 1,5 °C 8,0 km/h (2 Bft)
23.02.2019 02:30 1,5 °C 95 % 1036,0 hPa 0,0 mm 3,8 km/h (1 Bft) O-NO 69 ° 0 min 0,000 mm 0,0 UV-I 0 W/m² 0,8 °C 1,5 °C 6,4 km/h (2 Bft)
23.02.2019 02:31 1,5 °C 95 % 1036,0 hPa 0,0 mm 4,6 km/h (1 Bft) O-NO 67 ° 0 min 0,000 mm 0,0 UV-I 0 W/m² 0,8 °C 0,3 °C 6,4 km/h (2 Bft)
23.02.2019 02:32 1,4 °C 95 % 1036,0 hPa 0,0 mm 5,6 km/h (1 Bft) O-NO 65 ° 0 min 0,000 mm 0,0 UV-I 0 W/m² 0,7 °C -0,3 °C 6,4 km/h (2 Bft)
23.02.2019 02:33 1,4 °C 95 % 1036,1 hPa 0,0 mm 2,7 km/h (1 Bft) O-NO 66 ° 0 min 0,000 mm 0,0 UV-I 0 W/m² 0,7 °C 1,4 °C 4,8 km/h (1 Bft)
23.02.2019 02:34 1,4 °C 95 % 1036,0 hPa 0,0 mm 4,8 km/h (1 Bft) O-NO 76 ° 0 min 0,000 mm 0,0 UV-I 0 W/m² 0,7 °C 0,1 °C 8,0 km/h (2 Bft)
23.02.2019 02:35 1,4 °C 95 % 1036,1 hPa 0,0 mm 5,2 km/h (1 Bft) O-NO 61 ° 0 min 0,000 mm 0,0 UV-I 0 W/m² 0,7 °C -0,1 °C 8,0 km/h (2 Bft)
23.02.2019 02:36 1,4 °C 95 % 1036,1 hPa 0,0 mm 6,4 km/h (2 Bft) O-NO 72 ° 0 min 0,000 mm 0,0 UV-I 0 W/m² 0,7 °C -0,6 °C 11,3 km/h (2 Bft)
23.02.2019 02:37 1,4 °C 95 % 1036,1 hPa 0,0 mm 6,6 km/h (2 Bft) O-NO 71 ° 0 min 0,000 mm 0,0 UV-I 0 W/m² 0,7 °C -0,6 °C 9,7 km/h (2 Bft)
23.02.2019 02:38 1,4 °C 95 % 1036,1 hPa 0,0 mm 4,1 km/h (1 Bft) O-NO 67 ° 0 min 0,000 mm 0,0 UV-I 0 W/m² 0,7 °C 1,4 °C 8,0 km/h (2 Bft)
23.02.2019 02:39 1,5 °C 95 % 1036,1 hPa 0,0 mm 2,2 km/h (1 Bft) O-NO 67 ° 0 min 0,000 mm 0,0 UV-I 0 W/m² 0,8 °C 1,5 °C 6,4 km/h (2 Bft)
23.02.2019 02:40 1,5 °C 95 % 1036,1 hPa 0,0 mm 0,5 km/h (0 Bft) O-NO 67 ° 0 min 0,000 mm 0,0 UV-I 0 W/m² 0,8 °C 1,5 °C 1,6 km/h (1 Bft)
23.02.2019 02:41 1,6 °C 95 % 1036,0 hPa 0,0 mm 7,1 km/h (2 Bft) NO 53 ° 0 min 0,000 mm 0,0 UV-I 0 W/m² 0,9 °C -0,6 °C 14,5 km/h (3 Bft)
23.02.2019 02:42 1,6 °C 95 % 1036,1 hPa 0,0 mm 6,1 km/h (2 Bft) O-NO 59 ° 0 min 0,000 mm 0,0 UV-I 0 W/m² 0,9 °C -0,2 °C 12,9 km/h (3 Bft)
23.02.2019 02:43 1,6 °C 95 % 1036,1 hPa 0,0 mm 1,7 km/h (1 Bft) O-NO 59 ° 0 min 0,000 mm 0,0 UV-I 0 W/m² 0,9 °C 1,6 °C 4,8 km/h (1 Bft)
23.02.2019 02:44 1,6 °C 95 % 1036,1 hPa 0,0 mm 3,3 km/h (1 Bft) O-NO 63 ° 0 min 0,000 mm 0,0 UV-I 0 W/m² 0,9 °C 1,6 °C 6,4 km/h (2 Bft)
23.02.2019 02:45 1,6 °C 95 % 1036,1 hPa 0,0 mm 0,9 km/h (0 Bft) O-NO 63 ° 0 min 0,000 mm 0,0 UV-I 0 W/m² 0,9 °C 1,6 °C 3,2 km/h (1 Bft)
23.02.2019 02:46 1,6 °C 95 % 1036,1 hPa 0,0 mm 3,4 km/h (1 Bft) O-NO 67 ° 0 min 0,000 mm 0,0 UV-I 0 W/m² 0,9 °C 1,6 °C 6,4 km/h (2 Bft)
23.02.2019 02:47 1,6 °C 95 % 1036,2 hPa 0,0 mm 4,1 km/h (1 Bft) O 85 ° 0 min 0,000 mm 0,0 UV-I 0 W/m² 0,9 °C 1,6 °C 9,7 km/h (2 Bft)
23.02.2019 02:48 1,5 °C 95 % 1036,2 hPa 0,0 mm 2,9 km/h (1 Bft) NO 51 ° 0 min 0,000 mm 0,0 UV-I 0 W/m² 0,8 °C 1,5 °C 6,4 km/h (2 Bft)
23.02.2019 02:49 1,5 °C 95 % 1036,2 hPa 0,0 mm 2,5 km/h (1 Bft) O-NO 69 ° 0 min 0,000 mm 0,0 UV-I 0 W/m² 0,8 °C 1,5 °C 9,7 km/h (2 Bft)
23.02.2019 02:50 1,4 °C 95 % 1036,2 hPa 0,0 mm 0,2 km/h (0 Bft) O-NO 69 ° 0 min 0,000 mm 0,0 UV-I 0 W/m² 0,7 °C 1,4 °C 1,6 km/h (1 Bft)
23.02.2019 02:51 1,4 °C 95 % 1036,2 hPa 0,0 mm 0,1 km/h (0 Bft) O-NO 69 ° 0 min 0,000 mm 0,0 UV-I 0 W/m² 0,7 °C 1,4 °C 1,6 km/h (1 Bft)
23.02.2019 02:52 1,4 °C 95 % 1036,2 hPa 0,0 mm 0,0 km/h (0 Bft) O-NO 69 ° 0 min 0,000 mm 0,0 UV-I 0 W/m² 0,7 °C 1,4 °C 0,0 km/h (0 Bft)
23.02.2019 02:53 1,4 °C 95 % 1036,2 hPa 0,0 mm 0,0 km/h (0 Bft) O-NO 69 ° 0 min 0,000 mm 0,0 UV-I 0 W/m² 0,7 °C 1,4 °C 0,0 km/h (0 Bft)
23.02.2019 02:54 1,4 °C 95 % 1036,3 hPa 0,0 mm 0,1 km/h (0 Bft) O-NO 69 ° 0 min 0,000 mm 0,0 UV-I 0 W/m² 0,7 °C 1,4 °C 1,6 km/h (1 Bft)
23.02.2019 02:55 1,4 °C 95 % 1036,3 hPa 0,0 mm 1,4 km/h (1 Bft) O-NO 69 ° 0 min 0,000 mm 0,0 UV-I 0 W/m² 0,7 °C 1,4 °C 4,8 km/h (1 Bft)
23.02.2019 02:56 1,4 °C 95 % 1036,3 hPa 0,0 mm 0,7 km/h (0 Bft) O-NO 69 ° 0 min 0,000 mm 0,0 UV-I 0 W/m² 0,7 °C 1,4 °C 3,2 km/h (1 Bft)
23.02.2019 02:57 1,5 °C 95 % 1036,3 hPa 0,0 mm 1,0 km/h (0 Bft) O-NO 69 ° 0 min 0,000 mm 0,0 UV-I 0 W/m² 0,8 °C 1,5 °C 1,6 km/h (1 Bft)
23.02.2019 02:58 1,5 °C 95 % 1036,3 hPa 0,0 mm 0,3 km/h (0 Bft) O-NO 69 ° 0 min 0,000 mm 0,0 UV-I 0 W/m² 0,8 °C 1,5 °C 1,6 km/h (1 Bft)
23.02.2019 02:59 1,4 °C 95 % 1036,3 hPa 0,0 mm 0,0 km/h (0 Bft) O-NO 69 ° 0 min 0,000 mm 0,0 UV-I 0 W/m² 0,7 °C 1,4 °C 0,0 km/h (0 Bft)
23.02.2019 03:00 1,4 °C 95 % 1036,3 hPa 0,0 mm 2,9 km/h (1 Bft) O-NO 69 ° 0 min 0,000 mm 0,0 UV-I 0 W/m² 0,7 °C 1,4 °C 4,8 km/h (1 Bft)
23.02.2019 03:01 1,4 °C 95 % 1036,3 hPa 0,0 mm 1,6 km/h (1 Bft) O-NO 69 ° 0 min 0,000 mm 0,0 UV-I 0 W/m² 0,7 °C 1,4 °C 3,2 km/h (1 Bft)
23.02.2019 03:02 1,4 °C 95 % 1036,3 hPa 0,0 mm 0,3 km/h (0 Bft) O-NO 69 ° 0 min 0,000 mm 0,0 UV-I 0 W/m² 0,7 °C 1,4 °C 1,6 km/h (1 Bft)
23.02.2019 03:03 1,4 °C 95 % 1036,3 hPa 0,0 mm 1,5 km/h (1 Bft) O-NO 69 ° 0 min 0,000 mm 0,0 UV-I 0 W/m² 0,7 °C 1,4 °C 4,8 km/h (1 Bft)
23.02.2019 03:04 1,4 °C 95 % 1036,3 hPa 0,0 mm 0,7 km/h (0 Bft) O-NO 69 ° 0 min 0,000 mm 0,0 UV-I 0 W/m² 0,7 °C 1,4 °C 3,2 km/h (1 Bft)
23.02.2019 03:05 1,4 °C 95 % 1036,3 hPa 0,0 mm 0,0 km/h (0 Bft) O-NO 69 ° 0 min 0,000 mm 0,0 UV-I 0 W/m² 0,7 °C 1,4 °C 0,0 km/h (0 Bft)
23.02.2019 03:06 1,4 °C 95 % 1036,3 hPa 0,0 mm 0,0 km/h (0 Bft) O-NO 69 ° 0 min 0,000 mm 0,0 UV-I 0 W/m² 0,7 °C 1,4 °C 0,0 km/h (0 Bft)
23.02.2019 03:07 1,4 °C 95 % 1036,3 hPa 0,0 mm 1,3 km/h (1 Bft) O-NO 72 ° 0 min 0,000 mm 0,0 UV-I 0 W/m² 0,7 °C 1,4 °C 3,2 km/h (1 Bft)
23.02.2019 03:08 1,3 °C 95 % 1036,3 hPa 0,0 mm 3,2 km/h (1 Bft) O-NO 65 ° 0 min 0,000 mm 0,0 UV-I 0 W/m² 0,6 °C 1,3 °C 4,8 km/h (1 Bft)
23.02.2019 03:09 1,4 °C 95 % 1036,3 hPa 0,0 mm 4,8 km/h (1 Bft) O 97 ° 0 min 0,000 mm 0,0 UV-I 0 W/m² 0,7 °C 0,1 °C 6,4 km/h (2 Bft)
23.02.2019 03:10 1,3 °C 95 % 1036,3 hPa 0,0 mm 4,6 km/h (1 Bft) O-NO 62 ° 0 min 0,000 mm 0,0 UV-I 0 W/m² 0,6 °C 0,1 °C 6,4 km/h (2 Bft)
23.02.2019 03:11 1,3 °C 95 % 1036,3 hPa 0,0 mm 2,2 km/h (1 Bft) O-NO 62 ° 0 min 0,000 mm 0,0 UV-I 0 W/m² 0,6 °C 1,3 °C 4,8 km/h (1 Bft)
23.02.2019 03:12 1,3 °C 95 % 1036,4 hPa 0,0 mm 0,5 km/h (0 Bft) O-NO 62 ° 0 min 0,000 mm 0,0 UV-I 0 W/m² 0,6 °C 1,3 °C 1,6 km/h (1 Bft)
23.02.2019 03:13 1,3 °C 95 % 1036,3 hPa 0,0 mm 0,5 km/h (0 Bft) O-NO 62 ° 0 min 0,000 mm 0,0 UV-I 0 W/m² 0,6 °C 1,3 °C 3,2 km/h (1 Bft)
23.02.2019 03:14 1,3 °C 95 % 1036,3 hPa 0,0 mm 2,6 km/h (1 Bft) O 87 ° 0 min 0,000 mm 0,0 UV-I 0 W/m² 0,6 °C 1,3 °C 4,8 km/h (1 Bft)
23.02.2019 03:15 1,3 °C 95 % 1036,3 hPa 0,0 mm 2,7 km/h (1 Bft) O-NO 71 ° 0 min 0,000 mm 0,0 UV-I 0 W/m² 0,6 °C 1,3 °C 4,8 km/h (1 Bft)
23.02.2019 03:16 1,3 °C 95 % 1036,3 hPa 0,0 mm 6,0 km/h (2 Bft) O 89 ° 0 min 0,000 mm 0,0 UV-I 0 W/m² 0,6 °C -0,5 °C 11,3 km/h (2 Bft)
23.02.2019 03:17 1,3 °C 95 % 1036,3 hPa 0,0 mm 6,7 km/h (2 Bft) O-NO 65 ° 0 min 0,000 mm 0,0 UV-I 0 W/m² 0,6 °C -0,8 °C 11,3 km/h (2 Bft)
23.02.2019 03:18 1,3 °C 95 % 1036,3 hPa 0,0 mm 4,2 km/h (1 Bft) NO 51 ° 0 min 0,000 mm 0,0 UV-I 0 W/m² 0,6 °C 1,3 °C 6,4 km/h (2 Bft)
23.02.2019 03:19 1,3 °C 95 % 1036,3 hPa 0,0 mm 3,5 km/h (1 Bft) O-NO 58 ° 0 min 0,000 mm 0,0 UV-I 0 W/m² 0,6 °C 1,3 °C 4,8 km/h (1 Bft)
23.02.2019 03:20 1,3 °C 95 % 1036,3 hPa 0,0 mm 3,1 km/h (1 Bft) O 81 ° 0 min 0,000 mm 0,0 UV-I 0 W/m² 0,6 °C 1,3 °C 4,8 km/h (1 Bft)
23.02.2019 03:21 1,3 °C 95 % 1036,3 hPa 0,0 mm 6,7 km/h (2 Bft) O 88 ° 0 min 0,000 mm 0,0 UV-I 0 W/m² 0,6 °C -0,8 °C 11,3 km/h (2 Bft)
23.02.2019 03:22 1,3 °C 95 % 1036,3 hPa 0,0 mm 5,4 km/h (1 Bft) O-NO 70 ° 0 min 0,000 mm 0,0 UV-I 0 W/m² 0,6 °C -0,3 °C 9,7 km/h (2 Bft)
23.02.2019 03:23 1,3 °C 95 % 1036,3 hPa 0,0 mm 4,6 km/h (1 Bft) O 80 ° 0 min 0,000 mm 0,0 UV-I 0 W/m² 0,6 °C 0,1 °C 6,4 km/h (2 Bft)
23.02.2019 03:24 1,3 °C 95 % 1036,3 hPa 0,0 mm 5,1 km/h (1 Bft) O 80 ° 0 min 0,000 mm 0,0 UV-I 0 W/m² 0,6 °C -0,2 °C 11,3 km/h (2 Bft)
23.02.2019 03:25 1,3 °C 95 % 1036,3 hPa 0,0 mm 5,1 km/h (1 Bft) O-NO 67 ° 0 min 0,000 mm 0,0 UV-I 0 W/m² 0,6 °C -0,2 °C 6,4 km/h (2 Bft)
23.02.2019 03:26 1,3 °C 95 % 1036,3 hPa 0,0 mm 5,6 km/h (1 Bft) O-NO 69 ° 0 min 0,000 mm 0,0 UV-I 0 W/m² 0,6 °C -0,4 °C 11,3 km/h (2 Bft)
23.02.2019 03:27 1,2 °C 95 % 1036,3 hPa 0,0 mm 4,5 km/h (1 Bft) O-NO 65 ° 0 min 0,000 mm 0,0 UV-I 0 W/m² 0,5 °C 1,2 °C 6,4 km/h (2 Bft)
23.02.2019 03:28 1,2 °C 95 % 1036,4 hPa 0,0 mm 5,6 km/h (1 Bft) O 80 ° 0 min 0,000 mm 0,0 UV-I 0 W/m² 0,5 °C -0,5 °C 11,3 km/h (2 Bft)
23.02.2019 03:29 1,2 °C 95 % 1036,3 hPa 0,0 mm 4,1 km/h (1 Bft) O 81 ° 0 min 0,000 mm 0,0 UV-I 0 W/m² 0,5 °C 1,2 °C 9,7 km/h (2 Bft)
23.02.2019 03:30 1,2 °C 95 % 1036,4 hPa 0,0 mm 0,2 km/h (0 Bft) O 81 ° 0 min 0,000 mm 0,0 UV-I 0 W/m² 0,5 °C 1,2 °C 1,6 km/h (1 Bft)
23.02.2019 03:31 1,2 °C 95 % 1036,4 hPa 0,0 mm 2,5 km/h (1 Bft) O 87 ° 0 min 0,000 mm 0,0 UV-I 0 W/m² 0,5 °C 1,2 °C 8,0 km/h (2 Bft)
23.02.2019 03:32 1,2 °C 95 % 1036,4 hPa 0,0 mm 3,3 km/h (1 Bft) O 80 ° 0 min 0,000 mm 0,0 UV-I 0 W/m² 0,5 °C 1,2 °C 6,4 km/h (2 Bft)
23.02.2019 03:33 1,2 °C 95 % 1036,4 hPa 0,0 mm 3,2 km/h (1 Bft) O 91 ° 0 min 0,000 mm 0,0 UV-I 0 W/m² 0,5 °C 1,2 °C 9,7 km/h (2 Bft)
23.02.2019 03:34 1,2 °C 95 % 1036,4 hPa 0,0 mm 4,2 km/h (1 Bft) NO 40 ° 0 min 0,000 mm 0,0 UV-I 0 W/m² 0,5 °C 1,2 °C 9,7 km/h (2 Bft)
23.02.2019 03:35 1,1 °C 95 % 1036,4 hPa 0,0 mm 4,8 km/h (1 Bft) O 81 ° 0 min 0,000 mm 0,0 UV-I 0 W/m² 0,4 °C -0,2 °C 6,4 km/h (2 Bft)
23.02.2019 03:36 1,1 °C 95 % 1036,4 hPa 0,0 mm 4,9 km/h (1 Bft) NO 47 ° 0 min 0,000 mm 0,0 UV-I 0 W/m² 0,4 °C -0,3 °C 6,4 km/h (2 Bft)
23.02.2019 03:37 1,1 °C 95 % 1036,3 hPa 0,0 mm 4,8 km/h (1 Bft) NO 52 ° 0 min 0,000 mm 0,0 UV-I 0 W/m² 0,4 °C -0,2 °C 9,7 km/h (2 Bft)
23.02.2019 03:38 1,1 °C 95 % 1036,3 hPa 0,0 mm 7,3 km/h (2 Bft) O-NO 66 ° 0 min 0,000 mm 0,0 UV-I 0 W/m² 0,4 °C -1,2 °C 11,3 km/h (2 Bft)
23.02.2019 03:39 1,1 °C 95 % 1036,3 hPa 0,0 mm 3,4 km/h (1 Bft) O-NO 73 ° 0 min 0,000 mm 0,0 UV-I 0 W/m² 0,4 °C 1,1 °C 6,4 km/h (2 Bft)
23.02.2019 03:40 1,1 °C 95 % 1036,3 hPa 0,0 mm 1,6 km/h (1 Bft) O-NO 74 ° 0 min 0,000 mm 0,0 UV-I 0 W/m² 0,4 °C 1,1 °C 3,2 km/h (1 Bft)
23.02.2019 03:41 1,1 °C 95 % 1036,4 hPa 0,0 mm 3,9 km/h (1 Bft) O-NO 66 ° 0 min 0,000 mm 0,0 UV-I 0 W/m² 0,4 °C 1,1 °C 4,8 km/h (1 Bft)
23.02.2019 03:42 1,1 °C 95 % 1036,4 hPa 0,0 mm 5,4 km/h (1 Bft) O 85 ° 0 min 0,000 mm 0,0 UV-I 0 W/m² 0,4 °C -0,5 °C 11,3 km/h (2 Bft)
23.02.2019 03:43 1,1 °C 95 % 1036,3 hPa 0,0 mm 5,3 km/h (1 Bft) O-NO 78 ° 0 min 0,000 mm 0,0 UV-I 0 W/m² 0,4 °C -0,5 °C 11,3 km/h (2 Bft)
23.02.2019 03:44 1,1 °C 95 % 1036,4 hPa 0,0 mm 3,3 km/h (1 Bft) O-NO 75 ° 0 min 0,000 mm 0,0 UV-I 0 W/m² 0,4 °C 1,1 °C 4,8 km/h (1 Bft)
23.02.2019 03:45 1,1 °C 95 % 1036,3 hPa 0,0 mm 5,6 km/h (1 Bft) NO 55 ° 0 min 0,000 mm 0,0 UV-I 0 W/m² 0,4 °C -0,6 °C 11,3 km/h (2 Bft)
23.02.2019 03:46 1,1 °C 95 % 1036,4 hPa 0,0 mm 6,2 km/h (2 Bft) O 90 ° 0 min 0,000 mm 0,0 UV-I 0 W/m² 0,4 °C -0,8 °C 9,7 km/h (2 Bft)
23.02.2019 03:47 1,1 °C 95 % 1036,4 hPa 0,0 mm 3,8 km/h (1 Bft) O-NO 65 ° 0 min 0,000 mm 0,0 UV-I 0 W/m² 0,4 °C 1,1 °C 6,4 km/h (2 Bft)
23.02.2019 03:48 1,0 °C 95 % 1036,4 hPa 0,0 mm 5,0 km/h (1 Bft) O-NO 63 ° 0 min 0,000 mm 0,0 UV-I 0 W/m² 0,3 °C -0,5 °C 8,0 km/h (2 Bft)
23.02.2019 03:49 1,0 °C 95 % 1036,4 hPa 0,0 mm 5,8 km/h (2 Bft) O 82 ° 0 min 0,000 mm 0,0 UV-I 0 W/m² 0,3 °C -0,8 °C 8,0 km/h (2 Bft)
23.02.2019 03:50 1,0 °C 95 % 1036,5 hPa 0,0 mm 4,2 km/h (1 Bft) O 82 ° 0 min 0,000 mm 0,0 UV-I 0 W/m² 0,3 °C 1,0 °C 6,4 km/h (2 Bft)
23.02.2019 03:51 1,0 °C 95 % 1036,4 hPa 0,0 mm 0,9 km/h (0 Bft) O 82 ° 0 min 0,000 mm 0,0 UV-I 0 W/m² 0,3 °C 1,0 °C 3,2 km/h (1 Bft)
23.02.2019 03:52 1,0 °C 95 % 1036,4 hPa 0,0 mm 0,0 km/h (0 Bft) O 82 ° 0 min 0,000 mm 0,0 UV-I 0 W/m² 0,3 °C 1,0 °C 0,0 km/h (0 Bft)
23.02.2019 03:53 1,0 °C 95 % 1036,4 hPa 0,0 mm 0,0 km/h (0 Bft) O 82 ° 0 min 0,000 mm 0,0 UV-I 0 W/m² 0,3 °C 1,0 °C 0,0 km/h (0 Bft)
23.02.2019 03:54 0,9 °C 95 % 1036,4 hPa 0,0 mm 2,0 km/h (1 Bft) O-NO 74 ° 0 min 0,000 mm 0,0 UV-I 0 W/m² 0,2 °C 0,9 °C 4,8 km/h (1 Bft)
23.02.2019 03:55 0,9 °C 95 % 1036,4 hPa 0,0 mm 2,1 km/h (1 Bft) O-NO 74 ° 0 min 0,000 mm 0,0 UV-I 0 W/m² 0,2 °C 0,9 °C 4,8 km/h (1 Bft)
23.02.2019 03:56 0,9 °C 95 % 1036,3 hPa 0,0 mm 0,7 km/h (0 Bft) O-NO 74 ° 0 min 0,000 mm 0,0 UV-I 0 W/m² 0,2 °C 0,9 °C 3,2 km/h (1 Bft)
23.02.2019 03:57 0,9 °C 95 % 1036,4 hPa 0,0 mm 3,5 km/h (1 Bft) O-NO 78 ° 0 min 0,000 mm 0,0 UV-I 0 W/m² 0,2 °C 0,9 °C 8,0 km/h (2 Bft)
23.02.2019 03:58 0,9 °C 95 % 1036,3 hPa 0,0 mm 2,7 km/h (1 Bft) O 80 ° 0 min 0,000 mm 0,0 UV-I 0 W/m² 0,2 °C 0,9 °C 4,8 km/h (1 Bft)
23.02.2019 03:59 0,9 °C 95 % 1036,3 hPa 0,0 mm 0,5 km/h (0 Bft) O 80 ° 0 min 0,000 mm 0,0 UV-I 0 W/m² 0,2 °C 0,9 °C 3,2 km/h (1 Bft)
23.02.2019 04:00 0,9 °C 95 % 1036,3 hPa 0,0 mm 2,8 km/h (1 Bft) O 80 ° 0 min 0,000 mm 0,0 UV-I 0 W/m² 0,2 °C 0,9 °C 6,4 km/h (2 Bft)
23.02.2019 04:01 0,9 °C 95 % 1036,3 hPa 0,0 mm 2,6 km/h (1 Bft) O-NO 65 ° 0 min 0,000 mm 0,0 UV-I 0 W/m² 0,2 °C 0,9 °C 4,8 km/h (1 Bft)
23.02.2019 04:02 0,9 °C 95 % 1036,3 hPa 0,0 mm 3,8 km/h (1 Bft) O 81 ° 0 min 0,000 mm 0,0 UV-I 0 W/m² 0,2 °C 0,9 °C 6,4 km/h (2 Bft)
23.02.2019 04:03 0,8 °C 95 % 1036,3 hPa 0,0 mm 4,0 km/h (1 Bft) O-NO 62 ° 0 min 0,000 mm 0,0 UV-I 0 W/m² 0,1 °C 0,8 °C 4,8 km/h (1 Bft)
23.02.2019 04:04 0,8 °C 95 % 1036,3 hPa 0,0 mm 3,9 km/h (1 Bft) O-NO 67 ° 0 min 0,000 mm 0,0 UV-I 0 W/m² 0,1 °C 0,8 °C 4,8 km/h (1 Bft)
23.02.2019 04:05 0,8 °C 95 % 1036,3 hPa 0,0 mm 5,1 km/h (1 Bft) O-NO 61 ° 0 min 0,000 mm 0,0 UV-I 0 W/m² 0,1 °C -0,7 °C 8,0 km/h (2 Bft)
23.02.2019 04:06 0,8 °C 95 % 1036,4 hPa 0,0 mm 4,0 km/h (1 Bft) O-NO 69 ° 0 min 0,000 mm 0,0 UV-I 0 W/m² 0,1 °C 0,8 °C 6,4 km/h (2 Bft)
23.02.2019 04:07 0,8 °C 95 % 1036,4 hPa 0,0 mm 5,4 km/h (1 Bft) O-NO 59 ° 0 min 0,000 mm 0,0 UV-I 0 W/m² 0,1 °C -0,9 °C 6,4 km/h (2 Bft)
23.02.2019 04:08 0,8 °C 95 % 1036,5 hPa 0,0 mm 4,4 km/h (1 Bft) O-NO 71 ° 0 min 0,000 mm 0,0 UV-I 0 W/m² 0,1 °C 0,8 °C 4,8 km/h (1 Bft)
23.02.2019 04:09 0,8 °C 95 % 1036,4 hPa 0,0 mm 4,8 km/h (1 Bft) O 81 ° 0 min 0,000 mm 0,0 UV-I 0 W/m² 0,1 °C -0,6 °C 8,0 km/h (2 Bft)
23.02.2019 04:10 0,8 °C 95 % 1036,4 hPa 0,0 mm 3,2 km/h (1 Bft) O 81 ° 0 min 0,000 mm 0,0 UV-I 0 W/m² 0,1 °C 0,8 °C 6,4 km/h (2 Bft)
23.02.2019 04:11 0,8 °C 95 % 1036,4 hPa 0,0 mm 4,3 km/h (1 Bft) O-NO 71 ° 0 min 0,000 mm 0,0 UV-I 0 W/m² 0,1 °C 0,8 °C 6,4 km/h (2 Bft)
23.02.2019 04:12 0,8 °C 95 % 1036,4 hPa 0,0 mm 4,6 km/h (1 Bft) O-NO 74 ° 0 min 0,000 mm 0,0 UV-I 0 W/m² 0,1 °C -0,5 °C 6,4 km/h (2 Bft)
23.02.2019 04:13 0,8 °C 95 % 1036,4 hPa 0,0 mm 2,9 km/h (1 Bft) O-NO 74 ° 0 min 0,000 mm 0,0 UV-I 0 W/m² 0,1 °C 0,8 °C 4,8 km/h (1 Bft)
23.02.2019 04:14 0,8 °C 95 % 1036,4 hPa 0,0 mm 3,3 km/h (1 Bft) O-NO 57 ° 0 min 0,000 mm 0,0 UV-I 0 W/m² 0,1 °C 0,8 °C 6,4 km/h (2 Bft)
23.02.2019 04:15 0,8 °C 95 % 1036,4 hPa 0,0 mm 3,2 km/h (1 Bft) O-NO 75 ° 0 min 0,000 mm 0,0 UV-I 0 W/m² 0,1 °C 0,8 °C 4,8 km/h (1 Bft)
23.02.2019 04:16 0,8 °C 95 % 1036,4 hPa 0,0 mm 1,5 km/h (1 Bft) O-NO 71 ° 0 min 0,000 mm 0,0 UV-I 0 W/m² 0,1 °C 0,8 °C 4,8 km/h (1 Bft)
23.02.2019 04:17 0,8 °C 95 % 1036,4 hPa 0,0 mm 3,2 km/h (1 Bft) O-NO 61 ° 0 min 0,000 mm 0,0 UV-I 0 W/m² 0,1 °C 0,8 °C 6,4 km/h (2 Bft)
23.02.2019 04:18 0,8 °C 95 % 1036,4 hPa 0,0 mm 3,6 km/h (1 Bft) O-NO 63 ° 0 min 0,000 mm 0,0 UV-I 0 W/m² 0,1 °C 0,8 °C 4,8 km/h (1 Bft)
23.02.2019 04:19 0,8 °C 95 % 1036,4 hPa 0,0 mm 3,3 km/h (1 Bft) NO 49 ° 0 min 0,000 mm 0,0 UV-I 0 W/m² 0,1 °C 0,8 °C 4,8 km/h (1 Bft)
23.02.2019 04:20 0,7 °C 95 % 1036,3 hPa 0,0 mm 2,0 km/h (1 Bft) O-NO 63 ° 0 min 0,000 mm 0,0 UV-I 0 W/m² -0,0 °C 0,7 °C 3,2 km/h (1 Bft)
23.02.2019 04:21 0,7 °C 95 % 1036,3 hPa 0,0 mm 6,2 km/h (2 Bft) O 86 ° 0 min 0,000 mm 0,0 UV-I 0 W/m² -0,0 °C -1,3 °C 11,3 km/h (2 Bft)
23.02.2019 04:22 0,7 °C 95 % 1036,3 hPa 0,0 mm 5,0 km/h (1 Bft) O-NO 69 ° 0 min 0,000 mm 0,0 UV-I 0 W/m² -0,0 °C -0,8 °C 6,4 km/h (2 Bft)
23.02.2019 04:23 0,7 °C 95 % 1036,3 hPa 0,0 mm 3,2 km/h (1 Bft) O-NO 69 ° 0 min 0,000 mm 0,0 UV-I 0 W/m² -0,0 °C 0,7 °C 4,8 km/h (1 Bft)
23.02.2019 04:24 0,7 °C 95 % 1036,3 hPa 0,0 mm 2,7 km/h (1 Bft) O-NO 69 ° 0 min 0,000 mm 0,0 UV-I 0 W/m² -0,0 °C 0,7 °C 4,8 km/h (1 Bft)
23.02.2019 04:25 0,7 °C 95 % 1036,3 hPa 0,0 mm 2,1 km/h (1 Bft) O-NO 69 ° 0 min 0,000 mm 0,0 UV-I 0 W/m² -0,0 °C 0,7 °C 4,8 km/h (1 Bft)
23.02.2019 04:26 0,7 °C 95 % 1036,3 hPa 0,0 mm 4,1 km/h (1 Bft) O-NO 69 ° 0 min 0,000 mm 0,0 UV-I 0 W/m² -0,0 °C 0,7 °C 6,4 km/h (2 Bft)
23.02.2019 04:27 0,7 °C 95 % 1036,2 hPa 0,0 mm 4,6 km/h (1 Bft) O-NO 77 ° 0 min 0,000 mm 0,0 UV-I 0 W/m² -0,0 °C -0,6 °C 8,0 km/h (2 Bft)
23.02.2019 04:28 0,7 °C 95 % 1036,3 hPa 0,0 mm 5,6 km/h (1 Bft) O-NO 75 ° 0 min 0,000 mm 0,0 UV-I 0 W/m² -0,0 °C -1,1 °C 8,0 km/h (2 Bft)
23.02.2019 04:29 0,7 °C 95 % 1036,2 hPa 0,0 mm 1,6 km/h (1 Bft) O-NO 76 ° 0 min 0,000 mm 0,0 UV-I 0 W/m² -0,0 °C 0,7 °C 4,8 km/h (1 Bft)
23.02.2019 04:30 0,7 °C 95 % 1036,2 hPa 0,0 mm 3,7 km/h (1 Bft) NO 53 ° 0 min 0,000 mm 0,0 UV-I 0 W/m² -0,0 °C 0,7 °C 6,4 km/h (2 Bft)
23.02.2019 04:31 0,7 °C 95 % 1036,2 hPa 0,0 mm 4,6 km/h (1 Bft) NO 51 ° 0 min 0,000 mm 0,0 UV-I 0 W/m² -0,0 °C -0,6 °C 6,4 km/h (2 Bft)
23.02.2019 04:32 0,7 °C 95 % 1036,2 hPa 0,0 mm 4,5 km/h (1 Bft) NO 48 ° 0 min 0,000 mm 0,0 UV-I 0 W/m² -0,0 °C 0,7 °C 6,4 km/h (2 Bft)
23.02.2019 04:33 0,7 °C 95 % 1036,2 hPa 0,0 mm 4,0 km/h (1 Bft) NO 48 ° 0 min 0,000 mm 0,0 UV-I 0 W/m² -0,0 °C 0,7 °C 6,4 km/h (2 Bft)
23.02.2019 04:34 0,7 °C 95 % 1036,3 hPa 0,0 mm 2,4 km/h (1 Bft) NO 48 ° 0 min 0,000 mm 0,0 UV-I 0 W/m² -0,0 °C 0,7 °C 6,4 km/h (2 Bft)
23.02.2019 04:35 0,7 °C 95 % 1036,2 hPa 0,0 mm 1,3 km/h (1 Bft) NO 48 ° 0 min 0,000 mm 0,0 UV-I 0 W/m² -0,0 °C 0,7 °C 4,8 km/h (1 Bft)
23.02.2019 04:36 0,7 °C 95 % 1036,2 hPa 0,0 mm 0,6 km/h (0 Bft) NO 48 ° 0 min 0,000 mm 0,0 UV-I 0 W/m² -0,0 °C 0,7 °C 3,2 km/h (1 Bft)
23.02.2019 04:37 0,7 °C 95 % 1036,2 hPa 0,0 mm 3,9 km/h (1 Bft) NO 54 ° 0 min 0,000 mm 0,0 UV-I 0 W/m² -0,0 °C 0,7 °C 6,4 km/h (2 Bft)
23.02.2019 04:38 0,7 °C 95 % 1036,2 hPa 0,0 mm 1,1 km/h (1 Bft) NO 54 ° 0 min 0,000 mm 0,0 UV-I 0 W/m² -0,0 °C 0,7 °C 3,2 km/h (1 Bft)
23.02.2019 04:39 0,7 °C 95 % 1036,2 hPa 0,0 mm 2,3 km/h (1 Bft) NO 54 ° 0 min 0,000 mm 0,0 UV-I 0 W/m² -0,0 °C 0,7 °C 3,2 km/h (1 Bft)
23.02.2019 04:40 0,7 °C 95 % 1036,2 hPa 0,0 mm 1,7 km/h (1 Bft) NO 54 ° 0 min 0,000 mm 0,0 UV-I 0 W/m² -0,0 °C 0,7 °C 3,2 km/h (1 Bft)
23.02.2019 04:41 0,7 °C 95 % 1036,2 hPa 0,0 mm 0,4 km/h (0 Bft) NO 54 ° 0 min 0,000 mm 0,0 UV-I 0 W/m² -0,0 °C 0,7 °C 3,2 km/h (1 Bft)
23.02.2019 04:42 0,7 °C 95 % 1036,2 hPa 0,0 mm 0,6 km/h (0 Bft) O-NO 69 ° 0 min 0,000 mm 0,0 UV-I 0 W/m² -0,0 °C 0,7 °C 4,8 km/h (1 Bft)
23.02.2019 04:43 0,7 °C 95 % 1036,2 hPa 0,0 mm 3,8 km/h (1 Bft) O-NO 69 ° 0 min 0,000 mm 0,0 UV-I 0 W/m² -0,0 °C 0,7 °C 6,4 km/h (2 Bft)
23.02.2019 04:44 0,7 °C 95 % 1036,2 hPa 0,0 mm 2,8 km/h (1 Bft) O-NO 69 ° 0 min 0,000 mm 0,0 UV-I 0 W/m² -0,0 °C 0,7 °C 4,8 km/h (1 Bft)
23.02.2019 04:45 0,7 °C 95 % 1036,2 hPa 0,0 mm 4,6 km/h (1 Bft) O-NO 69 ° 0 min 0,000 mm 0,0 UV-I 0 W/m² -0,0 °C -0,6 °C 6,4 km/h (2 Bft)
23.02.2019 04:46 0,7 °C 95 % 1036,2 hPa 0,0 mm 2,9 km/h (1 Bft) O-NO 69 ° 0 min 0,000 mm 0,0 UV-I 0 W/m² -0,0 °C 0,7 °C 6,4 km/h (2 Bft)
23.02.2019 04:47 0,7 °C 95 % 1036,2 hPa 0,0 mm 1,9 km/h (1 Bft) O-NO 69 ° 0 min 0,000 mm 0,0 UV-I 0 W/m² -0,0 °C 0,7 °C 3,2 km/h (1 Bft)
23.02.2019 04:48 0,7 °C 95 % 1036,2 hPa 0,0 mm 3,8 km/h (1 Bft) O-NO 69 ° 0 min 0,000 mm 0,0 UV-I 0 W/m² -0,0 °C 0,7 °C 4,8 km/h (1 Bft)
23.02.2019 04:49 0,7 °C 95 % 1036,2 hPa 0,0 mm 1,9 km/h (1 Bft) O-NO 69 ° 0 min 0,000 mm 0,0 UV-I 0 W/m² -0,0 °C 0,7 °C 4,8 km/h (1 Bft)
23.02.2019 04:50 0,7 °C 95 % 1036,3 hPa 0,0 mm 2,3 km/h (1 Bft) O-NO 69 ° 0 min 0,000 mm 0,0 UV-I 0 W/m² -0,0 °C 0,7 °C 4,8 km/h (1 Bft)
23.02.2019 04:51 0,7 °C 95 % 1036,3 hPa 0,0 mm 3,2 km/h (1 Bft) O-NO 69 ° 0 min 0,000 mm 0,0 UV-I 0 W/m² -0,0 °C 0,7 °C 4,8 km/h (1 Bft)
23.02.2019 04:52 0,7 °C 95 % 1036,3 hPa 0,0 mm 2,5 km/h (1 Bft) O-NO 69 ° 0 min 0,000 mm 0,0 UV-I 0 W/m² -0,0 °C 0,7 °C 4,8 km/h (1 Bft)
23.02.2019 04:53 0,7 °C 95 % 1036,3 hPa 0,0 mm 4,6 km/h (1 Bft) O-NO 57 ° 0 min 0,000 mm 0,0 UV-I 0 W/m² -0,0 °C -0,6 °C 6,4 km/h (2 Bft)
23.02.2019 04:54 0,7 °C 95 % 1036,3 hPa 0,0 mm 4,6 km/h (1 Bft) NO 55 ° 0 min 0,000 mm 0,0 UV-I 0 W/m² -0,0 °C -0,6 °C 8,0 km/h (2 Bft)
23.02.2019 04:55 0,7 °C 95 % 1036,4 hPa 0,0 mm 6,2 km/h (2 Bft) NO 53 ° 0 min 0,000 mm 0,0 UV-I 0 W/m² -0,0 °C -1,3 °C 9,7 km/h (2 Bft)
23.02.2019 04:56 0,7 °C 95 % 1036,4 hPa 0,0 mm 6,3 km/h (2 Bft) NO 48 ° 0 min 0,000 mm 0,0 UV-I 0 W/m² -0,0 °C -1,3 °C 9,7 km/h (2 Bft)
23.02.2019 04:57 0,7 °C 95 % 1036,5 hPa 0,0 mm 5,8 km/h (2 Bft) NO 50 ° 0 min 0,000 mm 0,0 UV-I 0 W/m² -0,0 °C -1,1 °C 8,0 km/h (2 Bft)
23.02.2019 04:58 0,7 °C 95 % 1036,4 hPa 0,0 mm 8,0 km/h (2 Bft) O 86 ° 0 min 0,000 mm 0,0 UV-I 0 W/m² -0,0 °C -1,9 °C 12,9 km/h (3 Bft)
23.02.2019 04:59 0,7 °C 95 % 1036,5 hPa 0,0 mm 4,4 km/h (1 Bft) O 80 ° 0 min 0,000 mm 0,0 UV-I 0 W/m² -0,0 °C 0,7 °C 8,0 km/h (2 Bft)
23.02.2019 05:00 0,7 °C 95 % 1036,5 hPa 0,0 mm 4,6 km/h (1 Bft) O-NO 74 ° 0 min 0,000 mm 0,0 UV-I 0 W/m² -0,0 °C -0,6 °C 6,4 km/h (2 Bft)
23.02.2019 05:01 0,7 °C 95 % 1036,5 hPa 0,0 mm 5,7 km/h (1 Bft) O-NO 74 ° 0 min 0,000 mm 0,0 UV-I 0 W/m² -0,0 °C -1,1 °C 8,0 km/h (2 Bft)
23.02.2019 05:02 0,6 °C 95 % 1036,6 hPa 0,0 mm 5,5 km/h (1 Bft) O 80 ° 0 min 0,000 mm 0,0 UV-I 0 W/m² -0,1 °C -1,1 °C 11,3 km/h (2 Bft)
23.02.2019 05:03 0,6 °C 95 % 1036,5 hPa 0,0 mm 5,1 km/h (1 Bft) O-NO 75 ° 0 min 0,000 mm 0,0 UV-I 0 W/m² -0,1 °C -1,0 °C 6,4 km/h (2 Bft)
23.02.2019 05:04 0,6 °C 95 % 1036,6 hPa 0,0 mm 5,2 km/h (1 Bft) O-NO 78 ° 0 min 0,000 mm 0,0 UV-I 0 W/m² -0,1 °C -1,0 °C 8,0 km/h (2 Bft)
23.02.2019 05:05 0,6 °C 95 % 1036,6 hPa 0,0 mm 7,6 km/h (2 Bft) O 95 ° 0 min 0,000 mm 0,0 UV-I 0 W/m² -0,1 °C -1,9 °C 12,9 km/h (3 Bft)
23.02.2019 05:06 0,6 °C 95 % 1036,6 hPa 0,0 mm 6,4 km/h (2 Bft) O-NO 61 ° 0 min 0,000 mm 0,0 UV-I 0 W/m² -0,1 °C -1,5 °C 11,3 km/h (2 Bft)
23.02.2019 05:07 0,6 °C 95 % 1036,5 hPa 0,0 mm 4,4 km/h (1 Bft) O-NO 65 ° 0 min 0,000 mm 0,0 UV-I 0 W/m² -0,1 °C 0,6 °C 9,7 km/h (2 Bft)
23.02.2019 05:08 0,5 °C 95 % 1036,5 hPa 0,0 mm 3,0 km/h (1 Bft) O-NO 66 ° 0 min 0,000 mm 0,0 UV-I 0 W/m² -0,2 °C 0,5 °C 4,8 km/h (1 Bft)
23.02.2019 05:09 0,4 °C 95 % 1036,5 hPa 0,0 mm 6,2 km/h (2 Bft) NO 49 ° 0 min 0,000 mm 0,0 UV-I 0 W/m² -0,3 °C -1,6 °C 11,3 km/h (2 Bft)
23.02.2019 05:10 0,5 °C 95 % 1036,6 hPa 0,0 mm 3,2 km/h (1 Bft) NO 51 ° 0 min 0,000 mm 0,0 UV-I 0 W/m² -0,2 °C 0,5 °C 4,8 km/h (1 Bft)
23.02.2019 05:11 0,5 °C 95 % 1036,5 hPa 0,0 mm 3,8 km/h (1 Bft) NO 50 ° 0 min 0,000 mm 0,0 UV-I 0 W/m² -0,2 °C 0,5 °C 8,0 km/h (2 Bft)
23.02.2019 05:12 0,4 °C 95 % 1036,5 hPa 0,0 mm 4,9 km/h (1 Bft) O 80 ° 0 min 0,000 mm 0,0 UV-I 0 W/m² -0,3 °C -1,1 °C 8,0 km/h (2 Bft)
23.02.2019 05:13 0,4 °C 95 % 1036,5 hPa 0,0 mm 4,6 km/h (1 Bft) O-NO 70 ° 0 min 0,000 mm 0,0 UV-I 0 W/m² -0,3 °C -0,9 °C 6,4 km/h (2 Bft)
23.02.2019 05:14 0,4 °C 95 % 1036,5 hPa 0,0 mm 4,4 km/h (1 Bft) O-NO 72 ° 0 min 0,000 mm 0,0 UV-I 0 W/m² -0,3 °C 0,4 °C 8,0 km/h (2 Bft)
23.02.2019 05:15 0,4 °C 95 % 1036,5 hPa 0,0 mm 4,4 km/h (1 Bft) O 89 ° 0 min 0,000 mm 0,0 UV-I 0 W/m² -0,3 °C 0,4 °C 6,4 km/h (2 Bft)
23.02.2019 05:16 0,4 °C 95 % 1036,5 hPa 0,0 mm 3,0 km/h (1 Bft) SO 129 ° 0 min 0,000 mm 0,0 UV-I 0 W/m² -0,3 °C 0,4 °C 4,8 km/h (1 Bft)
23.02.2019 05:17 0,4 °C 95 % 1036,5 hPa 0,0 mm 1,6 km/h (1 Bft) O-NO 78 ° 0 min 0,000 mm 0,0 UV-I 0 W/m² -0,3 °C 0,4 °C 4,8 km/h (1 Bft)
23.02.2019 05:18 0,4 °C 95 % 1036,5 hPa 0,0 mm 3,9 km/h (1 Bft) O-NO 71 ° 0 min 0,000 mm 0,0 UV-I 0 W/m² -0,3 °C 0,4 °C 8,0 km/h (2 Bft)
23.02.2019 05:19 0,4 °C 95 % 1036,5 hPa 0,0 mm 4,5 km/h (1 Bft) O 85 ° 0 min 0,000 mm 0,0 UV-I 0 W/m² -0,3 °C 0,4 °C 6,4 km/h (2 Bft)
23.02.2019 05:20 0,3 °C 95 % 1036,6 hPa 0,0 mm 4,3 km/h (1 Bft) O 80 ° 0 min 0,000 mm 0,0 UV-I 0 W/m² -0,4 °C 0,3 °C 6,4 km/h (2 Bft)
23.02.2019 05:21 0,3 °C 95 % 1036,6 hPa 0,0 mm 3,0 km/h (1 Bft) O-NO 76 ° 0 min 0,000 mm 0,0 UV-I 0 W/m² -0,4 °C 0,3 °C 4,8 km/h (1 Bft)
23.02.2019 05:22 0,4 °C 95 % 1036,6 hPa 0,0 mm 6,6 km/h (2 Bft) O 87 ° 0 min 0,000 mm 0,0 UV-I 0 W/m² -0,3 °C -1,8 °C 9,7 km/h (2 Bft)
23.02.2019 05:23 0,3 °C 95 % 1036,6 hPa 0,0 mm 3,9 km/h (1 Bft) O 92 ° 0 min 0,000 mm 0,0 UV-I 0 W/m² -0,4 °C 0,3 °C 6,4 km/h (2 Bft)
23.02.2019 05:24 0,3 °C 95 % 1036,6 hPa 0,0 mm 3,2 km/h (1 Bft) O 89 ° 0 min 0,000 mm 0,0 UV-I 0 W/m² -0,4 °C 0,3 °C 4,8 km/h (1 Bft)
23.02.2019 05:25 0,3 °C 95 % 1036,5 hPa 0,0 mm 3,8 km/h (1 Bft) O 92 ° 0 min 0,000 mm 0,0 UV-I 0 W/m² -0,4 °C 0,3 °C 6,4 km/h (2 Bft)
23.02.2019 05:26 0,3 °C 95 % 1036,6 hPa 0,0 mm 3,2 km/h (1 Bft) O 92 ° 0 min 0,000 mm 0,0 UV-I 0 W/m² -0,4 °C 0,3 °C 4,8 km/h (1 Bft)
23.02.2019 05:27 0,3 °C 95 % 1036,6 hPa 0,0 mm 3,4 km/h (1 Bft) O 89 ° 0 min 0,000 mm 0,0 UV-I 0 W/m² -0,4 °C 0,3 °C 6,4 km/h (2 Bft)
23.02.2019 05:28 0,3 °C 95 % 1036,6 hPa 0,0 mm 0,6 km/h (0 Bft) O 89 ° 0 min 0,000 mm 0,0 UV-I 0 W/m² -0,4 °C 0,3 °C 3,2 km/h (1 Bft)
23.02.2019 05:29 0,3 °C 95 % 1036,6 hPa 0,0 mm 2,2 km/h (1 Bft) O 81 ° 0 min 0,000 mm 0,0 UV-I 0 W/m² -0,4 °C 0,3 °C 8,0 km/h (2 Bft)
23.02.2019 05:30 0,3 °C 95 % 1036,6 hPa 0,0 mm 6,4 km/h (2 Bft) O 85 ° 0 min 0,000 mm 0,0 UV-I 0 W/m² -0,4 °C -1,8 °C 9,7 km/h (2 Bft)
23.02.2019 05:31 0,3 °C 95 % 1036,6 hPa 0,0 mm 4,7 km/h (1 Bft) O-NO 60 ° 0 min 0,000 mm 0,0 UV-I 0 W/m² -0,4 °C -1,1 °C 8,0 km/h (2 Bft)
23.02.2019 05:32 0,3 °C 95 % 1036,6 hPa 0,0 mm 4,0 km/h (1 Bft) O-NO 69 ° 0 min 0,000 mm 0,0 UV-I 0 W/m² -0,4 °C 0,3 °C 6,4 km/h (2 Bft)
23.02.2019 05:33 0,3 °C 95 % 1036,6 hPa 0,0 mm 4,6 km/h (1 Bft) O-NO 76 ° 0 min 0,000 mm 0,0 UV-I 0 W/m² -0,4 °C -1,1 °C 6,4 km/h (2 Bft)
23.02.2019 05:34 0,3 °C 95 % 1036,6 hPa 0,0 mm 5,0 km/h (1 Bft) O-NO 67 ° 0 min 0,000 mm 0,0 UV-I 0 W/m² -0,4 °C -1,2 °C 6,4 km/h (2 Bft)
23.02.2019 05:35 0,3 °C 95 % 1036,6 hPa 0,0 mm 5,8 km/h (2 Bft) O-NO 76 ° 0 min 0,000 mm 0,0 UV-I 0 W/m² -0,4 °C -1,6 °C 8,0 km/h (2 Bft)
23.02.2019 05:36 0,3 °C 95 % 1036,6 hPa 0,0 mm 4,8 km/h (1 Bft) O-NO 74 ° 0 min 0,000 mm 0,0 UV-I 0 W/m² -0,4 °C -1,2 °C 8,0 km/h (2 Bft)
23.02.2019 05:37 0,3 °C 95 % 1036,6 hPa 0,0 mm 5,0 km/h (1 Bft) O-NO 71 ° 0 min 0,000 mm 0,0 UV-I 0 W/m² -0,4 °C -1,2 °C 6,4 km/h (2 Bft)
23.02.2019 05:38 0,3 °C 95 % 1036,5 hPa 0,0 mm 3,4 km/h (1 Bft) O-NO 71 ° 0 min 0,000 mm 0,0 UV-I 0 W/m² -0,4 °C 0,3 °C 6,4 km/h (2 Bft)
23.02.2019 05:39 0,3 °C 95 % 1036,6 hPa 0,0 mm 1,1 km/h (1 Bft) O-NO 75 ° 0 min 0,000 mm 0,0 UV-I 0 W/m² -0,4 °C 0,3 °C 4,8 km/h (1 Bft)
23.02.2019 05:40 0,3 °C 95 % 1036,6 hPa 0,0 mm 0,7 km/h (0 Bft) O-NO 76 ° 0 min 0,000 mm 0,0 UV-I 0 W/m² -0,4 °C 0,3 °C 3,2 km/h (1 Bft)
23.02.2019 05:41 0,3 °C 95 % 1036,6 hPa 0,0 mm 1,1 km/h (1 Bft) O-NO 59 ° 0 min 0,000 mm 0,0 UV-I 0 W/m² -0,4 °C 0,3 °C 4,8 km/h (1 Bft)
23.02.2019 05:42 0,2 °C 95 % 1036,5 hPa 0,0 mm 2,0 km/h (1 Bft) O 94 ° 0 min 0,000 mm 0,0 UV-I 0 W/m² -0,5 °C 0,2 °C 4,8 km/h (1 Bft)
23.02.2019 05:43 0,2 °C 95 % 1036,5 hPa 0,0 mm 2,8 km/h (1 Bft) O-NO 61 ° 0 min 0,000 mm 0,0 UV-I 0 W/m² -0,5 °C 0,2 °C 6,4 km/h (2 Bft)
23.02.2019 05:44 0,2 °C 95 % 1036,5 hPa 0,0 mm 2,5 km/h (1 Bft) O 82 ° 0 min 0,000 mm 0,0 UV-I 0 W/m² -0,5 °C 0,2 °C 4,8 km/h (1 Bft)
23.02.2019 05:45 0,2 °C 95 % 1036,5 hPa 0,0 mm 1,9 km/h (1 Bft) O 81 ° 0 min 0,000 mm 0,0 UV-I 0 W/m² -0,5 °C 0,2 °C 4,8 km/h (1 Bft)
23.02.2019 05:46 0,2 °C 95 % 1036,4 hPa 0,0 mm 3,2 km/h (1 Bft) O 86 ° 0 min 0,000 mm 0,0 UV-I 0 W/m² -0,5 °C 0,2 °C 6,4 km/h (2 Bft)
23.02.2019 05:47 0,2 °C 95 % 1036,4 hPa 0,0 mm 1,9 km/h (1 Bft) O 86 ° 0 min 0,000 mm 0,0 UV-I 0 W/m² -0,5 °C 0,2 °C 4,8 km/h (1 Bft)
23.02.2019 05:48 0,2 °C 95 % 1036,4 hPa 0,0 mm 3,4 km/h (1 Bft) O 85 ° 0 min 0,000 mm 0,0 UV-I 0 W/m² -0,5 °C 0,2 °C 4,8 km/h (1 Bft)
23.02.2019 05:49 0,2 °C 95 % 1036,4 hPa 0,0 mm 0,2 km/h (0 Bft) O 85 ° 0 min 0,000 mm 0,0 UV-I 0 W/m² -0,5 °C 0,2 °C 1,6 km/h (1 Bft)
23.02.2019 05:50 0,2 °C 95 % 1036,3 hPa 0,0 mm 0,2 km/h (0 Bft) O 85 ° 0 min 0,000 mm 0,0 UV-I 0 W/m² -0,5 °C 0,2 °C 1,6 km/h (1 Bft)
23.02.2019 05:51 0,2 °C 95 % 1036,3 hPa 0,0 mm 3,3 km/h (1 Bft) O-NO 76 ° 0 min 0,000 mm 0,0 UV-I 0 W/m² -0,5 °C 0,2 °C 6,4 km/h (2 Bft)
23.02.2019 05:52 0,2 °C 95 % 1036,3 hPa 0,0 mm 4,3 km/h (1 Bft) O-NO 76 ° 0 min 0,000 mm 0,0 UV-I 0 W/m² -0,5 °C 0,2 °C 6,4 km/h (2 Bft)
23.02.2019 05:53 0,2 °C 95 % 1036,3 hPa 0,0 mm 3,6 km/h (1 Bft) O-NO 76 ° 0 min 0,000 mm 0,0 UV-I 0 W/m² -0,5 °C 0,2 °C 6,4 km/h (2 Bft)
23.02.2019 05:54 0,2 °C 95 % 1036,2 hPa 0,0 mm 4,4 km/h (1 Bft) O-NO 77 ° 0 min 0,000 mm 0,0 UV-I 0 W/m² -0,5 °C 0,2 °C 6,4 km/h (2 Bft)
23.02.2019 05:55 0,2 °C 95 % 1036,2 hPa 0,0 mm 1,8 km/h (1 Bft) O-NO 76 ° 0 min 0,000 mm 0,0 UV-I 0 W/m² -0,5 °C 0,2 °C 4,8 km/h (1 Bft)
23.02.2019 05:56 0,2 °C 95 % 1036,2 hPa 0,0 mm 1,1 km/h (1 Bft) O-NO 76 ° 0 min 0,000 mm 0,0 UV-I 0 W/m² -0,5 °C 0,2 °C 3,2 km/h (1 Bft)
23.02.2019 05:57 0,2 °C 95 % 1036,2 hPa 0,0 mm 2,9 km/h (1 Bft) O-NO 76 ° 0 min 0,000 mm 0,0 UV-I 0 W/m² -0,5 °C 0,2 °C 4,8 km/h (1 Bft)
23.02.2019 05:58 0,2 °C 95 % 1036,1 hPa 0,0 mm 3,8 km/h (1 Bft) O-NO 76 ° 0 min 0,000 mm 0,0 UV-I 0 W/m² -0,5 °C 0,2 °C 6,4 km/h (2 Bft)
23.02.2019 05:59 0,2 °C 95 % 1036,1 hPa 0,0 mm 4,5 km/h (1 Bft) O-NO 57 ° 0 min 0,000 mm 0,0 UV-I 0 W/m² -0,5 °C 0,2 °C 6,4 km/h (2 Bft)
23.02.2019 06:00 0,2 °C 95 % 1036,1 hPa 0,0 mm 3,6 km/h (1 Bft) O-NO 58 ° 0 min 0,000 mm 0,0 UV-I 0 W/m² -0,5 °C 0,2 °C 4,8 km/h (1 Bft)
23.02.2019 06:01 0,2 °C 95 % 1036,2 hPa 0,0 mm 5,1 km/h (1 Bft) O-NO 65 ° 0 min 0,000 mm 0,0 UV-I 0 W/m² -0,5 °C -1,4 °C 6,4 km/h (2 Bft)
23.02.2019 06:02 0,2 °C 95 % 1036,1 hPa 0,0 mm 3,6 km/h (1 Bft) O-NO 65 ° 0 min 0,000 mm 0,0 UV-I 0 W/m² -0,5 °C 0,2 °C 4,8 km/h (1 Bft)
23.02.2019 06:03 0,2 °C 95 % 1036,1 hPa 0,0 mm 4,3 km/h (1 Bft) O-NO 63 ° 0 min 0,000 mm 0,0 UV-I 0 W/m² -0,5 °C 0,2 °C 6,4 km/h (2 Bft)
23.02.2019 06:04 0,1 °C 95 % 1036,1 hPa 0,0 mm 1,5 km/h (1 Bft) O-NO 63 ° 0 min 0,000 mm 0,0 UV-I 0 W/m² -0,6 °C 0,1 °C 3,2 km/h (1 Bft)
23.02.2019 06:05 0,1 °C 95 % 1036,1 hPa 0,0 mm 2,1 km/h (1 Bft) O-NO 63 ° 0 min 0,000 mm 0,0 UV-I 0 W/m² -0,6 °C 0,1 °C 4,8 km/h (1 Bft)
23.02.2019 06:06 0,2 °C 95 % 1036,1 hPa 0,0 mm 2,0 km/h (1 Bft) O-NO 63 ° 0 min 0,000 mm 0,0 UV-I 0 W/m² -0,5 °C 0,2 °C 4,8 km/h (1 Bft)
23.02.2019 06:07 0,1 °C 95 % 1036,1 hPa 0,0 mm 3,7 km/h (1 Bft) O-NO 63 ° 0 min 0,000 mm 0,0 UV-I 0 W/m² -0,6 °C 0,1 °C 6,4 km/h (2 Bft)
23.02.2019 06:08 0,2 °C 95 % 1036,1 hPa 0,0 mm 3,1 km/h (1 Bft) O-NO 63 ° 0 min 0,000 mm 0,0 UV-I 0 W/m² -0,5 °C 0,2 °C 4,8 km/h (1 Bft)
23.02.2019 06:09 0,2 °C 95 % 1036,1 hPa 0,0 mm 0,8 km/h (0 Bft) O-NO 63 ° 0 min 0,000 mm 0,0 UV-I 0 W/m² -0,5 °C 0,2 °C 4,8 km/h (1 Bft)
23.02.2019 06:10 0,2 °C 95 % 1036,1 hPa 0,0 mm 0,0 km/h (0 Bft) O-NO 63 ° 0 min 0,000 mm 0,0 UV-I 0 W/m² -0,5 °C 0,2 °C 0,0 km/h (0 Bft)
23.02.2019 06:11 0,2 °C 95 % 1036,1 hPa 0,0 mm 1,6 km/h (1 Bft) O-NO 63 ° 0 min 0,000 mm 0,0 UV-I 0 W/m² -0,5 °C 0,2 °C 3,2 km/h (1 Bft)
23.02.2019 06:12 0,2 °C 95 % 1036,1 hPa 0,0 mm 0,3 km/h (0 Bft) O-NO 63 ° 0 min 0,000 mm 0,0 UV-I 0 W/m² -0,5 °C 0,2 °C 1,6 km/h (1 Bft)
23.02.2019 06:13 0,2 °C 95 % 1036,0 hPa 0,0 mm 0,5 km/h (0 Bft) O-NO 63 ° 0 min 0,000 mm 0,0 UV-I 0 W/m² -0,5 °C 0,2 °C 1,6 km/h (1 Bft)
23.02.2019 06:14 0,2 °C 95 % 1036,0 hPa 0,0 mm 0,0 km/h (0 Bft) O-NO 63 ° 0 min 0,000 mm 0,0 UV-I 0 W/m² -0,5 °C 0,2 °C 0,0 km/h (0 Bft)
23.02.2019 06:15 0,2 °C 95 % 1035,9 hPa 0,0 mm 0,0 km/h (0 Bft) O-NO 63 ° 0 min 0,000 mm 0,0 UV-I 0 W/m² -0,5 °C 0,2 °C 0,0 km/h (0 Bft)
23.02.2019 06:16 0,2 °C 95 % 1035,9 hPa 0,0 mm 0,7 km/h (0 Bft) O-NO 63 ° 0 min 0,000 mm 0,0 UV-I 0 W/m² -0,5 °C 0,2 °C 3,2 km/h (1 Bft)
23.02.2019 06:17 0,2 °C 95 % 1035,9 hPa 0,0 mm 0,2 km/h (0 Bft) O-NO 63 ° 0 min 0,000 mm 0,0 UV-I 0 W/m² -0,5 °C 0,2 °C 1,6 km/h (1 Bft)
23.02.2019 06:18 0,2 °C 95 % 1035,9 hPa 0,0 mm 0,0 km/h (0 Bft) O-NO 63 ° 0 min 0,000 mm 0,0 UV-I 0 W/m² -0,5 °C 0,2 °C 0,0 km/h (0 Bft)
23.02.2019 06:19 0,2 °C 95 % 1035,9 hPa 0,0 mm 1,3 km/h (1 Bft) O-NO 63 ° 0 min 0,000 mm 0,0 UV-I 0 W/m² -0,5 °C 0,2 °C 4,8 km/h (1 Bft)
23.02.2019 06:20 0,2 °C 95 % 1035,9 hPa 0,0 mm 1,3 km/h (1 Bft) O-NO 63 ° 0 min 0,000 mm 0,0 UV-I 0 W/m² -0,5 °C 0,2 °C 3,2 km/h (1 Bft)
23.02.2019 06:21 0,2 °C 95 % 1035,9 hPa 0,0 mm 0,1 km/h (0 Bft) O-NO 63 ° 0 min 0,000 mm 0,0 UV-I 0 W/m² -0,5 °C 0,2 °C 1,6 km/h (1 Bft)
23.02.2019 06:22 0,2 °C 95 % 1035,9 hPa 0,0 mm 2,5 km/h (1 Bft) O-NO 63 ° 0 min 0,000 mm 0,0 UV-I 0 W/m² -0,5 °C 0,2 °C 4,8 km/h (1 Bft)
23.02.2019 06:23 0,2 °C 95 % 1035,8 hPa 0,0 mm 1,9 km/h (1 Bft) O-NO 63 ° 0 min 0,000 mm 0,0 UV-I 0 W/m² -0,5 °C 0,2 °C 3,2 km/h (1 Bft)
23.02.2019 06:24 0,2 °C 95 % 1035,8 hPa 0,0 mm 0,1 km/h (0 Bft) O-NO 63 ° 0 min 0,000 mm 0,0 UV-I 0 W/m² -0,5 °C 0,2 °C 1,6 km/h (1 Bft)
23.02.2019 06:25 0,2 °C 95 % 1035,8 hPa 0,0 mm 1,3 km/h (1 Bft) O-NO 63 ° 0 min 0,000 mm 0,0 UV-I 0 W/m² -0,5 °C 0,2 °C 3,2 km/h (1 Bft)
23.02.2019 06:26 0,1 °C 95 % 1035,8 hPa 0,0 mm 2,4 km/h (1 Bft) O-NO 63 ° 0 min 0,000 mm 0,0 UV-I 0 W/m² -0,6 °C 0,1 °C 4,8 km/h (1 Bft)
23.02.2019 06:27 0,1 °C 95 % 1035,8 hPa 0,0 mm 0,8 km/h (0 Bft) O-NO 63 ° 0 min 0,000 mm 0,0 UV-I 0 W/m² -0,6 °C 0,1 °C 3,2 km/h (1 Bft)
23.02.2019 06:28 0,1 °C 95 % 1035,8 hPa 0,0 mm 0,7 km/h (0 Bft) O 88 ° 0 min 0,000 mm 0,0 UV-I 0 W/m² -0,6 °C 0,1 °C 4,8 km/h (1 Bft)
23.02.2019 06:29 0,1 °C 95 % 1035,8 hPa 0,0 mm 2,2 km/h (1 Bft) O-SO 107 ° 0 min 0,000 mm 0,0 UV-I 0 W/m² -0,6 °C 0,1 °C 6,4 km/h (2 Bft)
23.02.2019 06:30 0,1 °C 95 % 1035,8 hPa 0,0 mm 3,3 km/h (1 Bft) O-NO 77 ° 0 min 0,000 mm 0,0 UV-I 0 W/m² -0,6 °C 0,1 °C 4,8 km/h (1 Bft)
23.02.2019 06:31 0,1 °C 95 % 1035,8 hPa 0,0 mm 1,1 km/h (1 Bft) O-NO 77 ° 0 min 0,000 mm 0,0 UV-I 0 W/m² -0,6 °C 0,1 °C 3,2 km/h (1 Bft)
23.02.2019 06:32 0,1 °C 95 % 1035,8 hPa 0,0 mm 3,7 km/h (1 Bft) O-NO 77 ° 0 min 0,000 mm 0,0 UV-I 0 W/m² -0,6 °C 0,1 °C 6,4 km/h (2 Bft)
23.02.2019 06:33 0,1 °C 95 % 1035,8 hPa 0,0 mm 2,9 km/h (1 Bft) O-NO 77 ° 0 min 0,000 mm 0,0 UV-I 0 W/m² -0,6 °C 0,1 °C 4,8 km/h (1 Bft)
23.02.2019 06:34 0,1 °C 95 % 1035,8 hPa 0,0 mm 0,9 km/h (0 Bft) O-NO 77 ° 0 min 0,000 mm 0,0 UV-I 0 W/m² -0,6 °C 0,1 °C 3,2 km/h (1 Bft)
23.02.2019 06:35 0,1 °C 95 % 1035,8 hPa 0,0 mm 3,0 km/h (1 Bft) O-NO 74 ° 0 min 0,000 mm 0,0 UV-I 0 W/m² -0,6 °C 0,1 °C 6,4 km/h (2 Bft)
23.02.2019 06:36 0,1 °C 95 % 1035,8 hPa 0,0 mm 1,1 km/h (1 Bft) O-NO 74 ° 0 min 0,000 mm 0,0 UV-I 0 W/m² -0,6 °C 0,1 °C 3,2 km/h (1 Bft)
23.02.2019 06:37 0,1 °C 95 % 1035,9 hPa 0,0 mm 4,3 km/h (1 Bft) O-NO 60 ° 0 min 0,000 mm 0,0 UV-I 0 W/m² -0,6 °C 0,1 °C 11,3 km/h (2 Bft)
23.02.2019 06:38 0,1 °C 95 % 1035,8 hPa 0,0 mm 4,4 km/h (1 Bft) O 84 ° 0 min 0,000 mm 0,0 UV-I 0 W/m² -0,6 °C 0,1 °C 9,7 km/h (2 Bft)
23.02.2019 06:39 0,1 °C 95 % 1035,8 hPa 0,0 mm 2,3 km/h (1 Bft) O 80 ° 0 min 0,000 mm 0,0 UV-I 0 W/m² -0,6 °C 0,1 °C 4,8 km/h (1 Bft)
23.02.2019 06:40 0,1 °C 95 % 1035,8 hPa 0,0 mm 4,1 km/h (1 Bft) O-NO 65 ° 0 min 0,000 mm 0,0 UV-I 0 W/m² -0,6 °C 0,1 °C 8,0 km/h (2 Bft)
23.02.2019 06:41 0,1 °C 95 % 1035,8 hPa 0,0 mm 2,9 km/h (1 Bft) O-NO 65 ° 0 min 0,000 mm 0,0 UV-I 0 W/m² -0,6 °C 0,1 °C 4,8 km/h (1 Bft)
23.02.2019 06:42 0,1 °C 95 % 1035,8 hPa 0,0 mm 0,1 km/h (0 Bft) O-NO 74 ° 0 min 0,000 mm 0,0 UV-I 0 W/m² -0,6 °C 0,1 °C 1,6 km/h (1 Bft)
23.02.2019 06:43 0,1 °C 95 % 1035,9 hPa 0,0 mm 0,4 km/h (0 Bft) O-NO 74 ° 0 min 0,000 mm 0,0 UV-I 0 W/m² -0,6 °C 0,1 °C 3,2 km/h (1 Bft)
23.02.2019 06:44 0,1 °C 95 % 1035,9 hPa 0,0 mm 2,8 km/h (1 Bft) O 80 ° 0 min 0,000 mm 0,0 UV-I 0 W/m² -0,6 °C 0,1 °C 6,4 km/h (2 Bft)
23.02.2019 06:45 0,1 °C 95 % 1036,0 hPa 0,0 mm 3,6 km/h (1 Bft) NO 56 ° 0 min 0,000 mm 0,0 UV-I 0 W/m² -0,6 °C 0,1 °C 6,4 km/h (2 Bft)
23.02.2019 06:46 0,1 °C 95 % 1036,0 hPa 0,0 mm 0,8 km/h (0 Bft) NO 56 ° 0 min 0,000 mm 0,0 UV-I 0 W/m² -0,6 °C 0,1 °C 3,2 km/h (1 Bft)
23.02.2019 06:47 0,0 °C 95 % 1035,9 hPa 0,0 mm 2,7 km/h (1 Bft) O-NO 65 ° 0 min 0,000 mm 0,0 UV-I 0 W/m² -0,7 °C 0,0 °C 4,8 km/h (1 Bft)
23.02.2019 06:48 0,0 °C 95 % 1035,9 hPa 0,0 mm 4,6 km/h (1 Bft) O 85 ° 0 min 0,000 mm 0,0 UV-I 0 W/m² -0,7 °C -1,4 °C 8,0 km/h (2 Bft)
23.02.2019 06:49 0,0 °C 95 % 1035,9 hPa 0,0 mm 2,0 km/h (1 Bft) O-NO 71 ° 0 min 0,000 mm 0,0 UV-I 0 W/m² -0,7 °C 0,0 °C 4,8 km/h (1 Bft)
23.02.2019 06:50 0,0 °C 95 % 1035,9 hPa 0,0 mm 3,6 km/h (1 Bft) O-NO 67 ° 0 min 0,000 mm 0,0 UV-I 0 W/m² -0,7 °C 0,0 °C 6,4 km/h (2 Bft)
23.02.2019 06:51 0,0 °C 95 % 1035,9 hPa 0,0 mm 0,0 km/h (0 Bft) O-NO 67 ° 0 min 0,000 mm 0,0 UV-I 0 W/m² -0,7 °C 0,0 °C 0,0 km/h (0 Bft)
23.02.2019 06:52 0,0 °C 95 % 1035,9 hPa 0,0 mm 3,9 km/h (1 Bft) O 80 ° 0 min 0,000 mm 0,0 UV-I 0 W/m² -0,7 °C 0,0 °C 6,4 km/h (2 Bft)
23.02.2019 06:53 0,0 °C 95 % 1036,0 hPa 0,0 mm 2,5 km/h (1 Bft) O 85 ° 0 min 0,000 mm 0,0 UV-I 0 W/m² -0,7 °C 0,0 °C 4,8 km/h (1 Bft)
23.02.2019 06:54 0,0 °C 95 % 1036,0 hPa 0,0 mm 1,2 km/h (1 Bft) O 85 ° 0 min 0,000 mm 0,0 UV-I 0 W/m² -0,7 °C 0,0 °C 3,2 km/h (1 Bft)
23.02.2019 06:55 0,0 °C 95 % 1036,0 hPa 0,0 mm 0,2 km/h (0 Bft) O 85 ° 0 min 0,000 mm 0,0 UV-I 0 W/m² -0,7 °C 0,0 °C 1,6 km/h (1 Bft)
23.02.2019 06:56 0,0 °C 95 % 1036,0 hPa 0,0 mm 0,0 km/h (0 Bft) O 85 ° 0 min 0,000 mm 0,0 UV-I 0 W/m² -0,7 °C 0,0 °C 0,0 km/h (0 Bft)
23.02.2019 06:57 0,0 °C 95 % 1036,0 hPa 0,0 mm 2,3 km/h (1 Bft) NO 40 ° 0 min 0,000 mm 0,0 UV-I 0 W/m² -0,7 °C 0,0 °C 6,4 km/h (2 Bft)
23.02.2019 06:58 0,0 °C 95 % 1036,0 hPa 0,0 mm 2,2 km/h (1 Bft) NO 44 ° 0 min 0,000 mm 0,0 UV-I 0 W/m² -0,7 °C 0,0 °C 6,4 km/h (2 Bft)
23.02.2019 06:59 0,0 °C 95 % 1036,0 hPa 0,0 mm 0,4 km/h (0 Bft) NO 44 ° 0 min 0,000 mm 0,0 UV-I 0 W/m² -0,7 °C 0,0 °C 3,2 km/h (1 Bft)
23.02.2019 07:00 0,0 °C 95 % 1036,0 hPa 0,0 mm 2,2 km/h (1 Bft) O-NO 63 ° 0 min 0,000 mm 0,0 UV-I 0 W/m² -0,7 °C 0,0 °C 6,4 km/h (2 Bft)
23.02.2019 07:01 0,0 °C 95 % 1036,0 hPa 0,0 mm 4,7 km/h (1 Bft) O 81 ° 0 min 0,000 mm 0,0 UV-I 0 W/m² -0,7 °C -1,4 °C 8,0 km/h (2 Bft)
23.02.2019 07:02 0,0 °C 95 % 1036,0 hPa 0,0 mm 7,6 km/h (2 Bft) O-NO 61 ° 0 min 0,000 mm 0,0 UV-I 0 W/m² -0,7 °C -2,6 °C 12,9 km/h (3 Bft)
23.02.2019 07:03 0,0 °C 95 % 1036,0 hPa 0,0 mm 7,0 km/h (2 Bft) O-NO 75 ° 0 min 0,000 mm 0,0 UV-I 0 W/m² -0,7 °C -2,4 °C 11,3 km/h (2 Bft)
23.02.2019 07:04 0,0 °C 95 % 1036,0 hPa 0,0 mm 5,0 km/h (1 Bft) O-NO 66 ° 0 min 0,000 mm 0,0 UV-I 0 W/m² -0,7 °C -1,6 °C 8,0 km/h (2 Bft)
23.02.2019 07:05 0,0 °C 95 % 1036,0 hPa 0,0 mm 4,6 km/h (1 Bft) O-NO 65 ° 0 min 0,000 mm 0,0 UV-I 0 W/m² -0,7 °C -1,4 °C 6,4 km/h (2 Bft)
23.02.2019 07:06 -0,1 °C 95 % 1036,0 hPa 0,0 mm 5,4 km/h (1 Bft) O-NO 76 ° 0 min 0,000 mm 0,0 UV-I 0 W/m² -0,8 °C -1,9 °C 8,0 km/h (2 Bft)
23.02.2019 07:07 -0,1 °C 95 % 1036,1 hPa 0,0 mm 4,3 km/h (1 Bft) O-NO 59 ° 0 min 0,000 mm 0,0 UV-I 0 W/m² -0,8 °C -0,1 °C 8,0 km/h (2 Bft)
23.02.2019 07:08 -0,1 °C 95 % 1036,1 hPa 0,0 mm 4,2 km/h (1 Bft) NO 48 ° 0 min 0,000 mm 0,0 UV-I 0 W/m² -0,8 °C -0,1 °C 6,4 km/h (2 Bft)
23.02.2019 07:09 -0,1 °C 96 % 1036,1 hPa 0,0 mm 2,7 km/h (1 Bft) O-NO 61 ° 0 min 0,000 mm 0,0 UV-I 0 W/m² -0,7 °C -0,1 °C 4,8 km/h (1 Bft)
23.02.2019 07:10 -0,1 °C 96 % 1036,1 hPa 0,0 mm 6,1 km/h (2 Bft) O 79 ° 0 min 0,000 mm 0,0 UV-I 0 W/m² -0,7 °C -2,2 °C 11,3 km/h (2 Bft)
23.02.2019 07:11 -0,1 °C 95 % 1036,1 hPa 0,0 mm 0,5 km/h (0 Bft) O 79 ° 0 min 0,000 mm 0,0 UV-I 0 W/m² -0,8 °C -0,1 °C 1,6 km/h (1 Bft)
23.02.2019 07:12 -0,1 °C 95 % 1036,1 hPa 0,0 mm 4,5 km/h (1 Bft) O-NO 67 ° 0 min 0,000 mm 0,0 UV-I 0 W/m² -0,8 °C -0,1 °C 6,4 km/h (2 Bft)
23.02.2019 07:13 -0,1 °C 95 % 1036,1 hPa 0,0 mm 4,4 km/h (1 Bft) O 81 ° 0 min 0,000 mm 0,0 UV-I 0 W/m² -0,8 °C -0,1 °C 8,0 km/h (2 Bft)
23.02.2019 07:14 -0,1 °C 95 % 1036,1 hPa 0,0 mm 1,5 km/h (1 Bft) N-NO 28 ° 0 min 0,000 mm 0,0 UV-I 0 W/m² -0,8 °C -0,1 °C 6,4 km/h (2 Bft)
23.02.2019 07:15 -0,1 °C 95 % 1036,1 hPa 0,0 mm 2,6 km/h (1 Bft) O 82 ° 0 min 0,000 mm 0,0 UV-I 0 W/m² -0,8 °C -0,1 °C 4,8 km/h (1 Bft)
23.02.2019 07:16 -0,1 °C 96 % 1036,1 hPa 0,0 mm 5,0 km/h (1 Bft) O-NO 67 ° 0 min 0,000 mm 0,0 UV-I 0 W/m² -0,7 °C -1,7 °C 8,0 km/h (2 Bft)
23.02.2019 07:17 -0,1 °C 96 % 1036,0 hPa 0,0 mm 5,8 km/h (2 Bft) NO 51 ° 0 min 0,000 mm 0,0 UV-I 0 W/m² -0,7 °C -2,1 °C 8,0 km/h (2 Bft)
23.02.2019 07:18 -0,1 °C 96 % 1036,1 hPa 0,0 mm 5,1 km/h (1 Bft) O 79 ° 0 min 0,000 mm 0,0 UV-I 0 W/m² -0,7 °C -1,7 °C 8,0 km/h (2 Bft)
23.02.2019 07:19 -0,1 °C 96 % 1036,1 hPa 0,0 mm 8,0 km/h (2 Bft) O-NO 76 ° 0 min 0,000 mm 0,0 UV-I 0 W/m² -0,7 °C -2,9 °C 11,3 km/h (2 Bft)
23.02.2019 07:20 -0,2 °C 95 % 1036,1 hPa 0,0 mm 7,2 km/h (2 Bft) O-NO 69 ° 0 min 0,000 mm 0,0 UV-I 0 W/m² -0,9 °C -2,7 °C 9,7 km/h (2 Bft)
23.02.2019 07:21 -0,2 °C 96 % 1036,1 hPa 0,0 mm 7,6 km/h (2 Bft) O-NO 57 ° 0 min 0,000 mm 0,0 UV-I 0 W/m² -0,8 °C -2,8 °C 11,3 km/h (2 Bft)
23.02.2019 07:22 -0,2 °C 95 % 1036,1 hPa 0,0 mm 2,9 km/h (1 Bft) O-NO 64 ° 0 min 0,000 mm 0,0 UV-I 0 W/m² -0,9 °C -0,2 °C 4,8 km/h (1 Bft)
23.02.2019 07:23 -0,2 °C 95 % 1036,1 hPa 0,0 mm 3,5 km/h (1 Bft) O-NO 78 ° 0 min 0,000 mm 0,0 UV-I 0 W/m² -0,9 °C -0,2 °C 6,4 km/h (2 Bft)
23.02.2019 07:24 -0,2 °C 95 % 1036,1 hPa 0,0 mm 5,0 km/h (1 Bft) O-NO 75 ° 0 min 0,000 mm 0,0 UV-I 0 W/m² -0,9 °C -1,8 °C 8,0 km/h (2 Bft)
23.02.2019 07:25 -0,2 °C 95 % 1036,1 hPa 0,0 mm 8,0 km/h (2 Bft) O-NO 73 ° 0 min 0,000 mm 0,0 UV-I 0 W/m² -0,9 °C -3,0 °C 14,5 km/h (3 Bft)
23.02.2019 07:26 -0,2 °C 95 % 1036,1 hPa 0,0 mm 8,0 km/h (2 Bft) O 80 ° 0 min 0,000 mm 0,0 UV-I 5 W/m² -0,9 °C -3,0 °C 11,3 km/h (2 Bft)
23.02.2019 07:27 -0,2 °C 95 % 1036,1 hPa 0,0 mm 6,0 km/h (2 Bft) O-NO 74 ° 0 min 0,000 mm 0,0 UV-I 5 W/m² -0,9 °C -2,3 °C 8,0 km/h (2 Bft)
23.02.2019 07:28 -0,2 °C 95 % 1036,1 hPa 0,0 mm 5,9 km/h (2 Bft) NO 49 ° 0 min 0,000 mm 0,0 UV-I 5 W/m² -0,9 °C -2,2 °C 8,0 km/h (2 Bft)
23.02.2019 07:29 -0,2 °C 95 % 1036,1 hPa 0,0 mm 5,4 km/h (1 Bft) O-NO 70 ° 0 min 0,000 mm 0,0 UV-I 5 W/m² -0,9 °C -2,0 °C 9,7 km/h (2 Bft)
23.02.2019 07:30 -0,2 °C 95 % 1036,1 hPa 0,0 mm 4,4 km/h (1 Bft) O-NO 76 ° 0 min 0,000 mm 0,0 UV-I 5 W/m² -0,9 °C -0,2 °C 9,7 km/h (2 Bft)
23.02.2019 07:31 -0,2 °C 95 % 1036,0 hPa 0,0 mm 4,6 km/h (1 Bft) O-NO 68 ° 0 min 0,000 mm 0,0 UV-I 5 W/m² -0,9 °C -1,6 °C 8,0 km/h (2 Bft)
23.02.2019 07:32 -0,2 °C 95 % 1035,9 hPa 0,0 mm 2,3 km/h (1 Bft) O-NO 68 ° 0 min 0,000 mm 0,0 UV-I 5 W/m² -0,9 °C -0,2 °C 6,4 km/h (2 Bft)
23.02.2019 07:33 -0,2 °C 95 % 1036,0 hPa 0,0 mm 4,2 km/h (1 Bft) O-NO 69 ° 0 min 0,000 mm 0,0 UV-I 5 W/m² -0,9 °C -0,2 °C 6,4 km/h (2 Bft)
23.02.2019 07:34 -0,2 °C 95 % 1036,0 hPa 0,0 mm 6,0 km/h (2 Bft) NO 42 ° 0 min 0,000 mm 0,0 UV-I 5 W/m² -0,9 °C -2,3 °C 11,3 km/h (2 Bft)
23.02.2019 07:35 -0,2 °C 95 % 1036,0 hPa 0,0 mm 8,1 km/h (2 Bft) O-NO 70 ° 0 min 0,000 mm 0,0 UV-I 7 W/m² -0,9 °C -3,0 °C 11,3 km/h (2 Bft)
23.02.2019 07:36 -0,2 °C 95 % 1036,0 hPa 0,0 mm 8,6 km/h (2 Bft) O-NO 70 ° 0 min 0,000 mm 0,0 UV-I 7 W/m² -0,9 °C -3,2 °C 12,9 km/h (3 Bft)
23.02.2019 07:37 -0,2 °C 95 % 1036,0 hPa 0,0 mm 6,6 km/h (2 Bft) O 94 ° 0 min 0,000 mm 0,0 UV-I 7 W/m² -0,9 °C -2,5 °C 11,3 km/h (2 Bft)
23.02.2019 07:38 -0,2 °C 95 % 1036,1 hPa 0,0 mm 9,5 km/h (2 Bft) O-NO 77 ° 0 min 0,000 mm 0,0 UV-I 7 W/m² -0,9 °C -3,4 °C 12,9 km/h (3 Bft)
23.02.2019 07:39 -0,2 °C 95 % 1036,1 hPa 0,0 mm 7,1 km/h (2 Bft) NO 48 ° 0 min 0,000 mm 0,0 UV-I 7 W/m² -0,9 °C -2,7 °C 9,7 km/h (2 Bft)
23.02.2019 07:40 -0,2 °C 95 % 1036,0 hPa 0,0 mm 7,0 km/h (2 Bft) O-NO 73 ° 0 min 0,000 mm 0,0 UV-I 9 W/m² -0,9 °C -2,6 °C 9,7 km/h (2 Bft)
23.02.2019 07:41 -0,2 °C 95 % 1036,1 hPa 0,0 mm 5,6 km/h (1 Bft) O-NO 63 ° 0 min 0,000 mm 0,0 UV-I 9 W/m² -0,9 °C -2,1 °C 11,3 km/h (2 Bft)
23.02.2019 07:42 -0,2 °C 95 % 1036,0 hPa 0,0 mm 7,8 km/h (2 Bft) O-NO 62 ° 0 min 0,000 mm 0,0 UV-I 9 W/m² -0,9 °C -2,9 °C 14,5 km/h (3 Bft)
23.02.2019 07:43 -0,2 °C 95 % 1036,0 hPa 0,0 mm 5,4 km/h (1 Bft) NO 51 ° 0 min 0,000 mm 0,0 UV-I 9 W/m² -0,9 °C -2,0 °C 8,0 km/h (2 Bft)
23.02.2019 07:44 -0,2 °C 95 % 1036,0 hPa 0,0 mm 7,9 km/h (2 Bft) O-NO 62 ° 0 min 0,000 mm 0,0 UV-I 9 W/m² -0,9 °C -2,9 °C 11,3 km/h (2 Bft)
23.02.2019 07:45 -0,3 °C 95 % 1036,0 hPa 0,0 mm 9,5 km/h (2 Bft) O-NO 68 ° 0 min 0,000 mm 0,0 UV-I 9 W/m² -1,0 °C -3,5 °C 14,5 km/h (3 Bft)
23.02.2019 07:46 -0,2 °C 95 % 1036,0 hPa 0,0 mm 9,3 km/h (2 Bft) NO 53 ° 0 min 0,000 mm 0,0 UV-I 11 W/m² -0,9 °C -3,4 °C 14,5 km/h (3 Bft)
23.02.2019 07:47 -0,3 °C 95 % 1036,1 hPa 0,0 mm 6,2 km/h (2 Bft) O-NO 69 ° 0 min 0,000 mm 0,0 UV-I 11 W/m² -1,0 °C -2,5 °C 8,0 km/h (2 Bft)
23.02.2019 07:48 -0,2 °C 95 % 1036,1 hPa 0,0 mm 6,4 km/h (2 Bft) O-NO 63 ° 0 min 0,000 mm 0,0 UV-I 11 W/m² -0,9 °C -2,4 °C 12,9 km/h (3 Bft)
23.02.2019 07:49 -0,3 °C 95 % 1036,1 hPa 0,0 mm 8,6 km/h (2 Bft) O 82 ° 0 min 0,000 mm 0,0 UV-I 11 W/m² -1,0 °C -3,3 °C 12,9 km/h (3 Bft)
23.02.2019 07:50 -0,2 °C 96 % 1036,1 hPa 0,0 mm 8,2 km/h (2 Bft) O-NO 70 ° 0 min 0,000 mm 0,0 UV-I 11 W/m² -0,8 °C -3,0 °C 11,3 km/h (2 Bft)
23.02.2019 07:51 -0,2 °C 95 % 1036,1 hPa 0,0 mm 7,8 km/h (2 Bft) O-NO 76 ° 0 min 0,000 mm 0,0 UV-I 12 W/m² -0,9 °C -2,9 °C 14,5 km/h (3 Bft)
23.02.2019 07:52 -0,3 °C 95 % 1036,2 hPa 0,0 mm 5,6 km/h (1 Bft) O-NO 74 ° 0 min 0,000 mm 0,0 UV-I 12 W/m² -1,0 °C -2,2 °C 8,0 km/h (2 Bft)
23.02.2019 07:53 -0,3 °C 95 % 1036,1 hPa 0,0 mm 5,5 km/h (1 Bft) NO 46 ° 0 min 0,000 mm 0,0 UV-I 12 W/m² -1,0 °C -2,2 °C 11,3 km/h (2 Bft)
23.02.2019 07:54 -0,3 °C 96 % 1036,1 hPa 0,0 mm 8,7 km/h (2 Bft) O-NO 64 ° 0 min 0,000 mm 0,0 UV-I 14 W/m² -0,9 °C -3,3 °C 11,3 km/h (2 Bft)
23.02.2019 07:55 -0,2 °C 96 % 1036,2 hPa 0,0 mm 7,2 km/h (2 Bft) O 88 ° 0 min 0,000 mm 0,0 UV-I 14 W/m² -0,8 °C -2,7 °C 11,3 km/h (2 Bft)
23.02.2019 07:56 -0,3 °C 95 % 1036,2 hPa 0,0 mm 6,0 km/h (2 Bft) NO 47 ° 0 min 0,000 mm 0,0 UV-I 14 W/m² -1,0 °C -2,4 °C 8,0 km/h (2 Bft)
23.02.2019 07:57 -0,3 °C 96 % 1036,2 hPa 0,0 mm 10,4 km/h (2 Bft) O-NO 59 ° 0 min 0,000 mm 0,0 UV-I 14 W/m² -0,9 °C -3,8 °C 16,1 km/h (3 Bft)
23.02.2019 07:58 -0,3 °C 95 % 1036,2 hPa 0,0 mm 6,0 km/h (2 Bft) NO 49 ° 0 min 0,000 mm 0,0 UV-I 16 W/m² -1,0 °C -2,4 °C 8,0 km/h (2 Bft)
23.02.2019 07:59 -0,3 °C 96 % 1036,2 hPa 0,0 mm 5,1 km/h (1 Bft) NO 52 ° 0 min 0,000 mm 0,0 UV-I 16 W/m² -0,9 °C -2,0 °C 6,4 km/h (2 Bft)
23.02.2019 08:00 -0,2 °C 96 % 1036,3 hPa 0,0 mm 6,2 km/h (2 Bft) O-NO 76 ° 0 min 0,000 mm 0,0 UV-I 16 W/m² -0,8 °C -2,3 °C 9,7 km/h (2 Bft)
23.02.2019 08:01 -0,2 °C 96 % 1036,2 hPa 0,0 mm 5,6 km/h (1 Bft) O-NO 62 ° 0 min 0,000 mm 0,0 UV-I 16 W/m² -0,8 °C -2,1 °C 6,4 km/h (2 Bft)
23.02.2019 08:02 -0,2 °C 96 % 1036,2 hPa 0,0 mm 5,0 km/h (1 Bft) O-NO 76 ° 0 min 0,000 mm 0,0 UV-I 18 W/m² -0,8 °C -1,8 °C 9,7 km/h (2 Bft)
23.02.2019 08:03 -0,2 °C 96 % 1036,2 hPa 0,0 mm 5,7 km/h (1 Bft) O-NO 57 ° 0 min 0,000 mm 0,0 UV-I 18 W/m² -0,8 °C -2,1 °C 11,3 km/h (2 Bft)
23.02.2019 08:04 -0,2 °C 96 % 1036,2 hPa 0,0 mm 5,1 km/h (1 Bft) O 92 ° 0 min 0,000 mm 0,0 UV-I 19 W/m² -0,8 °C -1,9 °C 9,7 km/h (2 Bft)
23.02.2019 08:05 -0,2 °C 96 % 1036,2 hPa 0,0 mm 5,4 km/h (1 Bft) O-NO 74 ° 0 min 0,000 mm 0,0 UV-I 19 W/m² -0,8 °C -2,0 °C 8,0 km/h (2 Bft)
23.02.2019 08:06 -0,3 °C 96 % 1036,3 hPa 0,0 mm 6,4 km/h (2 Bft) NO 55 ° 0 min 0,000 mm 0,0 UV-I 19 W/m² -0,9 °C -2,5 °C 11,3 km/h (2 Bft)
23.02.2019 08:07 -0,3 °C 96 % 1036,3 hPa 0,0 mm 6,7 km/h (2 Bft) O 89 ° 0 min 0,000 mm 0,0 UV-I 21 W/m² -0,9 °C -2,6 °C 9,7 km/h (2 Bft)
23.02.2019 08:08 -0,2 °C 96 % 1036,3 hPa 0,0 mm 5,6 km/h (1 Bft) NO 41 ° 0 min 0,000 mm 0,0 UV-I 21 W/m² -0,8 °C -2,1 °C 8,0 km/h (2 Bft)
23.02.2019 08:09 -0,3 °C 96 % 1036,2 hPa 0,0 mm 6,7 km/h (2 Bft) O-NO 59 ° 0 min 0,000 mm 0,0 UV-I 23 W/m² -0,9 °C -2,6 °C 9,7 km/h (2 Bft)
23.02.2019 08:10 -0,3 °C 96 % 1036,2 hPa 0,0 mm 4,7 km/h (1 Bft) NO 51 ° 0 min 0,000 mm 0,0 UV-I 25 W/m² -0,9 °C -1,8 °C 8,0 km/h (2 Bft)
23.02.2019 08:11 -0,3 °C 96 % 1036,2 hPa 0,0 mm 4,8 km/h (1 Bft) NO 56 ° 0 min 0,000 mm 0,0 UV-I 23 W/m² -0,9 °C -1,8 °C 8,0 km/h (2 Bft)
23.02.2019 08:12 -0,3 °C 96 % 1036,3 hPa 0,0 mm 4,3 km/h (1 Bft) NO 55 ° 0 min 0,000 mm 0,0 UV-I 25 W/m² -0,9 °C -0,3 °C 6,4 km/h (2 Bft)
23.02.2019 08:13 -0,3 °C 96 % 1036,3 hPa 0,0 mm 5,2 km/h (1 Bft) O-NO 57 ° 0 min 0,000 mm 0,0 UV-I 25 W/m² -0,9 °C -2,0 °C 6,4 km/h (2 Bft)
23.02.2019 08:14 -0,3 °C 96 % 1036,3 hPa 0,0 mm 5,8 km/h (2 Bft) NO 53 ° 0 min 0,000 mm 0,0 UV-I 26 W/m² -0,9 °C -2,3 °C 9,7 km/h (2 Bft)
23.02.2019 08:15 -0,3 °C 96 % 1036,3 hPa 0,0 mm 5,5 km/h (1 Bft) O-NO 66 ° 0 min 0,000 mm 0,0 UV-I 26 W/m² -0,9 °C -2,2 °C 14,5 km/h (3 Bft)
23.02.2019 08:16 -0,3 °C 96 % 1036,3 hPa 0,0 mm 8,6 km/h (2 Bft) O-NO 74 ° 0 min 0,000 mm 0,0 UV-I 26 W/m² -0,9 °C -3,3 °C 14,5 km/h (3 Bft)
23.02.2019 08:17 -0,3 °C 96 % 1036,3 hPa 0,0 mm 8,1 km/h (2 Bft) NO 44 ° 0 min 0,000 mm 0,0 UV-I 26 W/m² -0,9 °C -3,1 °C 12,9 km/h (3 Bft)
23.02.2019 08:18 -0,3 °C 96 % 1036,3 hPa 0,0 mm 3,0 km/h (1 Bft) O-NO 76 ° 0 min 0,000 mm 0,0 UV-I 28 W/m² -0,9 °C -0,3 °C 6,4 km/h (2 Bft)
23.02.2019 08:19 -0,3 °C 96 % 1036,3 hPa 0,0 mm 4,0 km/h (1 Bft) O-NO 63 ° 0 min 0,000 mm 0,0 UV-I 28 W/m² -0,9 °C -0,3 °C 6,4 km/h (2 Bft)
23.02.2019 08:20 -0,3 °C 96 % 1036,3 hPa 0,0 mm 5,2 km/h (1 Bft) NO 55 ° 0 min 0,000 mm 0,0 UV-I 28 W/m² -0,9 °C -2,0 °C 8,0 km/h (2 Bft)
23.02.2019 08:21 -0,3 °C 96 % 1036,3 hPa 0,0 mm 8,0 km/h (2 Bft) O-NO 58 ° 0 min 0,000 mm 0,0 UV-I 28 W/m² -0,9 °C -3,1 °C 11,3 km/h (2 Bft)
23.02.2019 08:22 -0,3 °C 96 % 1036,3 hPa 0,0 mm 5,7 km/h (1 Bft) NO 55 ° 0 min 0,000 mm 0,0 UV-I 30 W/m² -0,9 °C -2,2 °C 9,7 km/h (2 Bft)
23.02.2019 08:23 -0,3 °C 96 % 1036,3 hPa 0,0 mm 2,9 km/h (1 Bft) O-NO 63 ° 0 min 0,000 mm 0,0 UV-I 32 W/m² -0,9 °C -0,3 °C 4,8 km/h (1 Bft)
23.02.2019 08:24 -0,3 °C 96 % 1036,3 hPa 0,0 mm 1,6 km/h (1 Bft) O-NO 63 ° 0 min 0,000 mm 0,0 UV-I 30 W/m² -0,9 °C -0,3 °C 3,2 km/h (1 Bft)
23.02.2019 08:25 -0,3 °C 96 % 1036,4 hPa 0,0 mm 3,4 km/h (1 Bft) NO 55 ° 0 min 0,000 mm 0,0 UV-I 33 W/m² -0,9 °C -0,3 °C 4,8 km/h (1 Bft)
23.02.2019 08:26 -0,3 °C 96 % 1036,4 hPa 0,0 mm 7,2 km/h (2 Bft) O 92 ° 0 min 0,000 mm 0,0 UV-I 33 W/m² -0,9 °C -2,8 °C 11,3 km/h (2 Bft)
23.02.2019 08:27 -0,3 °C 96 % 1036,4 hPa 0,0 mm 4,4 km/h (1 Bft) NO 54 ° 0 min 0,000 mm 0,0 UV-I 33 W/m² -0,9 °C -0,3 °C 8,0 km/h (2 Bft)
23.02.2019 08:28 -0,3 °C 96 % 1036,4 hPa 0,0 mm 6,1 km/h (2 Bft) O-NO 69 ° 0 min 0,000 mm 0,0 UV-I 33 W/m² -0,9 °C -2,4 °C 12,9 km/h (3 Bft)
23.02.2019 08:29 -0,3 °C 96 % 1036,4 hPa 0,0 mm 5,1 km/h (1 Bft) NO 56 ° 0 min 0,000 mm 0,0 UV-I 33 W/m² -0,9 °C -2,0 °C 8,0 km/h (2 Bft)
23.02.2019 08:30 -0,3 °C 96 % 1036,4 hPa 0,0 mm 4,4 km/h (1 Bft) O-NO 65 ° 0 min 0,000 mm 0,0 UV-I 33 W/m² -0,9 °C -0,3 °C 6,4 km/h (2 Bft)
23.02.2019 08:31 -0,3 °C 96 % 1036,4 hPa 0,0 mm 1,7 km/h (1 Bft) O-NO 60 ° 0 min 0,000 mm 0,0 UV-I 35 W/m² -0,9 °C -0,3 °C 6,4 km/h (2 Bft)
23.02.2019 08:32 -0,3 °C 96 % 1036,5 hPa 0,0 mm 2,5 km/h (1 Bft) O 84 ° 0 min 0,000 mm 0,0 UV-I 35 W/m² -0,9 °C -0,3 °C 6,4 km/h (2 Bft)
23.02.2019 08:33 -0,3 °C 96 % 1036,6 hPa 0,0 mm 4,4 km/h (1 Bft) O-NO 65 ° 0 min 0,000 mm 0,0 UV-I 35 W/m² -0,9 °C -0,3 °C 6,4 km/h (2 Bft)
23.02.2019 08:34 -0,3 °C 96 % 1036,6 hPa 0,0 mm 4,9 km/h (1 Bft) O-NO 60 ° 0 min 0,000 mm 0,0 UV-I 37 W/m² -0,9 °C -1,9 °C 8,0 km/h (2 Bft)
23.02.2019 08:35 -0,3 °C 96 % 1036,5 hPa 0,0 mm 5,8 km/h (2 Bft) O-NO 71 ° 0 min 0,000 mm 0,0 UV-I 35 W/m² -0,9 °C -2,3 °C 8,0 km/h (2 Bft)
23.02.2019 08:36 -0,3 °C 96 % 1036,6 hPa 0,0 mm 6,3 km/h (2 Bft) O-NO 59 ° 0 min 0,000 mm 0,0 UV-I 37 W/m² -0,9 °C -2,5 °C 8,0 km/h (2 Bft)
23.02.2019 08:37 -0,3 °C 96 % 1036,5 hPa 0,0 mm 5,6 km/h (1 Bft) O-NO 68 ° 0 min 0,000 mm 0,0 UV-I 39 W/m² -0,9 °C -2,2 °C 9,7 km/h (2 Bft)
23.02.2019 08:38 -0,3 °C 96 % 1036,5 hPa 0,0 mm 6,2 km/h (2 Bft) O-NO 60 ° 0 min 0,000 mm 0,0 UV-I 37 W/m² -0,9 °C -2,5 °C 9,7 km/h (2 Bft)
23.02.2019 08:39 -0,3 °C 96 % 1036,6 hPa 0,0 mm 3,0 km/h (1 Bft) O-NO 74 ° 0 min 0,000 mm 0,0 UV-I 40 W/m² -0,9 °C -0,3 °C 6,4 km/h (2 Bft)
23.02.2019 08:40 -0,3 °C 96 % 1036,6 hPa 0,0 mm 5,5 km/h (1 Bft) O-NO 74 ° 0 min 0,000 mm 0,0 UV-I 40 W/m² -0,9 °C -2,2 °C 8,0 km/h (2 Bft)
23.02.2019 08:41 -0,3 °C 96 % 1036,5 hPa 0,0 mm 6,2 km/h (2 Bft) O-NO 72 ° 0 min 0,000 mm 0,0 UV-I 40 W/m² -0,9 °C -2,5 °C 11,3 km/h (2 Bft)
23.02.2019 08:42 -0,3 °C 96 % 1036,5 hPa 0,0 mm 2,6 km/h (1 Bft) O-NO 65 ° 0 min 0,000 mm 0,0 UV-I 40 W/m² -0,9 °C -0,3 °C 6,4 km/h (2 Bft)
23.02.2019 08:43 -0,3 °C 96 % 1036,5 hPa 0,0 mm 3,1 km/h (1 Bft) NO 41 ° 0 min 0,000 mm 0,0 UV-I 42 W/m² -0,9 °C -0,3 °C 8,0 km/h (2 Bft)
23.02.2019 08:44 -0,3 °C 96 % 1036,5 hPa 0,0 mm 5,0 km/h (1 Bft) O-NO 73 ° 0 min 0,000 mm 0,0 UV-I 42 W/m² -0,9 °C -1,9 °C 11,3 km/h (2 Bft)
23.02.2019 08:45 -0,3 °C 96 % 1036,5 hPa 0,0 mm 1,1 km/h (1 Bft) O-NO 73 ° 0 min 0,000 mm 0,0 UV-I 44 W/m² -0,9 °C -0,3 °C 4,8 km/h (1 Bft)
23.02.2019 08:46 -0,3 °C 96 % 1036,5 hPa 0,0 mm 1,1 km/h (1 Bft) O-NO 73 ° 0 min 0,000 mm 0,0 UV-I 47 W/m² -0,9 °C -0,3 °C 3,2 km/h (1 Bft)
23.02.2019 08:47 -0,3 °C 96 % 1036,5 hPa 0,0 mm 3,5 km/h (1 Bft) O-NO 59 ° 0 min 0,000 mm 0,0 UV-I 46 W/m² -0,9 °C -0,3 °C 6,4 km/h (2 Bft)
23.02.2019 08:48 -0,3 °C 96 % 1036,5 hPa 0,0 mm 9,6 km/h (2 Bft) O 96 ° 0 min 0,000 mm 0,0 UV-I 47 W/m² -0,9 °C -3,6 °C 16,1 km/h (3 Bft)
23.02.2019 08:49 -0,3 °C 96 % 1036,4 hPa 0,0 mm 4,9 km/h (1 Bft) O 84 ° 0 min 0,000 mm 0,0 UV-I 49 W/m² -0,9 °C -1,9 °C 9,7 km/h (2 Bft)
23.02.2019 08:50 -0,3 °C 96 % 1036,4 hPa 0,0 mm 5,2 km/h (1 Bft) O-NO 58 ° 0 min 0,000 mm 0,0 UV-I 49 W/m² -0,9 °C -2,0 °C 8,0 km/h (2 Bft)
23.02.2019 08:51 -0,3 °C 96 % 1036,5 hPa 0,0 mm 3,6 km/h (1 Bft) NO 54 ° 0 min 0,000 mm 0,0 UV-I 49 W/m² -0,9 °C -0,3 °C 6,4 km/h (2 Bft)
23.02.2019 08:52 -0,3 °C 96 % 1036,4 hPa 0,0 mm 6,2 km/h (2 Bft) O-NO 70 ° 0 min 0,000 mm 0,0 UV-I 46 W/m² -0,9 °C -2,5 °C 8,0 km/h (2 Bft)
23.02.2019 08:53 -0,3 °C 96 % 1036,4 hPa 0,0 mm 8,7 km/h (2 Bft) NO 52 ° 0 min 0,000 mm 0,0 UV-I 47 W/m² -0,9 °C -3,3 °C 16,1 km/h (3 Bft)
23.02.2019 08:54 -0,3 °C 96 % 1036,5 hPa 0,0 mm 9,0 km/h (2 Bft) O-NO 69 ° 0 min 0,000 mm 0,0 UV-I 47 W/m² -0,9 °C -3,4 °C 12,9 km/h (3 Bft)
23.02.2019 08:55 -0,3 °C 96 % 1036,5 hPa 0,0 mm 8,9 km/h (2 Bft) NO 50 ° 0 min 0,000 mm 0,0 UV-I 49 W/m² -0,9 °C -3,4 °C 12,9 km/h (3 Bft)
23.02.2019 08:56 -0,3 °C 96 % 1036,5 hPa 0,0 mm 4,9 km/h (1 Bft) O-NO 68 ° 0 min 0,000 mm 0,0 UV-I 49 W/m² -0,9 °C -1,9 °C 8,0 km/h (2 Bft)
23.02.2019 08:57 -0,3 °C 96 % 1036,5 hPa 0,0 mm 3,2 km/h (1 Bft) O-NO 69 ° 0 min 0,000 mm 0,0 UV-I 49 W/m² -0,9 °C -0,3 °C 4,8 km/h (1 Bft)
23.02.2019 08:58 -0,3 °C 96 % 1036,5 hPa 0,0 mm 1,5 km/h (1 Bft) O-NO 69 ° 0 min 0,000 mm 0,0 UV-I 53 W/m² -0,9 °C -0,3 °C 3,2 km/h (1 Bft)
23.02.2019 08:59 -0,3 °C 96 % 1036,5 hPa 0,0 mm 2,8 km/h (1 Bft) O-NO 64 ° 0 min 0,000 mm 0,0 UV-I 53 W/m² -0,9 °C -0,3 °C 6,4 km/h (2 Bft)
23.02.2019 09:00 -0,3 °C 96 % 1036,5 hPa 0,0 mm 5,0 km/h (1 Bft) O 90 ° 0 min 0,000 mm 0,0 UV-I 54 W/m² -0,9 °C -1,9 °C 9,7 km/h (2 Bft)
23.02.2019 09:01 -0,3 °C 96 % 1036,4 hPa 0,0 mm 5,2 km/h (1 Bft) O 96 ° 0 min 0,025 mm 0,0 UV-I 54 W/m² -0,9 °C -2,0 °C 9,7 km/h (2 Bft)
23.02.2019 09:02 -0,3 °C 96 % 1036,4 hPa 0,0 mm 5,3 km/h (1 Bft) O-NO 78 ° 0 min 0,000 mm 0,0 UV-I 56 W/m² -0,9 °C -2,1 °C 9,7 km/h (2 Bft)
23.02.2019 09:03 -0,3 °C 96 % 1036,4 hPa 0,0 mm 3,8 km/h (1 Bft) O-NO 62 ° 0 min 0,000 mm 0,0 UV-I 56 W/m² -0,9 °C -0,3 °C 11,3 km/h (2 Bft)
23.02.2019 09:04 -0,3 °C 96 % 1036,4 hPa 0,0 mm 6,2 km/h (2 Bft) O-NO 74 ° 0 min 0,000 mm 0,0 UV-I 60 W/m² -0,9 °C -2,5 °C 12,9 km/h (3 Bft)
23.02.2019 09:05 -0,3 °C 96 % 1036,3 hPa 0,0 mm 2,4 km/h (1 Bft) O-SO 104 ° 0 min 0,000 mm 0,0 UV-I 60 W/m² -0,9 °C -0,3 °C 4,8 km/h (1 Bft)
23.02.2019 09:06 -0,3 °C 96 % 1036,4 hPa 0,0 mm 3,4 km/h (1 Bft) O-NO 76 ° 0 min 0,000 mm 0,0 UV-I 62 W/m² -0,9 °C -0,3 °C 4,8 km/h (1 Bft)
23.02.2019 09:07 -0,3 °C 96 % 1036,4 hPa 0,0 mm 4,8 km/h (1 Bft) O 84 ° 0 min 0,000 mm 0,0 UV-I 65 W/m² -0,9 °C -1,8 °C 8,0 km/h (2 Bft)
23.02.2019 09:08 -0,3 °C 96 % 1036,4 hPa 0,0 mm 5,0 km/h (1 Bft) NO 52 ° 0 min 0,000 mm 0,0 UV-I 65 W/m² -0,9 °C -1,9 °C 6,4 km/h (2 Bft)
23.02.2019 09:09 -0,3 °C 96 % 1036,3 hPa 0,0 mm 3,4 km/h (1 Bft) O-NO 71 ° 0 min 0,000 mm 0,0 UV-I 63 W/m² -0,9 °C -0,3 °C 4,8 km/h (1 Bft)
23.02.2019 09:10 -0,3 °C 96 % 1036,3 hPa 0,0 mm 7,0 km/h (2 Bft) N-NO 26 ° 0 min 0,000 mm 0,0 UV-I 67 W/m² -0,9 °C -2,8 °C 14,5 km/h (3 Bft)
23.02.2019 09:11 -0,3 °C 96 % 1036,4 hPa 0,0 mm 7,2 km/h (2 Bft) O-NO 65 ° 0 min 0,000 mm 0,5 UV-I 70 W/m² -0,9 °C -2,8 °C 16,1 km/h (3 Bft)
23.02.2019 09:12 -0,3 °C 96 % 1036,3 hPa 0,0 mm 5,0 km/h (1 Bft) O 95 ° 0 min 0,000 mm 0,5 UV-I 72 W/m² -0,9 °C -1,9 °C 11,3 km/h (2 Bft)
23.02.2019 09:13 -0,3 °C 96 % 1036,3 hPa 0,0 mm 7,3 km/h (2 Bft) O-NO 78 ° 0 min 0,000 mm 0,5 UV-I 69 W/m² -0,9 °C -2,9 °C 11,3 km/h (2 Bft)
23.02.2019 09:14 -0,3 °C 96 % 1036,4 hPa 0,0 mm 8,1 km/h (2 Bft) O-NO 65 ° 0 min 0,000 mm 0,5 UV-I 65 W/m² -0,9 °C -3,1 °C 12,9 km/h (3 Bft)
23.02.2019 09:15 -0,4 °C 96 % 1036,3 hPa 0,0 mm 7,6 km/h (2 Bft) O 80 ° 0 min 0,000 mm 0,5 UV-I 63 W/m² -1,0 °C -3,1 °C 11,3 km/h (2 Bft)
23.02.2019 09:16 -0,4 °C 96 % 1036,3 hPa 0,0 mm 4,4 km/h (1 Bft) O-NO 71 ° 0 min 0,000 mm 0,5 UV-I 63 W/m² -1,0 °C -0,4 °C 8,0 km/h (2 Bft)
23.02.2019 09:17 -0,4 °C 96 % 1036,3 hPa 0,0 mm 8,5 km/h (2 Bft) O-NO 61 ° 0 min 0,000 mm 0,5 UV-I 70 W/m² -1,0 °C -3,4 °C 14,5 km/h (3 Bft)
23.02.2019 09:18 -0,4 °C 96 % 1036,3 hPa 0,0 mm 9,1 km/h (2 Bft) N-NO 31 ° 0 min 0,000 mm 0,5 UV-I 72 W/m² -1,0 °C -3,5 °C 16,1 km/h (3 Bft)
23.02.2019 09:19 -0,4 °C 96 % 1036,3 hPa 0,0 mm 7,9 km/h (2 Bft) O-NO 61 ° 0 min 0,000 mm 0,5 UV-I 70 W/m² -1,0 °C -3,2 °C 12,9 km/h (3 Bft)
23.02.2019 09:20 -0,4 °C 96 % 1036,4 hPa 0,0 mm 8,6 km/h (2 Bft) O 79 ° 0 min 0,000 mm 0,5 UV-I 70 W/m² -1,0 °C -3,4 °C 12,9 km/h (3 Bft)
23.02.2019 09:21 -0,4 °C 96 % 1036,4 hPa 0,0 mm 6,4 km/h (2 Bft) NO 44 ° 0 min 0,000 mm 0,5 UV-I 70 W/m² -1,0 °C -2,6 °C 9,7 km/h (2 Bft)
23.02.2019 09:22 -0,4 °C 96 % 1036,4 hPa 0,0 mm 5,5 km/h (1 Bft) O-NO 68 ° 0 min 0,000 mm 0,5 UV-I 76 W/m² -1,0 °C -2,3 °C 8,0 km/h (2 Bft)
23.02.2019 09:23 -0,4 °C 95 % 1036,4 hPa 0,0 mm 5,4 km/h (1 Bft) O-NO 59 ° 0 min 0,000 mm 0,6 UV-I 79 W/m² -1,1 °C -2,2 °C 6,4 km/h (2 Bft)
23.02.2019 09:24 -0,4 °C 96 % 1036,4 hPa 0,0 mm 3,7 km/h (1 Bft) O-NO 61 ° 0 min 0,000 mm 0,6 UV-I 84 W/m² -1,0 °C -0,4 °C 4,8 km/h (1 Bft)
23.02.2019 09:25 -0,3 °C 96 % 1036,4 hPa 0,0 mm 3,2 km/h (1 Bft) O-NO 78 ° 0 min 0,000 mm 0,6 UV-I 84 W/m² -0,9 °C -0,3 °C 6,4 km/h (2 Bft)
23.02.2019 09:26 -0,3 °C 96 % 1036,4 hPa 0,0 mm 6,8 km/h (2 Bft) N-NO 32 ° 0 min 0,000 mm 0,6 UV-I 88 W/m² -0,9 °C -2,7 °C 9,7 km/h (2 Bft)
23.02.2019 09:27 -0,3 °C 96 % 1036,4 hPa 0,0 mm 4,6 km/h (1 Bft) NO 49 ° 0 min 0,000 mm 0,6 UV-I 83 W/m² -0,9 °C -1,7 °C 8,0 km/h (2 Bft)
23.02.2019 09:28 -0,3 °C 96 % 1036,4 hPa 0,0 mm 3,4 km/h (1 Bft) NO 55 ° 0 min 0,000 mm 0,6 UV-I 86 W/m² -0,9 °C -0,3 °C 6,4 km/h (2 Bft)
23.02.2019 09:29 -0,3 °C 96 % 1036,4 hPa 0,0 mm 6,2 km/h (2 Bft) O-SO 105 ° 0 min 0,000 mm 0,7 UV-I 91 W/m² -0,9 °C -2,5 °C 11,3 km/h (2 Bft)
23.02.2019 09:30 -0,3 °C 96 % 1036,3 hPa 0,0 mm 4,1 km/h (1 Bft) NO 55 ° 0 min 0,000 mm 0,7 UV-I 91 W/m² -0,9 °C -0,3 °C 9,7 km/h (2 Bft)
23.02.2019 09:31 -0,3 °C 96 % 1036,4 hPa 0,0 mm 6,1 km/h (2 Bft) O-NO 67 ° 0 min 0,000 mm 0,7 UV-I 98 W/m² -0,9 °C -2,4 °C 9,7 km/h (2 Bft)
23.02.2019 09:32 -0,3 °C 96 % 1036,4 hPa 0,0 mm 4,8 km/h (1 Bft) O 82 ° 0 min 0,000 mm 0,7 UV-I 97 W/m² -0,9 °C -1,8 °C 6,4 km/h (2 Bft)
23.02.2019 09:33 -0,3 °C 96 % 1036,4 hPa 0,0 mm 4,2 km/h (1 Bft) O-NO 61 ° 0 min 0,000 mm 0,7 UV-I 98 W/m² -0,9 °C -0,3 °C 8,0 km/h (2 Bft)
23.02.2019 09:34 -0,3 °C 96 % 1036,5 hPa 0,0 mm 4,9 km/h (1 Bft) NO 40 ° 0 min 0,000 mm 0,7 UV-I 97 W/m² -0,9 °C -1,9 °C 8,0 km/h (2 Bft)
23.02.2019 09:35 -0,3 °C 96 % 1036,5 hPa 0,0 mm 6,9 km/h (2 Bft) O 81 ° 0 min 0,000 mm 0,7 UV-I 98 W/m² -0,9 °C -2,7 °C 8,0 km/h (2 Bft)
23.02.2019 09:36 -0,3 °C 96 % 1036,5 hPa 0,0 mm 4,7 km/h (1 Bft) O 96 ° 0 min 0,000 mm 0,7 UV-I 102 W/m² -0,9 °C -1,8 °C 9,7 km/h (2 Bft)
23.02.2019 09:37 -0,3 °C 96 % 1036,5 hPa 0,0 mm 2,9 km/h (1 Bft) O-NO 58 ° 0 min 0,000 mm 0,7 UV-I 98 W/m² -0,9 °C -0,3 °C 6,4 km/h (2 Bft)
23.02.2019 09:38 -0,3 °C 96 % 1036,5 hPa 0,0 mm 4,2 km/h (1 Bft) O-NO 57 ° 0 min 0,000 mm 0,7 UV-I 95 W/m² -0,9 °C -0,3 °C 9,7 km/h (2 Bft)
23.02.2019 09:39 -0,3 °C 96 % 1036,5 hPa 0,0 mm 2,3 km/h (1 Bft) O-NO 74 ° 0 min 0,000 mm 0,7 UV-I 109 W/m² -0,9 °C -0,3 °C 4,8 km/h (1 Bft)
23.02.2019 09:40 -0,3 °C 96 % 1036,6 hPa 0,0 mm 4,4 km/h (1 Bft) N-NO 21 ° 0 min 0,000 mm 0,7 UV-I 107 W/m² -0,9 °C -0,3 °C 6,4 km/h (2 Bft)
23.02.2019 09:41 -0,3 °C 96 % 1036,6 hPa 0,0 mm 8,6 km/h (2 Bft) O 79 ° 0 min 0,000 mm 0,7 UV-I 104 W/m² -0,9 °C -3,3 °C 14,5 km/h (3 Bft)
23.02.2019 09:42 -0,3 °C 96 % 1036,7 hPa 0,0 mm 6,2 km/h (2 Bft) NO 51 ° 0 min 0,000 mm 0,7 UV-I 102 W/m² -0,9 °C -2,5 °C 12,9 km/h (3 Bft)
23.02.2019 09:43 -0,3 °C 96 % 1036,7 hPa 0,0 mm 6,6 km/h (2 Bft) O 101 ° 0 min 0,000 mm 0,7 UV-I 104 W/m² -0,9 °C -2,6 °C 11,3 km/h (2 Bft)
23.02.2019 09:44 -0,2 °C 96 % 1036,7 hPa 0,0 mm 2,7 km/h (1 Bft) O 90 ° 0 min 0,000 mm 0,7 UV-I 105 W/m² -0,8 °C -0,2 °C 6,4 km/h (2 Bft)
23.02.2019 09:45 -0,3 °C 96 % 1036,6 hPa 0,0 mm 4,3 km/h (1 Bft) O-NO 73 ° 0 min 0,000 mm 0,7 UV-I 111 W/m² -0,9 °C -0,3 °C 8,0 km/h (2 Bft)
23.02.2019 09:46 -0,3 °C 96 % 1036,6 hPa 0,0 mm 3,9 km/h (1 Bft) O 84 ° 0 min 0,000 mm 0,8 UV-I 114 W/m² -0,9 °C -0,3 °C 8,0 km/h (2 Bft)
23.02.2019 09:47 -0,3 °C 96 % 1036,6 hPa 0,0 mm 10,7 km/h (2 Bft) NO 51 ° 0 min 0,000 mm 0,8 UV-I 120 W/m² -0,9 °C -3,9 °C 14,5 km/h (3 Bft)
23.02.2019 09:48 -0,3 °C 96 % 1036,5 hPa 0,0 mm 7,8 km/h (2 Bft) NO 44 ° 0 min 0,000 mm 0,8 UV-I 120 W/m² -0,9 °C -3,0 °C 11,3 km/h (2 Bft)
23.02.2019 09:49 -0,3 °C 96 % 1036,5 hPa 0,0 mm 5,2 km/h (1 Bft) N-NO 33 ° 0 min 0,000 mm 0,8 UV-I 121 W/m² -0,9 °C -2,0 °C 8,0 km/h (2 Bft)
23.02.2019 09:50 -0,3 °C 96 % 1036,4 hPa 0,0 mm 3,7 km/h (1 Bft) O-NO 71 ° 0 min 0,000 mm 0,8 UV-I 123 W/m² -0,9 °C -0,3 °C 6,4 km/h (2 Bft)
23.02.2019 09:51 -0,3 °C 96 % 1036,3 hPa 0,0 mm 6,2 km/h (2 Bft) NO 42 ° 0 min 0,000 mm 0,8 UV-I 121 W/m² -0,9 °C -2,5 °C 8,0 km/h (2 Bft)
23.02.2019 09:52 -0,3 °C 96 % 1036,2 hPa 0,0 mm 4,9 km/h (1 Bft) O-NO 74 ° 0 min 0,000 mm 0,8 UV-I 116 W/m² -0,9 °C -1,9 °C 6,4 km/h (2 Bft)
23.02.2019 09:53 -0,3 °C 96 % 1036,1 hPa 0,0 mm 2,3 km/h (1 Bft) O 92 ° 0 min 0,000 mm 0,8 UV-I 120 W/m² -0,9 °C -0,3 °C 4,8 km/h (1 Bft)
23.02.2019 09:54 -0,3 °C 96 % 1036,1 hPa 0,0 mm 3,3 km/h (1 Bft) O-NO 69 ° 0 min 0,000 mm 0,9 UV-I 123 W/m² -0,9 °C -0,3 °C 6,4 km/h (2 Bft)
23.02.2019 09:55 -0,3 °C 96 % 1036,1 hPa 0,0 mm 4,5 km/h (1 Bft) O 88 ° 0 min 0,000 mm 0,8 UV-I 121 W/m² -0,9 °C -0,3 °C 6,4 km/h (2 Bft)
23.02.2019 09:56 -0,3 °C 96 % 1036,2 hPa 0,0 mm 5,2 km/h (1 Bft) NO 36 ° 0 min 0,000 mm 0,9 UV-I 127 W/m² -0,9 °C -2,0 °C 11,3 km/h (2 Bft)
23.02.2019 09:57 -0,3 °C 96 % 1036,2 hPa 0,0 mm 3,6 km/h (1 Bft) O-NO 57 ° 0 min 0,000 mm 0,9 UV-I 127 W/m² -0,9 °C -0,3 °C 6,4 km/h (2 Bft)
23.02.2019 09:58 -0,2 °C 96 % 1036,1 hPa 0,0 mm 1,7 km/h (1 Bft) O-NO 74 ° 0 min 0,000 mm 0,9 UV-I 132 W/m² -0,8 °C -0,2 °C 4,8 km/h (1 Bft)
23.02.2019 09:59 -0,2 °C 96 % 1036,2 hPa 0,0 mm 0,1 km/h (0 Bft) O 88 ° 0 min 0,000 mm 0,9 UV-I 128 W/m² -0,8 °C -0,2 °C 1,6 km/h (1 Bft)
23.02.2019 10:00 -0,3 °C 96 % 1036,2 hPa 0,0 mm 0,0 km/h (0 Bft) O 88 ° 0 min 0,000 mm 0,9 UV-I 141 W/m² -0,9 °C -0,3 °C 0,0 km/h (0 Bft)
23.02.2019 10:01 -0,2 °C 96 % 1036,3 hPa 0,0 mm 3,0 km/h (1 Bft) NO 43 ° 0 min 0,026 mm 0,9 UV-I 142 W/m² -0,8 °C -0,2 °C 9,7 km/h (2 Bft)
23.02.2019 10:02 -0,3 °C 96 % 1036,2 hPa 0,0 mm 8,9 km/h (2 Bft) O-NO 74 ° 0 min 0,000 mm 0,9 UV-I 127 W/m² -0,9 °C -3,4 °C 12,9 km/h (3 Bft)
23.02.2019 10:03 -0,3 °C 96 % 1036,3 hPa 0,0 mm 12,4 km/h (3 Bft) O-NO 78 ° 0 min 0,000 mm 0,9 UV-I 137 W/m² -0,9 °C -4,3 °C 14,5 km/h (3 Bft)
23.02.2019 10:04 -0,3 °C 96 % 1036,3 hPa 0,0 mm 6,7 km/h (2 Bft) O-NO 64 ° 0 min 0,000 mm 0,9 UV-I 137 W/m² -0,9 °C -2,6 °C 9,7 km/h (2 Bft)
23.02.2019 10:05 -0,3 °C 96 % 1036,3 hPa 0,0 mm 5,1 km/h (1 Bft) NO 43 ° 0 min 0,000 mm 0,9 UV-I 134 W/m² -0,9 °C -2,0 °C 9,7 km/h (2 Bft)
23.02.2019 10:06 -0,3 °C 96 % 1036,3 hPa 0,0 mm 3,4 km/h (1 Bft) O 82 ° 0 min 0,000 mm 1,0 UV-I 142 W/m² -0,9 °C -0,3 °C 11,3 km/h (2 Bft)
23.02.2019 10:07 -0,3 °C 96 % 1036,3 hPa 0,0 mm 10,3 km/h (2 Bft) O 80 ° 0 min 0,000 mm 1,0 UV-I 148 W/m² -0,9 °C -3,8 °C 12,9 km/h (3 Bft)
23.02.2019 10:08 -0,3 °C 96 % 1036,4 hPa 0,0 mm 4,1 km/h (1 Bft) O-NO 74 ° 0 min 0,000 mm 1,0 UV-I 134 W/m² -0,9 °C -0,3 °C 8,0 km/h (2 Bft)
23.02.2019 10:09 -0,3 °C 96 % 1036,4 hPa 0,0 mm 4,2 km/h (1 Bft) O-NO 74 ° 0 min 0,000 mm 0,9 UV-I 128 W/m² -0,9 °C -0,3 °C 6,4 km/h (2 Bft)
23.02.2019 10:10 -0,3 °C 96 % 1036,4 hPa 0,0 mm 5,9 km/h (2 Bft) O-NO 66 ° 0 min 0,000 mm 0,9 UV-I 128 W/m² -0,9 °C -2,3 °C 11,3 km/h (2 Bft)
23.02.2019 10:11 -0,3 °C 96 % 1036,5 hPa 0,0 mm 2,7 km/h (1 Bft) O 100 ° 0 min 0,000 mm 0,9 UV-I 134 W/m² -0,9 °C -0,3 °C 4,8 km/h (1 Bft)
23.02.2019 10:12 -0,2 °C 96 % 1036,6 hPa 0,0 mm 12,3 km/h (3 Bft) NO 40 ° 0 min 0,000 mm 0,9 UV-I 132 W/m² -0,8 °C -4,1 °C 17,7 km/h (3 Bft)
23.02.2019 10:13 -0,2 °C 96 % 1036,6 hPa 0,0 mm 7,8 km/h (2 Bft) NO 53 ° 0 min 0,000 mm 0,9 UV-I 125 W/m² -0,8 °C -2,9 °C 9,7 km/h (2 Bft)
23.02.2019 10:14 -0,3 °C 96 % 1036,7 hPa 0,0 mm 10,7 km/h (2 Bft) O 90 ° 0 min 0,000 mm 0,9 UV-I 125 W/m² -0,9 °C -3,9 °C 14,5 km/h (3 Bft)
23.02.2019 10:15 -0,3 °C 96 % 1036,7 hPa 0,0 mm 7,9 km/h (2 Bft) NO 52 ° 0 min 0,000 mm 0,9 UV-I 118 W/m² -0,9 °C -3,1 °C 14,5 km/h (3 Bft)
23.02.2019 10:16 -0,3 °C 96 % 1036,8 hPa 0,0 mm 8,9 km/h (2 Bft) O 96 ° 0 min 0,000 mm 0,9 UV-I 128 W/m² -0,9 °C -3,4 °C 14,5 km/h (3 Bft)
23.02.2019 10:17 -0,3 °C 96 % 1036,9 hPa 0,0 mm 7,6 km/h (2 Bft) O 79 ° 0 min 0,000 mm 0,9 UV-I 127 W/m² -0,9 °C -3,0 °C 12,9 km/h (3 Bft)
23.02.2019 10:18 -0,3 °C 96 % 1036,9 hPa 0,0 mm 5,0 km/h (1 Bft) NO 41 ° 0 min 0,000 mm 0,9 UV-I 125 W/m² -0,9 °C -1,9 °C 9,7 km/h (2 Bft)
23.02.2019 10:19 -0,3 °C 96 % 1036,9 hPa 0,0 mm 8,5 km/h (2 Bft) O-NO 60 ° 0 min 0,000 mm 0,9 UV-I 121 W/m² -0,9 °C -3,2 °C 11,3 km/h (2 Bft)
23.02.2019 10:20 -0,3 °C 96 % 1036,9 hPa 0,0 mm 5,3 km/h (1 Bft) O-NO 67 ° 0 min 0,000 mm 0,9 UV-I 114 W/m² -0,9 °C -2,1 °C 8,0 km/h (2 Bft)
23.02.2019 10:21 -0,3 °C 96 % 1036,9 hPa 0,0 mm 4,0 km/h (1 Bft) O-NO 65 ° 0 min 0,000 mm 0,8 UV-I 109 W/m² -0,9 °C -0,3 °C 6,4 km/h (2 Bft)
23.02.2019 10:22 -0,2 °C 96 % 1036,9 hPa 0,0 mm 4,8 km/h (1 Bft) O-NO 72 ° 0 min 0,000 mm 0,8 UV-I 102 W/m² -0,8 °C -1,7 °C 8,0 km/h (2 Bft)
23.02.2019 10:23 -0,3 °C 96 % 1036,8 hPa 0,0 mm 1,5 km/h (1 Bft) O-NO 72 ° 0 min 0,000 mm 0,8 UV-I 100 W/m² -0,9 °C -0,3 °C 4,8 km/h (1 Bft)
23.02.2019 10:24 -0,2 °C 96 % 1036,8 hPa 0,0 mm 7,2 km/h (2 Bft) NO 36 ° 0 min 0,000 mm 0,8 UV-I 105 W/m² -0,8 °C -2,7 °C 14,5 km/h (3 Bft)
23.02.2019 10:25 -0,3 °C 96 % 1036,7 hPa 0,0 mm 7,0 km/h (2 Bft) O 82 ° 0 min 0,000 mm 0,8 UV-I 104 W/m² -0,9 °C -2,8 °C 11,3 km/h (2 Bft)
23.02.2019 10:26 -0,3 °C 96 % 1036,7 hPa 0,0 mm 4,9 km/h (1 Bft) NO 53 ° 0 min 0,000 mm 0,8 UV-I 98 W/m² -0,9 °C -1,9 °C 8,0 km/h (2 Bft)
23.02.2019 10:27 -0,3 °C 96 % 1036,7 hPa 0,0 mm 4,9 km/h (1 Bft) O-NO 64 ° 0 min 0,000 mm 0,8 UV-I 100 W/m² -0,9 °C -1,9 °C 9,7 km/h (2 Bft)
23.02.2019 10:28 -0,3 °C 96 % 1036,8 hPa 0,0 mm 8,6 km/h (2 Bft) O-NO 67 ° 0 min 0,000 mm 0,8 UV-I 100 W/m² -0,9 °C -3,3 °C 11,3 km/h (2 Bft)
23.02.2019 10:29 -0,3 °C 96 % 1036,8 hPa 0,0 mm 5,6 km/h (1 Bft) O 88 ° 0 min 0,000 mm 0,8 UV-I 100 W/m² -0,9 °C -2,2 °C 11,3 km/h (2 Bft)
23.02.2019 10:30 -0,3 °C 96 % 1036,8 hPa 0,0 mm 8,0 km/h (2 Bft) O 82 ° 0 min 0,000 mm 0,8 UV-I 98 W/m² -0,9 °C -3,1 °C 11,3 km/h (2 Bft)
23.02.2019 10:31 -0,4 °C 96 % 1036,9 hPa 0,0 mm 8,5 km/h (2 Bft) NO 49 ° 0 min 0,000 mm 0,8 UV-I 98 W/m² -1,0 °C -3,4 °C 14,5 km/h (3 Bft)
23.02.2019 10:32 -0,4 °C 96 % 1036,9 hPa 0,0 mm 8,7 km/h (2 Bft) O-NO 65 ° 0 min 0,000 mm 0,8 UV-I 104 W/m² -1,0 °C -3,4 °C 14,5 km/h (3 Bft)
23.02.2019 10:33 -0,4 °C 95 % 1036,9 hPa 0,0 mm 6,4 km/h (2 Bft) NO 35 ° 0 min 0,000 mm 0,8 UV-I 105 W/m² -1,1 °C -2,6 °C 11,3 km/h (2 Bft)
23.02.2019 10:34 -0,4 °C 96 % 1036,9 hPa 0,0 mm 6,8 km/h (2 Bft) O 81 ° 0 min 0,000 mm 0,9 UV-I 107 W/m² -1,0 °C -2,8 °C 9,7 km/h (2 Bft)
23.02.2019 10:35 -0,4 °C 96 % 1036,9 hPa 0,0 mm 4,1 km/h (1 Bft) O 90 ° 0 min 0,000 mm 0,9 UV-I 111 W/m² -1,0 °C -0,4 °C 8,0 km/h (2 Bft)
23.02.2019 10:36 -0,4 °C 96 % 1037,0 hPa 0,0 mm 4,4 km/h (1 Bft) N-NO 16 ° 0 min 0,000 mm 0,9 UV-I 111 W/m² -1,0 °C -0,4 °C 8,0 km/h (2 Bft)
23.02.2019 10:37 -0,4 °C 96 % 1037,0 hPa 0,0 mm 4,3 km/h (1 Bft) O-NO 72 ° 0 min 0,000 mm 0,9 UV-I 120 W/m² -1,0 °C -0,4 °C 8,0 km/h (2 Bft)
23.02.2019 10:38 -0,3 °C 96 % 1037,0 hPa 0,0 mm 4,2 km/h (1 Bft) O-NO 65 ° 0 min 0,000 mm 0,9 UV-I 121 W/m² -0,9 °C -0,3 °C 6,4 km/h (2 Bft)
23.02.2019 10:39 -0,4 °C 96 % 1037,0 hPa 0,0 mm 4,5 km/h (1 Bft) O 84 ° 0 min 0,000 mm 0,9 UV-I 118 W/m² -1,0 °C -0,4 °C 6,4 km/h (2 Bft)
23.02.2019 10:40 -0,4 °C 96 % 1037,1 hPa 0,0 mm 5,1 km/h (1 Bft) O-NO 64 ° 0 min 0,000 mm 0,9 UV-I 116 W/m² -1,0 °C -2,1 °C 9,7 km/h (2 Bft)
23.02.2019 10:41 -0,4 °C 96 % 1037,1 hPa 0,0 mm 6,8 km/h (2 Bft) O 92 ° 0 min 0,000 mm 0,9 UV-I 123 W/m² -1,0 °C -2,8 °C 11,3 km/h (2 Bft)
23.02.2019 10:42 -0,4 °C 96 % 1037,1 hPa 0,0 mm 3,2 km/h (1 Bft) O-NO 67 ° 0 min 0,000 mm 0,9 UV-I 128 W/m² -1,0 °C -0,4 °C 4,8 km/h (1 Bft)
23.02.2019 10:43 -0,4 °C 96 % 1037,1 hPa 0,0 mm 1,8 km/h (1 Bft) O 85 ° 0 min 0,000 mm 0,9 UV-I 125 W/m² -1,0 °C -0,4 °C 6,4 km/h (2 Bft)
23.02.2019 10:44 -0,4 °C 96 % 1037,3 hPa 0,0 mm 3,3 km/h (1 Bft) NO 44 ° 0 min 0,000 mm 0,9 UV-I 127 W/m² -1,0 °C -0,4 °C 6,4 km/h (2 Bft)
23.02.2019 10:45 -0,4 °C 96 % 1037,3 hPa 0,0 mm 0,0 km/h (0 Bft) NO 44 ° 0 min 0,000 mm 0,9 UV-I 125 W/m² -1,0 °C -0,4 °C 0,0 km/h (0 Bft)
23.02.2019 10:46 -0,4 °C 96 % 1037,3 hPa 0,0 mm 0,0 km/h (0 Bft) NO 44 ° 0 min 0,000 mm 0,9 UV-I 128 W/m² -1,0 °C -0,4 °C 0,0 km/h (0 Bft)
23.02.2019 10:47 -0,4 °C 96 % 1037,3 hPa 0,0 mm 1,2 km/h (1 Bft) O 94 ° 0 min 0,000 mm 0,9 UV-I 127 W/m² -1,0 °C -0,4 °C 6,4 km/h (2 Bft)
23.02.2019 10:48 -0,4 °C 96 % 1037,3 hPa 0,0 mm 5,7 km/h (1 Bft) NO 54 ° 0 min 0,000 mm 0,9 UV-I 120 W/m² -1,0 °C -2,4 °C 8,0 km/h (2 Bft)
23.02.2019 10:49 -0,4 °C 96 % 1037,3 hPa 0,0 mm 2,7 km/h (1 Bft) NO 49 ° 0 min 0,000 mm 0,9 UV-I 125 W/m² -1,0 °C -0,4 °C 6,4 km/h (2 Bft)
23.02.2019 10:50 -0,4 °C 96 % 1037,2 hPa 0,0 mm 3,0 km/h (1 Bft) NO 38 ° 0 min 0,000 mm 1,0 UV-I 128 W/m² -1,0 °C -0,4 °C 6,4 km/h (2 Bft)
23.02.2019 10:51 -0,4 °C 96 % 1037,2 hPa 0,0 mm 4,0 km/h (1 Bft) NO 44 ° 0 min 0,000 mm 1,0 UV-I 123 W/m² -1,0 °C -0,4 °C 6,4 km/h (2 Bft)
23.02.2019 10:52 -0,4 °C 96 % 1037,2 hPa 0,0 mm 5,7 km/h (1 Bft) O 84 ° 0 min 0,000 mm 0,9 UV-I 116 W/m² -1,0 °C -2,4 °C 9,7 km/h (2 Bft)
23.02.2019 10:53 -0,4 °C 96 % 1037,2 hPa 0,0 mm 9,0 km/h (2 Bft) O 88 ° 0 min 0,000 mm 0,9 UV-I 113 W/m² -1,0 °C -3,5 °C 16,1 km/h (3 Bft)
23.02.2019 10:54 -0,4 °C 96 % 1037,2 hPa 0,0 mm 8,8 km/h (2 Bft) O 97 ° 0 min 0,000 mm 0,9 UV-I 113 W/m² -1,0 °C -3,5 °C 16,1 km/h (3 Bft)
23.02.2019 10:55 -0,5 °C 96 % 1037,3 hPa 0,0 mm 4,7 km/h (1 Bft) O-NO 67 ° 0 min 0,000 mm 0,9 UV-I 123 W/m² -1,1 °C -2,0 °C 6,4 km/h (2 Bft)
23.02.2019 10:56 -0,4 °C 96 % 1037,4 hPa 0,0 mm 8,0 km/h (2 Bft) NO 52 ° 0 min 0,000 mm 0,9 UV-I 125 W/m² -1,0 °C -3,2 °C 12,9 km/h (3 Bft)
23.02.2019 10:57 -0,4 °C 96 % 1037,4 hPa 0,0 mm 7,3 km/h (2 Bft) O-NO 72 ° 0 min 0,000 mm 1,0 UV-I 130 W/m² -1,0 °C -3,0 °C 11,3 km/h (2 Bft)
23.02.2019 10:58 -0,4 °C 96 % 1037,4 hPa 0,0 mm 5,7 km/h (1 Bft) O-NO 74 ° 0 min 0,000 mm 1,0 UV-I 137 W/m² -1,0 °C -2,4 °C 8,0 km/h (2 Bft)
23.02.2019 10:59 -0,4 °C 96 % 1037,3 hPa 0,0 mm 9,3 km/h (2 Bft) O-NO 71 ° 0 min 0,000 mm 1,0 UV-I 137 W/m² -1,0 °C -3,6 °C 14,5 km/h (3 Bft)
23.02.2019 11:00 -0,4 °C 96 % 1037,3 hPa 0,0 mm 7,3 km/h (2 Bft) NO 55 ° 0 min 0,051 mm 1,0 UV-I 137 W/m² -1,0 °C -3,0 °C 11,3 km/h (2 Bft)
23.02.2019 11:01 -0,4 °C 96 % 1037,3 hPa 0,0 mm 5,5 km/h (1 Bft) O 86 ° 0 min 0,000 mm 1,0 UV-I 134 W/m² -1,0 °C -2,3 °C 8,0 km/h (2 Bft)
23.02.2019 11:02 -0,4 °C 96 % 1037,3 hPa 0,0 mm 6,1 km/h (2 Bft) O 80 ° 0 min 0,000 mm 1,0 UV-I 128 W/m² -1,0 °C -2,5 °C 9,7 km/h (2 Bft)
23.02.2019 11:03 -0,4 °C 96 % 1037,3 hPa 0,0 mm 5,1 km/h (1 Bft) O-NO 69 ° 0 min 0,000 mm 1,0 UV-I 132 W/m² -1,0 °C -2,1 °C 8,0 km/h (2 Bft)
23.02.2019 11:04 -0,4 °C 96 % 1037,3 hPa 0,0 mm 5,4 km/h (1 Bft) NO 53 ° 0 min 0,000 mm 1,0 UV-I 128 W/m² -1,0 °C -2,2 °C 8,0 km/h (2 Bft)
23.02.2019 11:05 -0,4 °C 96 % 1037,3 hPa 0,0 mm 2,3 km/h (1 Bft) O-NO 72 ° 0 min 0,000 mm 1,0 UV-I 134 W/m² -1,0 °C -0,4 °C 11,3 km/h (2 Bft)
23.02.2019 11:06 -0,4 °C 96 % 1037,3 hPa 0,0 mm 6,5 km/h (2 Bft) NO 51 ° 0 min 0,000 mm 1,0 UV-I 134 W/m² -1,0 °C -2,7 °C 14,5 km/h (3 Bft)
23.02.2019 11:07 -0,5 °C 96 % 1037,2 hPa 0,0 mm 3,4 km/h (1 Bft) O 100 ° 0 min 0,000 mm 1,1 UV-I 144 W/m² -1,1 °C -0,5 °C 8,0 km/h (2 Bft)
23.02.2019 11:08 -0,5 °C 96 % 1037,2 hPa 0,0 mm 6,4 km/h (2 Bft) O 89 ° 0 min 0,000 mm 1,1 UV-I 146 W/m² -1,1 °C -2,8 °C 12,9 km/h (3 Bft)
23.02.2019 11:09 -0,5 °C 96 % 1037,2 hPa 0,0 mm 5,5 km/h (1 Bft) O-NO 76 ° 0 min 0,000 mm 1,1 UV-I 146 W/m² -1,1 °C -2,4 °C 8,0 km/h (2 Bft)
23.02.2019 11:10 -0,6 °C 96 % 1037,1 hPa 0,0 mm 4,6 km/h (1 Bft) O-NO 64 ° 0 min 0,000 mm 1,1 UV-I 155 W/m² -1,2 °C -2,1 °C 9,7 km/h (2 Bft)
23.02.2019 11:11 -0,6 °C 96 % 1037,1 hPa 0,0 mm 5,2 km/h (1 Bft) O-NO 65 ° 0 min 0,000 mm 1,1 UV-I 149 W/m² -1,2 °C -2,4 °C 9,7 km/h (2 Bft)
23.02.2019 11:12 -0,6 °C 96 % 1037,1 hPa 0,0 mm 4,5 km/h (1 Bft) O-NO 59 ° 0 min 0,000 mm 1,2 UV-I 149 W/m² -1,2 °C -0,6 °C 12,9 km/h (3 Bft)
23.02.2019 11:13 -0,6 °C 96 % 1037,1 hPa 0,0 mm 7,8 km/h (2 Bft) NO 44 ° 0 min 0,000 mm 1,1 UV-I 155 W/m² -1,2 °C -3,4 °C 14,5 km/h (3 Bft)
23.02.2019 11:14 -0,6 °C 96 % 1037,1 hPa 0,0 mm 2,4 km/h (1 Bft) NO 53 ° 0 min 0,000 mm 1,2 UV-I 153 W/m² -1,2 °C -0,6 °C 4,8 km/h (1 Bft)
23.02.2019 11:15 -0,6 °C 96 % 1037,1 hPa 0,0 mm 4,0 km/h (1 Bft) NO 46 ° 0 min 0,000 mm 1,2 UV-I 165 W/m² -1,2 °C -0,6 °C 4,8 km/h (1 Bft)
23.02.2019 11:16 -0,5 °C 96 % 1037,1 hPa 0,0 mm 5,5 km/h (1 Bft) O-NO 77 ° 0 min 0,000 mm 1,2 UV-I 167 W/m² -1,1 °C -2,4 °C 9,7 km/h (2 Bft)
23.02.2019 11:17 -0,5 °C 96 % 1037,2 hPa 0,0 mm 4,0 km/h (1 Bft) NO 40 ° 0 min 0,000 mm 1,1 UV-I 135 W/m² -1,1 °C -0,5 °C 6,4 km/h (2 Bft)
23.02.2019 11:18 -0,5 °C 96 % 1037,3 hPa 0,0 mm 3,9 km/h (1 Bft) NO 51 ° 0 min 0,000 mm 1,2 UV-I 139 W/m² -1,1 °C -0,5 °C 4,8 km/h (1 Bft)
23.02.2019 11:19 -0,4 °C 96 % 1037,3 hPa 0,0 mm 8,0 km/h (2 Bft) O-NO 61 ° 0 min 0,000 mm 1,1 UV-I 135 W/m² -1,0 °C -3,2 °C 12,9 km/h (3 Bft)
23.02.2019 11:20 -0,4 °C 96 % 1037,3 hPa 0,0 mm 6,9 km/h (2 Bft) O 82 ° 0 min 0,000 mm 1,2 UV-I 171 W/m² -1,0 °C -2,8 °C 12,9 km/h (3 Bft)
23.02.2019 11:21 -0,5 °C 96 % 1037,3 hPa 0,0 mm 7,2 km/h (2 Bft) O-NO 67 ° 0 min 0,000 mm 1,2 UV-I 155 W/m² -1,1 °C -3,1 °C 12,9 km/h (3 Bft)
23.02.2019 11:22 -0,5 °C 96 % 1037,3 hPa 0,0 mm 4,7 km/h (1 Bft) O 94 ° 0 min 0,000 mm 1,2 UV-I 160 W/m² -1,1 °C -2,0 °C 12,9 km/h (3 Bft)
23.02.2019 11:23 -0,4 °C 96 % 1037,3 hPa 0,0 mm 5,0 km/h (1 Bft) NO 36 ° 0 min 0,000 mm 1,1 UV-I 142 W/m² -1,0 °C -2,0 °C 12,9 km/h (3 Bft)
23.02.2019 11:24 -0,4 °C 96 % 1037,3 hPa 0,0 mm 6,1 km/h (2 Bft) O 92 ° 0 min 0,000 mm 1,2 UV-I 130 W/m² -1,0 °C -2,5 °C 9,7 km/h (2 Bft)
23.02.2019 11:25 -0,4 °C 96 % 1037,3 hPa 0,0 mm 6,6 km/h (2 Bft) NO 34 ° 0 min 0,000 mm 1,2 UV-I 146 W/m² -1,0 °C -2,7 °C 9,7 km/h (2 Bft)
23.02.2019 11:26 -0,4 °C 96 % 1037,3 hPa 0,0 mm 6,5 km/h (2 Bft) NO 48 ° 0 min 0,000 mm 1,2 UV-I 137 W/m² -1,0 °C -2,7 °C 14,5 km/h (3 Bft)
23.02.2019 11:27 -0,4 °C 96 % 1037,3 hPa 0,0 mm 10,1 km/h (2 Bft) N-NO 33 ° 0 min 0,000 mm 1,2 UV-I 155 W/m² -1,0 °C -3,8 °C 16,1 km/h (3 Bft)
23.02.2019 11:28 -0,5 °C 96 % 1037,4 hPa 0,0 mm 11,0 km/h (2 Bft) O-SO 122 ° 0 min 0,000 mm 1,1 UV-I 137 W/m² -1,1 °C -4,2 °C 16,1 km/h (3 Bft)
23.02.2019 11:29 -0,5 °C 96 % 1037,4 hPa 0,0 mm 5,6 km/h (1 Bft) NO 38 ° 0 min 0,000 mm 1,2 UV-I 139 W/m² -1,1 °C -2,4 °C 8,0 km/h (2 Bft)
23.02.2019 11:30 -0,5 °C 96 % 1037,4 hPa 0,0 mm 9,9 km/h (2 Bft) O-NO 71 ° 0 min 0,000 mm 1,2 UV-I 167 W/m² -1,1 °C -3,9 °C 14,5 km/h (3 Bft)
23.02.2019 11:31 -0,5 °C 96 % 1037,4 hPa 0,0 mm 8,8 km/h (2 Bft) NO 52 ° 0 min 0,000 mm 1,2 UV-I 160 W/m² -1,1 °C -3,6 °C 12,9 km/h (3 Bft)
23.02.2019 11:32 -0,5 °C 96 % 1037,4 hPa 0,0 mm 6,4 km/h (2 Bft) O-NO 76 ° 0 min 0,000 mm 1,2 UV-I 142 W/m² -1,1 °C -2,8 °C 11,3 km/h (2 Bft)
23.02.2019 11:33 -0,6 °C 96 % 1037,4 hPa 0,0 mm 7,4 km/h (2 Bft) NO 56 ° 0 min 0,000 mm 1,2 UV-I 144 W/m² -1,2 °C -3,2 °C 14,5 km/h (3 Bft)
23.02.2019 11:34 -0,6 °C 96 % 1037,4 hPa 0,0 mm 10,2 km/h (2 Bft) O-NO 65 ° 0 min 0,000 mm 1,2 UV-I 146 W/m² -1,2 °C -4,1 °C 14,5 km/h (3 Bft)
23.02.2019 11:35 -0,6 °C 96 % 1037,4 hPa 0,0 mm 10,3 km/h (2 Bft) NO 37 ° 0 min 0,000 mm 1,2 UV-I 141 W/m² -1,2 °C -4,1 °C 17,7 km/h (3 Bft)
23.02.2019 11:36 -0,6 °C 96 % 1037,4 hPa 0,0 mm 7,7 km/h (2 Bft) O-NO 60 ° 0 min 0,000 mm 1,2 UV-I 160 W/m² -1,2 °C -3,3 °C 12,9 km/h (3 Bft)
23.02.2019 11:37 -0,6 °C 96 % 1037,4 hPa 0,0 mm 6,2 km/h (2 Bft) O-NO 59 ° 0 min 0,000 mm 1,3 UV-I 162 W/m² -1,2 °C -2,8 °C 11,3 km/h (2 Bft)
23.02.2019 11:38 -0,6 °C 96 % 1037,3 hPa 0,0 mm 6,4 km/h (2 Bft) O-NO 76 ° 0 min 0,000 mm 1,3 UV-I 169 W/m² -1,2 °C -2,9 °C 9,7 km/h (2 Bft)
23.02.2019 11:39 -0,6 °C 96 % 1037,3 hPa 0,0 mm 7,1 km/h (2 Bft) O-NO 64 ° 0 min 0,000 mm 1,3 UV-I 172 W/m² -1,2 °C -3,1 °C 11,3 km/h (2 Bft)
23.02.2019 11:40 -0,6 °C 96 % 1037,3 hPa 0,0 mm 8,4 km/h (2 Bft) NO 54 ° 0 min 0,000 mm 1,4 UV-I 185 W/m² -1,2 °C -3,6 °C 12,9 km/h (3 Bft)
23.02.2019 11:41 -0,6 °C 96 % 1037,2 hPa 0,0 mm 4,3 km/h (1 Bft) O 80 ° 0 min 0,000 mm 1,4 UV-I 188 W/m² -1,2 °C -0,6 °C 11,3 km/h (2 Bft)
23.02.2019 11:42 -0,5 °C 96 % 1037,1 hPa 0,0 mm 9,4 km/h (2 Bft) NO 44 ° 0 min 0,000 mm 1,4 UV-I 183 W/m² -1,1 °C -3,7 °C 14,5 km/h (3 Bft)
23.02.2019 11:43 -0,5 °C 96 % 1037,2 hPa 0,0 mm 6,8 km/h (2 Bft) O 86 ° 0 min 0,000 mm 1,4 UV-I 181 W/m² -1,1 °C -2,9 °C 11,3 km/h (2 Bft)
23.02.2019 11:44 -0,5 °C 96 % 1037,2 hPa 0,0 mm 5,0 km/h (1 Bft) O 79 ° 0 min 0,000 mm 1,4 UV-I 179 W/m² -1,1 °C -2,2 °C 8,0 km/h (2 Bft)
23.02.2019 11:45 -0,5 °C 96 % 1037,1 hPa 0,0 mm 10,3 km/h (2 Bft) O-NO 58 ° 0 min 0,000 mm 1,4 UV-I 167 W/m² -1,1 °C -4,0 °C 12,9 km/h (3 Bft)
23.02.2019 11:46 -0,5 °C 96 % 1037,2 hPa 0,0 mm 10,6 km/h (2 Bft) O-NO 75 ° 0 min 0,000 mm 1,4 UV-I 169 W/m² -1,1 °C -4,1 °C 17,7 km/h (3 Bft)
23.02.2019 11:47 -0,5 °C 96 % 1037,2 hPa 0,0 mm 10,2 km/h (2 Bft) NO 49 ° 0 min 0,000 mm 1,4 UV-I 169 W/m² -1,1 °C -4,0 °C 14,5 km/h (3 Bft)
23.02.2019 11:48 -0,6 °C 96 % 1037,1 hPa 0,0 mm 14,3 km/h (3 Bft) O-NO 61 ° 0 min 0,000 mm 1,4 UV-I 188 W/m² -1,2 °C -5,0 °C 19,3 km/h (3 Bft)
23.02.2019 11:49 -0,6 °C 96 % 1037,1 hPa 0,0 mm 11,0 km/h (2 Bft) NO 49 ° 0 min 0,000 mm 1,5 UV-I 193 W/m² -1,2 °C -4,3 °C 14,5 km/h (3 Bft)
23.02.2019 11:50 -0,6 °C 96 % 1037,1 hPa 0,0 mm 6,2 km/h (2 Bft) O-NO 70 ° 0 min 0,000 mm 1,5 UV-I 190 W/m² -1,2 °C -2,8 °C 14,5 km/h (3 Bft)
23.02.2019 11:51 -0,6 °C 96 % 1037,1 hPa 0,0 mm 10,3 km/h (2 Bft) NO 49 ° 0 min 0,000 mm 1,5 UV-I 186 W/m² -1,2 °C -4,1 °C 16,1 km/h (3 Bft)
23.02.2019 11:52 -0,6 °C 96 % 1037,1 hPa 0,0 mm 10,9 km/h (2 Bft) NO 49 ° 0 min 0,000 mm 1,5 UV-I 197 W/m² -1,2 °C -4,3 °C 14,5 km/h (3 Bft)
23.02.2019 11:53 -0,5 °C 96 % 1037,1 hPa 0,0 mm 6,8 km/h (2 Bft) O 88 ° 0 min 0,000 mm 1,5 UV-I 200 W/m² -1,1 °C -2,9 °C 14,5 km/h (3 Bft)
23.02.2019 11:54 -0,5 °C 96 % 1037,3 hPa 0,0 mm 6,4 km/h (2 Bft) O 82 ° 0 min 0,000 mm 1,5 UV-I 214 W/m² -1,1 °C -2,8 °C 11,3 km/h (2 Bft)
23.02.2019 11:55 -0,4 °C 96 % 1037,3 hPa 0,0 mm 5,7 km/h (1 Bft) NO 56 ° 0 min 0,000 mm 1,6 UV-I 214 W/m² -1,0 °C -2,4 °C 11,3 km/h (2 Bft)
23.02.2019 11:56 -0,5 °C 96 % 1037,2 hPa 0,0 mm 5,1 km/h (1 Bft) NO 51 ° 0 min 0,000 mm 1,6 UV-I 214 W/m² -1,1 °C -2,2 °C 9,7 km/h (2 Bft)
23.02.2019 11:57 -0,5 °C 96 % 1037,3 hPa 0,0 mm 9,3 km/h (2 Bft) NO 49 ° 0 min 0,000 mm 1,5 UV-I 200 W/m² -1,1 °C -3,7 °C 14,5 km/h (3 Bft)
23.02.2019 11:58 -0,4 °C 96 % 1037,3 hPa 0,0 mm 13,7 km/h (3 Bft) N-NO 32 ° 0 min 0,000 mm 1,5 UV-I 197 W/m² -1,0 °C -4,7 °C 17,7 km/h (3 Bft)
23.02.2019 11:59 -0,4 °C 96 % 1037,3 hPa 0,0 mm 8,9 km/h (2 Bft) O 98 ° 0 min 0,000 mm 1,5 UV-I 197 W/m² -1,0 °C -3,5 °C 14,5 km/h (3 Bft)
23.02.2019 12:00 -0,4 °C 96 % 1037,3 hPa 0,0 mm 9,0 km/h (2 Bft) O-NO 59 ° 0 min 0,000 mm 1,6 UV-I 195 W/m² -1,0 °C -3,5 °C 16,1 km/h (3 Bft)
23.02.2019 12:01 -0,4 °C 96 % 1037,4 hPa 0,0 mm 10,1 km/h (2 Bft) O-NO 63 ° 0 min 0,050 mm 1,6 UV-I 192 W/m² -1,0 °C -3,8 °C 14,5 km/h (3 Bft)
23.02.2019 12:02 -0,4 °C 96 % 1037,4 hPa 0,0 mm 6,4 km/h (2 Bft) O 80 ° 0 min 0,000 mm 1,6 UV-I 188 W/m² -1,0 °C -2,6 °C 14,5 km/h (3 Bft)
23.02.2019 12:03 -0,4 °C 96 % 1037,4 hPa 0,0 mm 12,5 km/h (3 Bft) O-NO 71 ° 0 min 0,000 mm 1,6 UV-I 183 W/m² -1,0 °C -4,4 °C 17,7 km/h (3 Bft)
23.02.2019 12:04 -0,4 °C 96 % 1037,4 hPa 0,0 mm 6,2 km/h (2 Bft) O-NO 67 ° 0 min 0,000 mm 1,5 UV-I 169 W/m² -1,0 °C -2,6 °C 11,3 km/h (2 Bft)
23.02.2019 12:05 -0,5 °C 96 % 1037,4 hPa 0,0 mm 6,0 km/h (2 Bft) O-NO 72 ° 0 min 0,000 mm 1,6 UV-I 181 W/m² -1,1 °C -2,6 °C 12,9 km/h (3 Bft)
23.02.2019 12:06 -0,4 °C 96 % 1037,4 hPa 0,0 mm 10,1 km/h (2 Bft) O 83 ° 0 min 0,000 mm 1,6 UV-I 181 W/m² -1,0 °C -3,8 °C 14,5 km/h (3 Bft)
23.02.2019 12:07 -0,4 °C 95 % 1037,5 hPa 0,0 mm 4,6 km/h (1 Bft) NO 49 ° 0 min 0,000 mm 1,7 UV-I 171 W/m² -1,1 °C -1,8 °C 8,0 km/h (2 Bft)
23.02.2019 12:08 -0,4 °C 95 % 1037,5 hPa 0,0 mm 9,7 km/h (2 Bft) O-NO 57 ° 0 min 0,000 mm 1,7 UV-I 172 W/m² -1,1 °C -3,7 °C 14,5 km/h (3 Bft)
23.02.2019 12:09 -0,4 °C 95 % 1037,5 hPa 0,0 mm 9,3 km/h (2 Bft) O-NO 71 ° 0 min 0,000 mm 1,8 UV-I 171 W/m² -1,1 °C -3,6 °C 19,3 km/h (3 Bft)
23.02.2019 12:10 -0,4 °C 95 % 1037,5 hPa 0,0 mm 11,4 km/h (2 Bft) O-NO 78 ° 0 min 0,000 mm 1,8 UV-I 174 W/m² -1,1 °C -4,1 °C 17,7 km/h (3 Bft)
23.02.2019 12:11 -0,4 °C 95 % 1037,5 hPa 0,0 mm 8,6 km/h (2 Bft) O 89 ° 0 min 0,000 mm 1,7 UV-I 93 W/m² -1,1 °C -3,4 °C 14,5 km/h (3 Bft)
23.02.2019 12:12 -0,5 °C 95 % 1037,6 hPa 0,0 mm 11,1 km/h (2 Bft) O-NO 63 ° 0 min 0,000 mm 1,8 UV-I 79 W/m² -1,2 °C -4,2 °C 16,1 km/h (3 Bft)
23.02.2019 12:13 -0,6 °C 95 % 1037,6 hPa 0,0 mm 12,2 km/h (2 Bft) O-SO 105 ° 0 min 0,000 mm 1,8 UV-I 72 W/m² -1,3 °C -4,6 °C 17,7 km/h (3 Bft)
23.02.2019 12:14 -0,6 °C 95 % 1037,6 hPa 0,0 mm 9,3 km/h (2 Bft) O 86 ° 0 min 0,000 mm 2,0 UV-I 135 W/m² -1,3 °C -3,8 °C 12,9 km/h (3 Bft)
23.02.2019 12:15 -0,6 °C 95 % 1037,7 hPa 0,0 mm 9,4 km/h (2 Bft) O-NO 67 ° 0 min 0,000 mm 1,8 UV-I 90 W/m² -1,3 °C -3,9 °C 12,9 km/h (3 Bft)
23.02.2019 12:16 -0,6 °C 95 % 1037,7 hPa 0,0 mm 12,3 km/h (3 Bft) NO 51 ° 0 min 0,000 mm 1,9 UV-I 98 W/m² -1,3 °C -4,6 °C 17,7 km/h (3 Bft)
23.02.2019 12:17 -0,6 °C 95 % 1037,7 hPa 0,0 mm 8,6 km/h (2 Bft) O-NO 59 ° 0 min 0,000 mm 1,9 UV-I 100 W/m² -1,3 °C -3,6 °C 12,9 km/h (3 Bft)
23.02.2019 12:18 -0,6 °C 95 % 1037,6 hPa 0,0 mm 12,4 km/h (3 Bft) O-NO 74 ° 0 min 0,000 mm 1,9 UV-I 79 W/m² -1,3 °C -4,6 °C 17,7 km/h (3 Bft)
23.02.2019 12:19 -0,5 °C 95 % 1037,6 hPa 0,0 mm 11,1 km/h (2 Bft) O-NO 66 ° 0 min 0,000 mm 3,0 UV-I 79 W/m² -1,2 °C -4,2 °C 16,1 km/h (3 Bft)
23.02.2019 12:20 -0,5 °C 95 % 1037,5 hPa 0,0 mm 14,8 km/h (3 Bft) O 99 ° 0 min 0,000 mm 2,6 UV-I 550 W/m² -1,2 °C -5,0 °C 20,9 km/h (4 Bft)
23.02.2019 12:21 -0,4 °C 95 % 1037,5 hPa 0,0 mm 11,4 km/h (2 Bft) O-NO 71 ° 0 min 0,000 mm 3,0 UV-I 550 W/m² -1,1 °C -4,1 °C 17,7 km/h (3 Bft)
23.02.2019 12:22 -0,4 °C 96 % 1037,5 hPa 0,0 mm 11,3 km/h (2 Bft) O-NO 75 ° 0 min 0,000 mm 2,6 UV-I 550 W/m² -1,0 °C -4,1 °C 17,7 km/h (3 Bft)
23.02.2019 12:23 -0,3 °C 96 % 1037,5 hPa 0,0 mm 9,3 km/h (2 Bft) O 82 ° 0 min 0,000 mm 1,9 UV-I 79 W/m² -0,9 °C -3,5 °C 12,9 km/h (3 Bft)
23.02.2019 12:24 -0,3 °C 96 % 1037,6 hPa 0,0 mm 11,3 km/h (2 Bft) O-NO 67 ° 0 min 0,000 mm 1,9 UV-I 93 W/m² -0,9 °C -4,0 °C 17,7 km/h (3 Bft)
23.02.2019 12:25 -0,3 °C 96 % 1037,5 hPa 0,0 mm 10,8 km/h (2 Bft) O-NO 74 ° 0 min 0,000 mm 2,9 UV-I 130 W/m² -0,9 °C -3,9 °C 16,1 km/h (3 Bft)
23.02.2019 12:26 -0,3 °C 96 % 1037,6 hPa 0,0 mm 12,1 km/h (2 Bft) O 80 ° 0 min 0,000 mm 2,3 UV-I 130 W/m² -0,9 °C -4,2 °C 20,9 km/h (4 Bft)
23.02.2019 12:27 -0,3 °C 95 % 1037,6 hPa 0,0 mm 12,7 km/h (3 Bft) O 95 ° 0 min 0,000 mm 3,0 UV-I 550 W/m² -1,0 °C -4,3 °C 19,3 km/h (3 Bft)
23.02.2019 12:28 -0,3 °C 95 % 1037,6 hPa 0,0 mm 12,4 km/h (3 Bft) O-NO 65 ° 0 min 0,000 mm 2,8 UV-I 536 W/m² -1,0 °C -4,3 °C 19,3 km/h (3 Bft)
23.02.2019 12:29 -0,2 °C 95 % 1037,6 hPa 0,0 mm 6,8 km/h (2 Bft) N-NW 335 ° 0 min 0,000 mm 3,0 UV-I 552 W/m² -0,9 °C -2,6 °C 11,3 km/h (2 Bft)
23.02.2019 12:30 -0,2 °C 95 % 1037,6 hPa 0,0 mm 8,7 km/h (2 Bft) O-SO 115 ° 0 min 0,000 mm 2,9 UV-I 552 W/m² -0,9 °C -3,2 °C 17,7 km/h (3 Bft)
23.02.2019 12:31 -0,1 °C 95 % 1037,6 hPa 0,0 mm 13,3 km/h (3 Bft) O 92 ° 0 min 0,000 mm 3,0 UV-I 552 W/m² -0,8 °C -4,2 °C 19,3 km/h (3 Bft)
23.02.2019 12:32 -0,1 °C 95 % 1037,6 hPa 0,0 mm 10,9 km/h (2 Bft) O 86 ° 0 min 0,000 mm 3,0 UV-I 547 W/m² -0,8 °C -3,7 °C 17,7 km/h (3 Bft)
23.02.2019 12:33 -0,1 °C 95 % 1037,5 hPa 0,0 mm 9,0 km/h (2 Bft) O-SO 108 ° 0 min 0,000 mm 2,8 UV-I 547 W/m² -0,8 °C -3,2 °C 17,7 km/h (3 Bft)
23.02.2019 12:34 0,0 °C 95 % 1037,5 hPa 0,0 mm 5,4 km/h (1 Bft) O-NO 57 ° 0 min 0,000 mm 2,2 UV-I 267 W/m² -0,7 °C -1,8 °C 8,0 km/h (2 Bft)
23.02.2019 12:35 0,0 °C 95 % 1037,6 hPa 0,0 mm 9,5 km/h (2 Bft) O-NO 70 ° 0 min 0,000 mm 2,2 UV-I 214 W/m² -0,7 °C -3,2 °C 17,7 km/h (3 Bft)
23.02.2019 12:36 0,0 °C 95 % 1037,5 hPa 0,0 mm 11,0 km/h (2 Bft) N-NO 16 ° 0 min 0,000 mm 2,1 UV-I 162 W/m² -0,7 °C -3,6 °C 17,7 km/h (3 Bft)
23.02.2019 12:37 0,1 °C 95 % 1037,5 hPa 0,0 mm 6,1 km/h (2 Bft) O 96 ° 0 min 0,000 mm 2,0 UV-I 104 W/m² -0,6 °C -1,9 °C 11,3 km/h (2 Bft)
23.02.2019 12:38 0,1 °C 95 % 1037,5 hPa 0,0 mm 6,5 km/h (2 Bft) NO 56 ° 0 min 0,000 mm 2,2 UV-I 104 W/m² -0,6 °C -2,1 °C 11,3 km/h (2 Bft)
23.02.2019 12:39 0,1 °C 95 % 1037,5 hPa 0,0 mm 9,1 km/h (2 Bft) O-NO 63 ° 0 min 0,000 mm 2,5 UV-I 104 W/m² -0,6 °C -2,9 °C 12,9 km/h (3 Bft)
23.02.2019 12:40 0,2 °C 95 % 1037,4 hPa 0,0 mm 6,1 km/h (2 Bft) NO 52 ° 0 min 0,000 mm 3,0 UV-I 422 W/m² -0,5 °C -1,8 °C 8,0 km/h (2 Bft)
23.02.2019 12:41 0,2 °C 95 % 1037,4 hPa 0,0 mm 4,8 km/h (1 Bft) O-SO 120 ° 0 min 0,000 mm 2,9 UV-I 422 W/m² -0,5 °C -1,3 °C 9,7 km/h (2 Bft)
23.02.2019 12:42 0,2 °C 95 % 1037,4 hPa 0,0 mm 7,6 km/h (2 Bft) O-NO 65 ° 0 min 0,000 mm 3,0 UV-I 422 W/m² -0,5 °C -2,4 °C 11,3 km/h (2 Bft)
23.02.2019 12:43 0,3 °C 95 % 1037,4 hPa 0,0 mm 7,6 km/h (2 Bft) O 98 ° 0 min 0,000 mm 2,9 UV-I 422 W/m² -0,4 °C -2,3 °C 12,9 km/h (3 Bft)
23.02.2019 12:44 0,3 °C 95 % 1037,4 hPa 0,0 mm 6,5 km/h (2 Bft) O-SO 118 ° 0 min 0,000 mm 2,9 UV-I 422 W/m² -0,4 °C -1,9 °C 12,9 km/h (3 Bft)
23.02.2019 12:45 0,3 °C 95 % 1037,4 hPa 0,0 mm 9,9 km/h (2 Bft) O-NO 74 ° 0 min 0,000 mm 2,2 UV-I 422 W/m² -0,4 °C -2,9 °C 14,5 km/h (3 Bft)
23.02.2019 12:46 0,2 °C 95 % 1037,4 hPa 0,0 mm 6,0 km/h (2 Bft) O-NO 59 ° 0 min 0,000 mm 2,7 UV-I 418 W/m² -0,5 °C -1,8 °C 11,3 km/h (2 Bft)
23.02.2019 12:47 0,2 °C 95 % 1037,3 hPa 0,0 mm 6,4 km/h (2 Bft) N-NW 341 ° 0 min 0,000 mm 2,7 UV-I 418 W/m² -0,5 °C -2,0 °C 12,9 km/h (3 Bft)
23.02.2019 12:48 0,2 °C 95 % 1037,3 hPa 0,0 mm 5,2 km/h (1 Bft) O-NO 76 ° 0 min 0,000 mm 3,0 UV-I 543 W/m² -0,5 °C -1,5 °C 11,3 km/h (2 Bft)
23.02.2019 12:49 0,2 °C 95 % 1037,2 hPa 0,0 mm 5,0 km/h (1 Bft) O-NO 63 ° 0 min 0,000 mm 2,9 UV-I 547 W/m² -0,5 °C -1,4 °C 9,7 km/h (2 Bft)
23.02.2019 12:50 0,2 °C 95 % 1037,1 hPa 0,0 mm 7,3 km/h (2 Bft) O 80 ° 0 min 0,000 mm 2,9 UV-I 522 W/m² -0,5 °C -2,3 °C 11,3 km/h (2 Bft)
23.02.2019 12:51 0,3 °C 95 % 1037,1 hPa 0,0 mm 9,5 km/h (2 Bft) O-NO 71 ° 0 min 0,000 mm 2,9 UV-I 522 W/m² -0,4 °C -2,8 °C 14,5 km/h (3 Bft)
23.02.2019 12:52 0,4 °C 95 % 1037,1 hPa 0,0 mm 3,8 km/h (1 Bft) O-NO 60 ° 0 min 0,000 mm 2,9 UV-I 552 W/m² -0,3 °C 0,4 °C 9,7 km/h (2 Bft)
23.02.2019 12:53 0,3 °C 95 % 1037,1 hPa 0,0 mm 7,1 km/h (2 Bft) O-NO 71 ° 0 min 0,000 mm 2,9 UV-I 552 W/m² -0,4 °C -2,1 °C 12,9 km/h (3 Bft)
23.02.2019 12:54 0,4 °C 95 % 1037,2 hPa 0,0 mm 7,1 km/h (2 Bft) O 86 ° 0 min 0,000 mm 2,9 UV-I 552 W/m² -0,3 °C -2,0 °C 14,5 km/h (3 Bft)
23.02.2019 12:55 0,5 °C 95 % 1037,0 hPa 0,0 mm 6,4 km/h (2 Bft) NO 50 ° 0 min 0,000 mm 2,9 UV-I 557 W/m² -0,2 °C -1,6 °C 14,5 km/h (3 Bft)
23.02.2019 12:56 0,4 °C 94 % 1037,1 hPa 0,0 mm 6,8 km/h (2 Bft) O-NO 64 ° 0 min 0,000 mm 2,9 UV-I 550 W/m² -0,5 °C -1,9 °C 9,7 km/h (2 Bft)
23.02.2019 12:57 0,5 °C 94 % 1037,0 hPa 0,0 mm 11,3 km/h (2 Bft) O 93 ° 0 min 0,000 mm 2,9 UV-I 557 W/m² -0,4 °C -3,0 °C 16,1 km/h (3 Bft)
23.02.2019 12:58 0,5 °C 94 % 1037,0 hPa 0,0 mm 7,2 km/h (2 Bft) O-NO 60 ° 0 min 0,000 mm 2,9 UV-I 554 W/m² -0,4 °C -1,9 °C 11,3 km/h (2 Bft)
23.02.2019 12:59 0,5 °C 94 % 1037,0 hPa 0,0 mm 7,5 km/h (2 Bft) O-NO 65 ° 0 min 0,000 mm 2,9 UV-I 564 W/m² -0,4 °C -2,0 °C 14,5 km/h (3 Bft)
23.02.2019 13:00 0,5 °C 94 % 1036,9 hPa 0,0 mm 8,9 km/h (2 Bft) O-NO 69 ° 0 min 0,000 mm 2,9 UV-I 550 W/m² -0,4 °C -2,4 °C 14,5 km/h (3 Bft)
23.02.2019 13:01 0,6 °C 94 % 1036,9 hPa 0,0 mm 8,2 km/h (2 Bft) O 100 ° 0 min 0,102 mm 2,9 UV-I 559 W/m² -0,3 °C -2,1 °C 14,5 km/h (3 Bft)
23.02.2019 13:02 0,6 °C 94 % 1036,9 hPa 0,0 mm 4,2 km/h (1 Bft) O-NO 67 ° 0 min 0,000 mm 2,9 UV-I 559 W/m² -0,3 °C 0,6 °C 6,4 km/h (2 Bft)
23.02.2019 13:03 0,7 °C 94 % 1036,8 hPa 0,0 mm 7,0 km/h (2 Bft) O 86 ° 0 min 0,000 mm 2,9 UV-I 564 W/m² -0,2 °C -1,6 °C 11,3 km/h (2 Bft)
23.02.2019 13:04 0,7 °C 94 % 1036,8 hPa 0,0 mm 6,6 km/h (2 Bft) O-NO 74 ° 0 min 0,000 mm 2,9 UV-I 563 W/m² -0,2 °C -1,4 °C 11,3 km/h (2 Bft)
23.02.2019 13:05 0,7 °C 94 % 1036,7 hPa 0,0 mm 8,9 km/h (2 Bft) O 80 ° 0 min 0,000 mm 2,9 UV-I 561 W/m² -0,2 °C -2,2 °C 14,5 km/h (3 Bft)
23.02.2019 13:06 0,7 °C 94 % 1036,7 hPa 0,0 mm 9,0 km/h (2 Bft) O-NO 78 ° 0 min 0,000 mm 2,9 UV-I 563 W/m² -0,2 °C -2,2 °C 16,1 km/h (3 Bft)
23.02.2019 13:07 0,7 °C 93 % 1036,6 hPa 0,0 mm 9,9 km/h (2 Bft) O 82 ° 0 min 0,000 mm 2,9 UV-I 564 W/m² -0,3 °C -2,5 °C 17,7 km/h (3 Bft)
23.02.2019 13:08 0,7 °C 94 % 1036,6 hPa 0,0 mm 7,5 km/h (2 Bft) SO 137 ° 0 min 0,000 mm 2,9 UV-I 564 W/m² -0,2 °C -1,8 °C 14,5 km/h (3 Bft)
23.02.2019 13:09 0,7 °C 93 % 1036,5 hPa 0,0 mm 8,9 km/h (2 Bft) O-NO 73 ° 0 min 0,000 mm 2,9 UV-I 563 W/m² -0,3 °C -2,2 °C 19,3 km/h (3 Bft)
23.02.2019 13:10 0,7 °C 93 % 1036,5 hPa 0,0 mm 14,3 km/h (3 Bft) O 80 ° 0 min 0,000 mm 2,9 UV-I 563 W/m² -0,3 °C -3,4 °C 17,7 km/h (3 Bft)
23.02.2019 13:11 0,8 °C 93 % 1036,5 hPa 0,0 mm 9,0 km/h (2 Bft) NO 47 ° 0 min 0,000 mm 2,9 UV-I 561 W/m² -0,2 °C -2,1 °C 16,1 km/h (3 Bft)
23.02.2019 13:12 0,8 °C 93 % 1036,5 hPa 0,0 mm 7,6 km/h (2 Bft) NO 49 ° 0 min 0,000 mm 2,9 UV-I 552 W/m² -0,2 °C -1,7 °C 12,9 km/h (3 Bft)
23.02.2019 13:13 0,9 °C 93 % 1036,5 hPa 0,0 mm 6,5 km/h (2 Bft) S-SO 160 ° 0 min 0,000 mm 2,9 UV-I 559 W/m² -0,1 °C -1,2 °C 9,7 km/h (2 Bft)
23.02.2019 13:14 0,8 °C 93 % 1036,4 hPa 0,0 mm 5,8 km/h (2 Bft) O-NO 67 ° 0 min 0,000 mm 2,9 UV-I 561 W/m² -0,2 °C -1,0 °C 12,9 km/h (3 Bft)
23.02.2019 13:15 0,8 °C 93 % 1036,5 hPa 0,0 mm 8,6 km/h (2 Bft) O-NO 65 ° 0 min 0,000 mm 2,9 UV-I 555 W/m² -0,2 °C -2,0 °C 11,3 km/h (2 Bft)
23.02.2019 13:16 0,8 °C 93 % 1036,5 hPa 0,0 mm 9,8 km/h (2 Bft) O-NO 66 ° 0 min 0,000 mm 2,9 UV-I 548 W/m² -0,2 °C -2,3 °C 19,3 km/h (3 Bft)
23.02.2019 13:17 0,9 °C 93 % 1036,4 hPa 0,0 mm 11,9 km/h (2 Bft) O 92 ° 0 min 0,000 mm 2,9 UV-I 554 W/m² -0,1 °C -2,7 °C 19,3 km/h (3 Bft)
23.02.2019 13:18 0,9 °C 92 % 1036,4 hPa 0,0 mm 5,4 km/h (1 Bft) O 79 ° 0 min 0,000 mm 2,9 UV-I 555 W/m² -0,2 °C -0,7 °C 9,7 km/h (2 Bft)
23.02.2019 13:19 0,9 °C 92 % 1036,4 hPa 0,0 mm 8,4 km/h (2 Bft) O 86 ° 0 min 0,000 mm 2,8 UV-I 554 W/m² -0,2 °C -1,8 °C 12,9 km/h (3 Bft)
23.02.2019 13:20 1,0 °C 92 % 1036,4 hPa 0,0 mm 8,1 km/h (2 Bft) O-NO 72 ° 0 min 0,000 mm 2,9 UV-I 555 W/m² -0,2 °C -1,6 °C 12,9 km/h (3 Bft)
23.02.2019 13:21 1,0 °C 92 % 1036,3 hPa 0,0 mm 6,1 km/h (2 Bft) NO 44 ° 0 min 0,000 mm 2,9 UV-I 552 W/m² -0,2 °C -0,9 °C 9,7 km/h (2 Bft)
23.02.2019 13:22 1,1 °C 92 % 1036,3 hPa 0,0 mm 9,1 km/h (2 Bft) NO 45 ° 0 min 0,000 mm 2,8 UV-I 552 W/m² -0,1 °C -1,8 °C 12,9 km/h (3 Bft)
23.02.2019 13:23 1,2 °C 91 % 1036,3 hPa 0,0 mm 13,9 km/h (3 Bft) NO 44 ° 0 min 0,000 mm 2,8 UV-I 554 W/m² -0,1 °C -2,7 °C 17,7 km/h (3 Bft)
23.02.2019 13:24 1,2 °C 91 % 1036,3 hPa 0,0 mm 12,8 km/h (3 Bft) O-NO 75 ° 0 min 0,000 mm 2,8 UV-I 554 W/m² -0,1 °C -2,5 °C 19,3 km/h (3 Bft)
23.02.2019 13:25 1,3 °C 91 % 1036,3 hPa 0,0 mm 9,7 km/h (2 Bft) O 88 ° 0 min 0,000 mm 2,8 UV-I 547 W/m² -0,0 °C -1,7 °C 16,1 km/h (3 Bft)
23.02.2019 13:26 1,3 °C 90 % 1036,3 hPa 0,0 mm 10,7 km/h (2 Bft) NO 40 ° 0 min 0,000 mm 2,8 UV-I 552 W/m² -0,2 °C -1,9 °C 22,5 km/h (4 Bft)
23.02.2019 13:27 1,3 °C 90 % 1036,3 hPa 0,0 mm 13,1 km/h (3 Bft) NO 55 ° 0 min 0,000 mm 2,8 UV-I 550 W/m² -0,2 °C -2,5 °C 19,3 km/h (3 Bft)
23.02.2019 13:28 1,3 °C 89 % 1036,3 hPa 0,0 mm 6,8 km/h (2 Bft) O-NO 64 ° 0 min 0,000 mm 2,8 UV-I 552 W/m² -0,3 °C -0,8 °C 11,3 km/h (2 Bft)
23.02.2019 13:29 1,4 °C 89 % 1036,3 hPa 0,0 mm 8,5 km/h (2 Bft) NO 48 ° 0 min 0,000 mm 2,8 UV-I 550 W/m² -0,2 °C -1,2 °C 16,1 km/h (3 Bft)
23.02.2019 13:30 1,4 °C 89 % 1036,4 hPa 0,0 mm 11,5 km/h (2 Bft) O-NO 78 ° 0 min 0,000 mm 2,8 UV-I 552 W/m² -0,2 °C -2,0 °C 19,3 km/h (3 Bft)
23.02.2019 13:31 1,5 °C 88 % 1036,4 hPa 0,0 mm 8,4 km/h (2 Bft) O-NO 71 ° 0 min 0,000 mm 2,8 UV-I 550 W/m² -0,3 °C -1,1 °C 14,5 km/h (3 Bft)
23.02.2019 13:32 1,6 °C 88 % 1036,3 hPa 0,0 mm 8,2 km/h (2 Bft) O 85 ° 0 min 0,000 mm 2,8 UV-I 545 W/m² -0,2 °C -0,9 °C 14,5 km/h (3 Bft)
23.02.2019 13:33 1,6 °C 88 % 1036,3 hPa 0,0 mm 7,3 km/h (2 Bft) O 84 ° 0 min 0,000 mm 2,8 UV-I 548 W/m² -0,2 °C -0,6 °C 16,1 km/h (3 Bft)
23.02.2019 13:34 1,6 °C 88 % 1036,3 hPa 0,0 mm 3,4 km/h (1 Bft) O 92 ° 0 min 0,000 mm 2,7 UV-I 543 W/m² -0,2 °C 1,6 °C 6,4 km/h (2 Bft)
23.02.2019 13:35 1,5 °C 88 % 1036,3 hPa 0,0 mm 5,5 km/h (1 Bft) O-NO 57 ° 0 min 0,000 mm 2,6 UV-I 536 W/m² -0,3 °C -0,1 °C 11,3 km/h (2 Bft)
23.02.2019 13:36 1,5 °C 88 % 1036,4 hPa 0,0 mm 7,9 km/h (2 Bft) O 94 ° 0 min 0,000 mm 2,7 UV-I 533 W/m² -0,3 °C -0,9 °C 16,1 km/h (3 Bft)
23.02.2019 13:37 1,5 °C 89 % 1036,3 hPa 0,0 mm 7,4 km/h (2 Bft) NO 55 ° 0 min 0,000 mm 2,6 UV-I 526 W/m² -0,1 °C -0,8 °C 11,3 km/h (2 Bft)
23.02.2019 13:38 1,5 °C 89 % 1036,3 hPa 0,0 mm 9,1 km/h (2 Bft) O 88 ° 0 min 0,000 mm 2,6 UV-I 524 W/m² -0,1 °C -1,3 °C 14,5 km/h (3 Bft)
23.02.2019 13:39 1,4 °C 89 % 1036,3 hPa 0,0 mm 4,8 km/h (1 Bft) O-NO 75 ° 0 min 0,000 mm 2,6 UV-I 519 W/m² -0,2 °C 0,1 °C 6,4 km/h (2 Bft)
23.02.2019 13:40 1,5 °C 89 % 1036,3 hPa 0,0 mm 5,8 km/h (2 Bft) O-NO 58 ° 0 min 0,000 mm 2,6 UV-I 519 W/m² -0,1 °C -0,2 °C 9,7 km/h (2 Bft)
23.02.2019 13:41 1,6 °C 89 % 1036,3 hPa 0,0 mm 12,2 km/h (2 Bft) O-NO 68 ° 0 min 0,000 mm 2,7 UV-I 524 W/m² -0,0 °C -1,9 °C 17,7 km/h (3 Bft)
23.02.2019 13:42 1,7 °C 88 % 1036,3 hPa 0,0 mm 7,4 km/h (2 Bft) NO 36 ° 0 min 0,000 mm 2,6 UV-I 519 W/m² -0,1 °C -0,6 °C 14,5 km/h (3 Bft)
23.02.2019 13:43 1,7 °C 88 % 1036,2 hPa 0,0 mm 11,6 km/h (2 Bft) O-NO 61 ° 0 min 0,000 mm 2,6 UV-I 517 W/m² -0,1 °C -1,7 °C 19,3 km/h (3 Bft)
23.02.2019 13:44 1,7 °C 87 % 1036,2 hPa 0,0 mm 8,9 km/h (2 Bft) O-NO 60 ° 0 min 0,000 mm 2,7 UV-I 524 W/m² -0,2 °C -1,0 °C 16,1 km/h (3 Bft)
23.02.2019 13:45 1,8 °C 88 % 1036,2 hPa 0,0 mm 9,9 km/h (2 Bft) O-NO 57 ° 0 min 0,000 mm 2,7 UV-I 534 W/m² 0,0 °C -1,1 °C 16,1 km/h (3 Bft)
23.02.2019 13:46 1,8 °C 88 % 1036,2 hPa 0,0 mm 9,4 km/h (2 Bft) O-NO 72 ° 0 min 0,000 mm 2,7 UV-I 529 W/m² 0,0 °C -1,0 °C 19,3 km/h (3 Bft)
23.02.2019 13:47 1,9 °C 87 % 1036,2 hPa 0,0 mm 8,2 km/h (2 Bft) O-SO 105 ° 0 min 0,000 mm 2,7 UV-I 533 W/m² -0,0 °C -0,6 °C 17,7 km/h (3 Bft)
23.02.2019 13:48 1,9 °C 87 % 1036,2 hPa 0,0 mm 11,8 km/h (2 Bft) O-NO 70 ° 0 min 0,000 mm 2,7 UV-I 527 W/m² -0,0 °C -1,5 °C 16,1 km/h (3 Bft)
23.02.2019 13:49 1,9 °C 87 % 1036,2 hPa 0,0 mm 13,2 km/h (3 Bft) N-NO 33 ° 0 min 0,000 mm 2,7 UV-I 529 W/m² -0,0 °C -1,7 °C 19,3 km/h (3 Bft)
23.02.2019 13:50 1,9 °C 87 % 1036,2 hPa 0,0 mm 10,1 km/h (2 Bft) NO 52 ° 0 min 0,000 mm 2,7 UV-I 524 W/m² -0,0 °C -1,1 °C 19,3 km/h (3 Bft)
23.02.2019 13:51 2,0 °C 86 % 1036,3 hPa 0,0 mm 9,6 km/h (2 Bft) O 98 ° 0 min 0,000 mm 2,7 UV-I 526 W/m² -0,1 °C -0,8 °C 16,1 km/h (3 Bft)
23.02.2019 13:52 2,0 °C 86 % 1036,3 hPa 0,0 mm 9,1 km/h (2 Bft) O 80 ° 0 min 0,000 mm 2,6 UV-I 519 W/m² -0,1 °C -0,7 °C 12,9 km/h (3 Bft)
23.02.2019 13:53 2,1 °C 86 % 1036,3 hPa 0,0 mm 6,4 km/h (2 Bft) O-NO 72 ° 0 min 0,000 mm 2,6 UV-I 522 W/m² 0,0 °C 0,2 °C 11,3 km/h (2 Bft)
23.02.2019 13:54 2,1 °C 86 % 1036,3 hPa 0,0 mm 6,7 km/h (2 Bft) O 90 ° 0 min 0,000 mm 2,6 UV-I 522 W/m² 0,0 °C 0,1 °C 12,9 km/h (3 Bft)
23.02.2019 13:55 2,1 °C 86 % 1036,3 hPa 0,0 mm 11,1 km/h (2 Bft) O-NO 60 ° 0 min 0,000 mm 2,6 UV-I 522 W/m² 0,0 °C -1,1 °C 17,7 km/h (3 Bft)
23.02.2019 13:56 2,2 °C 86 % 1036,3 hPa 0,0 mm 9,8 km/h (2 Bft) O 101 ° 0 min 0,000 mm 2,6 UV-I 519 W/m² 0,1 °C -0,6 °C 14,5 km/h (3 Bft)
23.02.2019 13:57 2,2 °C 85 % 1036,3 hPa 0,0 mm 9,4 km/h (2 Bft) O 81 ° 0 min 0,000 mm 2,6 UV-I 519 W/m² -0,1 °C -0,5 °C 17,7 km/h (3 Bft)
23.02.2019 13:58 2,2 °C 84 % 1036,3 hPa 0,0 mm 10,9 km/h (2 Bft) O-NO 66 ° 0 min 0,000 mm 2,6 UV-I 517 W/m² -0,2 °C -0,9 °C 20,9 km/h (4 Bft)
23.02.2019 13:59 2,2 °C 84 % 1036,3 hPa 0,0 mm 15,5 km/h (3 Bft) O 79 ° 0 min 0,000 mm 2,6 UV-I 515 W/m² -0,2 °C -1,8 °C 24,1 km/h (4 Bft)
23.02.2019 14:00 2,2 °C 84 % 1036,2 hPa 0,0 mm 11,7 km/h (2 Bft) NO 34 ° 0 min 0,000 mm 2,6 UV-I 512 W/m² -0,2 °C -1,1 °C 19,3 km/h (3 Bft)
23.02.2019 14:01 2,1 °C 84 % 1036,2 hPa 0,0 mm 12,2 km/h (2 Bft) NO 54 ° 0 min 0,203 mm 2,6 UV-I 515 W/m² -0,3 °C -1,3 °C 16,1 km/h (3 Bft)
23.02.2019 14:02 2,1 °C 84 % 1036,2 hPa 0,0 mm 13,7 km/h (3 Bft) N-NO 25 ° 0 min 0,000 mm 2,6 UV-I 519 W/m² -0,3 °C -1,6 °C 17,7 km/h (3 Bft)
23.02.2019 14:03 2,2 °C 84 % 1036,2 hPa 0,0 mm 11,9 km/h (2 Bft) NO 49 ° 0 min 0,000 mm 2,5 UV-I 499 W/m² -0,2 °C -1,1 °C 17,7 km/h (3 Bft)
23.02.2019 14:04 2,1 °C 83 % 1036,2 hPa 0,0 mm 15,2 km/h (3 Bft) NO 48 ° 0 min 0,000 mm 2,5 UV-I 501 W/m² -0,5 °C -1,9 °C 25,7 km/h (4 Bft)
23.02.2019 14:05 2,1 °C 83 % 1036,2 hPa 0,0 mm 10,5 km/h (2 Bft) O-NO 69 ° 0 min 0,000 mm 2,5 UV-I 492 W/m² -0,5 °C -0,9 °C 14,5 km/h (3 Bft)
23.02.2019 14:06 2,1 °C 84 % 1036,2 hPa 0,0 mm 10,1 km/h (2 Bft) NO 53 ° 0 min 0,000 mm 2,5 UV-I 499 W/m² -0,3 °C -0,8 °C 17,7 km/h (3 Bft)
23.02.2019 14:07 2,1 °C 85 % 1036,2 hPa 0,0 mm 8,5 km/h (2 Bft) O-NO 68 ° 0 min 0,000 mm 2,4 UV-I 501 W/m² -0,2 °C -0,4 °C 16,1 km/h (3 Bft)
23.02.2019 14:08 2,1 °C 84 % 1036,2 hPa 0,0 mm 11,4 km/h (2 Bft) O 89 ° 0 min 0,000 mm 2,4 UV-I 497 W/m² -0,3 °C -1,1 °C 17,7 km/h (3 Bft)
23.02.2019 14:09 2,2 °C 84 % 1036,2 hPa 0,0 mm 16,8 km/h (3 Bft) O-NO 78 ° 0 min 0,000 mm 2,4 UV-I 489 W/m² -0,2 °C -2,0 °C 24,1 km/h (4 Bft)
23.02.2019 14:10 2,2 °C 84 % 1036,2 hPa 0,0 mm 11,7 km/h (2 Bft) O-NO 64 ° 0 min 0,000 mm 2,4 UV-I 483 W/m² -0,2 °C -1,1 °C 20,9 km/h (4 Bft)
23.02.2019 14:11 2,2 °C 84 % 1036,2 hPa 0,0 mm 12,1 km/h (2 Bft) O-NO 67 ° 0 min 0,000 mm 2,4 UV-I 480 W/m² -0,2 °C -1,2 °C 16,1 km/h (3 Bft)
23.02.2019 14:12 2,2 °C 84 % 1036,2 hPa 0,0 mm 9,9 km/h (2 Bft) O 98 ° 0 min 0,000 mm 2,4 UV-I 476 W/m² -0,2 °C -0,7 °C 17,7 km/h (3 Bft)
23.02.2019 14:13 2,2 °C 84 % 1036,1 hPa 0,0 mm 6,2 km/h (2 Bft) O-SO 105 ° 0 min 0,000 mm 2,4 UV-I 476 W/m² -0,2 °C 0,4 °C 12,9 km/h (3 Bft)
23.02.2019 14:14 2,2 °C 84 % 1036,2 hPa 0,0 mm 11,5 km/h (2 Bft) O-NO 62 ° 0 min 0,000 mm 2,4 UV-I 478 W/m² -0,2 °C -1,0 °C 14,5 km/h (3 Bft)
23.02.2019 14:15 2,1 °C 84 % 1036,1 hPa 0,0 mm 14,4 km/h (3 Bft) O 83 ° 0 min 0,000 mm 2,3 UV-I 462 W/m² -0,3 °C -1,7 °C 19,3 km/h (3 Bft)
23.02.2019 14:16 2,1 °C 84 % 1036,1 hPa 0,0 mm 15,6 km/h (3 Bft) O 90 ° 0 min 0,000 mm 2,3 UV-I 478 W/m² -0,3 °C -1,9 °C 19,3 km/h (3 Bft)
23.02.2019 14:17 2,0 °C 83 % 1036,1 hPa 0,0 mm 11,0 km/h (2 Bft) O 98 ° 0 min 0,000 mm 2,3 UV-I 475 W/m² -0,6 °C -1,2 °C 17,7 km/h (3 Bft)
23.02.2019 14:18 2,0 °C 83 % 1036,1 hPa 0,0 mm 13,1 km/h (3 Bft) O-NO 59 ° 0 min 0,000 mm 2,3 UV-I 476 W/m² -0,6 °C -1,6 °C 17,7 km/h (3 Bft)
23.02.2019 14:19 2,0 °C 83 % 1036,1 hPa 0,0 mm 10,9 km/h (2 Bft) O 85 ° 0 min 0,000 mm 2,3 UV-I 478 W/m² -0,6 °C -1,1 °C 14,5 km/h (3 Bft)
23.02.2019 14:20 2,1 °C 83 % 1036,1 hPa 0,0 mm 14,6 km/h (3 Bft) NO 52 ° 0 min 0,000 mm 2,3 UV-I 478 W/m² -0,5 °C -1,8 °C 19,3 km/h (3 Bft)
23.02.2019 14:21 2,1 °C 82 % 1036,1 hPa 0,0 mm 9,5 km/h (2 Bft) O-NO 63 ° 0 min 0,000 mm 2,3 UV-I 480 W/m² -0,6 °C -0,7 °C 16,1 km/h (3 Bft)
23.02.2019 14:22 2,2 °C 83 % 1036,1 hPa 0,0 mm 5,8 km/h (2 Bft) NO 54 ° 0 min 0,000 mm 2,3 UV-I 480 W/m² -0,4 °C 0,6 °C 11,3 km/h (2 Bft)
23.02.2019 14:23 2,3 °C 83 % 1036,1 hPa 0,0 mm 8,0 km/h (2 Bft) O 85 ° 0 min 0,000 mm 2,3 UV-I 480 W/m² -0,3 °C -0,0 °C 12,9 km/h (3 Bft)
23.02.2019 14:24 2,3 °C 83 % 1036,1 hPa 0,0 mm 9,7 km/h (2 Bft) NO 38 ° 0 min 0,000 mm 2,3 UV-I 480 W/m² -0,3 °C -0,5 °C 14,5 km/h (3 Bft)
23.02.2019 14:25 2,2 °C 83 % 1036,1 hPa 0,0 mm 13,6 km/h (3 Bft) O 96 ° 0 min 0,000 mm 2,2 UV-I 462 W/m² -0,4 °C -1,5 °C 20,9 km/h (4 Bft)
23.02.2019 14:26 2,2 °C 82 % 1036,1 hPa 0,0 mm 10,1 km/h (2 Bft) O-NO 59 ° 0 min 0,000 mm 2,2 UV-I 473 W/m² -0,5 °C -0,7 °C 19,3 km/h (3 Bft)
23.02.2019 14:27 2,2 °C 82 % 1036,1 hPa 0,0 mm 13,7 km/h (3 Bft) O-NO 62 ° 0 min 0,000 mm 2,3 UV-I 471 W/m² -0,5 °C -1,5 °C 17,7 km/h (3 Bft)
23.02.2019 14:28 2,2 °C 82 % 1036,1 hPa 0,0 mm 8,2 km/h (2 Bft) O 98 ° 0 min 0,000 mm 2,3 UV-I 471 W/m² -0,5 °C -0,2 °C 14,5 km/h (3 Bft)
23.02.2019 14:29 2,2 °C 82 % 1036,1 hPa 0,0 mm 9,2 km/h (2 Bft) O-SO 105 ° 0 min 0,000 mm 2,2 UV-I 469 W/m² -0,5 °C -0,5 °C 14,5 km/h (3 Bft)
23.02.2019 14:30 2,1 °C 83 % 1036,0 hPa 0,0 mm 6,1 km/h (2 Bft) O-NO 59 ° 0 min 0,000 mm 2,2 UV-I 469 W/m² -0,5 °C 0,4 °C 19,3 km/h (3 Bft)
23.02.2019 14:31 2,1 °C 83 % 1036,0 hPa 0,0 mm 10,0 km/h (2 Bft) O-SO 121 ° 0 min 0,000 mm 2,2 UV-I 466 W/m² -0,5 °C -0,8 °C 19,3 km/h (3 Bft)
23.02.2019 14:32 2,1 °C 83 % 1036,1 hPa 0,0 mm 10,9 km/h (2 Bft) O 96 ° 0 min 0,000 mm 2,2 UV-I 462 W/m² -0,5 °C -1,0 °C 16,1 km/h (3 Bft)
23.02.2019 14:33 2,1 °C 84 % 1036,0 hPa 0,0 mm 6,1 km/h (2 Bft) NO 56 ° 0 min 0,000 mm 2,2 UV-I 459 W/m² -0,3 °C 0,4 °C 12,9 km/h (3 Bft)
23.02.2019 14:34 2,1 °C 84 % 1036,0 hPa 0,0 mm 7,2 km/h (2 Bft) O-NO 75 ° 0 min 0,000 mm 2,2 UV-I 459 W/m² -0,3 °C -0,0 °C 11,3 km/h (2 Bft)
23.02.2019 14:35 2,1 °C 84 % 1036,0 hPa 0,0 mm 4,2 km/h (1 Bft) O-NO 77 ° 0 min 0,000 mm 2,1 UV-I 446 W/m² -0,3 °C 2,1 °C 6,4 km/h (2 Bft)
23.02.2019 14:36 2,1 °C 84 % 1036,0 hPa 0,0 mm 1,8 km/h (1 Bft) NO 45 ° 0 min 0,000 mm 2,1 UV-I 439 W/m² -0,3 °C 2,1 °C 4,8 km/h (1 Bft)
23.02.2019 14:37 2,0 °C 85 % 1036,0 hPa 0,0 mm 6,3 km/h (2 Bft) NO 48 ° 0 min 0,000 mm 2,1 UV-I 448 W/m² -0,3 °C 0,2 °C 9,7 km/h (2 Bft)
23.02.2019 14:38 2,1 °C 85 % 1035,9 hPa 0,0 mm 10,4 km/h (2 Bft) O 80 ° 0 min 0,000 mm 2,1 UV-I 446 W/m² -0,2 °C -0,9 °C 17,7 km/h (3 Bft)
23.02.2019 14:39 2,2 °C 84 % 1035,9 hPa 0,0 mm 11,1 km/h (2 Bft) O-NO 77 ° 0 min 0,000 mm 2,1 UV-I 432 W/m² -0,2 °C -0,9 °C 19,3 km/h (3 Bft)
23.02.2019 14:40 2,2 °C 84 % 1036,0 hPa 0,0 mm 10,7 km/h (2 Bft) O-NO 67 ° 0 min 0,000 mm 2,1 UV-I 441 W/m² -0,2 °C -0,9 °C 17,7 km/h (3 Bft)
23.02.2019 14:41 2,3 °C 83 % 1035,9 hPa 0,0 mm 10,1 km/h (2 Bft) O-NO 64 ° 0 min 0,000 mm 2,1 UV-I 431 W/m² -0,3 °C -0,6 °C 19,3 km/h (3 Bft)
23.02.2019 14:42 2,3 °C 82 % 1035,9 hPa 0,0 mm 7,6 km/h (2 Bft) O-NO 63 ° 0 min 0,000 mm 2,1 UV-I 431 W/m² -0,4 °C 0,1 °C 11,3 km/h (2 Bft)
23.02.2019 14:43 2,3 °C 82 % 1036,0 hPa 0,0 mm 12,4 km/h (3 Bft) O-NO 61 ° 0 min 0,000 mm 2,1 UV-I 434 W/m² -0,4 °C -1,1 °C 17,7 km/h (3 Bft)
23.02.2019 14:44 2,3 °C 82 % 1035,9 hPa 0,0 mm 11,3 km/h (2 Bft) NO 55 ° 0 min 0,000 mm 2,0 UV-I 420 W/m² -0,4 °C -0,9 °C 16,1 km/h (3 Bft)
23.02.2019 14:45 2,3 °C 82 % 1035,9 hPa 0,0 mm 8,6 km/h (2 Bft) O 96 ° 0 min 0,000 mm 2,0 UV-I 425 W/m² -0,4 °C -0,2 °C 12,9 km/h (3 Bft)
23.02.2019 14:46 2,3 °C 82 % 1035,9 hPa 0,0 mm 11,9 km/h (2 Bft) O-NO 73 ° 0 min 0,000 mm 2,0 UV-I 418 W/m² -0,4 °C -1,0 °C 20,9 km/h (4 Bft)
23.02.2019 14:47 2,4 °C 82 % 1035,8 hPa 0,0 mm 10,5 km/h (2 Bft) O 80 ° 0 min 0,000 mm 2,0 UV-I 408 W/m² -0,4 °C -0,6 °C 14,5 km/h (3 Bft)
23.02.2019 14:48 2,4 °C 82 % 1035,8 hPa 0,0 mm 8,3 km/h (2 Bft) NO 42 ° 0 min 0,000 mm 2,0 UV-I 410 W/m² -0,4 °C -0,0 °C 12,9 km/h (3 Bft)
23.02.2019 14:49 2,4 °C 83 % 1035,8 hPa 0,0 mm 3,8 km/h (1 Bft) O-NO 71 ° 0 min 0,000 mm 1,9 UV-I 406 W/m² -0,2 °C 2,4 °C 4,8 km/h (1 Bft)
23.02.2019 14:50 2,4 °C 83 % 1035,8 hPa 0,0 mm 3,5 km/h (1 Bft) O-NO 61 ° 0 min 0,000 mm 1,9 UV-I 410 W/m² -0,2 °C 2,4 °C 4,8 km/h (1 Bft)
23.02.2019 14:51 2,4 °C 83 % 1035,8 hPa 0,0 mm 4,0 km/h (1 Bft) NO 34 ° 0 min 0,000 mm 1,9 UV-I 403 W/m² -0,2 °C 2,4 °C 9,7 km/h (2 Bft)
23.02.2019 14:52 2,4 °C 83 % 1035,8 hPa 0,0 mm 6,4 km/h (2 Bft) O-NO 64 ° 0 min 0,000 mm 1,9 UV-I 401 W/m² -0,2 °C 0,6 °C 16,1 km/h (3 Bft)
23.02.2019 14:53 2,4 °C 82 % 1035,8 hPa 0,0 mm 10,3 km/h (2 Bft) O-NO 65 ° 0 min 0,000 mm 1,9 UV-I 401 W/m² -0,4 °C -0,5 °C 12,9 km/h (3 Bft)
23.02.2019 14:54 2,4 °C 82 % 1035,8 hPa 0,0 mm 11,4 km/h (2 Bft) O-NO 70 ° 0 min 0,000 mm 1,9 UV-I 404 W/m² -0,4 °C -0,8 °C 17,7 km/h (3 Bft)
23.02.2019 14:55 2,4 °C 82 % 1035,8 hPa 0,0 mm 11,1 km/h (2 Bft) SO 124 ° 0 min 0,000 mm 1,9 UV-I 401 W/m² -0,4 °C -0,7 °C 16,1 km/h (3 Bft)
23.02.2019 14:56 2,4 °C 82 % 1035,8 hPa 0,0 mm 9,1 km/h (2 Bft) O-NO 70 ° 0 min 0,000 mm 1,9 UV-I 394 W/m² -0,4 °C -0,2 °C 16,1 km/h (3 Bft)
23.02.2019 14:57 2,4 °C 82 % 1035,9 hPa 0,0 mm 6,8 km/h (2 Bft) O 79 ° 0 min 0,000 mm 1,9 UV-I 399 W/m² -0,4 °C 0,5 °C 12,9 km/h (3 Bft)
23.02.2019 14:58 2,4 °C 82 % 1035,8 hPa 0,0 mm 6,0 km/h (2 Bft) O-NO 74 ° 0 min 0,000 mm 1,9 UV-I 401 W/m² -0,4 °C 0,7 °C 11,3 km/h (2 Bft)
23.02.2019 14:59 2,4 °C 83 % 1035,8 hPa 0,0 mm 2,9 km/h (1 Bft) NO 44 ° 0 min 0,000 mm 1,8 UV-I 401 W/m² -0,2 °C 2,4 °C 12,9 km/h (3 Bft)
23.02.2019 15:00 2,4 °C 83 % 1035,8 hPa 0,0 mm 7,3 km/h (2 Bft) O 95 ° 0 min 0,000 mm 1,8 UV-I 403 W/m² -0,2 °C 0,3 °C 14,5 km/h (3 Bft)
23.02.2019 15:01 2,4 °C 82 % 1035,7 hPa 0,0 mm 14,1 km/h (3 Bft) O 79 ° 0 min 0,178 mm 1,8 UV-I 399 W/m² -0,4 °C -1,3 °C 19,3 km/h (3 Bft)
23.02.2019 15:02 2,3 °C 83 % 1035,8 hPa 0,0 mm 7,7 km/h (2 Bft) O 94 ° 0 min 0,000 mm 1,8 UV-I 401 W/m² -0,3 °C 0,1 °C 14,5 km/h (3 Bft)
23.02.2019 15:03 2,3 °C 83 % 1035,8 hPa 0,0 mm 4,6 km/h (1 Bft) O-NO 64 ° 0 min 0,000 mm 1,8 UV-I 401 W/m² -0,3 °C 1,2 °C 9,7 km/h (2 Bft)
23.02.2019 15:04 2,3 °C 82 % 1035,8 hPa 0,0 mm 9,8 km/h (2 Bft) NO 56 ° 0 min 0,000 mm 1,8 UV-I 397 W/m² -0,4 °C -0,5 °C 14,5 km/h (3 Bft)
23.02.2019 15:05 2,4 °C 82 % 1035,8 hPa 0,0 mm 11,0 km/h (2 Bft) O 94 ° 0 min 0,000 mm 1,8 UV-I 397 W/m² -0,4 °C -0,7 °C 19,3 km/h (3 Bft)
23.02.2019 15:06 2,3 °C 82 % 1035,8 hPa 0,0 mm 6,5 km/h (2 Bft) SO 134 ° 0 min 0,000 mm 1,8 UV-I 397 W/m² -0,4 °C 0,4 °C 11,3 km/h (2 Bft)
23.02.2019 15:07 2,3 °C 83 % 1035,8 hPa 0,0 mm 5,9 km/h (2 Bft) O-NO 65 ° 0 min 0,000 mm 1,8 UV-I 392 W/m² -0,3 °C 0,7 °C 11,3 km/h (2 Bft)
23.02.2019 15:08 2,3 °C 82 % 1035,8 hPa 0,0 mm 7,8 km/h (2 Bft) O-NO 59 ° 0 min 0,000 mm 1,7 UV-I 390 W/m² -0,4 °C 0,0 °C 12,9 km/h (3 Bft)
23.02.2019 15:09 2,4 °C 82 % 1035,8 hPa 0,0 mm 12,9 km/h (3 Bft) O-NO 76 ° 0 min 0,000 mm 1,7 UV-I 392 W/m² -0,4 °C -1,1 °C 19,3 km/h (3 Bft)
23.02.2019 15:10 2,4 °C 81 % 1035,8 hPa 0,0 mm 13,3 km/h (3 Bft) N-NO 27 ° 0 min 0,000 mm 1,7 UV-I 388 W/m² -0,5 °C -1,2 °C 20,9 km/h (4 Bft)
23.02.2019 15:11 2,4 °C 79 % 1035,8 hPa 0,0 mm 13,1 km/h (3 Bft) O-NO 76 ° 0 min 0,000 mm 1,7 UV-I 385 W/m² -0,9 °C -1,1 °C 20,9 km/h (4 Bft)
23.02.2019 15:12 2,5 °C 78 % 1035,8 hPa 0,0 mm 17,0 km/h (3 Bft) O-NO 76 ° 0 min 0,000 mm 1,7 UV-I 380 W/m² -0,9 °C -1,7 °C 22,5 km/h (4 Bft)
23.02.2019 15:13 2,5 °C 75 % 1035,8 hPa 0,0 mm 13,7 km/h (3 Bft) O-SO 103 ° 0 min 0,000 mm 1,7 UV-I 369 W/m² -1,5 °C -1,1 °C 17,7 km/h (3 Bft)
23.02.2019 15:14 2,6 °C 74 % 1035,8 hPa 0,0 mm 9,7 km/h (2 Bft) O-NO 60 ° 0 min 0,000 mm 1,6 UV-I 364 W/m² -1,6 °C -0,1 °C 17,7 km/h (3 Bft)
23.02.2019 15:15 2,6 °C 74 % 1035,8 hPa 0,0 mm 12,5 km/h (3 Bft) O-NO 67 ° 0 min 0,000 mm 1,6 UV-I 355 W/m² -1,6 °C -0,8 °C 22,5 km/h (4 Bft)
23.02.2019 15:16 2,5 °C 75 % 1035,8 hPa 0,0 mm 12,6 km/h (3 Bft) O-SO 109 ° 0 min 0,000 mm 1,6 UV-I 364 W/m² -1,5 °C -0,9 °C 20,9 km/h (4 Bft)
23.02.2019 15:17 2,4 °C 74 % 1035,8 hPa 0,0 mm 9,0 km/h (2 Bft) NO 47 ° 0 min 0,000 mm 1,6 UV-I 367 W/m² -1,7 °C -0,2 °C 14,5 km/h (3 Bft)
23.02.2019 15:18 2,4 °C 75 % 1035,8 hPa 0,0 mm 9,5 km/h (2 Bft) O-NO 61 ° 0 min 0,000 mm 1,6 UV-I 362 W/m² -1,6 °C -0,3 °C 17,7 km/h (3 Bft)
23.02.2019 15:19 2,3 °C 76 % 1035,9 hPa 0,0 mm 8,5 km/h (2 Bft) O 82 ° 0 min 0,000 mm 1,6 UV-I 360 W/m² -1,5 °C -0,2 °C 14,5 km/h (3 Bft)
23.02.2019 15:20 2,3 °C 76 % 1035,9 hPa 0,0 mm 11,5 km/h (2 Bft) O-NO 76 ° 0 min 0,000 mm 1,5 UV-I 357 W/m² -1,5 °C -0,9 °C 16,1 km/h (3 Bft)
23.02.2019 15:21 2,3 °C 75 % 1035,9 hPa 0,0 mm 6,0 km/h (2 Bft) O-SO 104 ° 0 min 0,000 mm 1,5 UV-I 352 W/m² -1,7 °C 0,6 °C 14,5 km/h (3 Bft)
23.02.2019 15:22 2,3 °C 75 % 1036,0 hPa 0,0 mm 7,8 km/h (2 Bft) O-NO 58 ° 0 min 0,000 mm 1,5 UV-I 346 W/m² -1,7 °C 0,0 °C 17,7 km/h (3 Bft)
23.02.2019 15:23 2,3 °C 74 % 1036,0 hPa 0,0 mm 10,3 km/h (2 Bft) O-NO 75 ° 0 min 0,000 mm 1,5 UV-I 341 W/m² -1,8 °C -0,6 °C 20,9 km/h (4 Bft)
23.02.2019 15:24 2,4 °C 74 % 1036,0 hPa 0,0 mm 12,3 km/h (3 Bft) SO 143 ° 0 min 0,000 mm 1,5 UV-I 343 W/m² -1,7 °C -1,0 °C 17,7 km/h (3 Bft)
23.02.2019 15:25 2,3 °C 76 % 1036,0 hPa 0,0 mm 7,2 km/h (2 Bft) N-NO 33 ° 0 min 0,000 mm 1,5 UV-I 338 W/m² -1,5 °C 0,2 °C 9,7 km/h (2 Bft)
23.02.2019 15:26 2,3 °C 76 % 1036,0 hPa 0,0 mm 7,2 km/h (2 Bft) O-NO 67 ° 0 min 0,000 mm 1,5 UV-I 341 W/m² -1,5 °C 0,2 °C 9,7 km/h (2 Bft)
23.02.2019 15:27 2,3 °C 75 % 1036,0 hPa 0,0 mm 8,6 km/h (2 Bft) O 96 ° 0 min 0,000 mm 1,4 UV-I 336 W/m² -1,7 °C -0,2 °C 14,5 km/h (3 Bft)
23.02.2019 15:28 2,3 °C 75 % 1035,9 hPa 0,0 mm 5,6 km/h (1 Bft) O-NO 73 ° 0 min 0,000 mm 1,5 UV-I 338 W/m² -1,7 °C 0,8 °C 12,9 km/h (3 Bft)
23.02.2019 15:29 2,3 °C 75 % 1036,0 hPa 0,0 mm 9,3 km/h (2 Bft) O-NO 69 ° 0 min 0,000 mm 1,4 UV-I 329 W/m² -1,7 °C -0,4 °C 14,5 km/h (3 Bft)
23.02.2019 15:30 2,3 °C 75 % 1036,0 hPa 0,0 mm 8,0 km/h (2 Bft) O-NO 73 ° 0 min 0,000 mm 1,4 UV-I 341 W/m² -1,7 °C -0,0 °C 14,5 km/h (3 Bft)
23.02.2019 15:31 2,3 °C 75 % 1036,0 hPa 0,0 mm 5,3 km/h (1 Bft) O-NO 61 ° 0 min 0,000 mm 1,4 UV-I 323 W/m² -1,7 °C 0,9 °C 9,7 km/h (2 Bft)
23.02.2019 15:32 2,4 °C 75 % 1035,9 hPa 0,0 mm 9,4 km/h (2 Bft) SO 126 ° 0 min 0,000 mm 1,4 UV-I 330 W/m² -1,6 °C -0,3 °C 14,5 km/h (3 Bft)
23.02.2019 15:33 2,4 °C 76 % 1035,8 hPa 0,0 mm 6,2 km/h (2 Bft) NO 40 ° 0 min 0,000 mm 1,4 UV-I 327 W/m² -1,4 °C 0,7 °C 14,5 km/h (3 Bft)
23.02.2019 15:34 2,3 °C 74 % 1035,9 hPa 0,0 mm 7,6 km/h (2 Bft) O-NO 75 ° 0 min 0,000 mm 1,3 UV-I 320 W/m² -1,8 °C 0,1 °C 14,5 km/h (3 Bft)
23.02.2019 15:35 2,3 °C 74 % 1035,8 hPa 0,0 mm 13,8 km/h (3 Bft) O 89 ° 0 min 0,000 mm 1,3 UV-I 297 W/m² -1,8 °C -1,4 °C 19,3 km/h (3 Bft)
23.02.2019 15:36 2,3 °C 73 % 1035,8 hPa 0,0 mm 10,9 km/h (2 Bft) O-NO 59 ° 0 min 0,000 mm 1,3 UV-I 311 W/m² -2,0 °C -0,8 °C 16,1 km/h (3 Bft)
23.02.2019 15:37 2,4 °C 73 % 1035,8 hPa 0,0 mm 11,4 km/h (2 Bft) O-NO 72 ° 0 min 0,000 mm 1,3 UV-I 306 W/m² -1,9 °C -0,8 °C 16,1 km/h (3 Bft)
23.02.2019 15:38 2,4 °C 72 % 1035,8 hPa 0,0 mm 9,7 km/h (2 Bft) O-NO 62 ° 0 min 0,000 mm 1,3 UV-I 290 W/m² -2,1 °C -0,4 °C 14,5 km/h (3 Bft)
23.02.2019 15:39 2,2 °C 75 % 1035,8 hPa 0,0 mm 6,6 km/h (2 Bft) O-NO 60 ° 0 min 0,000 mm 1,3 UV-I 288 W/m² -1,8 °C 0,3 °C 9,7 km/h (2 Bft)
23.02.2019 15:40 2,2 °C 76 % 1035,8 hPa 0,0 mm 7,9 km/h (2 Bft) NO 54 ° 0 min 0,000 mm 1,3 UV-I 297 W/m² -1,6 °C -0,1 °C 11,3 km/h (2 Bft)
23.02.2019 15:41 2,2 °C 75 % 1035,8 hPa 0,0 mm 10,3 km/h (2 Bft) O-NO 68 ° 0 min 0,000 mm 1,2 UV-I 290 W/m² -1,8 °C -0,8 °C 14,5 km/h (3 Bft)
23.02.2019 15:42 2,2 °C 76 % 1035,7 hPa 0,0 mm 8,8 km/h (2 Bft) O 84 ° 0 min 0,000 mm 1,2 UV-I 292 W/m² -1,6 °C -0,4 °C 14,5 km/h (3 Bft)
23.02.2019 15:43 2,2 °C 75 % 1035,7 hPa 0,0 mm 9,3 km/h (2 Bft) O-NO 59 ° 0 min 0,000 mm 1,2 UV-I 294 W/m² -1,8 °C -0,5 °C 16,1 km/h (3 Bft)
23.02.2019 15:44 2,2 °C 73 % 1035,7 hPa 0,0 mm 8,7 km/h (2 Bft) O-NO 68 ° 0 min 0,000 mm 1,2 UV-I 287 W/m² -2,1 °C -0,4 °C 14,5 km/h (3 Bft)
23.02.2019 15:45 2,3 °C 73 % 1035,7 hPa 0,0 mm 9,7 km/h (2 Bft) O-SO 108 ° 0 min 0,000 mm 1,2 UV-I 271 W/m² -2,0 °C -0,5 °C 16,1 km/h (3 Bft)
23.02.2019 15:46 2,3 °C 72 % 1035,7 hPa 0,0 mm 6,4 km/h (2 Bft) O-NO 67 ° 0 min 0,000 mm 1,1 UV-I 218 W/m² -2,2 °C 0,5 °C 12,9 km/h (3 Bft)
23.02.2019 15:47 2,3 °C 70 % 1035,7 hPa 0,0 mm 8,0 km/h (2 Bft) NO 49 ° 0 min 0,000 mm 1,0 UV-I 156 W/m² -2,6 °C -0,0 °C 14,5 km/h (3 Bft)
23.02.2019 15:48 2,3 °C 71 % 1035,7 hPa 0,0 mm 12,9 km/h (3 Bft) NO 55 ° 0 min 0,000 mm 1,0 UV-I 77 W/m² -2,4 °C -1,2 °C 17,7 km/h (3 Bft)
23.02.2019 15:49 2,3 °C 71 % 1035,6 hPa 0,0 mm 9,5 km/h (2 Bft) O 79 ° 0 min 0,000 mm 0,9 UV-I 69 W/m² -2,4 °C -0,4 °C 14,5 km/h (3 Bft)
23.02.2019 15:50 2,3 °C 71 % 1035,6 hPa 0,0 mm 8,6 km/h (2 Bft) O-NO 76 ° 0 min 0,000 mm 0,9 UV-I 70 W/m² -2,4 °C -0,2 °C 12,9 km/h (3 Bft)
23.02.2019 15:51 2,3 °C 72 % 1035,6 hPa 0,0 mm 4,1 km/h (1 Bft) O-NO 60 ° 0 min 0,000 mm 0,9 UV-I 70 W/m² -2,2 °C 2,3 °C 6,4 km/h (2 Bft)
23.02.2019 15:52 2,2 °C 73 % 1035,6 hPa 0,0 mm 9,0 km/h (2 Bft) O-NO 63 ° 0 min 0,000 mm 0,9 UV-I 74 W/m² -2,1 °C -0,4 °C 14,5 km/h (3 Bft)
23.02.2019 15:53 2,2 °C 72 % 1035,6 hPa 0,0 mm 11,4 km/h (2 Bft) O-NO 61 ° 0 min 0,000 mm 0,9 UV-I 76 W/m² -2,3 °C -1,0 °C 16,1 km/h (3 Bft)
23.02.2019 15:54 2,2 °C 71 % 1035,6 hPa 0,0 mm 10,5 km/h (2 Bft) O-NO 68 ° 0 min 0,000 mm 0,9 UV-I 104 W/m² -2,5 °C -0,8 °C 14,5 km/h (3 Bft)
23.02.2019 15:55 2,2 °C 71 % 1035,6 hPa 0,0 mm 8,5 km/h (2 Bft) O-NO 65 ° 0 min 0,000 mm 0,9 UV-I 98 W/m² -2,5 °C -0,3 °C 16,1 km/h (3 Bft)
23.02.2019 15:56 2,2 °C 71 % 1035,6 hPa 0,0 mm 9,3 km/h (2 Bft) O-NO 73 ° 0 min 0,000 mm 0,9 UV-I 91 W/m² -2,5 °C -0,5 °C 16,1 km/h (3 Bft)
23.02.2019 15:57 2,2 °C 71 % 1035,5 hPa 0,0 mm 4,8 km/h (1 Bft) N-NO 30 ° 0 min 0,000 mm 0,9 UV-I 93 W/m² -2,5 °C 1,0 °C 8,0 km/h (2 Bft)
23.02.2019 15:58 2,1 °C 71 % 1035,5 hPa 0,0 mm 6,8 km/h (2 Bft) NO 48 ° 0 min 0,000 mm 0,9 UV-I 77 W/m² -2,6 °C 0,1 °C 14,5 km/h (3 Bft)
23.02.2019 15:59 2,1 °C 72 % 1035,5 hPa 0,0 mm 12,4 km/h (3 Bft) O-NO 76 ° 0 min 0,000 mm 0,9 UV-I 63 W/m² -2,4 °C -1,3 °C 17,7 km/h (3 Bft)
23.02.2019 16:00 2,2 °C 71 % 1035,5 hPa 0,0 mm 6,3 km/h (2 Bft) NO 45 ° 0 min 0,000 mm 0,9 UV-I 72 W/m² -2,5 °C 0,4 °C 11,3 km/h (2 Bft)
23.02.2019 16:01 2,2 °C 72 % 1035,4 hPa 0,0 mm 8,1 km/h (2 Bft) O 83 ° 0 min 0,127 mm 0,8 UV-I 62 W/m² -2,3 °C -0,2 °C 16,1 km/h (3 Bft)
23.02.2019 16:02 2,2 °C 71 % 1035,5 hPa 0,0 mm 9,3 km/h (2 Bft) O-NO 58 ° 0 min 0,000 mm 0,0 UV-I 54 W/m² -2,5 °C -0,5 °C 12,9 km/h (3 Bft)
23.02.2019 16:03 2,2 °C 71 % 1035,5 hPa 0,0 mm 4,3 km/h (1 Bft) O-NO 59 ° 0 min 0,000 mm 0,8 UV-I 56 W/m² -2,5 °C 2,2 °C 8,0 km/h (2 Bft)
23.02.2019 16:04 2,2 °C 71 % 1035,5 hPa 0,0 mm 7,9 km/h (2 Bft) NO 37 ° 0 min 0,000 mm 0,8 UV-I 60 W/m² -2,5 °C -0,1 °C 9,7 km/h (2 Bft)
23.02.2019 16:05 2,1 °C 71 % 1035,5 hPa 0,0 mm 4,2 km/h (1 Bft) O-NO 61 ° 0 min 0,000 mm 0,8 UV-I 56 W/m² -2,6 °C 2,1 °C 9,7 km/h (2 Bft)
23.02.2019 16:06 2,1 °C 72 % 1035,4 hPa 0,0 mm 4,0 km/h (1 Bft) O-NO 57 ° 0 min 0,000 mm 0,8 UV-I 56 W/m² -2,4 °C 2,1 °C 6,4 km/h (2 Bft)
23.02.2019 16:07 1,9 °C 74 % 1035,4 hPa 0,0 mm 3,6 km/h (1 Bft) O-NO 57 ° 0 min 0,000 mm 0,0 UV-I 51 W/m² -2,2 °C 1,9 °C 6,4 km/h (2 Bft)
23.02.2019 16:08 1,9 °C 73 % 1035,4 hPa 0,0 mm 4,4 km/h (1 Bft) O 98 ° 0 min 0,000 mm 0,0 UV-I 51 W/m² -2,4 °C 1,9 °C 6,4 km/h (2 Bft)
23.02.2019 16:09 1,9 °C 73 % 1035,3 hPa 0,0 mm 5,6 km/h (1 Bft) O 79 ° 0 min 0,000 mm 0,0 UV-I 46 W/m² -2,4 °C 0,3 °C 11,3 km/h (2 Bft)
23.02.2019 16:10 1,9 °C 73 % 1035,3 hPa 0,0 mm 6,8 km/h (2 Bft) N-NO 28 ° 0 min 0,000 mm 0,0 UV-I 44 W/m² -2,4 °C -0,1 °C 12,9 km/h (3 Bft)
23.02.2019 16:11 1,9 °C 72 % 1035,3 hPa 0,0 mm 3,6 km/h (1 Bft) N-NO 19 ° 0 min 0,000 mm 0,0 UV-I 42 W/m² -2,6 °C 1,9 °C 8,0 km/h (2 Bft)
23.02.2019 16:12 1,9 °C 72 % 1035,3 hPa 0,0 mm 7,8 km/h (2 Bft) O-NO 71 ° 0 min 0,000 mm 0,0 UV-I 42 W/m² -2,6 °C -0,4 °C 17,7 km/h (3 Bft)
23.02.2019 16:13 1,9 °C 72 % 1035,3 hPa 0,0 mm 9,7 km/h (2 Bft) O-NO 68 ° 0 min 0,000 mm 0,0 UV-I 42 W/m² -2,6 °C -1,0 °C 14,5 km/h (3 Bft)
23.02.2019 16:14 1,9 °C 71 % 1035,3 hPa 0,0 mm 4,5 km/h (1 Bft) O-NO 71 ° 0 min 0,000 mm 0,0 UV-I 42 W/m² -2,8 °C 1,9 °C 6,4 km/h (2 Bft)
23.02.2019 16:15 1,9 °C 72 % 1035,5 hPa 0,0 mm 3,1 km/h (1 Bft) O-NO 71 ° 0 min 0,000 mm 0,0 UV-I 42 W/m² -2,6 °C 1,9 °C 6,4 km/h (2 Bft)
23.02.2019 16:16 1,9 °C 72 % 1035,3 hPa 0,0 mm 5,0 km/h (1 Bft) O 84 ° 0 min 0,000 mm 0,0 UV-I 42 W/m² -2,6 °C 0,6 °C 6,4 km/h (2 Bft)
23.02.2019 16:17 1,8 °C 74 % 1035,5 hPa 0,0 mm 8,9 km/h (2 Bft) O-NO 62 ° 0 min 0,000 mm 0,0 UV-I 42 W/m² -2,3 °C -0,9 °C 16,1 km/h (3 Bft)
23.02.2019 16:18 1,8 °C 73 % 1035,5 hPa 0,0 mm 10,6 km/h (2 Bft) O-NO 76 ° 0 min 0,000 mm 0,0 UV-I 42 W/m² -2,5 °C -1,3 °C 14,5 km/h (3 Bft)
23.02.2019 16:19 1,8 °C 71 % 1035,4 hPa 0,0 mm 9,1 km/h (2 Bft) O 82 ° 0 min 0,000 mm 0,0 UV-I 42 W/m² -2,9 °C -0,9 °C 12,9 km/h (3 Bft)
23.02.2019 16:20 1,8 °C 71 % 1035,5 hPa 0,0 mm 7,6 km/h (2 Bft) O-NO 71 ° 0 min 0,000 mm 0,0 UV-I 40 W/m² -2,9 °C -0,5 °C 12,9 km/h (3 Bft)
23.02.2019 16:21 1,8 °C 71 % 1035,5 hPa 0,0 mm 9,7 km/h (2 Bft) O-NO 74 ° 0 min 0,000 mm 0,0 UV-I 42 W/m² -2,9 °C -1,1 °C 14,5 km/h (3 Bft)
23.02.2019 16:22 1,8 °C 71 % 1035,5 hPa 0,0 mm 7,8 km/h (2 Bft) NO 46 ° 0 min 0,000 mm 0,0 UV-I 42 W/m² -2,9 °C -0,6 °C 14,5 km/h (3 Bft)
23.02.2019 16:23 1,9 °C 71 % 1035,5 hPa 0,0 mm 7,9 km/h (2 Bft) O-NO 57 ° 0 min 0,000 mm 0,0 UV-I 40 W/m² -2,8 °C -0,5 °C 14,5 km/h (3 Bft)
23.02.2019 16:24 1,9 °C 71 % 1035,5 hPa 0,0 mm 8,1 km/h (2 Bft) O-NO 61 ° 0 min 0,000 mm 0,0 UV-I 40 W/m² -2,8 °C -0,5 °C 9,7 km/h (2 Bft)
23.02.2019 16:25 2,0 °C 70 % 1035,5 hPa 0,0 mm 7,8 km/h (2 Bft) O-NO 69 ° 0 min 0,000 mm 0,0 UV-I 40 W/m² -2,9 °C -0,3 °C 12,9 km/h (3 Bft)
23.02.2019 16:26 1,9 °C 71 % 1035,6 hPa 0,0 mm 5,5 km/h (1 Bft) NO 55 ° 0 min 0,000 mm 0,0 UV-I 40 W/m² -2,8 °C 0,4 °C 11,3 km/h (2 Bft)
23.02.2019 16:27 1,8 °C 73 % 1035,6 hPa 0,0 mm 5,1 km/h (1 Bft) O-NO 67 ° 0 min 0,000 mm 0,0 UV-I 42 W/m² -2,5 °C 0,4 °C 6,4 km/h (2 Bft)
23.02.2019 16:28 1,7 °C 73 % 1035,6 hPa 0,0 mm 4,3 km/h (1 Bft) NO 49 ° 0 min 0,000 mm 0,0 UV-I 42 W/m² -2,6 °C 1,7 °C 6,4 km/h (2 Bft)
23.02.2019 16:29 1,7 °C 72 % 1035,6 hPa 0,0 mm 2,7 km/h (1 Bft) O-NO 76 ° 0 min 0,000 mm 0,0 UV-I 42 W/m² -2,8 °C 1,7 °C 8,0 km/h (2 Bft)
23.02.2019 16:30 1,7 °C 71 % 1035,6 hPa 0,0 mm 4,2 km/h (1 Bft) O-NO 67 ° 0 min 0,000 mm 0,0 UV-I 42 W/m² -3,0 °C 1,7 °C 6,4 km/h (2 Bft)
23.02.2019 16:31 1,7 °C 72 % 1035,7 hPa 0,0 mm 7,7 km/h (2 Bft) O-NO 62 ° 0 min 0,000 mm 0,0 UV-I 44 W/m² -2,8 °C -0,7 °C 14,5 km/h (3 Bft)
23.02.2019 16:32 1,7 °C 74 % 1035,7 hPa 0,0 mm 9,5 km/h (2 Bft) NO 38 ° 0 min 0,000 mm 0,0 UV-I 44 W/m² -2,4 °C -1,2 °C 17,7 km/h (3 Bft)
23.02.2019 16:33 1,7 °C 72 % 1035,7 hPa 0,0 mm 5,5 km/h (1 Bft) O-NO 59 ° 0 min 0,000 mm 0,0 UV-I 44 W/m² -2,8 °C 0,1 °C 8,0 km/h (2 Bft)
23.02.2019 16:34 1,8 °C 71 % 1035,7 hPa 0,0 mm 5,4 km/h (1 Bft) O-NO 62 ° 0 min 0,000 mm 0,0 UV-I 44 W/m² -2,9 °C 0,3 °C 11,3 km/h (2 Bft)
23.02.2019 16:35 1,8 °C 71 % 1035,7 hPa 0,0 mm 8,3 km/h (2 Bft) O 80 ° 0 min 0,000 mm 0,0 UV-I 44 W/m² -2,9 °C -0,7 °C 16,1 km/h (3 Bft)
23.02.2019 16:36 1,9 °C 71 % 1035,7 hPa 0,0 mm 9,6 km/h (2 Bft) N-NO 26 ° 0 min 0,000 mm 0,0 UV-I 44 W/m² -2,8 °C -0,9 °C 12,9 km/h (3 Bft)
23.02.2019 16:37 1,8 °C 70 % 1035,6 hPa 0,0 mm 6,4 km/h (2 Bft) O-NO 58 ° 0 min 0,000 mm 0,0 UV-I 46 W/m² -3,1 °C -0,1 °C 9,7 km/h (2 Bft)
23.02.2019 16:38 1,9 °C 70 % 1035,6 hPa 0,0 mm 4,9 km/h (1 Bft) O-SO 111 ° 0 min 0,000 mm 0,0 UV-I 47 W/m² -3,0 °C 0,6 °C 8,0 km/h (2 Bft)
23.02.2019 16:39 1,9 °C 71 % 1035,6 hPa 0,0 mm 6,2 km/h (2 Bft) O-NO 65 ° 0 min 0,000 mm 0,0 UV-I 47 W/m² -2,8 °C 0,1 °C 14,5 km/h (3 Bft)
23.02.2019 16:40 1,8 °C 71 % 1035,6 hPa 0,0 mm 9,9 km/h (2 Bft) NO 43 ° 0 min 0,000 mm 0,0 UV-I 47 W/m² -2,9 °C -1,1 °C 14,5 km/h (3 Bft)
23.02.2019 16:41 1,7 °C 71 % 1035,6 hPa 0,0 mm 8,2 km/h (2 Bft) O-NO 61 ° 0 min 0,000 mm 0,0 UV-I 51 W/m² -3,0 °C -0,8 °C 12,9 km/h (3 Bft)
23.02.2019 16:42 1,7 °C 72 % 1035,7 hPa 0,0 mm 9,4 km/h (2 Bft) O 90 ° 0 min 0,000 mm 0,0 UV-I 49 W/m² -2,8 °C -1,1 °C 12,9 km/h (3 Bft)
23.02.2019 16:43 1,7 °C 72 % 1035,6 hPa 0,0 mm 5,6 km/h (1 Bft) NO 40 ° 0 min 0,000 mm 0,0 UV-I 49 W/m² -2,8 °C 0,1 °C 11,3 km/h (2 Bft)
23.02.2019 16:44 1,6 °C 73 % 1035,6 hPa 0,0 mm 6,7 km/h (2 Bft) O 82 ° 0 min 0,000 mm 0,0 UV-I 47 W/m² -2,7 °C -0,4 °C 12,9 km/h (3 Bft)
23.02.2019 16:45 1,6 °C 72 % 1035,6 hPa 0,0 mm 9,3 km/h (2 Bft) NO 46 ° 0 min 0,000 mm 0,0 UV-I 49 W/m² -2,9 °C -1,2 °C 14,5 km/h (3 Bft)
23.02.2019 16:46 1,6 °C 72 % 1035,6 hPa 0,0 mm 6,2 km/h (2 Bft) O 84 ° 0 min 0,000 mm 0,0 UV-I 51 W/m² -2,9 °C -0,3 °C 12,9 km/h (3 Bft)
23.02.2019 16:47 1,7 °C 71 % 1035,6 hPa 0,0 mm 11,5 km/h (2 Bft) O-NO 71 ° 0 min 0,000 mm 0,0 UV-I 51 W/m² -3,0 °C -1,6 °C 16,1 km/h (3 Bft)
23.02.2019 16:48 1,7 °C 72 % 1035,6 hPa 0,0 mm 5,6 km/h (1 Bft) O 86 ° 0 min 0,000 mm 0,0 UV-I 49 W/m² -2,8 °C 0,1 °C 11,3 km/h (2 Bft)
23.02.2019 16:49 1,7 °C 71 % 1035,7 hPa 0,0 mm 9,5 km/h (2 Bft) O-NO 67 ° 0 min 0,000 mm 0,0 UV-I 53 W/m² -3,0 °C -1,2 °C 12,9 km/h (3 Bft)
23.02.2019 16:50 1,7 °C 71 % 1035,6 hPa 0,0 mm 8,2 km/h (2 Bft) NO 47 ° 0 min 0,000 mm 0,0 UV-I 60 W/m² -3,0 °C -0,8 °C 16,1 km/h (3 Bft)
23.02.2019 16:51 1,7 °C 70 % 1035,6 hPa 0,0 mm 8,6 km/h (2 Bft) O 84 ° 0 min 0,000 mm 0,0 UV-I 60 W/m² -3,2 °C -0,9 °C 12,9 km/h (3 Bft)
23.02.2019 16:52 1,7 °C 70 % 1035,6 hPa 0,0 mm 7,4 km/h (2 Bft) N-NO 32 ° 0 min 0,000 mm 0,0 UV-I 63 W/m² -3,2 °C -0,6 °C 11,3 km/h (2 Bft)
23.02.2019 16:53 1,7 °C 70 % 1035,6 hPa 0,0 mm 7,1 km/h (2 Bft) O-NO 63 ° 0 min 0,000 mm 0,0 UV-I 58 W/m² -3,2 °C -0,5 °C 9,7 km/h (2 Bft)
23.02.2019 16:54 1,7 °C 70 % 1035,7 hPa 0,0 mm 5,6 km/h (1 Bft) O 88 ° 0 min 0,000 mm 0,0 UV-I 56 W/m² -3,2 °C 0,1 °C 6,4 km/h (2 Bft)
23.02.2019 16:55 1,6 °C 71 % 1035,6 hPa 0,0 mm 5,6 km/h (1 Bft) NO 49 ° 0 min 0,000 mm 0,0 UV-I 51 W/m² -3,1 °C -0,0 °C 11,3 km/h (2 Bft)
23.02.2019 16:56 1,5 °C 71 % 1035,7 hPa 0,0 mm 6,2 km/h (2 Bft) O-NO 59 ° 0 min 0,000 mm 0,0 UV-I 46 W/m² -3,2 °C -0,4 °C 9,7 km/h (2 Bft)
23.02.2019 16:57 1,5 °C 71 % 1035,6 hPa 0,0 mm 5,3 km/h (1 Bft) O 98 ° 0 min 0,000 mm 0,0 UV-I 46 W/m² -3,2 °C -0,0 °C 8,0 km/h (2 Bft)
23.02.2019 16:58 1,4 °C 71 % 1035,6 hPa 0,0 mm 7,0 km/h (2 Bft) O-NO 74 ° 0 min 0,000 mm 0,0 UV-I 62 W/m² -3,3 °C -0,8 °C 14,5 km/h (3 Bft)
23.02.2019 16:59 1,4 °C 72 % 1035,7 hPa 0,0 mm 7,6 km/h (2 Bft) NO 46 ° 0 min 0,000 mm 0,0 UV-I 60 W/m² -3,1 °C -1,0 °C 12,9 km/h (3 Bft)
23.02.2019 17:00 1,3 °C 73 % 1035,6 hPa 0,0 mm 7,5 km/h (2 Bft) O-NO 61 ° 0 min 0,000 mm 0,0 UV-I 56 W/m² -3,0 °C -1,1 °C 11,3 km/h (2 Bft)
23.02.2019 17:01 1,3 °C 73 % 1035,7 hPa 0,0 mm 4,2 km/h (1 Bft) O-NO 69 ° 0 min 0,025 mm 0,0 UV-I 51 W/m² -3,0 °C 1,3 °C 6,4 km/h (2 Bft)
23.02.2019 17:02 1,2 °C 73 % 1035,7 hPa 0,0 mm 5,9 km/h (2 Bft) NO 34 ° 0 min 0,000 mm 0,0 UV-I 44 W/m² -3,1 °C -0,6 °C 14,5 km/h (3 Bft)
23.02.2019 17:03 1,2 °C 73 % 1035,6 hPa 0,0 mm 3,1 km/h (1 Bft) O-SO 121 ° 0 min 0,000 mm 0,0 UV-I 40 W/m² -3,1 °C 1,2 °C 14,5 km/h (3 Bft)
23.02.2019 17:04 1,2 °C 73 % 1035,7 hPa 0,0 mm 5,6 km/h (1 Bft) O-NO 63 ° 0 min 0,000 mm 0,0 UV-I 37 W/m² -3,1 °C -0,5 °C 9,7 km/h (2 Bft)
23.02.2019 17:05 1,1 °C 73 % 1035,7 hPa 0,0 mm 6,5 km/h (2 Bft) O-SO 104 ° 0 min 0,000 mm 0,0 UV-I 35 W/m² -3,2 °C -0,9 °C 11,3 km/h (2 Bft)
23.02.2019 17:06 1,1 °C 73 % 1035,6 hPa 0,0 mm 5,0 km/h (1 Bft) O-NO 63 ° 0 min 0,000 mm 0,0 UV-I 32 W/m² -3,2 °C -0,3 °C 9,7 km/h (2 Bft)
23.02.2019 17:07 1,2 °C 72 % 1035,7 hPa 0,0 mm 9,6 km/h (2 Bft) O-NO 67 ° 0 min 0,000 mm 0,0 UV-I 32 W/m² -3,3 °C -1,8 °C 12,9 km/h (3 Bft)
23.02.2019 17:08 1,2 °C 72 % 1035,7 hPa 0,0 mm 7,0 km/h (2 Bft) NO 53 ° 0 min 0,000 mm 0,0 UV-I 30 W/m² -3,3 °C -1,0 °C 14,5 km/h (3 Bft)
23.02.2019 17:09 1,2 °C 72 % 1035,7 hPa 0,0 mm 9,1 km/h (2 Bft) NO 38 ° 0 min 0,000 mm 0,0 UV-I 28 W/m² -3,3 °C -1,6 °C 20,9 km/h (4 Bft)
23.02.2019 17:10 1,2 °C 72 % 1035,7 hPa 0,0 mm 6,5 km/h (2 Bft) NO 49 ° 0 min 0,000 mm 0,0 UV-I 26 W/m² -3,3 °C -0,8 °C 14,5 km/h (3 Bft)
23.02.2019 17:11 1,1 °C 72 % 1035,7 hPa 0,0 mm 4,5 km/h (1 Bft) O-NO 63 ° 0 min 0,000 mm 0,0 UV-I 26 W/m² -3,4 °C 1,1 °C 9,7 km/h (2 Bft)
23.02.2019 17:12 1,0 °C 73 % 1035,7 hPa 0,0 mm 4,0 km/h (1 Bft) NO 36 ° 0 min 0,000 mm 0,0 UV-I 26 W/m² -3,3 °C 1,0 °C 6,4 km/h (2 Bft)
23.02.2019 17:13 0,9 °C 73 % 1035,7 hPa 0,0 mm 5,2 km/h (1 Bft) O-NO 74 ° 0 min 0,000 mm 0,0 UV-I 26 W/m² -3,4 °C -0,7 °C 12,9 km/h (3 Bft)
23.02.2019 17:14 0,8 °C 72 % 1035,7 hPa 0,0 mm 8,8 km/h (2 Bft) O-NO 78 ° 0 min 0,000 mm 0,0 UV-I 25 W/m² -3,7 °C -2,0 °C 12,9 km/h (3 Bft)
23.02.2019 17:15 0,8 °C 73 % 1035,7 hPa 0,0 mm 7,7 km/h (2 Bft) NO 51 ° 0 min 0,000 mm 0,0 UV-I 25 W/m² -3,5 °C -1,7 °C 11,3 km/h (2 Bft)
23.02.2019 17:16 0,8 °C 72 % 1035,6 hPa 0,0 mm 4,0 km/h (1 Bft) O-NO 61 ° 0 min 0,000 mm 0,0 UV-I 25 W/m² -3,7 °C 0,8 °C 6,4 km/h (2 Bft)
23.02.2019 17:17 0,8 °C 71 % 1035,6 hPa 0,0 mm 6,3 km/h (2 Bft) O 84 ° 0 min 0,000 mm 0,0 UV-I 23 W/m² -3,8 °C -1,2 °C 11,3 km/h (2 Bft)
23.02.2019 17:18 0,8 °C 71 % 1035,6 hPa 0,0 mm 5,9 km/h (2 Bft) O-NO 58 ° 0 min 0,000 mm 0,0 UV-I 23 W/m² -3,8 °C -1,1 °C 8,0 km/h (2 Bft)
23.02.2019 17:19 0,8 °C 71 % 1035,6 hPa 0,0 mm 3,9 km/h (1 Bft) O-NO 62 ° 0 min 0,000 mm 0,0 UV-I 21 W/m² -3,8 °C 0,8 °C 6,4 km/h (2 Bft)
23.02.2019 17:20 0,7 °C 71 % 1035,6 hPa 0,0 mm 7,5 km/h (2 Bft) O-NO 71 ° 0 min 0,000 mm 0,0 UV-I 21 W/m² -3,9 °C -1,8 °C 12,9 km/h (3 Bft)
23.02.2019 17:21 0,7 °C 73 % 1035,6 hPa 0,0 mm 5,8 km/h (2 Bft) O-NO 75 ° 0 min 0,000 mm 0,0 UV-I 21 W/m² -3,6 °C -1,1 °C 11,3 km/h (2 Bft)
23.02.2019 17:22 0,6 °C 74 % 1035,7 hPa 0,0 mm 6,5 km/h (2 Bft) O-NO 78 ° 0 min 0,000 mm 0,0 UV-I 19 W/m² -3,5 °C -1,5 °C 9,7 km/h (2 Bft)
23.02.2019 17:23 0,5 °C 75 % 1035,7 hPa 0,0 mm 5,3 km/h (1 Bft) O-NO 70 ° 0 min 0,000 mm 0,0 UV-I 19 W/m² -3,4 °C -1,2 °C 8,0 km/h (2 Bft)
23.02.2019 17:24 0,5 °C 74 % 1035,7 hPa 0,0 mm 7,6 km/h (2 Bft) O-NO 78 ° 0 min 0,000 mm 0,0 UV-I 18 W/m² -3,6 °C -2,0 °C 12,9 km/h (3 Bft)
23.02.2019 17:25 0,4 °C 75 % 1035,7 hPa 0,0 mm 5,3 km/h (1 Bft) O-NO 66 ° 0 min 0,000 mm 0,0 UV-I 18 W/m² -3,5 °C -1,3 °C 8,0 km/h (2 Bft)
23.02.2019 17:26 0,3 °C 75 % 1035,8 hPa 0,0 mm 4,4 km/h (1 Bft) O 88 ° 0 min 0,000 mm 0,0 UV-I 18 W/m² -3,6 °C 0,3 °C 6,4 km/h (2 Bft)
23.02.2019 17:27 0,3 °C 76 % 1035,8 hPa 0,0 mm 5,6 km/h (1 Bft) NO 55 ° 0 min 0,000 mm 0,0 UV-I 16 W/m² -3,4 °C -1,5 °C 11,3 km/h (2 Bft)
23.02.2019 17:28 0,2 °C 77 % 1035,9 hPa 0,0 mm 5,6 km/h (1 Bft) NO 49 ° 0 min 0,000 mm 0,0 UV-I 16 W/m² -3,3 °C -1,6 °C 8,0 km/h (2 Bft)
23.02.2019 17:29 0,1 °C 76 % 1035,8 hPa 0,0 mm 0,8 km/h (0 Bft) NO 54 ° 0 min 0,000 mm 0,0 UV-I 14 W/m² -3,6 °C 0,1 °C 3,2 km/h (1 Bft)
23.02.2019 17:30 0,1 °C 75 % 1035,9 hPa 0,0 mm 4,8 km/h (1 Bft) O 80 ° 0 min 0,000 mm 0,0 UV-I 14 W/m² -3,8 °C -1,4 °C 9,7 km/h (2 Bft)
23.02.2019 17:31 0,0 °C 77 % 1035,9 hPa 0,0 mm 4,7 km/h (1 Bft) O 79 ° 0 min 0,000 mm 0,0 UV-I 14 W/m² -3,5 °C -1,4 °C 6,4 km/h (2 Bft)
23.02.2019 17:32 -0,1 °C 77 % 1035,9 hPa 0,0 mm 3,4 km/h (1 Bft) NO 56 ° 0 min 0,000 mm 0,0 UV-I 12 W/m² -3,6 °C -0,1 °C 6,4 km/h (2 Bft)
23.02.2019 17:33 -0,1 °C 77 % 1035,9 hPa 0,0 mm 5,5 km/h (1 Bft) O 84 ° 0 min 0,000 mm 0,0 UV-I 12 W/m² -3,6 °C -1,9 °C 11,3 km/h (2 Bft)
23.02.2019 17:34 -0,1 °C 77 % 1035,9 hPa 0,0 mm 2,0 km/h (1 Bft) O 79 ° 0 min 0,000 mm 0,0 UV-I 12 W/m² -3,6 °C -0,1 °C 4,8 km/h (1 Bft)
23.02.2019 17:35 -0,1 °C 76 % 1035,9 hPa 0,0 mm 4,5 km/h (1 Bft) O-NO 69 ° 0 min 0,000 mm 0,0 UV-I 11 W/m² -3,8 °C -0,1 °C 8,0 km/h (2 Bft)
23.02.2019 17:36 -0,1 °C 77 % 1035,9 hPa 0,0 mm 3,0 km/h (1 Bft) O-NO 74 ° 0 min 0,000 mm 0,0 UV-I 11 W/m² -3,6 °C -0,1 °C 6,4 km/h (2 Bft)
23.02.2019 17:37 -0,2 °C 77 % 1036,0 hPa 0,0 mm 4,1 km/h (1 Bft) O-NO 71 ° 0 min 0,000 mm 0,0 UV-I 11 W/m² -3,7 °C -0,2 °C 6,4 km/h (2 Bft)
23.02.2019 17:38 -0,2 °C 78 % 1036,0 hPa 0,0 mm 2,4 km/h (1 Bft) O-NO 72 ° 0 min 0,000 mm 0,0 UV-I 11 W/m² -3,6 °C -0,2 °C 3,2 km/h (1 Bft)
23.02.2019 17:39 -0,3 °C 77 % 1035,9 hPa 0,0 mm 2,6 km/h (1 Bft) O-NO 72 ° 0 min 0,000 mm 0,0 UV-I 9 W/m² -3,8 °C -0,3 °C 3,2 km/h (1 Bft)
23.02.2019 17:40 -0,3 °C 77 % 1036,0 hPa 0,0 mm 3,4 km/h (1 Bft) O 96 ° 0 min 0,000 mm 0,0 UV-I 9 W/m² -3,8 °C -0,3 °C 4,8 km/h (1 Bft)
23.02.2019 17:41 -0,3 °C 77 % 1036,0 hPa 0,0 mm 1,5 km/h (1 Bft) O 96 ° 0 min 0,000 mm 0,0 UV-I 9 W/m² -3,8 °C -0,3 °C 3,2 km/h (1 Bft)
23.02.2019 17:42 -0,4 °C 76 % 1036,0 hPa 0,0 mm 0,4 km/h (0 Bft) O 96 ° 0 min 0,000 mm 0,0 UV-I 7 W/m² -4,1 °C -0,4 °C 3,2 km/h (1 Bft)
23.02.2019 17:43 -0,4 °C 75 % 1036,0 hPa 0,0 mm 1,9 km/h (1 Bft) NO 46 ° 0 min 0,000 mm 0,0 UV-I 7 W/m² -4,3 °C -0,4 °C 3,2 km/h (1 Bft)
23.02.2019 17:44 -0,4 °C 75 % 1036,0 hPa 0,0 mm 3,6 km/h (1 Bft) O 95 ° 0 min 0,000 mm 0,0 UV-I 7 W/m² -4,3 °C -0,4 °C 4,8 km/h (1 Bft)
23.02.2019 17:45 -0,3 °C 75 % 1036,1 hPa 0,0 mm 4,8 km/h (1 Bft) NO 47 ° 0 min 0,000 mm 0,0 UV-I 5 W/m² -4,2 °C -1,8 °C 8,0 km/h (2 Bft)
23.02.2019 17:46 -0,3 °C 74 % 1036,0 hPa 0,0 mm 4,7 km/h (1 Bft) O-NO 78 ° 0 min 0,000 mm 0,0 UV-I 5 W/m² -4,4 °C -1,8 °C 6,4 km/h (2 Bft)
23.02.2019 17:47 -0,3 °C 74 % 1036,0 hPa 0,0 mm 3,9 km/h (1 Bft) O 96 ° 0 min 0,000 mm 0,0 UV-I 5 W/m² -4,4 °C -0,3 °C 6,4 km/h (2 Bft)
23.02.2019 17:48 -0,3 °C 73 % 1036,1 hPa 0,0 mm 1,4 km/h (1 Bft) O 94 ° 0 min 0,000 mm 0,0 UV-I 0 W/m² -4,5 °C -0,3 °C 3,2 km/h (1 Bft)
23.02.2019 17:49 -0,2 °C 72 % 1036,1 hPa 0,0 mm 1,0 km/h (0 Bft) O-NO 71 ° 0 min 0,000 mm 0,0 UV-I 0 W/m² -4,6 °C -0,2 °C 4,8 km/h (1 Bft)
23.02.2019 17:50 -0,3 °C 74 % 1036,2 hPa 0,0 mm 2,0 km/h (1 Bft) O-NO 77 ° 0 min 0,000 mm 0,0 UV-I 0 W/m² -4,4 °C -0,3 °C 4,8 km/h (1 Bft)
23.02.2019 17:51 -0,3 °C 75 % 1036,2 hPa 0,0 mm 2,4 km/h (1 Bft) O-SO 123 ° 0 min 0,000 mm 0,0 UV-I 0 W/m² -4,2 °C -0,3 °C 4,8 km/h (1 Bft)
23.02.2019 17:52 -0,4 °C 76 % 1036,2 hPa 0,0 mm 5,3 km/h (1 Bft) O-NO 65 ° 0 min 0,000 mm 0,0 UV-I 0 W/m² -4,1 °C -2,2 °C 8,0 km/h (2 Bft)
23.02.2019 17:53 -0,4 °C 75 % 1036,2 hPa 0,0 mm 0,3 km/h (0 Bft) O-NO 65 ° 0 min 0,000 mm 0,0 UV-I 0 W/m² -4,3 °C -0,4 °C 1,6 km/h (1 Bft)
23.02.2019 17:54 -0,4 °C 74 % 1036,2 hPa 0,0 mm 0,7 km/h (0 Bft) O-NO 65 ° 0 min 0,000 mm 0,0 UV-I 0 W/m² -4,5 °C -0,4 °C 1,6 km/h (1 Bft)
23.02.2019 17:55 -0,4 °C 75 % 1036,2 hPa 0,0 mm 1,0 km/h (0 Bft) NO 56 ° 0 min 0,000 mm 0,0 UV-I 0 W/m² -4,3 °C -0,4 °C 3,2 km/h (1 Bft)
23.02.2019 17:56 -0,6 °C 75 % 1036,2 hPa 0,0 mm 0,6 km/h (0 Bft) NO 56 ° 0 min 0,000 mm 0,0 UV-I 0 W/m² -4,5 °C -0,6 °C 3,2 km/h (1 Bft)
23.02.2019 17:57 -0,6 °C 74 % 1036,2 hPa 0,0 mm 1,5 km/h (1 Bft) O 98 ° 0 min 0,000 mm 0,0 UV-I 0 W/m² -4,6 °C -0,6 °C 3,2 km/h (1 Bft)
23.02.2019 17:58 -0,6 °C 74 % 1036,3 hPa 0,0 mm 0,4 km/h (0 Bft) O-NO 74 ° 0 min 0,000 mm 0,0 UV-I 0 W/m² -4,6 °C -0,6 °C 1,6 km/h (1 Bft)
23.02.2019 17:59 -0,6 °C 72 % 1036,3 hPa 0,0 mm 3,4 km/h (1 Bft) O-NO 57 ° 0 min 0,000 mm 0,0 UV-I 0 W/m² -5,0 °C -0,6 °C 9,7 km/h (2 Bft)
23.02.2019 18:00 -0,6 °C 71 % 1036,3 hPa 0,0 mm 0,5 km/h (0 Bft) O-SO 103 ° 0 min 0,000 mm 0,0 UV-I 0 W/m² -5,2 °C -0,6 °C 3,2 km/h (1 Bft)
23.02.2019 18:01 -0,6 °C 72 % 1036,3 hPa 0,0 mm 2,3 km/h (1 Bft) O-NO 72 ° 0 min 0,026 mm 0,0 UV-I 0 W/m² -5,0 °C -0,6 °C 4,8 km/h (1 Bft)
23.02.2019 18:02 -0,6 °C 71 % 1036,3 hPa 0,0 mm 4,7 km/h (1 Bft) O 87 ° 0 min 0,000 mm 0,0 UV-I 0 W/m² -5,2 °C -2,1 °C 9,7 km/h (2 Bft)
23.02.2019 18:03 -0,6 °C 71 % 1036,3 hPa 0,0 mm 2,5 km/h (1 Bft) O 80 ° 0 min 0,000 mm 0,0 UV-I 0 W/m² -5,2 °C -0,6 °C 4,8 km/h (1 Bft)
23.02.2019 18:04 -0,7 °C 72 % 1036,3 hPa 0,0 mm 4,8 km/h (1 Bft) O-NO 61 ° 0 min 0,000 mm 0,0 UV-I 0 W/m² -5,1 °C -2,3 °C 8,0 km/h (2 Bft)
23.02.2019 18:05 -0,7 °C 71 % 1036,4 hPa 0,0 mm 5,4 km/h (1 Bft) O-NO 74 ° 0 min 0,000 mm 0,0 UV-I 0 W/m² -5,3 °C -2,6 °C 11,3 km/h (2 Bft)
23.02.2019 18:06 -0,7 °C 72 % 1036,4 hPa 0,0 mm 5,0 km/h (1 Bft) O-NO 69 ° 0 min 0,000 mm 0,0 UV-I 0 W/m² -5,1 °C -2,4 °C 8,0 km/h (2 Bft)
23.02.2019 18:07 -0,7 °C 71 % 1036,4 hPa 0,0 mm 4,2 km/h (1 Bft) O 81 ° 0 min 0,000 mm 0,0 UV-I 0 W/m² -5,3 °C -0,7 °C 6,4 km/h (2 Bft)
23.02.2019 18:08 -0,7 °C 72 % 1036,4 hPa 0,0 mm 0,2 km/h (0 Bft) O 81 ° 0 min 0,000 mm 0,0 UV-I 0 W/m² -5,1 °C -0,7 °C 1,6 km/h (1 Bft)
23.02.2019 18:09 -0,7 °C 71 % 1036,5 hPa 0,0 mm 4,6 km/h (1 Bft) N-NO 33 ° 0 min 0,000 mm 0,0 UV-I 0 W/m² -5,3 °C -2,2 °C 11,3 km/h (2 Bft)
23.02.2019 18:10 -0,8 °C 73 % 1036,5 hPa 0,0 mm 3,8 km/h (1 Bft) O 80 ° 0 min 0,000 mm 0,0 UV-I 0 W/m² -5,0 °C -0,8 °C 8,0 km/h (2 Bft)
23.02.2019 18:11 -0,8 °C 73 % 1036,5 hPa 0,0 mm 5,2 km/h (1 Bft) O-NO 72 ° 0 min 0,000 mm 0,0 UV-I 0 W/m² -5,0 °C -2,6 °C 6,4 km/h (2 Bft)
23.02.2019 18:12 -0,9 °C 74 % 1036,5 hPa 0,0 mm 1,4 km/h (1 Bft) O-NO 72 ° 0 min 0,000 mm 0,0 UV-I 0 W/m² -4,9 °C -0,9 °C 3,2 km/h (1 Bft)
23.02.2019 18:13 -0,9 °C 71 % 1036,5 hPa 0,0 mm 1,4 km/h (1 Bft) O 84 ° 0 min 0,000 mm 0,0 UV-I 0 W/m² -5,5 °C -0,9 °C 3,2 km/h (1 Bft)
23.02.2019 18:14 -0,9 °C 71 % 1036,6 hPa 0,0 mm 2,6 km/h (1 Bft) O-NO 70 ° 0 min 0,000 mm 0,0 UV-I 0 W/m² -5,5 °C -0,9 °C 4,8 km/h (1 Bft)
23.02.2019 18:15 -0,9 °C 70 % 1036,6 hPa 0,0 mm 3,2 km/h (1 Bft) O-SO 109 ° 0 min 0,000 mm 0,0 UV-I 0 W/m² -5,7 °C -0,9 °C 6,4 km/h (2 Bft)
23.02.2019 18:16 -0,9 °C 69 % 1036,6 hPa 0,0 mm 3,4 km/h (1 Bft) O 99 ° 0 min 0,000 mm 0,0 UV-I 0 W/m² -5,9 °C -0,9 °C 6,4 km/h (2 Bft)
23.02.2019 18:17 -0,8 °C 69 % 1036,6 hPa 0,0 mm 2,2 km/h (1 Bft) O-NO 69 ° 0 min 0,000 mm 0,0 UV-I 0 W/m² -5,8 °C -0,8 °C 6,4 km/h (2 Bft)
23.02.2019 18:18 -0,8 °C 69 % 1036,7 hPa 0,0 mm 4,9 km/h (1 Bft) O-SO 107 ° 0 min 0,000 mm 0,0 UV-I 0 W/m² -5,8 °C -2,4 °C 9,7 km/h (2 Bft)
23.02.2019 18:19 -0,8 °C 69 % 1036,8 hPa 0,0 mm 3,4 km/h (1 Bft) O-NO 65 ° 0 min 0,000 mm 0,0 UV-I 0 W/m² -5,8 °C -0,8 °C 6,4 km/h (2 Bft)
23.02.2019 18:20 -0,8 °C 69 % 1036,7 hPa 0,0 mm 0,7 km/h (0 Bft) O-SO 113 ° 0 min 0,000 mm 0,0 UV-I 0 W/m² -5,8 °C -0,8 °C 6,4 km/h (2 Bft)
23.02.2019 18:21 -0,8 °C 69 % 1036,7 hPa 0,0 mm 5,2 km/h (1 Bft) O 96 ° 0 min 0,000 mm 0,0 UV-I 0 W/m² -5,8 °C -2,6 °C 11,3 km/h (2 Bft)
23.02.2019 18:22 -0,9 °C 70 % 1036,7 hPa 0,0 mm 0,2 km/h (0 Bft) O 96 ° 0 min 0,000 mm 0,0 UV-I 0 W/m² -5,7 °C -0,9 °C 1,6 km/h (1 Bft)
23.02.2019 18:23 -0,9 °C 72 % 1036,7 hPa 0,0 mm 5,2 km/h (1 Bft) O-NO 65 ° 0 min 0,000 mm 0,0 UV-I 0 W/m² -5,3 °C -2,7 °C 12,9 km/h (3 Bft)
23.02.2019 18:24 -1,0 °C 69 % 1036,7 hPa 0,0 mm 1,6 km/h (1 Bft) O-NO 61 ° 0 min 0,000 mm 0,0 UV-I 0 W/m² -5,9 °C -1,0 °C 4,8 km/h (1 Bft)
23.02.2019 18:25 -1,0 °C 69 % 1036,7 hPa 0,0 mm 3,6 km/h (1 Bft) S 179 ° 0 min 0,000 mm 0,0 UV-I 0 W/m² -5,9 °C -1,0 °C 8,0 km/h (2 Bft)
23.02.2019 18:26 -1,0 °C 68 % 1036,7 hPa 0,0 mm 3,1 km/h (1 Bft) O-NO 78 ° 0 min 0,000 mm 0,0 UV-I 0 W/m² -6,1 °C -1,0 °C 9,7 km/h (2 Bft)
23.02.2019 18:27 -1,0 °C 69 % 1036,7 hPa 0,0 mm 1,5 km/h (1 Bft) NO 51 ° 0 min 0,000 mm 0,0 UV-I 0 W/m² -5,9 °C -1,0 °C 4,8 km/h (1 Bft)
23.02.2019 18:28 -1,1 °C 68 % 1036,7 hPa 0,0 mm 4,5 km/h (1 Bft) O 80 ° 0 min 0,000 mm 0,0 UV-I 0 W/m² -6,2 °C -1,1 °C 9,7 km/h (2 Bft)
23.02.2019 18:29 -1,0 °C 70 % 1036,7 hPa 0,0 mm 2,9 km/h (1 Bft) S-SO 158 ° 0 min 0,000 mm 0,0 UV-I 0 W/m² -5,8 °C -1,0 °C 4,8 km/h (1 Bft)
23.02.2019 18:30 -0,9 °C 67 % 1036,8 hPa 0,0 mm 2,9 km/h (1 Bft) O-SO 114 ° 0 min 0,000 mm 0,0 UV-I 0 W/m² -6,2 °C -0,9 °C 4,8 km/h (1 Bft)
23.02.2019 18:31 -0,9 °C 67 % 1036,7 hPa 0,0 mm 0,8 km/h (0 Bft) O-SO 114 ° 0 min 0,000 mm 0,0 UV-I 0 W/m² -6,2 °C -0,9 °C 1,6 km/h (1 Bft)
23.02.2019 18:32 -0,9 °C 66 % 1036,7 hPa 0,0 mm 0,1 km/h (0 Bft) O-SO 114 ° 0 min 0,000 mm 0,0 UV-I 0 W/m² -6,4 °C -0,9 °C 1,6 km/h (1 Bft)
23.02.2019 18:33 -0,9 °C 66 % 1036,7 hPa 0,0 mm 0,9 km/h (0 Bft) O-SO 116 ° 0 min 0,000 mm 0,0 UV-I 0 W/m² -6,4 °C -0,9 °C 4,8 km/h (1 Bft)
23.02.2019 18:34 -1,0 °C 66 % 1036,7 hPa 0,0 mm 3,2 km/h (1 Bft) O 90 ° 0 min 0,000 mm 0,0 UV-I 0 W/m² -6,5 °C -1,0 °C 4,8 km/h (1 Bft)
23.02.2019 18:35 -1,1 °C 66 % 1036,7 hPa 0,0 mm 0,2 km/h (0 Bft) O 90 ° 0 min 0,000 mm 0,0 UV-I 0 W/m² -6,6 °C -1,1 °C 1,6 km/h (1 Bft)
23.02.2019 18:36 -1,0 °C 66 % 1036,7 hPa 0,0 mm 0,0 km/h (0 Bft) O 90 ° 0 min 0,000 mm 0,0 UV-I 0 W/m² -6,5 °C -1,0 °C 0,0 km/h (0 Bft)
23.02.2019 18:37 -1,0 °C 67 % 1036,8 hPa 0,0 mm 0,0 km/h (0 Bft) O 90 ° 0 min 0,000 mm 0,0 UV-I 0 W/m² -6,3 °C -1,0 °C 0,0 km/h (0 Bft)
23.02.2019 18:38 -1,0 °C 66 % 1036,7 hPa 0,0 mm 0,0 km/h (0 Bft) O 90 ° 0 min 0,000 mm 0,0 UV-I 0 W/m² -6,5 °C -1,0 °C 0,0 km/h (0 Bft)
23.02.2019 18:39 -1,1 °C 67 % 1036,7 hPa 0,0 mm 0,6 km/h (0 Bft) O 90 ° 0 min 0,000 mm 0,0 UV-I 0 W/m² -6,4 °C -1,1 °C 1,6 km/h (1 Bft)
23.02.2019 18:40 -1,1 °C 66 % 1036,8 hPa 0,0 mm 0,1 km/h (0 Bft) O 91 ° 0 min 0,000 mm 0,0 UV-I 0 W/m² -6,6 °C -1,1 °C 1,6 km/h (1 Bft)
23.02.2019 18:41 -1,1 °C 66 % 1036,8 hPa 0,0 mm 1,3 km/h (1 Bft) O-SO 105 ° 0 min 0,000 mm 0,0 UV-I 0 W/m² -6,6 °C -1,1 °C 4,8 km/h (1 Bft)
23.02.2019 18:42 -1,1 °C 66 % 1036,9 hPa 0,0 mm 0,0 km/h (0 Bft) O-SO 105 ° 0 min 0,000 mm 0,0 UV-I 0 W/m² -6,6 °C -1,1 °C 0,0 km/h (0 Bft)
23.02.2019 18:43 -1,0 °C 65 % 1036,8 hPa 0,0 mm 0,0 km/h (0 Bft) O-SO 105 ° 0 min 0,000 mm 0,0 UV-I 0 W/m² -6,7 °C -1,0 °C 0,0 km/h (0 Bft)
23.02.2019 18:44 -1,1 °C 68 % 1036,8 hPa 0,0 mm 0,4 km/h (0 Bft) O 86 ° 0 min 0,000 mm 0,0 UV-I 0 W/m² -6,2 °C -1,1 °C 3,2 km/h (1 Bft)
23.02.2019 18:45 -1,1 °C 67 % 1036,8 hPa 0,0 mm 2,3 km/h (1 Bft) O 82 ° 0 min 0,000 mm 0,0 UV-I 0 W/m² -6,4 °C -1,1 °C 6,4 km/h (2 Bft)
23.02.2019 18:46 -1,2 °C 66 % 1036,8 hPa 0,0 mm 1,2 km/h (1 Bft) O 82 ° 0 min 0,000 mm 0,0 UV-I 0 W/m² -6,7 °C -1,2 °C 4,8 km/h (1 Bft)
23.02.2019 18:47 -1,2 °C 66 % 1036,8 hPa 0,0 mm 0,0 km/h (0 Bft) O 82 ° 0 min 0,000 mm 0,0 UV-I 0 W/m² -6,7 °C -1,2 °C 0,0 km/h (0 Bft)
23.02.2019 18:48 -1,2 °C 67 % 1036,9 hPa 0,0 mm 0,1 km/h (0 Bft) O 82 ° 0 min 0,000 mm 0,0 UV-I 0 W/m² -6,5 °C -1,2 °C 1,6 km/h (1 Bft)
23.02.2019 18:49 -1,2 °C 67 % 1036,8 hPa 0,0 mm 0,0 km/h (0 Bft) O 82 ° 0 min 0,000 mm 0,0 UV-I 0 W/m² -6,5 °C -1,2 °C 0,0 km/h (0 Bft)
23.02.2019 18:50 -1,2 °C 66 % 1036,9 hPa 0,0 mm 0,0 km/h (0 Bft) O 82 ° 0 min 0,000 mm 0,0 UV-I 0 W/m² -6,7 °C -1,2 °C 0,0 km/h (0 Bft)
23.02.2019 18:51 -1,3 °C 67 % 1036,9 hPa 0,0 mm 0,0 km/h (0 Bft) O 82 ° 0 min 0,000 mm 0,0 UV-I 0 W/m² -6,6 °C -1,3 °C 0,0 km/h (0 Bft)
23.02.2019 18:52 -1,3 °C 67 % 1036,9 hPa 0,0 mm 0,6 km/h (0 Bft) O 82 ° 0 min 0,000 mm 0,0 UV-I 0 W/m² -6,6 °C -1,3 °C 3,2 km/h (1 Bft)
23.02.2019 18:53 -1,3 °C 68 % 1036,9 hPa 0,0 mm 1,8 km/h (1 Bft) O-NO 57 ° 0 min 0,000 mm 0,0 UV-I 0 W/m² -6,4 °C -1,3 °C 6,4 km/h (2 Bft)
23.02.2019 18:54 -1,3 °C 67 % 1036,9 hPa 0,0 mm 0,6 km/h (0 Bft) O-NO 57 ° 0 min 0,000 mm 0,0 UV-I 0 W/m² -6,6 °C -1,3 °C 4,8 km/h (1 Bft)
23.02.2019 18:55 -1,3 °C 66 % 1036,9 hPa 0,0 mm 0,0 km/h (0 Bft) O-NO 57 ° 0 min 0,000 mm 0,0 UV-I 0 W/m² -6,8 °C -1,3 °C 0,0 km/h (0 Bft)
23.02.2019 18:56 -1,3 °C 66 % 1036,9 hPa 0,0 mm 0,0 km/h (0 Bft) O-NO 57 ° 0 min 0,000 mm 0,0 UV-I 0 W/m² -6,8 °C -1,3 °C 0,0 km/h (0 Bft)
23.02.2019 18:57 -1,3 °C 65 % 1036,9 hPa 0,0 mm 0,1 km/h (0 Bft) O-NO 57 ° 0 min 0,000 mm 0,0 UV-I 0 W/m² -7,0 °C -1,3 °C 1,6 km/h (1 Bft)
23.02.2019 18:58 -1,3 °C 66 % 1036,9 hPa 0,0 mm 0,1 km/h (0 Bft) O-NO 57 ° 0 min 0,000 mm 0,0 UV-I 0 W/m² -6,8 °C -1,3 °C 1,6 km/h (1 Bft)
23.02.2019 18:59 -1,4 °C 68 % 1036,9 hPa 0,0 mm 0,0 km/h (0 Bft) O-NO 57 ° 0 min 0,000 mm 0,0 UV-I 0 W/m² -6,5 °C -1,4 °C 0,0 km/h (0 Bft)
23.02.2019 19:00 -1,4 °C 67 % 1036,9 hPa 0,0 mm 0,6 km/h (0 Bft) O-NO 57 ° 0 min 0,000 mm 0,0 UV-I 0 W/m² -6,7 °C -1,4 °C 1,6 km/h (1 Bft)
23.02.2019 19:01 -1,4 °C 66 % 1036,9 hPa 0,0 mm 0,5 km/h (0 Bft) SO 146 ° 0 min 0,000 mm 0,0 UV-I 0 W/m² -6,9 °C -1,4 °C 1,6 km/h (1 Bft)
23.02.2019 19:02 -1,3 °C 66 % 1036,9 hPa 0,0 mm 2,2 km/h (1 Bft) O 90 ° 0 min 0,000 mm 0,0 UV-I 0 W/m² -6,8 °C -1,3 °C 4,8 km/h (1 Bft)
23.02.2019 19:03 -1,4 °C 67 % 1036,9 hPa 0,0 mm 1,1 km/h (1 Bft) O 90 ° 0 min 0,000 mm 0,0 UV-I 0 W/m² -6,7 °C -1,4 °C 3,2 km/h (1 Bft)
23.02.2019 19:04 -1,5 °C 67 % 1036,9 hPa 0,0 mm 0,4 km/h (0 Bft) O 90 ° 0 min 0,000 mm 0,0 UV-I 0 W/m² -6,8 °C -1,5 °C 1,6 km/h (1 Bft)
23.02.2019 19:05 -1,5 °C 68 % 1036,9 hPa 0,0 mm 0,8 km/h (0 Bft) O 94 ° 0 min 0,000 mm 0,0 UV-I 0 W/m² -6,6 °C -1,5 °C 1,6 km/h (1 Bft)
23.02.2019 19:06 -1,5 °C 67 % 1036,9 hPa 0,0 mm 0,0 km/h (0 Bft) O 94 ° 0 min 0,000 mm 0,0 UV-I 0 W/m² -6,8 °C -1,5 °C 0,0 km/h (0 Bft)
23.02.2019 19:07 -1,5 °C 67 % 1036,9 hPa 0,0 mm 1,0 km/h (0 Bft) O 94 ° 0 min 0,000 mm 0,0 UV-I 0 W/m² -6,8 °C -1,5 °C 3,2 km/h (1 Bft)
23.02.2019 19:08 -1,5 °C 67 % 1036,9 hPa 0,0 mm 0,1 km/h (0 Bft) O 94 ° 0 min 0,000 mm 0,0 UV-I 0 W/m² -6,8 °C -1,5 °C 1,6 km/h (1 Bft)
23.02.2019 19:09 -1,4 °C 65 % 1036,9 hPa 0,0 mm 0,3 km/h (0 Bft) O 94 ° 0 min 0,000 mm 0,0 UV-I 0 W/m² -7,1 °C -1,4 °C 1,6 km/h (1 Bft)
23.02.2019 19:10 -1,4 °C 66 % 1036,9 hPa 0,0 mm 2,4 km/h (1 Bft) S-SO 148 ° 0 min 0,000 mm 0,0 UV-I 0 W/m² -6,9 °C -1,4 °C 3,2 km/h (1 Bft)
23.02.2019 19:11 -1,4 °C 64 % 1036,9 hPa 0,0 mm 2,9 km/h (1 Bft) O 100 ° 0 min 0,000 mm 0,0 UV-I 0 W/m² -7,3 °C -1,4 °C 8,0 km/h (2 Bft)
23.02.2019 19:12 -1,4 °C 64 % 1036,9 hPa 0,0 mm 1,0 km/h (0 Bft) O 100 ° 0 min 0,000 mm 0,0 UV-I 0 W/m² -7,3 °C -1,4 °C 3,2 km/h (1 Bft)
23.02.2019 19:13 -1,4 °C 64 % 1036,9 hPa 0,0 mm 0,0 km/h (0 Bft) O 100 ° 0 min 0,000 mm 0,0 UV-I 0 W/m² -7,3 °C -1,4 °C 0,0 km/h (0 Bft)
23.02.2019 19:14 -1,4 °C 64 % 1036,9 hPa 0,0 mm 0,0 km/h (0 Bft) O 100 ° 0 min 0,000 mm 0,0 UV-I 0 W/m² -7,3 °C -1,4 °C 0,0 km/h (0 Bft)
23.02.2019 19:15 -1,4 °C 64 % 1037,0 hPa 0,0 mm 0,0 km/h (0 Bft) O 100 ° 0 min 0,000 mm 0,0 UV-I 0 W/m² -7,3 °C -1,4 °C 0,0 km/h (0 Bft)
23.02.2019 19:16 -1,4 °C 66 % 1036,9 hPa 0,0 mm 0,0 km/h (0 Bft) O 100 ° 0 min 0,000 mm 0,0 UV-I 0 W/m² -6,9 °C -1,4 °C 0,0 km/h (0 Bft)
23.02.2019 19:17 -1,4 °C 67 % 1036,9 hPa 0,0 mm 0,3 km/h (0 Bft) O 100 ° 0 min 0,000 mm 0,0 UV-I 0 W/m² -6,7 °C -1,4 °C 1,6 km/h (1 Bft)
23.02.2019 19:18 -1,5 °C 65 % 1036,9 hPa 0,0 mm 0,1 km/h (0 Bft) O 92 ° 0 min 0,000 mm 0,0 UV-I 0 W/m² -7,2 °C -1,5 °C 1,6 km/h (1 Bft)
23.02.2019 19:19 -1,6 °C 67 % 1037,0 hPa 0,0 mm 0,0 km/h (0 Bft) O 92 ° 0 min 0,000 mm 0,0 UV-I 0 W/m² -6,9 °C -1,6 °C 0,0 km/h (0 Bft)
23.02.2019 19:20 -1,6 °C 68 % 1037,0 hPa 0,0 mm 0,0 km/h (0 Bft) O 92 ° 0 min 0,000 mm 0,0 UV-I 0 W/m² -6,7 °C -1,6 °C 0,0 km/h (0 Bft)
23.02.2019 19:21 -1,7 °C 68 % 1037,0 hPa 0,0 mm 0,0 km/h (0 Bft) O 92 ° 0 min 0,000 mm 0,0 UV-I 0 W/m² -6,8 °C -1,7 °C 0,0 km/h (0 Bft)
23.02.2019 19:22 -1,7 °C 67 % 1037,0 hPa 0,0 mm 0,0 km/h (0 Bft) O 92 ° 0 min 0,000 mm 0,0 UV-I 0 W/m² -7,0 °C -1,7 °C 0,0 km/h (0 Bft)
23.02.2019 19:23 -1,7 °C 69 % 1037,0 hPa 0,0 mm 0,0 km/h (0 Bft) O 92 ° 0 min 0,000 mm 0,0 UV-I 0 W/m² -6,6 °C -1,7 °C 0,0 km/h (0 Bft)
23.02.2019 19:24 -1,8 °C 68 % 1037,0 hPa 0,0 mm 0,7 km/h (0 Bft) O 92 ° 0 min 0,000 mm 0,0 UV-I 0 W/m² -6,9 °C -1,8 °C 1,6 km/h (1 Bft)
23.02.2019 19:25 -1,8 °C 68 % 1037,0 hPa 0,0 mm 0,1 km/h (0 Bft) O 93 ° 0 min 0,000 mm 0,0 UV-I 0 W/m² -6,9 °C -1,8 °C 1,6 km/h (1 Bft)
23.02.2019 19:26 -1,8 °C 68 % 1037,1 hPa 0,0 mm 0,4 km/h (0 Bft) O 95 ° 0 min 0,000 mm 0,0 UV-I 0 W/m² -6,9 °C -1,8 °C 3,2 km/h (1 Bft)
23.02.2019 19:27 -1,8 °C 68 % 1037,1 hPa 0,0 mm 0,0 km/h (0 Bft) O 95 ° 0 min 0,000 mm 0,0 UV-I 0 W/m² -6,9 °C -1,8 °C 0,0 km/h (0 Bft)
23.02.2019 19:28 -1,9 °C 68 % 1037,1 hPa 0,0 mm 0,0 km/h (0 Bft) O 95 ° 0 min 0,000 mm 0,0 UV-I 0 W/m² -7,0 °C -1,9 °C 0,0 km/h (0 Bft)
23.02.2019 19:29 -1,9 °C 67 % 1037,1 hPa 0,0 mm 0,0 km/h (0 Bft) O 95 ° 0 min 0,000 mm 0,0 UV-I 0 W/m² -7,2 °C -1,9 °C 0,0 km/h (0 Bft)
23.02.2019 19:30 -1,9 °C 68 % 1037,1 hPa 0,0 mm 0,0 km/h (0 Bft) O 95 ° 0 min 0,000 mm 0,0 UV-I 0 W/m² -7,0 °C -1,9 °C 0,0 km/h (0 Bft)
23.02.2019 19:31 -1,9 °C 67 % 1037,1 hPa 0,0 mm 0,0 km/h (0 Bft) O 95 ° 0 min 0,000 mm 0,0 UV-I 0 W/m² -7,2 °C -1,9 °C 0,0 km/h (0 Bft)
23.02.2019 19:32 -1,9 °C 67 % 1037,1 hPa 0,0 mm 0,0 km/h (0 Bft) O 95 ° 0 min 0,000 mm 0,0 UV-I 0 W/m² -7,2 °C -1,9 °C 0,0 km/h (0 Bft)
23.02.2019 19:33 -1,9 °C 68 % 1037,1 hPa 0,0 mm 1,7 km/h (1 Bft) O-SO 107 ° 0 min 0,000 mm 0,0 UV-I 0 W/m² -7,0 °C -1,9 °C 4,8 km/h (1 Bft)
23.02.2019 19:34 -1,9 °C 67 % 1037,1 hPa 0,0 mm 0,0 km/h (0 Bft) O-SO 107 ° 0 min 0,000 mm 0,0 UV-I 0 W/m² -7,2 °C -1,9 °C 0,0 km/h (0 Bft)
23.02.2019 19:35 -1,9 °C 66 % 1037,2 hPa 0,0 mm 0,0 km/h (0 Bft) O-SO 107 ° 0 min 0,000 mm 0,0 UV-I 0 W/m² -7,4 °C -1,9 °C 0,0 km/h (0 Bft)
23.02.2019 19:36 -1,9 °C 67 % 1037,1 hPa 0,0 mm 1,6 km/h (1 Bft) O-NO 71 ° 0 min 0,000 mm 0,0 UV-I 0 W/m² -7,2 °C -1,9 °C 4,8 km/h (1 Bft)
23.02.2019 19:37 -2,0 °C 69 % 1037,2 hPa 0,0 mm 1,0 km/h (0 Bft) O-NO 71 ° 0 min 0,000 mm 0,0 UV-I 0 W/m² -6,9 °C -2,0 °C 3,2 km/h (1 Bft)
23.02.2019 19:38 -2,1 °C 69 % 1037,3 hPa 0,0 mm 1,1 km/h (1 Bft) O 94 ° 0 min 0,000 mm 0,0 UV-I 0 W/m² -7,0 °C -2,1 °C 3,2 km/h (1 Bft)
23.02.2019 19:39 -2,1 °C 68 % 1037,2 hPa 0,0 mm 0,1 km/h (0 Bft) O 94 ° 0 min 0,000 mm 0,0 UV-I 0 W/m² -7,2 °C -2,1 °C 1,6 km/h (1 Bft)
23.02.2019 19:40 -2,1 °C 67 % 1037,3 hPa 0,0 mm 0,0 km/h (0 Bft) O 94 ° 0 min 0,000 mm 0,0 UV-I 0 W/m² -7,4 °C -2,1 °C 0,0 km/h (0 Bft)
23.02.2019 19:41 -2,1 °C 66 % 1037,3 hPa 0,0 mm 0,0 km/h (0 Bft) O 94 ° 0 min 0,000 mm 0,0 UV-I 0 W/m² -7,6 °C -2,1 °C 0,0 km/h (0 Bft)
23.02.2019 19:42 -2,0 °C 66 % 1037,3 hPa 0,0 mm 0,1 km/h (0 Bft) O 94 ° 0 min 0,000 mm 0,0 UV-I 0 W/m² -7,5 °C -2,0 °C 1,6 km/h (1 Bft)
23.02.2019 19:43 -2,0 °C 66 % 1037,3 hPa 0,0 mm 2,2 km/h (1 Bft) O 94 ° 0 min 0,000 mm 0,0 UV-I 0 W/m² -7,5 °C -2,0 °C 4,8 km/h (1 Bft)
23.02.2019 19:44 -2,1 °C 66 % 1037,2 hPa 0,0 mm 0,1 km/h (0 Bft) O 94 ° 0 min 0,000 mm 0,0 UV-I 0 W/m² -7,6 °C -2,1 °C 1,6 km/h (1 Bft)
23.02.2019 19:45 -2,1 °C 66 % 1037,3 hPa 0,0 mm 0,0 km/h (0 Bft) O 94 ° 0 min 0,000 mm 0,0 UV-I 0 W/m² -7,6 °C -2,1 °C 0,0 km/h (0 Bft)
23.02.2019 19:46 -2,1 °C 65 % 1037,3 hPa 0,0 mm 0,0 km/h (0 Bft) O 94 ° 0 min 0,000 mm 0,0 UV-I 0 W/m² -7,8 °C -2,1 °C 0,0 km/h (0 Bft)
23.02.2019 19:47 -1,9 °C 65 % 1037,3 hPa 0,0 mm 0,0 km/h (0 Bft) O 94 ° 0 min 0,000 mm 0,0 UV-I 0 W/m² -7,6 °C -1,9 °C 0,0 km/h (0 Bft)
23.02.2019 19:48 -1,9 °C 66 % 1037,3 hPa 0,0 mm 0,0 km/h (0 Bft) O 94 ° 0 min 0,000 mm 0,0 UV-I 0 W/m² -7,4 °C -1,9 °C 0,0 km/h (0 Bft)
23.02.2019 19:49 -2,1 °C 67 % 1037,3 hPa 0,0 mm 0,0 km/h (0 Bft) O 94 ° 0 min 0,000 mm 0,0 UV-I 0 W/m² -7,4 °C -2,1 °C 0,0 km/h (0 Bft)
23.02.2019 19:50 -2,1 °C 67 % 1037,4 hPa 0,0 mm 0,0 km/h (0 Bft) O 94 ° 0 min 0,000 mm 0,0 UV-I 0 W/m² -7,4 °C -2,1 °C 0,0 km/h (0 Bft)
23.02.2019 19:51 -2,1 °C 66 % 1037,3 hPa 0,0 mm 0,0 km/h (0 Bft) O 94 ° 0 min 0,000 mm 0,0 UV-I 0 W/m² -7,6 °C -2,1 °C 0,0 km/h (0 Bft)
23.02.2019 19:52 -2,1 °C 67 % 1037,4 hPa 0,0 mm 0,0 km/h (0 Bft) O 94 ° 0 min 0,000 mm 0,0 UV-I 0 W/m² -7,4 °C -2,1 °C 0,0 km/h (0 Bft)
23.02.2019 19:53 -2,1 °C 68 % 1037,4 hPa 0,0 mm 0,0 km/h (0 Bft) O 94 ° 0 min 0,000 mm 0,0 UV-I 0 W/m² -7,2 °C -2,1 °C 0,0 km/h (0 Bft)
23.02.2019 19:54 -2,1 °C 69 % 1037,4 hPa 0,0 mm 0,0 km/h (0 Bft) O 94 ° 0 min 0,000 mm 0,0 UV-I 0 W/m² -7,0 °C -2,1 °C 0,0 km/h (0 Bft)
23.02.2019 19:55 -2,1 °C 66 % 1037,4 hPa 0,0 mm 0,0 km/h (0 Bft) O 94 ° 0 min 0,000 mm 0,0 UV-I 0 W/m² -7,6 °C -2,1 °C 0,0 km/h (0 Bft)
23.02.2019 19:56 -2,1 °C 65 % 1037,4 hPa 0,0 mm 0,0 km/h (0 Bft) O 94 ° 0 min 0,000 mm 0,0 UV-I 0 W/m² -7,8 °C -2,1 °C 0,0 km/h (0 Bft)
23.02.2019 19:57 -1,9 °C 63 % 1037,4 hPa 0,0 mm 0,0 km/h (0 Bft) O 94 ° 0 min 0,000 mm 0,0 UV-I 0 W/m² -8,0 °C -1,9 °C 0,0 km/h (0 Bft)
23.02.2019 19:58 -1,9 °C 63 % 1037,5 hPa 0,0 mm 0,0 km/h (0 Bft) O 94 ° 0 min 0,000 mm 0,0 UV-I 0 W/m² -8,0 °C -1,9 °C 0,0 km/h (0 Bft)
23.02.2019 19:59 -1,9 °C 64 % 1037,4 hPa 0,0 mm 0,1 km/h (0 Bft) O 94 ° 0 min 0,000 mm 0,0 UV-I 0 W/m² -7,8 °C -1,9 °C 1,6 km/h (1 Bft)
23.02.2019 20:00 -2,0 °C 64 % 1037,5 hPa 0,0 mm 0,4 km/h (0 Bft) O 95 ° 0 min 0,000 mm 0,0 UV-I 0 W/m² -7,9 °C -2,0 °C 3,2 km/h (1 Bft)
23.02.2019 20:01 -2,1 °C 65 % 1037,5 hPa 0,0 mm 0,1 km/h (0 Bft) O 95 ° 0 min 0,025 mm 0,0 UV-I 0 W/m² -7,8 °C -2,1 °C 1,6 km/h (1 Bft)
23.02.2019 20:02 -2,1 °C 65 % 1037,4 hPa 0,0 mm 0,0 km/h (0 Bft) O 95 ° 0 min 0,000 mm 0,0 UV-I 0 W/m² -7,8 °C -2,1 °C 0,0 km/h (0 Bft)
23.02.2019 20:03 -2,2 °C 65 % 1037,4 hPa 0,0 mm 0,0 km/h (0 Bft) O 95 ° 0 min 0,000 mm 0,0 UV-I 0 W/m² -7,9 °C -2,2 °C 0,0 km/h (0 Bft)
23.02.2019 20:04 -2,2 °C 65 % 1037,4 hPa 0,0 mm 0,3 km/h (0 Bft) O 95 ° 0 min 0,000 mm 0,0 UV-I 0 W/m² -7,9 °C -2,2 °C 1,6 km/h (1 Bft)
23.02.2019 20:05 -2,2 °C 65 % 1037,4 hPa 0,0 mm 0,6 km/h (0 Bft) O 95 ° 0 min 0,000 mm 0,0 UV-I 0 W/m² -7,9 °C -2,2 °C 1,6 km/h (1 Bft)
23.02.2019 20:06 -2,2 °C 64 % 1037,4 hPa 0,0 mm 0,7 km/h (0 Bft) O 95 ° 0 min 0,000 mm 0,0 UV-I 0 W/m² -8,1 °C -2,2 °C 1,6 km/h (1 Bft)
23.02.2019 20:07 -2,2 °C 64 % 1037,4 hPa 0,0 mm 0,0 km/h (0 Bft) O 95 ° 0 min 0,000 mm 0,0 UV-I 0 W/m² -8,1 °C -2,2 °C 0,0 km/h (0 Bft)
23.02.2019 20:08 -2,2 °C 66 % 1037,4 hPa 0,0 mm 0,0 km/h (0 Bft) O 95 ° 0 min 0,000 mm 0,0 UV-I 0 W/m² -7,7 °C -2,2 °C 0,0 km/h (0 Bft)
23.02.2019 20:09 -2,2 °C 64 % 1037,4 hPa 0,0 mm 0,0 km/h (0 Bft) O 95 ° 0 min 0,000 mm 0,0 UV-I 0 W/m² -8,1 °C -2,2 °C 0,0 km/h (0 Bft)
23.02.2019 20:10 -2,2 °C 64 % 1037,4 hPa 0,0 mm 0,0 km/h (0 Bft) O 95 ° 0 min 0,000 mm 0,0 UV-I 0 W/m² -8,1 °C -2,2 °C 0,0 km/h (0 Bft)
23.02.2019 20:11 -2,2 °C 64 % 1037,3 hPa 0,0 mm 0,4 km/h (0 Bft) O 95 ° 0 min 0,000 mm 0,0 UV-I 0 W/m² -8,1 °C -2,2 °C 1,6 km/h (1 Bft)
23.02.2019 20:12 -2,3 °C 64 % 1037,3 hPa 0,0 mm 0,0 km/h (0 Bft) O 95 ° 0 min 0,000 mm 0,0 UV-I 0 W/m² -8,2 °C -2,3 °C 0,0 km/h (0 Bft)
23.02.2019 20:13 -2,2 °C 64 % 1037,3 hPa 0,0 mm 0,7 km/h (0 Bft) O 95 ° 0 min 0,000 mm 0,0 UV-I 0 W/m² -8,1 °C -2,2 °C 1,6 km/h (1 Bft)
23.02.2019 20:14 -2,2 °C 65 % 1037,3 hPa 0,0 mm 0,4 km/h (0 Bft) O 95 ° 0 min 0,000 mm 0,0 UV-I 0 W/m² -7,9 °C -2,2 °C 1,6 km/h (1 Bft)
23.02.2019 20:15 -2,3 °C 66 % 1037,3 hPa 0,0 mm 0,6 km/h (0 Bft) O 95 ° 0 min 0,000 mm 0,0 UV-I 0 W/m² -7,8 °C -2,3 °C 1,6 km/h (1 Bft)
23.02.2019 20:16 -2,3 °C 65 % 1037,3 hPa 0,0 mm 0,9 km/h (0 Bft) O 95 ° 0 min 0,000 mm 0,0 UV-I 0 W/m² -8,0 °C -2,3 °C 3,2 km/h (1 Bft)
23.02.2019 20:17 -2,3 °C 66 % 1037,3 hPa 0,0 mm 1,5 km/h (1 Bft) O 95 ° 0 min 0,000 mm 0,0 UV-I 0 W/m² -7,8 °C -2,3 °C 4,8 km/h (1 Bft)
23.02.2019 20:18 -2,3 °C 66 % 1037,3 hPa 0,0 mm 3,2 km/h (1 Bft) SO 145 ° 0 min 0,000 mm 0,0 UV-I 0 W/m² -7,8 °C -2,3 °C 8,0 km/h (2 Bft)
23.02.2019 20:19 -2,3 °C 66 % 1037,3 hPa 0,0 mm 4,0 km/h (1 Bft) SO 125 ° 0 min 0,000 mm 0,0 UV-I 0 W/m² -7,8 °C -2,3 °C 6,4 km/h (2 Bft)
23.02.2019 20:20 -2,2 °C 65 % 1037,3 hPa 0,0 mm 2,1 km/h (1 Bft) SO 124 ° 0 min 0,000 mm 0,0 UV-I 0 W/m² -7,9 °C -2,2 °C 4,8 km/h (1 Bft)
23.02.2019 20:21 -2,2 °C 65 % 1037,3 hPa 0,0 mm 1,3 km/h (1 Bft) SO 124 ° 0 min 0,000 mm 0,0 UV-I 0 W/m² -7,9 °C -2,2 °C 3,2 km/h (1 Bft)
23.02.2019 20:22 -2,2 °C 67 % 1037,3 hPa 0,0 mm 0,0 km/h (0 Bft) SO 124 ° 0 min 0,000 mm 0,0 UV-I 0 W/m² -7,5 °C -2,2 °C 0,0 km/h (0 Bft)
23.02.2019 20:23 -2,3 °C 68 % 1037,3 hPa 0,0 mm 0,0 km/h (0 Bft) SO 124 ° 0 min 0,000 mm 0,0 UV-I 0 W/m² -7,4 °C -2,3 °C 0,0 km/h (0 Bft)
23.02.2019 20:24 -2,3 °C 67 % 1037,3 hPa 0,0 mm 1,4 km/h (1 Bft) SO 144 ° 0 min 0,000 mm 0,0 UV-I 0 W/m² -7,6 °C -2,3 °C 4,8 km/h (1 Bft)
23.02.2019 20:25 -2,3 °C 67 % 1037,3 hPa 0,0 mm 4,7 km/h (1 Bft) O-SO 123 ° 0 min 0,000 mm 0,0 UV-I 0 W/m² -7,6 °C -4,0 °C 6,4 km/h (2 Bft)
23.02.2019 20:26 -2,3 °C 67 % 1037,3 hPa 0,0 mm 4,9 km/h (1 Bft) SO 126 ° 0 min 0,000 mm 0,0 UV-I 0 W/m² -7,6 °C -4,1 °C 6,4 km/h (2 Bft)
23.02.2019 20:27 -2,4 °C 68 % 1037,3 hPa 0,0 mm 2,3 km/h (1 Bft) SO 126 ° 0 min 0,000 mm 0,0 UV-I 0 W/m² -7,5 °C -2,4 °C 4,8 km/h (1 Bft)
23.02.2019 20:28 -2,4 °C 67 % 1037,3 hPa 0,0 mm 0,4 km/h (0 Bft) SO 126 ° 0 min 0,000 mm 0,0 UV-I 0 W/m² -7,7 °C -2,4 °C 1,6 km/h (1 Bft)
23.02.2019 20:29 -2,4 °C 67 % 1037,3 hPa 0,0 mm 1,3 km/h (1 Bft) SO 132 ° 0 min 0,000 mm 0,0 UV-I 0 W/m² -7,7 °C -2,4 °C 4,8 km/h (1 Bft)
23.02.2019 20:30 -2,4 °C 68 % 1037,2 hPa 0,0 mm 0,5 km/h (0 Bft) SO 132 ° 0 min 0,000 mm 0,0 UV-I 0 W/m² -7,5 °C -2,4 °C 1,6 km/h (1 Bft)
23.02.2019 20:31 -2,4 °C 67 % 1037,3 hPa 0,0 mm 0,8 km/h (0 Bft) SO 132 ° 0 min 0,000 mm 0,0 UV-I 0 W/m² -7,7 °C -2,4 °C 1,6 km/h (1 Bft)
23.02.2019 20:32 -2,4 °C 67 % 1037,2 hPa 0,0 mm 1,2 km/h (1 Bft) SO 130 ° 0 min 0,000 mm 0,0 UV-I 0 W/m² -7,7 °C -2,4 °C 4,8 km/h (1 Bft)
23.02.2019 20:33 -2,4 °C 68 % 1037,3 hPa 0,0 mm 4,5 km/h (1 Bft) O-SO 117 ° 0 min 0,000 mm 0,0 UV-I 0 W/m² -7,5 °C -2,4 °C 6,4 km/h (2 Bft)
23.02.2019 20:34 -2,4 °C 68 % 1037,2 hPa 0,0 mm 3,4 km/h (1 Bft) SO 128 ° 0 min 0,000 mm 0,0 UV-I 0 W/m² -7,5 °C -2,4 °C 4,8 km/h (1 Bft)
23.02.2019 20:35 -2,5 °C 68 % 1037,3 hPa 0,0 mm 0,9 km/h (0 Bft) SO 128 ° 0 min 0,000 mm 0,0 UV-I 0 W/m² -7,6 °C -2,5 °C 3,2 km/h (1 Bft)
23.02.2019 20:36 -2,6 °C 68 % 1037,3 hPa 0,0 mm 0,3 km/h (0 Bft) SO 128 ° 0 min 0,000 mm 0,0 UV-I 0 W/m² -7,7 °C -2,6 °C 1,6 km/h (1 Bft)
23.02.2019 20:37 -2,6 °C 68 % 1037,3 hPa 0,0 mm 0,0 km/h (0 Bft) SO 128 ° 0 min 0,000 mm 0,0 UV-I 0 W/m² -7,7 °C -2,6 °C 0,0 km/h (0 Bft)
23.02.2019 20:38 -2,6 °C 68 % 1037,3 hPa 0,0 mm 0,0 km/h (0 Bft) SO 128 ° 0 min 0,000 mm 0,0 UV-I 0 W/m² -7,7 °C -2,6 °C 0,0 km/h (0 Bft)
23.02.2019 20:39 -2,6 °C 68 % 1037,3 hPa 0,0 mm 1,1 km/h (1 Bft) SO 126 ° 0 min 0,000 mm 0,0 UV-I 0 W/m² -7,7 °C -2,6 °C 3,2 km/h (1 Bft)
23.02.2019 20:40 -2,6 °C 68 % 1037,3 hPa 0,0 mm 2,0 km/h (1 Bft) SO 133 ° 0 min 0,000 mm 0,0 UV-I 0 W/m² -7,7 °C -2,6 °C 3,2 km/h (1 Bft)
23.02.2019 20:41 -2,7 °C 67 % 1037,3 hPa 0,0 mm 0,6 km/h (0 Bft) SO 133 ° 0 min 0,000 mm 0,0 UV-I 0 W/m² -8,0 °C -2,7 °C 1,6 km/h (1 Bft)
23.02.2019 20:42 -2,7 °C 68 % 1037,3 hPa 0,0 mm 0,5 km/h (0 Bft) SO 133 ° 0 min 0,000 mm 0,0 UV-I 0 W/m² -7,8 °C -2,7 °C 3,2 km/h (1 Bft)
23.02.2019 20:43 -2,7 °C 69 % 1037,2 hPa 0,0 mm 0,9 km/h (0 Bft) SO 134 ° 0 min 0,000 mm 0,0 UV-I 0 W/m² -7,6 °C -2,7 °C 4,8 km/h (1 Bft)
23.02.2019 20:44 -2,8 °C 69 % 1037,3 hPa 0,0 mm 2,5 km/h (1 Bft) SO 127 ° 0 min 0,000 mm 0,0 UV-I 0 W/m² -7,7 °C -2,8 °C 4,8 km/h (1 Bft)
23.02.2019 20:45 -2,8 °C 69 % 1037,2 hPa 0,0 mm 1,4 km/h (1 Bft) SO 134 ° 0 min 0,000 mm 0,0 UV-I 0 W/m² -7,7 °C -2,8 °C 3,2 km/h (1 Bft)
23.02.2019 20:46 -2,8 °C 69 % 1037,2 hPa 0,0 mm 0,9 km/h (0 Bft) SO 134 ° 0 min 0,000 mm 0,0 UV-I 0 W/m² -7,7 °C -2,8 °C 1,6 km/h (1 Bft)
23.02.2019 20:47 -2,8 °C 68 % 1037,3 hPa 0,0 mm 3,1 km/h (1 Bft) S-SO 156 ° 0 min 0,000 mm 0,0 UV-I 0 W/m² -7,9 °C -2,8 °C 8,0 km/h (2 Bft)
23.02.2019 20:48 -2,9 °C 68 % 1037,3 hPa 0,0 mm 3,0 km/h (1 Bft) O-SO 115 ° 0 min 0,000 mm 0,0 UV-I 0 W/m² -8,0 °C -2,9 °C 6,4 km/h (2 Bft)
23.02.2019 20:49 -2,9 °C 68 % 1037,3 hPa 0,0 mm 3,7 km/h (1 Bft) O-SO 103 ° 0 min 0,000 mm 0,0 UV-I 0 W/m² -8,0 °C -2,9 °C 9,7 km/h (2 Bft)
23.02.2019 20:50 -2,9 °C 68 % 1037,2 hPa 0,0 mm 0,3 km/h (0 Bft) O-SO 103 ° 0 min 0,000 mm 0,0 UV-I 0 W/m² -8,0 °C -2,9 °C 1,6 km/h (1 Bft)
23.02.2019 20:51 -2,9 °C 68 % 1037,3 hPa 0,0 mm 0,2 km/h (0 Bft) O-SO 103 ° 0 min 0,000 mm 0,0 UV-I 0 W/m² -8,0 °C -2,9 °C 1,6 km/h (1 Bft)
23.02.2019 20:52 -2,9 °C 68 % 1037,3 hPa 0,0 mm 2,7 km/h (1 Bft) O-SO 122 ° 0 min 0,000 mm 0,0 UV-I 0 W/m² -8,0 °C -2,9 °C 4,8 km/h (1 Bft)
23.02.2019 20:53 -2,8 °C 67 % 1037,3 hPa 0,0 mm 5,0 km/h (1 Bft) O-SO 123 ° 0 min 0,000 mm 0,0 UV-I 0 W/m² -8,1 °C -4,8 °C 9,7 km/h (2 Bft)
23.02.2019 20:54 -2,8 °C 68 % 1037,3 hPa 0,0 mm 3,4 km/h (1 Bft) SO 139 ° 0 min 0,000 mm 0,0 UV-I 0 W/m² -7,9 °C -2,8 °C 4,8 km/h (1 Bft)
23.02.2019 20:55 -2,9 °C 68 % 1037,3 hPa 0,0 mm 2,1 km/h (1 Bft) SO 138 ° 0 min 0,000 mm 0,0 UV-I 0 W/m² -8,0 °C -2,9 °C 3,2 km/h (1 Bft)
23.02.2019 20:56 -2,9 °C 68 % 1037,3 hPa 0,0 mm 1,3 km/h (1 Bft) SO 124 ° 0 min 0,000 mm 0,0 UV-I 0 W/m² -8,0 °C -2,9 °C 3,2 km/h (1 Bft)
23.02.2019 20:57 -2,9 °C 67 % 1037,3 hPa 0,0 mm 3,4 km/h (1 Bft) SO 125 ° 0 min 0,000 mm 0,0 UV-I 0 W/m² -8,1 °C -2,9 °C 4,8 km/h (1 Bft)
23.02.2019 20:58 -2,9 °C 67 % 1037,3 hPa 0,0 mm 2,7 km/h (1 Bft) O-SO 123 ° 0 min 0,000 mm 0,0 UV-I 0 W/m² -8,1 °C -2,9 °C 3,2 km/h (1 Bft)
23.02.2019 20:59 -3,0 °C 67 % 1037,2 hPa 0,0 mm 3,4 km/h (1 Bft) O-SO 110 ° 0 min 0,000 mm 0,0 UV-I 0 W/m² -8,2 °C -3,0 °C 4,8 km/h (1 Bft)
23.02.2019 21:00 -3,0 °C 67 % 1037,2 hPa 0,0 mm 0,9 km/h (0 Bft) O-SO 110 ° 0 min 0,000 mm 0,0 UV-I 0 W/m² -8,2 °C -3,0 °C 4,8 km/h (1 Bft)
23.02.2019 21:01 -3,0 °C 68 % 1037,2 hPa 0,0 mm 2,5 km/h (1 Bft) O-SO 109 ° 0 min 0,026 mm 0,0 UV-I 0 W/m² -8,1 °C -3,0 °C 4,8 km/h (1 Bft)
23.02.2019 21:02 -3,0 °C 67 % 1037,3 hPa 0,0 mm 0,1 km/h (0 Bft) O-SO 110 ° 0 min 0,000 mm 0,0 UV-I 0 W/m² -8,2 °C -3,0 °C 1,6 km/h (1 Bft)
23.02.2019 21:03 -3,0 °C 67 % 1037,3 hPa 0,0 mm 0,2 km/h (0 Bft) O-SO 110 ° 0 min 0,000 mm 0,0 UV-I 0 W/m² -8,2 °C -3,0 °C 3,2 km/h (1 Bft)
23.02.2019 21:04 -3,0 °C 66 % 1037,3 hPa 0,0 mm 0,3 km/h (0 Bft) O-SO 110 ° 0 min 0,000 mm 0,0 UV-I 0 W/m² -8,4 °C -3,0 °C 1,6 km/h (1 Bft)
23.02.2019 21:05 -2,9 °C 67 % 1037,3 hPa 0,0 mm 0,6 km/h (0 Bft) O-SO 110 ° 0 min 0,000 mm 0,0 UV-I 0 W/m² -8,1 °C -2,9 °C 1,6 km/h (1 Bft)
23.02.2019 21:06 -2,9 °C 67 % 1037,3 hPa 0,0 mm 1,9 km/h (1 Bft) O-SO 110 ° 0 min 0,000 mm 0,0 UV-I 0 W/m² -8,1 °C -2,9 °C 3,2 km/h (1 Bft)
23.02.2019 21:07 -2,9 °C 67 % 1037,3 hPa 0,0 mm 0,0 km/h (0 Bft) O-SO 110 ° 0 min 0,000 mm 0,0 UV-I 0 W/m² -8,1 °C -2,9 °C 0,0 km/h (0 Bft)
23.02.2019 21:08 -2,8 °C 66 % 1037,2 hPa 0,0 mm 0,0 km/h (0 Bft) O-SO 110 ° 0 min 0,000 mm 0,0 UV-I 0 W/m² -8,2 °C -2,8 °C 0,0 km/h (0 Bft)
23.02.2019 21:09 -2,8 °C 66 % 1037,3 hPa 0,0 mm 0,1 km/h (0 Bft) O-SO 110 ° 0 min 0,000 mm 0,0 UV-I 0 W/m² -8,2 °C -2,8 °C 1,6 km/h (1 Bft)
23.02.2019 21:10 -2,9 °C 66 % 1037,3 hPa 0,0 mm 0,7 km/h (0 Bft) O-SO 110 ° 0 min 0,000 mm 0,0 UV-I 0 W/m² -8,3 °C -2,9 °C 1,6 km/h (1 Bft)
23.02.2019 21:11 -2,9 °C 66 % 1037,2 hPa 0,0 mm 0,0 km/h (0 Bft) O-SO 110 ° 0 min 0,000 mm 0,0 UV-I 0 W/m² -8,3 °C -2,9 °C 0,0 km/h (0 Bft)
23.02.2019 21:12 -2,9 °C 67 % 1037,3 hPa 0,0 mm 1,3 km/h (1 Bft) O-SO 110 ° 0 min 0,000 mm 0,0 UV-I 0 W/m² -8,1 °C -2,9 °C 3,2 km/h (1 Bft)
23.02.2019 21:13 -2,8 °C 67 % 1037,2 hPa 0,0 mm 2,5 km/h (1 Bft) O-SO 110 ° 0 min 0,000 mm 0,0 UV-I 0 W/m² -8,1 °C -2,8 °C 3,2 km/h (1 Bft)
23.02.2019 21:14 -2,8 °C 67 % 1037,2 hPa 0,0 mm 1,6 km/h (1 Bft) O-SO 110 ° 0 min 0,000 mm 0,0 UV-I 0 W/m² -8,1 °C -2,8 °C 3,2 km/h (1 Bft)
23.02.2019 21:15 -2,8 °C 68 % 1037,2 hPa 0,0 mm 2,8 km/h (1 Bft) O-SO 110 ° 0 min 0,000 mm 0,0 UV-I 0 W/m² -7,9 °C -2,8 °C 4,8 km/h (1 Bft)
23.02.2019 21:16 -2,8 °C 68 % 1037,2 hPa 0,0 mm 1,8 km/h (1 Bft) O-SO 110 ° 0 min 0,000 mm 0,0 UV-I 0 W/m² -7,9 °C -2,8 °C 3,2 km/h (1 Bft)
23.02.2019 21:17 -2,8 °C 68 % 1037,2 hPa 0,0 mm 1,0 km/h (0 Bft) O-SO 110 ° 0 min 0,000 mm 0,0 UV-I 0 W/m² -7,9 °C -2,8 °C 3,2 km/h (1 Bft)
23.02.2019 21:18 -2,9 °C 68 % 1037,2 hPa 0,0 mm 1,0 km/h (0 Bft) O-SO 110 ° 0 min 0,000 mm 0,0 UV-I 0 W/m² -8,0 °C -2,9 °C 1,6 km/h (1 Bft)
23.02.2019 21:19 -2,9 °C 69 % 1037,2 hPa 0,0 mm 1,4 km/h (1 Bft) O-SO 110 ° 0 min 0,000 mm 0,0 UV-I 0 W/m² -7,8 °C -2,9 °C 3,2 km/h (1 Bft)
23.02.2019 21:20 -2,9 °C 69 % 1037,2 hPa 0,0 mm 0,1 km/h (0 Bft) O-SO 110 ° 0 min 0,000 mm 0,0 UV-I 0 W/m² -7,8 °C -2,9 °C 1,6 km/h (1 Bft)
23.02.2019 21:21 -2,9 °C 69 % 1037,2 hPa 0,0 mm 0,3 km/h (0 Bft) O-SO 110 ° 0 min 0,000 mm 0,0 UV-I 0 W/m² -7,8 °C -2,9 °C 3,2 km/h (1 Bft)
23.02.2019 21:22 -2,9 °C 68 % 1037,3 hPa 0,0 mm 2,4 km/h (1 Bft) O-SO 107 ° 0 min 0,000 mm 0,0 UV-I 0 W/m² -8,0 °C -2,9 °C 4,8 km/h (1 Bft)
23.02.2019 21:23 -2,9 °C 67 % 1037,2 hPa 0,0 mm 0,9 km/h (0 Bft) O-SO 107 ° 0 min 0,000 mm 0,0 UV-I 0 W/m² -8,1 °C -2,9 °C 3,2 km/h (1 Bft)
23.02.2019 21:24 -2,9 °C 68 % 1037,2 hPa 0,0 mm 0,2 km/h (0 Bft) O-SO 107 ° 0 min 0,000 mm 0,0 UV-I 0 W/m² -8,0 °C -2,9 °C 1,6 km/h (1 Bft)
23.02.2019 21:25 -3,0 °C 69 % 1037,2 hPa 0,0 mm 0,0 km/h (0 Bft) O-SO 111 ° 0 min 0,000 mm 0,0 UV-I 0 W/m² -7,9 °C -3,0 °C 0,0 km/h (0 Bft)
23.02.2019 21:26 -3,1 °C 70 % 1037,2 hPa 0,0 mm 0,6 km/h (0 Bft) O-SO 102 ° 0 min 0,000 mm 0,0 UV-I 0 W/m² -7,8 °C -3,1 °C 1,6 km/h (1 Bft)
23.02.2019 21:27 -3,1 °C 70 % 1037,1 hPa 0,0 mm 0,0 km/h (0 Bft) O-SO 102 ° 0 min 0,000 mm 0,0 UV-I 0 W/m² -7,8 °C -3,1 °C 0,0 km/h (0 Bft)
23.02.2019 21:28 -3,1 °C 70 % 1037,1 hPa 0,0 mm 1,0 km/h (0 Bft) O-SO 102 ° 0 min 0,000 mm 0,0 UV-I 0 W/m² -7,8 °C -3,1 °C 3,2 km/h (1 Bft)
23.02.2019 21:29 -3,1 °C 70 % 1037,2 hPa 0,0 mm 0,1 km/h (0 Bft) O-SO 102 ° 0 min 0,000 mm 0,0 UV-I 0 W/m² -7,8 °C -3,1 °C 1,6 km/h (1 Bft)
23.02.2019 21:30 -3,2 °C 70 % 1037,2 hPa 0,0 mm 1,4 km/h (1 Bft) O-SO 102 ° 0 min 0,000 mm 0,0 UV-I 0 W/m² -7,9 °C -3,2 °C 3,2 km/h (1 Bft)
23.02.2019 21:31 -3,2 °C 71 % 1037,2 hPa 0,0 mm 1,4 km/h (1 Bft) O 101 ° 0 min 0,000 mm 0,0 UV-I 0 W/m² -7,7 °C -3,2 °C 3,2 km/h (1 Bft)
23.02.2019 21:32 -3,2 °C 70 % 1037,3 hPa 0,0 mm 3,5 km/h (1 Bft) O-NO 72 ° 0 min 0,000 mm 0,0 UV-I 0 W/m² -7,9 °C -3,2 °C 4,8 km/h (1 Bft)
23.02.2019 21:33 -3,3 °C 71 % 1037,3 hPa 0,0 mm 2,9 km/h (1 Bft) O-NO 69 ° 0 min 0,000 mm 0,0 UV-I 0 W/m² -7,8 °C -3,3 °C 4,8 km/h (1 Bft)
23.02.2019 21:34 -3,3 °C 71 % 1037,3 hPa 0,0 mm 3,2 km/h (1 Bft) O-NO 69 ° 0 min 0,000 mm 0,0 UV-I 0 W/m² -7,8 °C -3,3 °C 6,4 km/h (2 Bft)
23.02.2019 21:35 -3,3 °C 70 % 1037,3 hPa 0,0 mm 3,6 km/h (1 Bft) O-NO 66 ° 0 min 0,000 mm 0,0 UV-I 0 W/m² -8,0 °C -3,3 °C 6,4 km/h (2 Bft)
23.02.2019 21:36 -3,3 °C 70 % 1037,3 hPa 0,0 mm 2,0 km/h (1 Bft) O-NO 66 ° 0 min 0,000 mm 0,0 UV-I 0 W/m² -8,0 °C -3,3 °C 3,2 km/h (1 Bft)
23.02.2019 21:37 -3,4 °C 70 % 1037,3 hPa 0,0 mm 1,1 km/h (1 Bft) O-NO 66 ° 0 min 0,000 mm 0,0 UV-I 0 W/m² -8,1 °C -3,4 °C 3,2 km/h (1 Bft)
23.02.2019 21:38 -3,4 °C 70 % 1037,2 hPa 0,0 mm 0,8 km/h (0 Bft) O-NO 66 ° 0 min 0,000 mm 0,0 UV-I 0 W/m² -8,1 °C -3,4 °C 3,2 km/h (1 Bft)
23.02.2019 21:39 -3,4 °C 70 % 1037,3 hPa 0,0 mm 3,6 km/h (1 Bft) O-NO 66 ° 0 min 0,000 mm 0,0 UV-I 0 W/m² -8,1 °C -3,4 °C 6,4 km/h (2 Bft)
23.02.2019 21:40 -3,5 °C 70 % 1037,3 hPa 0,0 mm 2,9 km/h (1 Bft) O-NO 66 ° 0 min 0,000 mm 0,0 UV-I 0 W/m² -8,2 °C -3,5 °C 4,8 km/h (1 Bft)
23.02.2019 21:41 -3,5 °C 71 % 1037,3 hPa 0,0 mm 4,1 km/h (1 Bft) O-NO 71 ° 0 min 0,000 mm 0,0 UV-I 0 W/m² -8,0 °C -3,5 °C 6,4 km/h (2 Bft)
23.02.2019 21:42 -3,6 °C 71 % 1037,3 hPa 0,0 mm 3,2 km/h (1 Bft) O-NO 71 ° 0 min 0,000 mm 0,0 UV-I 0 W/m² -8,1 °C -3,6 °C 4,8 km/h (1 Bft)
23.02.2019 21:43 -3,6 °C 71 % 1037,3 hPa 0,0 mm 3,4 km/h (1 Bft) O-NO 71 ° 0 min 0,000 mm 0,0 UV-I 0 W/m² -8,1 °C -3,6 °C 4,8 km/h (1 Bft)
23.02.2019 21:44 -3,6 °C 72 % 1037,3 hPa 0,0 mm 2,9 km/h (1 Bft) O-NO 71 ° 0 min 0,000 mm 0,0 UV-I 0 W/m² -7,9 °C -3,6 °C 4,8 km/h (1 Bft)
23.02.2019 21:45 -3,6 °C 72 % 1037,3 hPa 0,0 mm 1,2 km/h (1 Bft) O-NO 71 ° 0 min 0,000 mm 0,0 UV-I 0 W/m² -7,9 °C -3,6 °C 3,2 km/h (1 Bft)
23.02.2019 21:46 -3,6 °C 72 % 1037,3 hPa 0,0 mm 0,7 km/h (0 Bft) O-NO 71 ° 0 min 0,000 mm 0,0 UV-I 0 W/m² -7,9 °C -3,6 °C 1,6 km/h (1 Bft)
23.02.2019 21:47 -3,6 °C 72 % 1037,4 hPa 0,0 mm 0,2 km/h (0 Bft) O-NO 71 ° 0 min 0,000 mm 0,0 UV-I 0 W/m² -7,9 °C -3,6 °C 1,6 km/h (1 Bft)
23.02.2019 21:48 -3,6 °C 73 % 1037,3 hPa 0,0 mm 0,3 km/h (0 Bft) O-NO 71 ° 0 min 0,000 mm 0,0 UV-I 0 W/m² -7,7 °C -3,6 °C 1,6 km/h (1 Bft)
23.02.2019 21:49 -3,4 °C 73 % 1037,3 hPa 0,0 mm 0,3 km/h (0 Bft) O-NO 71 ° 0 min 0,000 mm 0,0 UV-I 0 W/m² -7,5 °C -3,4 °C 1,6 km/h (1 Bft)
23.02.2019 21:50 -3,4 °C 72 % 1037,3 hPa 0,0 mm 0,0 km/h (0 Bft) O-NO 71 ° 0 min 0,000 mm 0,0 UV-I 0 W/m² -7,7 °C -3,4 °C 0,0 km/h (0 Bft)
23.02.2019 21:51 -3,3 °C 72 % 1037,3 hPa 0,0 mm 0,0 km/h (0 Bft) O-NO 71 ° 0 min 0,000 mm 0,0 UV-I 0 W/m² -7,6 °C -3,3 °C 0,0 km/h (0 Bft)
23.02.2019 21:52 -3,3 °C 71 % 1037,4 hPa 0,0 mm 0,9 km/h (0 Bft) O-NO 71 ° 0 min 0,000 mm 0,0 UV-I 0 W/m² -7,8 °C -3,3 °C 3,2 km/h (1 Bft)
23.02.2019 21:53 -3,2 °C 70 % 1037,4 hPa 0,0 mm 0,1 km/h (0 Bft) O-NO 71 ° 0 min 0,000 mm 0,0 UV-I 0 W/m² -7,9 °C -3,2 °C 1,6 km/h (1 Bft)
23.02.2019 21:54 -3,2 °C 70 % 1037,3 hPa 0,0 mm 0,5 km/h (0 Bft) O-NO 71 ° 0 min 0,000 mm 0,0 UV-I 0 W/m² -7,9 °C -3,2 °C 1,6 km/h (1 Bft)
23.02.2019 21:55 -3,2 °C 70 % 1037,3 hPa 0,0 mm 0,1 km/h (0 Bft) O-NO 71 ° 0 min 0,000 mm 0,0 UV-I 0 W/m² -7,9 °C -3,2 °C 1,6 km/h (1 Bft)
23.02.2019 21:56 -3,2 °C 71 % 1037,3 hPa 0,0 mm 0,5 km/h (0 Bft) O-NO 71 ° 0 min 0,000 mm 0,0 UV-I 0 W/m² -7,7 °C -3,2 °C 3,2 km/h (1 Bft)
23.02.2019 21:57 -3,2 °C 70 % 1037,3 hPa 0,0 mm 0,3 km/h (0 Bft) O-NO 71 ° 0 min 0,000 mm 0,0 UV-I 0 W/m² -7,9 °C -3,2 °C 1,6 km/h (1 Bft)
23.02.2019 21:58 -3,2 °C 69 % 1037,3 hPa 0,0 mm 0,1 km/h (0 Bft) O-NO 71 ° 0 min 0,000 mm 0,0 UV-I 0 W/m² -8,1 °C -3,2 °C 1,6 km/h (1 Bft)
23.02.2019 21:59 -3,2 °C 70 % 1037,3 hPa 0,0 mm 1,2 km/h (1 Bft) O-NO 71 ° 0 min 0,000 mm 0,0 UV-I 0 W/m² -7,9 °C -3,2 °C 3,2 km/h (1 Bft)
23.02.2019 22:00 -3,3 °C 70 % 1037,3 hPa 0,0 mm 0,0 km/h (0 Bft) O-NO 71 ° 0 min 0,025 mm 0,0 UV-I 0 W/m² -8,0 °C -3,3 °C 0,0 km/h (0 Bft)
23.02.2019 22:01 -3,3 °C 70 % 1037,3 hPa 0,0 mm 1,9 km/h (1 Bft) O-NO 71 ° 0 min 0,000 mm 0,0 UV-I 0 W/m² -8,0 °C -3,3 °C 4,8 km/h (1 Bft)
23.02.2019 22:02 -3,3 °C 71 % 1037,3 hPa 0,0 mm 0,1 km/h (0 Bft) O-NO 71 ° 0 min 0,000 mm 0,0 UV-I 0 W/m² -7,8 °C -3,3 °C 1,6 km/h (1 Bft)
23.02.2019 22:03 -3,3 °C 71 % 1037,3 hPa 0,0 mm 0,0 km/h (0 Bft) O-NO 71 ° 0 min 0,000 mm 0,0 UV-I 0 W/m² -7,8 °C -3,3 °C 0,0 km/h (0 Bft)
23.02.2019 22:04 -3,3 °C 71 % 1037,3 hPa 0,0 mm 0,0 km/h (0 Bft) O-NO 71 ° 0 min 0,000 mm 0,0 UV-I 0 W/m² -7,8 °C -3,3 °C 0,0 km/h (0 Bft)
23.02.2019 22:05 -3,3 °C 71 % 1037,3 hPa 0,0 mm 0,1 km/h (0 Bft) O-NO 71 ° 0 min 0,000 mm 0,0 UV-I 0 W/m² -7,8 °C -3,3 °C 1,6 km/h (1 Bft)
23.02.2019 22:06 -3,3 °C 71 % 1037,3 hPa 0,0 mm 0,9 km/h (0 Bft) O-NO 71 ° 0 min 0,000 mm 0,0 UV-I 0 W/m² -7,8 °C -3,3 °C 3,2 km/h (1 Bft)
23.02.2019 22:07 -3,3 °C 70 % 1037,3 hPa 0,0 mm 0,0 km/h (0 Bft) O-NO 71 ° 0 min 0,000 mm 0,0 UV-I 0 W/m² -8,0 °C -3,3 °C 0,0 km/h (0 Bft)
23.02.2019 22:08 -3,3 °C 69 % 1037,3 hPa 0,0 mm 0,0 km/h (0 Bft) O-NO 71 ° 0 min 0,000 mm 0,0 UV-I 0 W/m² -8,2 °C -3,3 °C 0,0 km/h (0 Bft)
23.02.2019 22:09 -3,4 °C 69 % 1037,3 hPa 0,0 mm 0,1 km/h (0 Bft) O-NO 71 ° 0 min 0,000 mm 0,0 UV-I 0 W/m² -8,2 °C -3,4 °C 1,6 km/h (1 Bft)
23.02.2019 22:10 -3,4 °C 70 % 1037,3 hPa 0,0 mm 1,3 km/h (1 Bft) O-NO 71 ° 0 min 0,000 mm 0,0 UV-I 0 W/m² -8,1 °C -3,4 °C 3,2 km/h (1 Bft)
23.02.2019 22:11 -3,4 °C 70 % 1037,3 hPa 0,0 mm 0,3 km/h (0 Bft) O-NO 71 ° 0 min 0,000 mm 0,0 UV-I 0 W/m² -8,1 °C -3,4 °C 1,6 km/h (1 Bft)
23.02.2019 22:12 -3,4 °C 71 % 1037,3 hPa 0,0 mm 0,0 km/h (0 Bft) O-NO 71 ° 0 min 0,000 mm 0,0 UV-I 0 W/m² -7,9 °C -3,4 °C 0,0 km/h (0 Bft)
23.02.2019 22:13 -3,5 °C 71 % 1037,4 hPa 0,0 mm 0,0 km/h (0 Bft) O-NO 71 ° 0 min 0,000 mm 0,0 UV-I 0 W/m² -8,0 °C -3,5 °C 0,0 km/h (0 Bft)
23.02.2019 22:14 -3,5 °C 71 % 1037,4 hPa 0,0 mm 0,4 km/h (0 Bft) O-NO 71 ° 0 min 0,000 mm 0,0 UV-I 0 W/m² -8,0 °C -3,5 °C 1,6 km/h (1 Bft)
23.02.2019 22:15 -3,5 °C 71 % 1037,3 hPa 0,0 mm 0,0 km/h (0 Bft) O-NO 71 ° 0 min 0,000 mm 0,0 UV-I 0 W/m² -8,0 °C -3,5 °C 0,0 km/h (0 Bft)
23.02.2019 22:16 -3,5 °C 71 % 1037,3 hPa 0,0 mm 0,0 km/h (0 Bft) O-NO 71 ° 0 min 0,000 mm 0,0 UV-I 0 W/m² -8,0 °C -3,5 °C 0,0 km/h (0 Bft)
23.02.2019 22:17 -3,5 °C 71 % 1037,3 hPa 0,0 mm 0,0 km/h (0 Bft) O-NO 71 ° 0 min 0,000 mm 0,0 UV-I 0 W/m² -8,0 °C -3,5 °C 0,0 km/h (0 Bft)
23.02.2019 22:18 -3,5 °C 72 % 1037,3 hPa 0,0 mm 0,0 km/h (0 Bft) O-NO 71 ° 0 min 0,000 mm 0,0 UV-I 0 W/m² -7,8 °C -3,5 °C 0,0 km/h (0 Bft)
23.02.2019 22:19 -3,6 °C 72 % 1037,2 hPa 0,0 mm 0,0 km/h (0 Bft) O-NO 71 ° 0 min 0,000 mm 0,0 UV-I 0 W/m² -7,9 °C -3,6 °C 0,0 km/h (0 Bft)
23.02.2019 22:20 -3,6 °C 72 % 1037,2 hPa 0,0 mm 2,6 km/h (1 Bft) O-NO 71 ° 0 min 0,000 mm 0,0 UV-I 0 W/m² -7,9 °C -3,6 °C 4,8 km/h (1 Bft)
23.02.2019 22:21 -3,6 °C 71 % 1037,2 hPa 0,0 mm 0,1 km/h (0 Bft) O-NO 71 ° 0 min 0,000 mm 0,0 UV-I 0 W/m² -8,1 °C -3,6 °C 1,6 km/h (1 Bft)
23.02.2019 22:22 -3,7 °C 71 % 1037,2 hPa 0,0 mm 0,0 km/h (0 Bft) O-NO 71 ° 0 min 0,000 mm 0,0 UV-I 0 W/m² -8,2 °C -3,7 °C 0,0 km/h (0 Bft)
23.02.2019 22:23 -3,6 °C 71 % 1037,1 hPa 0,0 mm 0,9 km/h (0 Bft) O-NO 71 ° 0 min 0,000 mm 0,0 UV-I 0 W/m² -8,1 °C -3,6 °C 3,2 km/h (1 Bft)
23.02.2019 22:24 -3,6 °C 72 % 1037,1 hPa 0,0 mm 0,6 km/h (0 Bft) O-NO 71 ° 0 min 0,000 mm 0,0 UV-I 0 W/m² -7,9 °C -3,6 °C 1,6 km/h (1 Bft)
23.02.2019 22:25 -3,6 °C 72 % 1037,1 hPa 0,0 mm 0,0 km/h (0 Bft) O-NO 71 ° 0 min 0,000 mm 0,0 UV-I 0 W/m² -7,9 °C -3,6 °C 0,0 km/h (0 Bft)
23.02.2019 22:26 -3,6 °C 72 % 1037,1 hPa 0,0 mm 0,9 km/h (0 Bft) O-NO 71 ° 0 min 0,000 mm 0,0 UV-I 0 W/m² -7,9 °C -3,6 °C 1,6 km/h (1 Bft)
23.02.2019 22:27 -3,6 °C 72 % 1037,1 hPa 0,0 mm 0,0 km/h (0 Bft) O-NO 71 ° 0 min 0,000 mm 0,0 UV-I 0 W/m² -7,9 °C -3,6 °C 0,0 km/h (0 Bft)
23.02.2019 22:28 -3,6 °C 73 % 1037,1 hPa 0,0 mm 0,0 km/h (0 Bft) O-NO 71 ° 0 min 0,000 mm 0,0 UV-I 0 W/m² -7,7 °C -3,6 °C 0,0 km/h (0 Bft)
23.02.2019 22:29 -3,6 °C 73 % 1037,1 hPa 0,0 mm 0,1 km/h (0 Bft) O-NO 71 ° 0 min 0,000 mm 0,0 UV-I 0 W/m² -7,7 °C -3,6 °C 1,6 km/h (1 Bft)
23.02.2019 22:30 -3,6 °C 72 % 1037,1 hPa 0,0 mm 0,0 km/h (0 Bft) O-NO 71 ° 0 min 0,000 mm 0,0 UV-I 0 W/m² -7,9 °C -3,6 °C 0,0 km/h (0 Bft)
23.02.2019 22:31 -3,6 °C 72 % 1037,1 hPa 0,0 mm 0,0 km/h (0 Bft) O-NO 71 ° 0 min 0,000 mm 0,0 UV-I 0 W/m² -7,9 °C -3,6 °C 0,0 km/h (0 Bft)
23.02.2019 22:32 -3,6 °C 72 % 1037,1 hPa 0,0 mm 0,0 km/h (0 Bft) O-NO 71 ° 0 min 0,000 mm 0,0 UV-I 0 W/m² -7,9 °C -3,6 °C 0,0 km/h (0 Bft)
23.02.2019 22:33 -3,6 °C 72 % 1037,1 hPa 0,0 mm 1,0 km/h (0 Bft) O-NO 71 ° 0 min 0,000 mm 0,0 UV-I 0 W/m² -7,9 °C -3,6 °C 3,2 km/h (1 Bft)
23.02.2019 22:34 -3,6 °C 72 % 1037,0 hPa 0,0 mm 0,3 km/h (0 Bft) O-NO 71 ° 0 min 0,000 mm 0,0 UV-I 0 W/m² -7,9 °C -3,6 °C 1,6 km/h (1 Bft)
23.02.2019 22:35 -3,6 °C 71 % 1037,1 hPa 0,0 mm 0,2 km/h (0 Bft) O-NO 71 ° 0 min 0,000 mm 0,0 UV-I 0 W/m² -8,1 °C -3,6 °C 1,6 km/h (1 Bft)
23.02.2019 22:36 -3,6 °C 72 % 1037,1 hPa 0,0 mm 0,0 km/h (0 Bft) O-NO 71 ° 0 min 0,000 mm 0,0 UV-I 0 W/m² -7,9 °C -3,6 °C 0,0 km/h (0 Bft)
23.02.2019 22:37 -3,6 °C 73 % 1037,1 hPa 0,0 mm 0,0 km/h (0 Bft) O-NO 71 ° 0 min 0,000 mm 0,0 UV-I 0 W/m² -7,7 °C -3,6 °C 0,0 km/h (0 Bft)
23.02.2019 22:38 -3,7 °C 73 % 1037,0 hPa 0,0 mm 0,0 km/h (0 Bft) O-NO 71 ° 0 min 0,000 mm 0,0 UV-I 0 W/m² -7,8 °C -3,7 °C 0,0 km/h (0 Bft)
23.02.2019 22:39 -3,7 °C 73 % 1037,1 hPa 0,0 mm 0,0 km/h (0 Bft) O-NO 71 ° 0 min 0,000 mm 0,0 UV-I 0 W/m² -7,8 °C -3,7 °C 0,0 km/h (0 Bft)
23.02.2019 22:40 -3,7 °C 73 % 1037,1 hPa 0,0 mm 0,0 km/h (0 Bft) O-NO 71 ° 0 min 0,000 mm 0,0 UV-I 0 W/m² -7,8 °C -3,7 °C 0,0 km/h (0 Bft)
23.02.2019 22:41 -3,7 °C 72 % 1037,1 hPa 0,0 mm 0,0 km/h (0 Bft) O-NO 71 ° 0 min 0,000 mm 0,0 UV-I 0 W/m² -8,0 °C -3,7 °C 0,0 km/h (0 Bft)
23.02.2019 22:42 -3,7 °C 73 % 1037,1 hPa 0,0 mm 0,0 km/h (0 Bft) O-NO 71 ° 0 min 0,000 mm 0,0 UV-I 0 W/m² -7,8 °C -3,7 °C 0,0 km/h (0 Bft)
23.02.2019 22:43 -3,7 °C 72 % 1037,1 hPa 0,0 mm 0,0 km/h (0 Bft) O-NO 71 ° 0 min 0,000 mm 0,0 UV-I 0 W/m² -8,0 °C -3,7 °C 0,0 km/h (0 Bft)
23.02.2019 22:44 -3,6 °C 72 % 1037,1 hPa 0,0 mm 0,1 km/h (0 Bft) O-NO 71 ° 0 min 0,000 mm 0,0 UV-I 0 W/m² -7,9 °C -3,6 °C 1,6 km/h (1 Bft)
23.02.2019 22:45 -3,6 °C 72 % 1037,1 hPa 0,0 mm 0,1 km/h (0 Bft) O-NO 71 ° 0 min 0,000 mm 0,0 UV-I 0 W/m² -7,9 °C -3,6 °C 1,6 km/h (1 Bft)
23.02.2019 22:46 -3,7 °C 72 % 1037,1 hPa 0,0 mm 0,0 km/h (0 Bft) O-NO 71 ° 0 min 0,000 mm 0,0 UV-I 0 W/m² -8,0 °C -3,7 °C 0,0 km/h (0 Bft)
23.02.2019 22:47 -3,7 °C 72 % 1037,1 hPa 0,0 mm 0,0 km/h (0 Bft) O-NO 71 ° 0 min 0,000 mm 0,0 UV-I 0 W/m² -8,0 °C -3,7 °C 0,0 km/h (0 Bft)
23.02.2019 22:48 -3,7 °C 72 % 1037,0 hPa 0,0 mm 0,8 km/h (0 Bft) O-NO 72 ° 0 min 0,000 mm 0,0 UV-I 0 W/m² -8,0 °C -3,7 °C 3,2 km/h (1 Bft)
23.02.2019 22:49 -3,7 °C 72 % 1037,1 hPa 0,0 mm 1,2 km/h (1 Bft) O-NO 72 ° 0 min 0,000 mm 0,0 UV-I 0 W/m² -8,0 °C -3,7 °C 3,2 km/h (1 Bft)
23.02.2019 22:50 -3,7 °C 72 % 1037,1 hPa 0,0 mm 0,0 km/h (0 Bft) O-NO 72 ° 0 min 0,000 mm 0,0 UV-I 0 W/m² -8,0 °C -3,7 °C 0,0 km/h (0 Bft)
23.02.2019 22:51 -3,7 °C 72 % 1037,0 hPa 0,0 mm 0,0 km/h (0 Bft) O-NO 72 ° 0 min 0,000 mm 0,0 UV-I 0 W/m² -8,0 °C -3,7 °C 0,0 km/h (0 Bft)
23.02.2019 22:52 -3,8 °C 73 % 1037,1 hPa 0,0 mm 0,4 km/h (0 Bft) O-NO 72 ° 0 min 0,000 mm 0,0 UV-I 0 W/m² -7,9 °C -3,8 °C 1,6 km/h (1 Bft)
23.02.2019 22:53 -3,9 °C 73 % 1037,0 hPa 0,0 mm 0,0 km/h (0 Bft) O-NO 72 ° 0 min 0,000 mm 0,0 UV-I 0 W/m² -8,0 °C -3,9 °C 0,0 km/h (0 Bft)
23.02.2019 22:54 -3,9 °C 74 % 1037,0 hPa 0,0 mm 0,0 km/h (0 Bft) O-NO 72 ° 0 min 0,000 mm 0,0 UV-I 0 W/m² -7,8 °C -3,9 °C 0,0 km/h (0 Bft)
23.02.2019 22:55 -4,0 °C 74 % 1037,0 hPa 0,0 mm 0,0 km/h (0 Bft) O-NO 72 ° 0 min 0,000 mm 0,0 UV-I 0 W/m² -7,9 °C -4,0 °C 0,0 km/h (0 Bft)
23.02.2019 22:56 -3,9 °C 74 % 1037,0 hPa 0,0 mm 1,1 km/h (1 Bft) O-NO 72 ° 0 min 0,000 mm 0,0 UV-I 0 W/m² -7,8 °C -3,9 °C 4,8 km/h (1 Bft)
23.02.2019 22:57 -4,1 °C 75 % 1037,0 hPa 0,0 mm 1,7 km/h (1 Bft) O-NO 72 ° 0 min 0,000 mm 0,0 UV-I 0 W/m² -7,9 °C -4,1 °C 3,2 km/h (1 Bft)
23.02.2019 22:58 -4,1 °C 75 % 1037,1 hPa 0,0 mm 1,5 km/h (1 Bft) O-NO 72 ° 0 min 0,000 mm 0,0 UV-I 0 W/m² -7,9 °C -4,1 °C 4,8 km/h (1 Bft)
23.02.2019 22:59 -4,1 °C 75 % 1037,1 hPa 0,0 mm 3,8 km/h (1 Bft) O-NO 72 ° 0 min 0,000 mm 0,0 UV-I 0 W/m² -7,9 °C -4,1 °C 8,0 km/h (2 Bft)
23.02.2019 23:00 -4,2 °C 75 % 1037,0 hPa 0,0 mm 1,7 km/h (1 Bft) O-NO 72 ° 0 min 0,000 mm 0,0 UV-I 0 W/m² -8,0 °C -4,2 °C 3,2 km/h (1 Bft)
23.02.2019 23:01 -4,2 °C 74 % 1037,0 hPa 0,0 mm 1,7 km/h (1 Bft) O-NO 72 ° 0 min 0,000 mm 0,0 UV-I 0 W/m² -8,1 °C -4,2 °C 4,8 km/h (1 Bft)
23.02.2019 23:02 -4,3 °C 73 % 1037,0 hPa 0,0 mm 0,0 km/h (0 Bft) O-NO 72 ° 0 min 0,000 mm 0,0 UV-I 0 W/m² -8,4 °C -4,3 °C 0,0 km/h (0 Bft)
23.02.2019 23:03 -4,3 °C 73 % 1037,0 hPa 0,0 mm 0,0 km/h (0 Bft) O-NO 72 ° 0 min 0,000 mm 0,0 UV-I 0 W/m² -8,4 °C -4,3 °C 0,0 km/h (0 Bft)
23.02.2019 23:04 -4,3 °C 73 % 1037,0 hPa 0,0 mm 0,3 km/h (0 Bft) O-NO 72 ° 0 min 0,000 mm 0,0 UV-I 0 W/m² -8,4 °C -4,3 °C 1,6 km/h (1 Bft)
23.02.2019 23:05 -4,3 °C 73 % 1037,0 hPa 0,0 mm 0,0 km/h (0 Bft) O-NO 72 ° 0 min 0,000 mm 0,0 UV-I 0 W/m² -8,4 °C -4,3 °C 0,0 km/h (0 Bft)
23.02.2019 23:06 -4,3 °C 74 % 1037,0 hPa 0,0 mm 0,0 km/h (0 Bft) O-NO 72 ° 0 min 0,000 mm 0,0 UV-I 0 W/m² -8,2 °C -4,3 °C 0,0 km/h (0 Bft)
23.02.2019 23:07 -4,2 °C 74 % 1037,0 hPa 0,0 mm 0,0 km/h (0 Bft) O-NO 72 ° 0 min 0,000 mm 0,0 UV-I 0 W/m² -8,1 °C -4,2 °C 0,0 km/h (0 Bft)
23.02.2019 23:08 -4,2 °C 74 % 1037,0 hPa 0,0 mm 0,0 km/h (0 Bft) O-NO 72 ° 0 min 0,000 mm 0,0 UV-I 0 W/m² -8,1 °C -4,2 °C 0,0 km/h (0 Bft)
23.02.2019 23:09 -4,1 °C 75 % 1037,0 hPa 0,0 mm 0,0 km/h (0 Bft) O-NO 72 ° 0 min 0,000 mm 0,0 UV-I 0 W/m² -7,9 °C -4,1 °C 0,0 km/h (0 Bft)
23.02.2019 23:10 -4,1 °C 75 % 1037,1 hPa 0,0 mm 0,0 km/h (0 Bft) O-NO 72 ° 0 min 0,000 mm 0,0 UV-I 0 W/m² -7,9 °C -4,1 °C 0,0 km/h (0 Bft)
23.02.2019 23:11 -4,1 °C 75 % 1037,0 hPa 0,0 mm 0,0 km/h (0 Bft) O-NO 72 ° 0 min 0,000 mm 0,0 UV-I 0 W/m² -7,9 °C -4,1 °C 0,0 km/h (0 Bft)
23.02.2019 23:12 -4,0 °C 75 % 1037,0 hPa 0,0 mm 0,0 km/h (0 Bft) O-NO 72 ° 0 min 0,000 mm 0,0 UV-I 0 W/m² -7,8 °C -4,0 °C 0,0 km/h (0 Bft)
23.02.2019 23:13 -4,1 °C 74 % 1037,0 hPa 0,0 mm 0,0 km/h (0 Bft) O-NO 72 ° 0 min 0,000 mm 0,0 UV-I 0 W/m² -8,0 °C -4,1 °C 0,0 km/h (0 Bft)
23.02.2019 23:14 -4,1 °C 73 % 1037,0 hPa 0,0 mm 0,0 km/h (0 Bft) O-NO 72 ° 0 min 0,000 mm 0,0 UV-I 0 W/m² -8,2 °C -4,1 °C 0,0 km/h (0 Bft)
23.02.2019 23:15 -4,1 °C 73 % 1037,0 hPa 0,0 mm 0,0 km/h (0 Bft) O-NO 72 ° 0 min 0,000 mm 0,0 UV-I 0 W/m² -8,2 °C -4,1 °C 0,0 km/h (0 Bft)
23.02.2019 23:16 -4,1 °C 74 % 1037,0 hPa 0,0 mm 0,0 km/h (0 Bft) O-NO 72 ° 0 min 0,000 mm 0,0 UV-I 0 W/m² -8,0 °C -4,1 °C 0,0 km/h (0 Bft)
23.02.2019 23:17 -4,1 °C 74 % 1037,0 hPa 0,0 mm 0,7 km/h (0 Bft) O-NO 72 ° 0 min 0,000 mm 0,0 UV-I 0 W/m² -8,0 °C -4,1 °C 1,6 km/h (1 Bft)
23.02.2019 23:18 -4,0 °C 74 % 1037,0 hPa 0,0 mm 0,0 km/h (0 Bft) O-NO 72 ° 0 min 0,000 mm 0,0 UV-I 0 W/m² -7,9 °C -4,0 °C 0,0 km/h (0 Bft)
23.02.2019 23:19 -4,0 °C 74 % 1037,0 hPa 0,0 mm 0,0 km/h (0 Bft) O-NO 72 ° 0 min 0,000 mm 0,0 UV-I 0 W/m² -7,9 °C -4,0 °C 0,0 km/h (0 Bft)
23.02.2019 23:20 -4,0 °C 74 % 1037,0 hPa 0,0 mm 0,0 km/h (0 Bft) O-NO 72 ° 0 min 0,000 mm 0,0 UV-I 0 W/m² -7,9 °C -4,0 °C 0,0 km/h (0 Bft)
23.02.2019 23:21 -4,0 °C 74 % 1037,1 hPa 0,0 mm 0,1 km/h (0 Bft) O-NO 72 ° 0 min 0,000 mm 0,0 UV-I 0 W/m² -7,9 °C -4,0 °C 1,6 km/h (1 Bft)
23.02.2019 23:22 -4,0 °C 74 % 1037,1 hPa 0,0 mm 0,0 km/h (0 Bft) O-NO 72 ° 0 min 0,000 mm 0,0 UV-I 0 W/m² -7,9 °C -4,0 °C 0,0 km/h (0 Bft)
23.02.2019 23:23 -4,1 °C 75 % 1037,1 hPa 0,0 mm 0,0 km/h (0 Bft) O-NO 72 ° 0 min 0,000 mm 0,0 UV-I 0 W/m² -7,9 °C -4,1 °C 0,0 km/h (0 Bft)
23.02.2019 23:24 -4,1 °C 74 % 1037,1 hPa 0,0 mm 0,5 km/h (0 Bft) O-NO 72 ° 0 min 0,000 mm 0,0 UV-I 0 W/m² -8,0 °C -4,1 °C 1,6 km/h (1 Bft)
23.02.2019 23:25 -4,2 °C 74 % 1037,1 hPa 0,0 mm 0,0 km/h (0 Bft) O-NO 72 ° 0 min 0,000 mm 0,0 UV-I 0 W/m² -8,1 °C -4,2 °C 0,0 km/h (0 Bft)
23.02.2019 23:26 -4,3 °C 73 % 1037,2 hPa 0,0 mm 0,0 km/h (0 Bft) O-NO 72 ° 0 min 0,000 mm 0,0 UV-I 0 W/m² -8,4 °C -4,3 °C 0,0 km/h (0 Bft)
23.02.2019 23:27 -4,3 °C 73 % 1037,2 hPa 0,0 mm 0,0 km/h (0 Bft) O-NO 72 ° 0 min 0,000 mm 0,0 UV-I 0 W/m² -8,4 °C -4,3 °C 0,0 km/h (0 Bft)
23.02.2019 23:28 -4,3 °C 74 % 1037,2 hPa 0,0 mm 0,0 km/h (0 Bft) O-NO 72 ° 0 min 0,000 mm 0,0 UV-I 0 W/m² -8,2 °C -4,3 °C 0,0 km/h (0 Bft)
23.02.2019 23:29 -4,3 °C 75 % 1037,2 hPa 0,0 mm 0,0 km/h (0 Bft) O-NO 72 ° 0 min 0,000 mm 0,0 UV-I 0 W/m² -8,0 °C -4,3 °C 0,0 km/h (0 Bft)
23.02.2019 23:30 -4,3 °C 75 % 1037,2 hPa 0,0 mm 0,0 km/h (0 Bft) O-NO 72 ° 0 min 0,000 mm 0,0 UV-I 0 W/m² -8,0 °C -4,3 °C 0,0 km/h (0 Bft)
23.02.2019 23:31 -4,3 °C 75 % 1037,2 hPa 0,0 mm 0,0 km/h (0 Bft) O-NO 72 ° 0 min 0,000 mm 0,0 UV-I 0 W/m² -8,0 °C -4,3 °C 0,0 km/h (0 Bft)
23.02.2019 23:32 -4,4 °C 75 % 1037,1 hPa 0,0 mm 0,0 km/h (0 Bft) O-NO 72 ° 0 min 0,000 mm 0,0 UV-I 0 W/m² -8,1 °C -4,4 °C 0,0 km/h (0 Bft)
23.02.2019 23:33 -4,4 °C 74 % 1037,2 hPa 0,0 mm 0,0 km/h (0 Bft) O-NO 72 ° 0 min 0,000 mm 0,0 UV-I 0 W/m² -8,3 °C -4,4 °C 0,0 km/h (0 Bft)
23.02.2019 23:34 -4,4 °C 74 % 1037,1 hPa 0,0 mm 0,0 km/h (0 Bft) O-NO 72 ° 0 min 0,000 mm 0,0 UV-I 0 W/m² -8,3 °C -4,4 °C 0,0 km/h (0 Bft)
23.02.2019 23:35 -4,4 °C 74 % 1037,1 hPa 0,0 mm 0,0 km/h (0 Bft) O-NO 72 ° 0 min 0,000 mm 0,0 UV-I 0 W/m² -8,3 °C -4,4 °C 0,0 km/h (0 Bft)
23.02.2019 23:36 -4,5 °C 74 % 1037,1 hPa 0,0 mm 0,0 km/h (0 Bft) O-NO 72 ° 0 min 0,000 mm 0,0 UV-I 0 W/m² -8,4 °C -4,5 °C 0,0 km/h (0 Bft)
23.02.2019 23:37 -4,5 °C 74 % 1037,1 hPa 0,0 mm 0,1 km/h (0 Bft) O-NO 72 ° 0 min 0,000 mm 0,0 UV-I 0 W/m² -8,4 °C -4,5 °C 1,6 km/h (1 Bft)
23.02.2019 23:38 -4,6 °C 74 % 1037,1 hPa 0,0 mm 0,0 km/h (0 Bft) O-NO 72 ° 0 min 0,000 mm 0,0 UV-I 0 W/m² -8,5 °C -4,6 °C 0,0 km/h (0 Bft)
23.02.2019 23:39 -4,5 °C 74 % 1037,2 hPa 0,0 mm 0,0 km/h (0 Bft) O-NO 72 ° 0 min 0,000 mm 0,0 UV-I 0 W/m² -8,4 °C -4,5 °C 0,0 km/h (0 Bft)
23.02.2019 23:40 -4,4 °C 76 % 1037,1 hPa 0,0 mm 0,0 km/h (0 Bft) O-NO 72 ° 0 min 0,000 mm 0,0 UV-I 0 W/m² -8,0 °C -4,4 °C 0,0 km/h (0 Bft)
23.02.2019 23:41 -4,3 °C 76 % 1037,1 hPa 0,0 mm 0,0 km/h (0 Bft) O-NO 72 ° 0 min 0,000 mm 0,0 UV-I 0 W/m² -7,9 °C -4,3 °C 0,0 km/h (0 Bft)
23.02.2019 23:42 -4,3 °C 76 % 1037,1 hPa 0,0 mm 0,0 km/h (0 Bft) O-NO 72 ° 0 min 0,000 mm 0,0 UV-I 0 W/m² -7,9 °C -4,3 °C 0,0 km/h (0 Bft)
23.02.2019 23:43 -4,3 °C 76 % 1037,1 hPa 0,0 mm 0,0 km/h (0 Bft) O-NO 72 ° 0 min 0,000 mm 0,0 UV-I 0 W/m² -7,9 °C -4,3 °C 0,0 km/h (0 Bft)
23.02.2019 23:44 -4,3 °C 75 % 1037,1 hPa 0,0 mm 0,0 km/h (0 Bft) O-NO 72 ° 0 min 0,000 mm 0,0 UV-I 0 W/m² -8,0 °C -4,3 °C 0,0 km/h (0 Bft)
23.02.2019 23:45 -4,3 °C 75 % 1037,0 hPa 0,0 mm 0,0 km/h (0 Bft) O-NO 72 ° 0 min 0,000 mm 0,0 UV-I 0 W/m² -8,0 °C -4,3 °C 0,0 km/h (0 Bft)
23.02.2019 23:46 -4,2 °C 76 % 1037,1 hPa 0,0 mm 0,0 km/h (0 Bft) O-NO 72 ° 0 min 0,000 mm 0,0 UV-I 0 W/m² -7,8 °C -4,2 °C 0,0 km/h (0 Bft)
23.02.2019 23:47 -4,2 °C 75 % 1037,1 hPa 0,0 mm 0,0 km/h (0 Bft) O-NO 72 ° 0 min 0,000 mm 0,0 UV-I 0 W/m² -8,0 °C -4,2 °C 0,0 km/h (0 Bft)
23.02.2019 23:48 -4,2 °C 76 % 1037,1 hPa 0,0 mm 0,0 km/h (0 Bft) O-NO 72 ° 0 min 0,000 mm 0,0 UV-I 0 W/m² -7,8 °C -4,2 °C 0,0 km/h (0 Bft)
23.02.2019 23:49 -4,2 °C 75 % 1037,1 hPa 0,0 mm 0,0 km/h (0 Bft) O-NO 72 ° 0 min 0,000 mm 0,0 UV-I 0 W/m² -8,0 °C -4,2 °C 0,0 km/h (0 Bft)
23.02.2019 23:50 -4,2 °C 76 % 1037,1 hPa 0,0 mm 0,0 km/h (0 Bft) O-NO 72 ° 0 min 0,000 mm 0,0 UV-I 0 W/m² -7,8 °C -4,2 °C 0,0 km/h (0 Bft)
23.02.2019 23:51 -4,2 °C 76 % 1037,1 hPa 0,0 mm 0,0 km/h (0 Bft) O-NO 72 ° 0 min 0,000 mm 0,0 UV-I 0 W/m² -7,8 °C -4,2 °C 0,0 km/h (0 Bft)
23.02.2019 23:52 -4,2 °C 75 % 1037,1 hPa 0,0 mm 0,0 km/h (0 Bft) O-NO 72 ° 0 min 0,000 mm 0,0 UV-I 0 W/m² -8,0 °C -4,2 °C 0,0 km/h (0 Bft)
23.02.2019 23:53 -4,2 °C 75 % 1037,1 hPa 0,0 mm 0,0 km/h (0 Bft) O-NO 72 ° 0 min 0,000 mm 0,0 UV-I 0 W/m² -8,0 °C -4,2 °C 0,0 km/h (0 Bft)
23.02.2019 23:54 -4,2 °C 75 % 1037,1 hPa 0,0 mm 0,0 km/h (0 Bft) O-NO 72 ° 0 min 0,000 mm 0,0 UV-I 0 W/m² -8,0 °C -4,2 °C 0,0 km/h (0 Bft)
23.02.2019 23:55 -4,2 °C 75 % 1037,2 hPa 0,0 mm 0,0 km/h (0 Bft) O-NO 72 ° 0 min 0,000 mm 0,0 UV-I 0 W/m² -8,0 °C -4,2 °C 0,0 km/h (0 Bft)
23.02.2019 23:56 -4,3 °C 75 % 1037,3 hPa 0,0 mm 0,0 km/h (0 Bft) O-NO 72 ° 0 min 0,000 mm 0,0 UV-I 0 W/m² -8,0 °C -4,3 °C 0,0 km/h (0 Bft)
23.02.2019 23:57 -4,4 °C 75 % 1037,4 hPa 0,0 mm 0,0 km/h (0 Bft) O-NO 72 ° 0 min 0,000 mm 0,0 UV-I 0 W/m² -8,1 °C -4,4 °C 0,0 km/h (0 Bft)
23.02.2019 23:58 -4,5 °C 76 % 1037,4 hPa 0,0 mm 0,0 km/h (0 Bft) O-NO 72 ° 0 min 0,000 mm 0,0 UV-I 0 W/m² -8,1 °C -4,5 °C 0,0 km/h (0 Bft)
23.02.2019 23:59 -4,6 °C 76 % 1037,4 hPa 0,0 mm 0,0 km/h (0 Bft) O-NO 72 ° 0 min 0,000 mm 0,0 UV-I 0 W/m² -8,2 °C -4,6 °C 0,0 km/h (0 Bft)
_ Min-Zeit 23:59 19:58 16:16 - 23:59 - - - - - - 23:38 11:48 23:59
Minimum _ -4,6 °C 63 % 1035,3 hPa - 0,0 km/h (0 Bft) - - - - - - -8,5 °C -5,0 °C 0,0 km/h (0 Bft)
_ Max-Zeit 15:15 12:26 12:17 23:59 15:12 - - 23:59 14:01 12:48 13:08 00:15 14:59 14:04
Maximum _ 2,6 °C 96 % 1037,7 hPa 0,0 mm 17,0 km/h
O-NO (3 Bft)
- - 0 min 0,203 mm 3,0 UV-I 564 W/m² 1,6 °C 2,4 °C 25,7 km/h
O (4 Bft)
Durchschnitt _ -0,1 °C 85 % 1036,5 hPa #0,0 mm 4,2 km/h (1 Bft) O-NO - #0 min. #0,889 mm 1,7 UV-I 87 W/m² -2,3 °C -1,1 °C 7,4 km/h (2 Bft)